<?xml version="1.0" encoding="UTF-8" standalone="no" ?>
<gpx xmlns="http://www.topografix.com/GPX/1/1" xmlns:xsi="http://www.w3.org/2001/XMLSchema-instance" xsi:schemaLocation="http://www.topografix.com/GPX/1/1 http://www.topografix.com/GPX/1/1/gpx.xsd" version="1.1" creator="VisuGPX - https://www.visugpx.com">
  <metadata>
    <name>Séguret : Lancieu - Pas de l'Aigle - Crête de St-Amand - Pas du Loup</name>
    <desc><![CDATA[Boucle de niveau moyen effectuée le 26 octobre 2019]]></desc>
  </metadata>
  <trk>
    <name><![CDATA[2019-10-26 10:58:52 nettoyé]]></name>
    <trkseg>
      <trkpt lat="44.20802" lon="5.0243">
        <ele>241</ele>
        <time>2019-10-26T06:04:04Z</time>
      </trkpt>
      <trkpt lat="44.20801" lon="5.02431">
        <ele>241</ele>
        <time>2019-10-26T06:04:24Z</time>
      </trkpt>
      <trkpt lat="44.20801" lon="5.02429">
        <ele>241</ele>
        <time>2019-10-26T06:04:35Z</time>
      </trkpt>
      <trkpt lat="44.208" lon="5.02431">
        <ele>240</ele>
        <time>2019-10-26T06:04:50Z</time>
      </trkpt>
      <trkpt lat="44.20799" lon="5.02427">
        <ele>240</ele>
        <time>2019-10-26T06:05:03Z</time>
      </trkpt>
      <trkpt lat="44.20795" lon="5.02421">
        <ele>239</ele>
        <time>2019-10-26T06:05:13Z</time>
      </trkpt>
      <trkpt lat="44.20781" lon="5.02417">
        <ele>234</ele>
        <time>2019-10-26T06:05:26Z</time>
      </trkpt>
      <trkpt lat="44.2077" lon="5.02401">
        <ele>235</ele>
        <time>2019-10-26T06:05:38Z</time>
      </trkpt>
      <trkpt lat="44.20761" lon="5.0238">
        <ele>234</ele>
        <time>2019-10-26T06:05:50Z</time>
      </trkpt>
      <trkpt lat="44.20748" lon="5.02359">
        <ele>231</ele>
        <time>2019-10-26T06:06:03Z</time>
      </trkpt>
      <trkpt lat="44.20737" lon="5.02343">
        <ele>233</ele>
        <time>2019-10-26T06:06:15Z</time>
      </trkpt>
      <trkpt lat="44.20719" lon="5.02326">
        <ele>234</ele>
        <time>2019-10-26T06:06:29Z</time>
      </trkpt>
      <trkpt lat="44.20702" lon="5.0231">
        <ele>237</ele>
        <time>2019-10-26T06:06:43Z</time>
      </trkpt>
      <trkpt lat="44.20687" lon="5.02294">
        <ele>238</ele>
        <time>2019-10-26T06:06:55Z</time>
      </trkpt>
      <trkpt lat="44.20668" lon="5.02274">
        <ele>239</ele>
        <time>2019-10-26T06:07:10Z</time>
      </trkpt>
      <trkpt lat="44.20656" lon="5.02265">
        <ele>238</ele>
        <time>2019-10-26T06:07:17Z</time>
      </trkpt>
      <trkpt lat="44.20654" lon="5.02264">
        <ele>239</ele>
        <time>2019-10-26T06:07:18Z</time>
      </trkpt>
      <trkpt lat="44.20642" lon="5.02264">
        <ele>241</ele>
        <time>2019-10-26T06:07:24Z</time>
      </trkpt>
      <trkpt lat="44.2064" lon="5.02263">
        <ele>241</ele>
        <time>2019-10-26T06:07:25Z</time>
      </trkpt>
      <trkpt lat="44.20626" lon="5.02262">
        <ele>240</ele>
        <time>2019-10-26T06:07:35Z</time>
      </trkpt>
      <trkpt lat="44.20624" lon="5.02269">
        <ele>243</ele>
        <time>2019-10-26T06:07:51Z</time>
      </trkpt>
      <trkpt lat="44.20623" lon="5.02273">
        <ele>244</ele>
        <time>2019-10-26T06:08:08Z</time>
      </trkpt>
      <trkpt lat="44.20615" lon="5.02274">
        <ele>244</ele>
        <time>2019-10-26T06:08:16Z</time>
      </trkpt>
      <trkpt lat="44.20614" lon="5.02274">
        <ele>245</ele>
        <time>2019-10-26T06:08:17Z</time>
      </trkpt>
      <trkpt lat="44.20613" lon="5.02274">
        <ele>245</ele>
        <time>2019-10-26T06:08:18Z</time>
      </trkpt>
      <trkpt lat="44.2061" lon="5.02272">
        <ele>243</ele>
        <time>2019-10-26T06:08:21Z</time>
      </trkpt>
      <trkpt lat="44.20609" lon="5.02273">
        <ele>244</ele>
        <time>2019-10-26T06:08:27Z</time>
      </trkpt>
      <trkpt lat="44.20602" lon="5.02276">
        <ele>244</ele>
        <time>2019-10-26T06:08:31Z</time>
      </trkpt>
      <trkpt lat="44.20571" lon="5.02292">
        <ele>246</ele>
        <time>2019-10-26T06:08:41Z</time>
      </trkpt>
      <trkpt lat="44.2055" lon="5.02286">
        <ele>241</ele>
        <time>2019-10-26T06:08:50Z</time>
      </trkpt>
      <trkpt lat="44.20529" lon="5.02286">
        <ele>240</ele>
        <time>2019-10-26T06:08:59Z</time>
      </trkpt>
      <trkpt lat="44.20512" lon="5.02289">
        <ele>240</ele>
        <time>2019-10-26T06:09:07Z</time>
      </trkpt>
      <trkpt lat="44.20491" lon="5.02295">
        <ele>242</ele>
        <time>2019-10-26T06:09:17Z</time>
      </trkpt>
      <trkpt lat="44.20472" lon="5.02297">
        <ele>241</ele>
        <time>2019-10-26T06:09:26Z</time>
      </trkpt>
      <trkpt lat="44.20452" lon="5.02301">
        <ele>241</ele>
        <time>2019-10-26T06:09:36Z</time>
      </trkpt>
      <trkpt lat="44.2043" lon="5.02303">
        <ele>237</ele>
        <time>2019-10-26T06:09:45Z</time>
      </trkpt>
      <trkpt lat="44.20412" lon="5.02316">
        <ele>235</ele>
        <time>2019-10-26T06:09:54Z</time>
      </trkpt>
      <trkpt lat="44.20401" lon="5.02335">
        <ele>234</ele>
        <time>2019-10-26T06:10:02Z</time>
      </trkpt>
      <trkpt lat="44.20395" lon="5.02359">
        <ele>235</ele>
        <time>2019-10-26T06:10:11Z</time>
      </trkpt>
      <trkpt lat="44.20388" lon="5.02385">
        <ele>235</ele>
        <time>2019-10-26T06:10:21Z</time>
      </trkpt>
      <trkpt lat="44.20384" lon="5.02403">
        <ele>235</ele>
        <time>2019-10-26T06:10:28Z</time>
      </trkpt>
      <trkpt lat="44.20382" lon="5.02407">
        <ele>234</ele>
        <time>2019-10-26T06:10:30Z</time>
      </trkpt>
      <trkpt lat="44.2038" lon="5.02408">
        <ele>234</ele>
        <time>2019-10-26T06:10:31Z</time>
      </trkpt>
      <trkpt lat="44.20363" lon="5.02407">
        <ele>229</ele>
        <time>2019-10-26T06:10:39Z</time>
      </trkpt>
      <trkpt lat="44.20343" lon="5.02403">
        <ele>224</ele>
        <time>2019-10-26T06:10:48Z</time>
      </trkpt>
      <trkpt lat="44.20324" lon="5.024">
        <ele>220</ele>
        <time>2019-10-26T06:10:56Z</time>
      </trkpt>
      <trkpt lat="44.20307" lon="5.02398">
        <ele>217</ele>
        <time>2019-10-26T06:11:04Z</time>
      </trkpt>
      <trkpt lat="44.20287" lon="5.02403">
        <ele>215</ele>
        <time>2019-10-26T06:11:13Z</time>
      </trkpt>
      <trkpt lat="44.2027" lon="5.02398">
        <ele>217</ele>
        <time>2019-10-26T06:11:22Z</time>
      </trkpt>
      <trkpt lat="44.20268" lon="5.02396">
        <ele>217</ele>
        <time>2019-10-26T06:11:23Z</time>
      </trkpt>
      <trkpt lat="44.20267" lon="5.02393">
        <ele>217</ele>
        <time>2019-10-26T06:11:24Z</time>
      </trkpt>
      <trkpt lat="44.20266" lon="5.02391">
        <ele>217</ele>
        <time>2019-10-26T06:11:25Z</time>
      </trkpt>
      <trkpt lat="44.20265" lon="5.02389">
        <ele>217</ele>
        <time>2019-10-26T06:11:26Z</time>
      </trkpt>
      <trkpt lat="44.20263" lon="5.02386">
        <ele>217</ele>
        <time>2019-10-26T06:11:27Z</time>
      </trkpt>
      <trkpt lat="44.20262" lon="5.02384">
        <ele>217</ele>
        <time>2019-10-26T06:11:28Z</time>
      </trkpt>
      <trkpt lat="44.20261" lon="5.02382">
        <ele>217</ele>
        <time>2019-10-26T06:11:29Z</time>
      </trkpt>
      <trkpt lat="44.2026" lon="5.0238">
        <ele>217</ele>
        <time>2019-10-26T06:11:30Z</time>
      </trkpt>
      <trkpt lat="44.20252" lon="5.02364">
        <ele>215</ele>
        <time>2019-10-26T06:11:38Z</time>
      </trkpt>
      <trkpt lat="44.20234" lon="5.02348">
        <ele>217</ele>
        <time>2019-10-26T06:11:48Z</time>
      </trkpt>
      <trkpt lat="44.20224" lon="5.02349">
        <ele>220</ele>
        <time>2019-10-26T06:11:54Z</time>
      </trkpt>
      <trkpt lat="44.202" lon="5.02359">
        <ele>226</ele>
        <time>2019-10-26T06:12:08Z</time>
      </trkpt>
      <trkpt lat="44.20183" lon="5.02365">
        <ele>228</ele>
        <time>2019-10-26T06:12:20Z</time>
      </trkpt>
      <trkpt lat="44.20164" lon="5.02368">
        <ele>229</ele>
        <time>2019-10-26T06:12:32Z</time>
      </trkpt>
      <trkpt lat="44.20141" lon="5.02369">
        <ele>230</ele>
        <time>2019-10-26T06:12:47Z</time>
      </trkpt>
      <trkpt lat="44.20121" lon="5.02368">
        <ele>231</ele>
        <time>2019-10-26T06:12:58Z</time>
      </trkpt>
      <trkpt lat="44.20103" lon="5.02365">
        <ele>231</ele>
        <time>2019-10-26T06:13:07Z</time>
      </trkpt>
      <trkpt lat="44.20102" lon="5.02364">
        <ele>231</ele>
        <time>2019-10-26T06:13:08Z</time>
      </trkpt>
      <trkpt lat="44.20095" lon="5.02361">
        <ele>231</ele>
        <time>2019-10-26T06:13:12Z</time>
      </trkpt>
      <trkpt lat="44.20091" lon="5.02361">
        <ele>231</ele>
        <time>2019-10-26T06:13:21Z</time>
      </trkpt>
      <trkpt lat="44.20089" lon="5.02361">
        <ele>231</ele>
        <time>2019-10-26T06:13:40Z</time>
      </trkpt>
      <trkpt lat="44.20087" lon="5.02359">
        <ele>231</ele>
        <time>2019-10-26T06:13:48Z</time>
      </trkpt>
      <trkpt lat="44.20086" lon="5.02358">
        <ele>231</ele>
        <time>2019-10-26T06:13:49Z</time>
      </trkpt>
      <trkpt lat="44.20084" lon="5.02357">
        <ele>231</ele>
        <time>2019-10-26T06:13:50Z</time>
      </trkpt>
      <trkpt lat="44.20069" lon="5.0235">
        <ele>231</ele>
        <time>2019-10-26T06:13:58Z</time>
      </trkpt>
      <trkpt lat="44.20063" lon="5.02348">
        <ele>231</ele>
        <time>2019-10-26T06:14:01Z</time>
      </trkpt>
      <trkpt lat="44.20061" lon="5.02347">
        <ele>231</ele>
        <time>2019-10-26T06:14:02Z</time>
      </trkpt>
      <trkpt lat="44.20059" lon="5.02346">
        <ele>231</ele>
        <time>2019-10-26T06:14:03Z</time>
      </trkpt>
      <trkpt lat="44.20041" lon="5.02336">
        <ele>230</ele>
        <time>2019-10-26T06:14:11Z</time>
      </trkpt>
      <trkpt lat="44.20026" lon="5.02326">
        <ele>229</ele>
        <time>2019-10-26T06:14:18Z</time>
      </trkpt>
      <trkpt lat="44.20011" lon="5.02319">
        <ele>229</ele>
        <time>2019-10-26T06:14:25Z</time>
      </trkpt>
      <trkpt lat="44.20004" lon="5.02316">
        <ele>229</ele>
        <time>2019-10-26T06:14:28Z</time>
      </trkpt>
      <trkpt lat="44.20001" lon="5.02315">
        <ele>229</ele>
        <time>2019-10-26T06:14:29Z</time>
      </trkpt>
      <trkpt lat="44.19999" lon="5.02314">
        <ele>229</ele>
        <time>2019-10-26T06:14:30Z</time>
      </trkpt>
      <trkpt lat="44.19997" lon="5.02313">
        <ele>229</ele>
        <time>2019-10-26T06:14:31Z</time>
      </trkpt>
      <trkpt lat="44.19994" lon="5.02312">
        <ele>229</ele>
        <time>2019-10-26T06:14:32Z</time>
      </trkpt>
      <trkpt lat="44.19972" lon="5.02303">
        <ele>229</ele>
        <time>2019-10-26T06:14:41Z</time>
      </trkpt>
      <trkpt lat="44.19951" lon="5.02298">
        <ele>230</ele>
        <time>2019-10-26T06:14:50Z</time>
      </trkpt>
      <trkpt lat="44.19935" lon="5.02299">
        <ele>230</ele>
        <time>2019-10-26T06:14:57Z</time>
      </trkpt>
      <trkpt lat="44.19914" lon="5.02298">
        <ele>231</ele>
        <time>2019-10-26T06:15:06Z</time>
      </trkpt>
      <trkpt lat="44.19903" lon="5.02298">
        <ele>231</ele>
        <time>2019-10-26T06:15:11Z</time>
      </trkpt>
      <trkpt lat="44.19886" lon="5.02302">
        <ele>233</ele>
        <time>2019-10-26T06:15:19Z</time>
      </trkpt>
      <trkpt lat="44.1987" lon="5.02309">
        <ele>233</ele>
        <time>2019-10-26T06:15:27Z</time>
      </trkpt>
      <trkpt lat="44.19866" lon="5.02311">
        <ele>234</ele>
        <time>2019-10-26T06:15:29Z</time>
      </trkpt>
      <trkpt lat="44.19864" lon="5.02312">
        <ele>234</ele>
        <time>2019-10-26T06:15:30Z</time>
      </trkpt>
      <trkpt lat="44.19863" lon="5.02313">
        <ele>234</ele>
        <time>2019-10-26T06:15:31Z</time>
      </trkpt>
      <trkpt lat="44.19861" lon="5.02313">
        <ele>234</ele>
        <time>2019-10-26T06:15:32Z</time>
      </trkpt>
      <trkpt lat="44.19858" lon="5.02314">
        <ele>234</ele>
        <time>2019-10-26T06:15:33Z</time>
      </trkpt>
      <trkpt lat="44.19857" lon="5.02314">
        <ele>234</ele>
        <time>2019-10-26T06:15:34Z</time>
      </trkpt>
      <trkpt lat="44.19854" lon="5.02314">
        <ele>234</ele>
        <time>2019-10-26T06:15:35Z</time>
      </trkpt>
      <trkpt lat="44.19852" lon="5.02314">
        <ele>234</ele>
        <time>2019-10-26T06:15:36Z</time>
      </trkpt>
      <trkpt lat="44.1985" lon="5.02314">
        <ele>234</ele>
        <time>2019-10-26T06:15:37Z</time>
      </trkpt>
      <trkpt lat="44.19848" lon="5.02314">
        <ele>234</ele>
        <time>2019-10-26T06:15:38Z</time>
      </trkpt>
      <trkpt lat="44.19846" lon="5.02314">
        <ele>234</ele>
        <time>2019-10-26T06:15:39Z</time>
      </trkpt>
      <trkpt lat="44.19844" lon="5.02314">
        <ele>234</ele>
        <time>2019-10-26T06:15:40Z</time>
      </trkpt>
      <trkpt lat="44.19842" lon="5.02314">
        <ele>234</ele>
        <time>2019-10-26T06:15:41Z</time>
      </trkpt>
      <trkpt lat="44.19822" lon="5.02316">
        <ele>234</ele>
        <time>2019-10-26T06:15:50Z</time>
      </trkpt>
      <trkpt lat="44.19802" lon="5.02317">
        <ele>234</ele>
        <time>2019-10-26T06:15:58Z</time>
      </trkpt>
      <trkpt lat="44.19783" lon="5.02319">
        <ele>233</ele>
        <time>2019-10-26T06:16:06Z</time>
      </trkpt>
      <trkpt lat="44.19764" lon="5.02324">
        <ele>233</ele>
        <time>2019-10-26T06:16:14Z</time>
      </trkpt>
      <trkpt lat="44.19746" lon="5.02329">
        <ele>233</ele>
        <time>2019-10-26T06:16:22Z</time>
      </trkpt>
      <trkpt lat="44.19735" lon="5.02333">
        <ele>232</ele>
        <time>2019-10-26T06:16:27Z</time>
      </trkpt>
      <trkpt lat="44.19733" lon="5.02334">
        <ele>232</ele>
        <time>2019-10-26T06:16:28Z</time>
      </trkpt>
      <trkpt lat="44.1973" lon="5.02334">
        <ele>232</ele>
        <time>2019-10-26T06:16:29Z</time>
      </trkpt>
      <trkpt lat="44.19728" lon="5.02335">
        <ele>232</ele>
        <time>2019-10-26T06:16:30Z</time>
      </trkpt>
      <trkpt lat="44.19725" lon="5.02335">
        <ele>232</ele>
        <time>2019-10-26T06:16:31Z</time>
      </trkpt>
      <trkpt lat="44.19713" lon="5.02336">
        <ele>231</ele>
        <time>2019-10-26T06:16:36Z</time>
      </trkpt>
      <trkpt lat="44.19711" lon="5.02334">
        <ele>230</ele>
        <time>2019-10-26T06:16:37Z</time>
      </trkpt>
      <trkpt lat="44.19709" lon="5.02333">
        <ele>230</ele>
        <time>2019-10-26T06:16:38Z</time>
      </trkpt>
      <trkpt lat="44.19706" lon="5.02332">
        <ele>230</ele>
        <time>2019-10-26T06:16:39Z</time>
      </trkpt>
      <trkpt lat="44.19704" lon="5.02331">
        <ele>229</ele>
        <time>2019-10-26T06:16:40Z</time>
      </trkpt>
      <trkpt lat="44.19702" lon="5.0233">
        <ele>229</ele>
        <time>2019-10-26T06:16:41Z</time>
      </trkpt>
      <trkpt lat="44.19699" lon="5.0233">
        <ele>229</ele>
        <time>2019-10-26T06:16:42Z</time>
      </trkpt>
      <trkpt lat="44.19697" lon="5.02331">
        <ele>229</ele>
        <time>2019-10-26T06:16:43Z</time>
      </trkpt>
      <trkpt lat="44.19695" lon="5.02331">
        <ele>229</ele>
        <time>2019-10-26T06:16:44Z</time>
      </trkpt>
      <trkpt lat="44.19692" lon="5.02331">
        <ele>229</ele>
        <time>2019-10-26T06:16:45Z</time>
      </trkpt>
      <trkpt lat="44.1969" lon="5.02331">
        <ele>229</ele>
        <time>2019-10-26T06:16:46Z</time>
      </trkpt>
      <trkpt lat="44.19687" lon="5.02331">
        <ele>229</ele>
        <time>2019-10-26T06:16:47Z</time>
      </trkpt>
      <trkpt lat="44.19685" lon="5.02331">
        <ele>228</ele>
        <time>2019-10-26T06:16:48Z</time>
      </trkpt>
      <trkpt lat="44.19682" lon="5.02331">
        <ele>228</ele>
        <time>2019-10-26T06:16:49Z</time>
      </trkpt>
      <trkpt lat="44.1968" lon="5.02331">
        <ele>228</ele>
        <time>2019-10-26T06:16:50Z</time>
      </trkpt>
      <trkpt lat="44.19678" lon="5.02332">
        <ele>228</ele>
        <time>2019-10-26T06:16:51Z</time>
      </trkpt>
      <trkpt lat="44.19676" lon="5.02332">
        <ele>228</ele>
        <time>2019-10-26T06:16:52Z</time>
      </trkpt>
      <trkpt lat="44.19657" lon="5.02335">
        <ele>228</ele>
        <time>2019-10-26T06:17:00Z</time>
      </trkpt>
      <trkpt lat="44.19642" lon="5.0234">
        <ele>227</ele>
        <time>2019-10-26T06:17:07Z</time>
      </trkpt>
      <trkpt lat="44.19623" lon="5.02343">
        <ele>227</ele>
        <time>2019-10-26T06:17:15Z</time>
      </trkpt>
      <trkpt lat="44.19605" lon="5.02346">
        <ele>227</ele>
        <time>2019-10-26T06:17:23Z</time>
      </trkpt>
      <trkpt lat="44.19586" lon="5.02348">
        <ele>226</ele>
        <time>2019-10-26T06:17:31Z</time>
      </trkpt>
      <trkpt lat="44.1957" lon="5.02349">
        <ele>226</ele>
        <time>2019-10-26T06:17:38Z</time>
      </trkpt>
      <trkpt lat="44.19553" lon="5.02349">
        <ele>225</ele>
        <time>2019-10-26T06:17:45Z</time>
      </trkpt>
      <trkpt lat="44.19551" lon="5.02348">
        <ele>225</ele>
        <time>2019-10-26T06:17:46Z</time>
      </trkpt>
      <trkpt lat="44.19548" lon="5.02348">
        <ele>225</ele>
        <time>2019-10-26T06:17:47Z</time>
      </trkpt>
      <trkpt lat="44.19546" lon="5.02348">
        <ele>225</ele>
        <time>2019-10-26T06:17:48Z</time>
      </trkpt>
      <trkpt lat="44.19544" lon="5.02347">
        <ele>225</ele>
        <time>2019-10-26T06:17:49Z</time>
      </trkpt>
      <trkpt lat="44.19541" lon="5.02347">
        <ele>225</ele>
        <time>2019-10-26T06:17:50Z</time>
      </trkpt>
      <trkpt lat="44.19539" lon="5.02346">
        <ele>225</ele>
        <time>2019-10-26T06:17:51Z</time>
      </trkpt>
      <trkpt lat="44.19536" lon="5.02346">
        <ele>225</ele>
        <time>2019-10-26T06:17:52Z</time>
      </trkpt>
      <trkpt lat="44.1952" lon="5.02342">
        <ele>225</ele>
        <time>2019-10-26T06:17:59Z</time>
      </trkpt>
      <trkpt lat="44.19502" lon="5.02339">
        <ele>225</ele>
        <time>2019-10-26T06:18:07Z</time>
      </trkpt>
      <trkpt lat="44.19487" lon="5.02336">
        <ele>226</ele>
        <time>2019-10-26T06:18:14Z</time>
      </trkpt>
      <trkpt lat="44.1947" lon="5.02332">
        <ele>228</ele>
        <time>2019-10-26T06:18:21Z</time>
      </trkpt>
      <trkpt lat="44.19468" lon="5.02332">
        <ele>229</ele>
        <time>2019-10-26T06:18:22Z</time>
      </trkpt>
      <trkpt lat="44.19466" lon="5.02331">
        <ele>229</ele>
        <time>2019-10-26T06:18:23Z</time>
      </trkpt>
      <trkpt lat="44.19463" lon="5.0233">
        <ele>229</ele>
        <time>2019-10-26T06:18:24Z</time>
      </trkpt>
      <trkpt lat="44.19461" lon="5.0233">
        <ele>230</ele>
        <time>2019-10-26T06:18:25Z</time>
      </trkpt>
      <trkpt lat="44.19459" lon="5.02329">
        <ele>230</ele>
        <time>2019-10-26T06:18:26Z</time>
      </trkpt>
      <trkpt lat="44.1944" lon="5.02322">
        <ele>233</ele>
        <time>2019-10-26T06:18:34Z</time>
      </trkpt>
      <trkpt lat="44.19422" lon="5.02313">
        <ele>235</ele>
        <time>2019-10-26T06:18:42Z</time>
      </trkpt>
      <trkpt lat="44.19415" lon="5.0231">
        <ele>236</ele>
        <time>2019-10-26T06:18:45Z</time>
      </trkpt>
      <trkpt lat="44.19413" lon="5.02309">
        <ele>236</ele>
        <time>2019-10-26T06:18:46Z</time>
      </trkpt>
      <trkpt lat="44.19411" lon="5.02308">
        <ele>236</ele>
        <time>2019-10-26T06:18:47Z</time>
      </trkpt>
      <trkpt lat="44.19393" lon="5.02296">
        <ele>238</ele>
        <time>2019-10-26T06:18:56Z</time>
      </trkpt>
      <trkpt lat="44.19389" lon="5.02294">
        <ele>238</ele>
        <time>2019-10-26T06:18:58Z</time>
      </trkpt>
      <trkpt lat="44.19386" lon="5.02293">
        <ele>238</ele>
        <time>2019-10-26T06:18:59Z</time>
      </trkpt>
      <trkpt lat="44.19368" lon="5.02281">
        <ele>237</ele>
        <time>2019-10-26T06:19:08Z</time>
      </trkpt>
      <trkpt lat="44.19364" lon="5.0228">
        <ele>237</ele>
        <time>2019-10-26T06:19:10Z</time>
      </trkpt>
      <trkpt lat="44.19362" lon="5.0228">
        <ele>238</ele>
        <time>2019-10-26T06:19:11Z</time>
      </trkpt>
      <trkpt lat="44.1936" lon="5.0228">
        <ele>238</ele>
        <time>2019-10-26T06:19:12Z</time>
      </trkpt>
      <trkpt lat="44.1934" lon="5.02277">
        <ele>238</ele>
        <time>2019-10-26T06:19:20Z</time>
      </trkpt>
      <trkpt lat="44.19323" lon="5.02274">
        <ele>239</ele>
        <time>2019-10-26T06:19:27Z</time>
      </trkpt>
      <trkpt lat="44.1932" lon="5.02273">
        <ele>239</ele>
        <time>2019-10-26T06:19:28Z</time>
      </trkpt>
      <trkpt lat="44.193" lon="5.02266">
        <ele>239</ele>
        <time>2019-10-26T06:19:37Z</time>
      </trkpt>
      <trkpt lat="44.19282" lon="5.02259">
        <ele>238</ele>
        <time>2019-10-26T06:19:45Z</time>
      </trkpt>
      <trkpt lat="44.19265" lon="5.02251">
        <ele>238</ele>
        <time>2019-10-26T06:19:53Z</time>
      </trkpt>
      <trkpt lat="44.19252" lon="5.02249">
        <ele>238</ele>
        <time>2019-10-26T06:20:00Z</time>
      </trkpt>
      <trkpt lat="44.19236" lon="5.02248">
        <ele>238</ele>
        <time>2019-10-26T06:20:07Z</time>
      </trkpt>
      <trkpt lat="44.19234" lon="5.02248">
        <ele>238</ele>
        <time>2019-10-26T06:20:08Z</time>
      </trkpt>
      <trkpt lat="44.19232" lon="5.02248">
        <ele>238</ele>
        <time>2019-10-26T06:20:09Z</time>
      </trkpt>
      <trkpt lat="44.19215" lon="5.02246">
        <ele>239</ele>
        <time>2019-10-26T06:20:17Z</time>
      </trkpt>
      <trkpt lat="44.19198" lon="5.02242">
        <ele>239</ele>
        <time>2019-10-26T06:20:25Z</time>
      </trkpt>
      <trkpt lat="44.19183" lon="5.0224">
        <ele>239</ele>
        <time>2019-10-26T06:20:32Z</time>
      </trkpt>
      <trkpt lat="44.19165" lon="5.02235">
        <ele>239</ele>
        <time>2019-10-26T06:20:39Z</time>
      </trkpt>
      <trkpt lat="44.19146" lon="5.02235">
        <ele>239</ele>
        <time>2019-10-26T06:20:47Z</time>
      </trkpt>
      <trkpt lat="44.19131" lon="5.02237">
        <ele>240</ele>
        <time>2019-10-26T06:20:54Z</time>
      </trkpt>
      <trkpt lat="44.19115" lon="5.02239">
        <ele>240</ele>
        <time>2019-10-26T06:21:01Z</time>
      </trkpt>
      <trkpt lat="44.19097" lon="5.02238">
        <ele>240</ele>
        <time>2019-10-26T06:21:08Z</time>
      </trkpt>
      <trkpt lat="44.19078" lon="5.02242">
        <ele>240</ele>
        <time>2019-10-26T06:21:16Z</time>
      </trkpt>
      <trkpt lat="44.19066" lon="5.02244">
        <ele>240</ele>
        <time>2019-10-26T06:21:21Z</time>
      </trkpt>
      <trkpt lat="44.19064" lon="5.02244">
        <ele>240</ele>
        <time>2019-10-26T06:21:22Z</time>
      </trkpt>
      <trkpt lat="44.19062" lon="5.02244">
        <ele>240</ele>
        <time>2019-10-26T06:21:23Z</time>
      </trkpt>
      <trkpt lat="44.19059" lon="5.02245">
        <ele>240</ele>
        <time>2019-10-26T06:21:24Z</time>
      </trkpt>
      <trkpt lat="44.19057" lon="5.02245">
        <ele>240</ele>
        <time>2019-10-26T06:21:25Z</time>
      </trkpt>
      <trkpt lat="44.19055" lon="5.02246">
        <ele>240</ele>
        <time>2019-10-26T06:21:26Z</time>
      </trkpt>
      <trkpt lat="44.19053" lon="5.02246">
        <ele>240</ele>
        <time>2019-10-26T06:21:27Z</time>
      </trkpt>
      <trkpt lat="44.19036" lon="5.02256">
        <ele>241</ele>
        <time>2019-10-26T06:21:36Z</time>
      </trkpt>
      <trkpt lat="44.19034" lon="5.02258">
        <ele>241</ele>
        <time>2019-10-26T06:21:37Z</time>
      </trkpt>
      <trkpt lat="44.19015" lon="5.02269">
        <ele>243</ele>
        <time>2019-10-26T06:21:47Z</time>
      </trkpt>
      <trkpt lat="44.19" lon="5.02269">
        <ele>243</ele>
        <time>2019-10-26T06:21:54Z</time>
      </trkpt>
      <trkpt lat="44.18997" lon="5.02269">
        <ele>243</ele>
        <time>2019-10-26T06:21:55Z</time>
      </trkpt>
      <trkpt lat="44.18995" lon="5.02269">
        <ele>243</ele>
        <time>2019-10-26T06:21:56Z</time>
      </trkpt>
      <trkpt lat="44.18992" lon="5.02268">
        <ele>243</ele>
        <time>2019-10-26T06:21:57Z</time>
      </trkpt>
      <trkpt lat="44.1899" lon="5.02267">
        <ele>243</ele>
        <time>2019-10-26T06:21:58Z</time>
      </trkpt>
      <trkpt lat="44.18987" lon="5.02266">
        <ele>243</ele>
        <time>2019-10-26T06:21:59Z</time>
      </trkpt>
      <trkpt lat="44.18985" lon="5.02263">
        <ele>242</ele>
        <time>2019-10-26T06:22:00Z</time>
      </trkpt>
      <trkpt lat="44.18984" lon="5.02261">
        <ele>242</ele>
        <time>2019-10-26T06:22:01Z</time>
      </trkpt>
      <trkpt lat="44.18973" lon="5.02244">
        <ele>240</ele>
        <time>2019-10-26T06:22:08Z</time>
      </trkpt>
      <trkpt lat="44.18971" lon="5.02243">
        <ele>240</ele>
        <time>2019-10-26T06:22:09Z</time>
      </trkpt>
      <trkpt lat="44.18968" lon="5.02242">
        <ele>240</ele>
        <time>2019-10-26T06:22:10Z</time>
      </trkpt>
      <trkpt lat="44.18953" lon="5.02243">
        <ele>241</ele>
        <time>2019-10-26T06:22:17Z</time>
      </trkpt>
      <trkpt lat="44.18951" lon="5.02243">
        <ele>241</ele>
        <time>2019-10-26T06:22:18Z</time>
      </trkpt>
      <trkpt lat="44.18936" lon="5.02242">
        <ele>241</ele>
        <time>2019-10-26T06:22:25Z</time>
      </trkpt>
      <trkpt lat="44.18921" lon="5.02242">
        <ele>242</ele>
        <time>2019-10-26T06:22:32Z</time>
      </trkpt>
      <trkpt lat="44.18904" lon="5.02243">
        <ele>243</ele>
        <time>2019-10-26T06:22:41Z</time>
      </trkpt>
      <trkpt lat="44.18891" lon="5.0224">
        <ele>243</ele>
        <time>2019-10-26T06:22:48Z</time>
      </trkpt>
      <trkpt lat="44.18888" lon="5.02239">
        <ele>243</ele>
        <time>2019-10-26T06:22:49Z</time>
      </trkpt>
      <trkpt lat="44.18886" lon="5.02239">
        <ele>243</ele>
        <time>2019-10-26T06:22:50Z</time>
      </trkpt>
      <trkpt lat="44.18867" lon="5.02236">
        <ele>244</ele>
        <time>2019-10-26T06:22:59Z</time>
      </trkpt>
      <trkpt lat="44.1885" lon="5.02237">
        <ele>245</ele>
        <time>2019-10-26T06:23:07Z</time>
      </trkpt>
      <trkpt lat="44.18831" lon="5.02239">
        <ele>246</ele>
        <time>2019-10-26T06:23:15Z</time>
      </trkpt>
      <trkpt lat="44.18815" lon="5.02244">
        <ele>247</ele>
        <time>2019-10-26T06:23:22Z</time>
      </trkpt>
      <trkpt lat="44.18803" lon="5.02252">
        <ele>248</ele>
        <time>2019-10-26T06:23:29Z</time>
      </trkpt>
      <trkpt lat="44.18801" lon="5.02254">
        <ele>249</ele>
        <time>2019-10-26T06:23:30Z</time>
      </trkpt>
      <trkpt lat="44.188" lon="5.02255">
        <ele>249</ele>
        <time>2019-10-26T06:23:31Z</time>
      </trkpt>
      <trkpt lat="44.18798" lon="5.02256">
        <ele>249</ele>
        <time>2019-10-26T06:23:32Z</time>
      </trkpt>
      <trkpt lat="44.18797" lon="5.02257">
        <ele>249</ele>
        <time>2019-10-26T06:23:33Z</time>
      </trkpt>
      <trkpt lat="44.18795" lon="5.02258">
        <ele>249</ele>
        <time>2019-10-26T06:23:34Z</time>
      </trkpt>
      <trkpt lat="44.18794" lon="5.0226">
        <ele>250</ele>
        <time>2019-10-26T06:23:35Z</time>
      </trkpt>
      <trkpt lat="44.18792" lon="5.02262">
        <ele>250</ele>
        <time>2019-10-26T06:23:36Z</time>
      </trkpt>
      <trkpt lat="44.18791" lon="5.02264">
        <ele>250</ele>
        <time>2019-10-26T06:23:37Z</time>
      </trkpt>
      <trkpt lat="44.1879" lon="5.02266">
        <ele>250</ele>
        <time>2019-10-26T06:23:38Z</time>
      </trkpt>
      <trkpt lat="44.18788" lon="5.02267">
        <ele>251</ele>
        <time>2019-10-26T06:23:39Z</time>
      </trkpt>
      <trkpt lat="44.18787" lon="5.02269">
        <ele>251</ele>
        <time>2019-10-26T06:23:40Z</time>
      </trkpt>
      <trkpt lat="44.18786" lon="5.02271">
        <ele>251</ele>
        <time>2019-10-26T06:23:41Z</time>
      </trkpt>
      <trkpt lat="44.18784" lon="5.02273">
        <ele>252</ele>
        <time>2019-10-26T06:23:42Z</time>
      </trkpt>
      <trkpt lat="44.18772" lon="5.02287">
        <ele>253</ele>
        <time>2019-10-26T06:23:51Z</time>
      </trkpt>
      <trkpt lat="44.1877" lon="5.02288">
        <ele>254</ele>
        <time>2019-10-26T06:23:52Z</time>
      </trkpt>
      <trkpt lat="44.18753" lon="5.02297">
        <ele>255</ele>
        <time>2019-10-26T06:23:59Z</time>
      </trkpt>
      <trkpt lat="44.18751" lon="5.02297">
        <ele>254</ele>
        <time>2019-10-26T06:24:00Z</time>
      </trkpt>
      <trkpt lat="44.18748" lon="5.02296">
        <ele>254</ele>
        <time>2019-10-26T06:24:01Z</time>
      </trkpt>
      <trkpt lat="44.18746" lon="5.02295">
        <ele>254</ele>
        <time>2019-10-26T06:24:02Z</time>
      </trkpt>
      <trkpt lat="44.18744" lon="5.02294">
        <ele>254</ele>
        <time>2019-10-26T06:24:03Z</time>
      </trkpt>
      <trkpt lat="44.18743" lon="5.02292">
        <ele>254</ele>
        <time>2019-10-26T06:24:04Z</time>
      </trkpt>
      <trkpt lat="44.18741" lon="5.0229">
        <ele>254</ele>
        <time>2019-10-26T06:24:05Z</time>
      </trkpt>
      <trkpt lat="44.18739" lon="5.02288">
        <ele>253</ele>
        <time>2019-10-26T06:24:06Z</time>
      </trkpt>
      <trkpt lat="44.18733" lon="5.02285">
        <ele>253</ele>
        <time>2019-10-26T06:24:09Z</time>
      </trkpt>
      <trkpt lat="44.18731" lon="5.02284">
        <ele>253</ele>
        <time>2019-10-26T06:24:10Z</time>
      </trkpt>
      <trkpt lat="44.18729" lon="5.02284">
        <ele>253</ele>
        <time>2019-10-26T06:24:11Z</time>
      </trkpt>
      <trkpt lat="44.18709" lon="5.02284">
        <ele>255</ele>
        <time>2019-10-26T06:24:19Z</time>
      </trkpt>
      <trkpt lat="44.18707" lon="5.02283">
        <ele>255</ele>
        <time>2019-10-26T06:24:20Z</time>
      </trkpt>
      <trkpt lat="44.18705" lon="5.02283">
        <ele>255</ele>
        <time>2019-10-26T06:24:21Z</time>
      </trkpt>
      <trkpt lat="44.18702" lon="5.02283">
        <ele>255</ele>
        <time>2019-10-26T06:24:22Z</time>
      </trkpt>
      <trkpt lat="44.187" lon="5.02282">
        <ele>255</ele>
        <time>2019-10-26T06:24:23Z</time>
      </trkpt>
      <trkpt lat="44.18698" lon="5.02282">
        <ele>255</ele>
        <time>2019-10-26T06:24:24Z</time>
      </trkpt>
      <trkpt lat="44.18696" lon="5.02281">
        <ele>255</ele>
        <time>2019-10-26T06:24:25Z</time>
      </trkpt>
      <trkpt lat="44.18694" lon="5.02279">
        <ele>255</ele>
        <time>2019-10-26T06:24:26Z</time>
      </trkpt>
      <trkpt lat="44.18692" lon="5.02278">
        <ele>255</ele>
        <time>2019-10-26T06:24:27Z</time>
      </trkpt>
      <trkpt lat="44.1869" lon="5.02277">
        <ele>256</ele>
        <time>2019-10-26T06:24:28Z</time>
      </trkpt>
      <trkpt lat="44.18689" lon="5.02276">
        <ele>256</ele>
        <time>2019-10-26T06:24:29Z</time>
      </trkpt>
      <trkpt lat="44.18687" lon="5.02275">
        <ele>256</ele>
        <time>2019-10-26T06:24:30Z</time>
      </trkpt>
      <trkpt lat="44.18685" lon="5.02273">
        <ele>256</ele>
        <time>2019-10-26T06:24:31Z</time>
      </trkpt>
      <trkpt lat="44.18683" lon="5.02272">
        <ele>256</ele>
        <time>2019-10-26T06:24:32Z</time>
      </trkpt>
      <trkpt lat="44.18677" lon="5.0227">
        <ele>257</ele>
        <time>2019-10-26T06:24:35Z</time>
      </trkpt>
      <trkpt lat="44.18676" lon="5.0227">
        <ele>257</ele>
        <time>2019-10-26T06:24:36Z</time>
      </trkpt>
      <trkpt lat="44.18673" lon="5.0227">
        <ele>258</ele>
        <time>2019-10-26T06:24:37Z</time>
      </trkpt>
      <trkpt lat="44.18671" lon="5.02271">
        <ele>258</ele>
        <time>2019-10-26T06:24:38Z</time>
      </trkpt>
      <trkpt lat="44.18669" lon="5.02271">
        <ele>258</ele>
        <time>2019-10-26T06:24:39Z</time>
      </trkpt>
      <trkpt lat="44.18667" lon="5.02273">
        <ele>259</ele>
        <time>2019-10-26T06:24:40Z</time>
      </trkpt>
      <trkpt lat="44.18666" lon="5.02274">
        <ele>259</ele>
        <time>2019-10-26T06:24:41Z</time>
      </trkpt>
      <trkpt lat="44.18663" lon="5.02278">
        <ele>260</ele>
        <time>2019-10-26T06:24:43Z</time>
      </trkpt>
      <trkpt lat="44.18661" lon="5.0228">
        <ele>260</ele>
        <time>2019-10-26T06:24:44Z</time>
      </trkpt>
      <trkpt lat="44.18661" lon="5.02282">
        <ele>261</ele>
        <time>2019-10-26T06:24:45Z</time>
      </trkpt>
      <trkpt lat="44.18659" lon="5.02284">
        <ele>261</ele>
        <time>2019-10-26T06:24:46Z</time>
      </trkpt>
      <trkpt lat="44.18658" lon="5.02286">
        <ele>262</ele>
        <time>2019-10-26T06:24:47Z</time>
      </trkpt>
      <trkpt lat="44.18657" lon="5.02287">
        <ele>262</ele>
        <time>2019-10-26T06:24:48Z</time>
      </trkpt>
      <trkpt lat="44.18655" lon="5.02289">
        <ele>263</ele>
        <time>2019-10-26T06:24:49Z</time>
      </trkpt>
      <trkpt lat="44.18653" lon="5.02291">
        <ele>263</ele>
        <time>2019-10-26T06:24:50Z</time>
      </trkpt>
      <trkpt lat="44.18652" lon="5.02292">
        <ele>264</ele>
        <time>2019-10-26T06:24:51Z</time>
      </trkpt>
      <trkpt lat="44.1865" lon="5.02294">
        <ele>264</ele>
        <time>2019-10-26T06:24:52Z</time>
      </trkpt>
      <trkpt lat="44.18642" lon="5.02301">
        <ele>266</ele>
        <time>2019-10-26T06:24:56Z</time>
      </trkpt>
      <trkpt lat="44.18641" lon="5.02303">
        <ele>266</ele>
        <time>2019-10-26T06:24:57Z</time>
      </trkpt>
      <trkpt lat="44.1864" lon="5.02305">
        <ele>267</ele>
        <time>2019-10-26T06:24:58Z</time>
      </trkpt>
      <trkpt lat="44.18639" lon="5.02307">
        <ele>267</ele>
        <time>2019-10-26T06:24:59Z</time>
      </trkpt>
      <trkpt lat="44.18637" lon="5.02309">
        <ele>267</ele>
        <time>2019-10-26T06:25:00Z</time>
      </trkpt>
      <trkpt lat="44.18636" lon="5.02311">
        <ele>268</ele>
        <time>2019-10-26T06:25:01Z</time>
      </trkpt>
      <trkpt lat="44.18635" lon="5.02313">
        <ele>268</ele>
        <time>2019-10-26T06:25:02Z</time>
      </trkpt>
      <trkpt lat="44.18635" lon="5.02315">
        <ele>268</ele>
        <time>2019-10-26T06:25:03Z</time>
      </trkpt>
      <trkpt lat="44.18633" lon="5.02318">
        <ele>268</ele>
        <time>2019-10-26T06:25:05Z</time>
      </trkpt>
      <trkpt lat="44.18626" lon="5.02328">
        <ele>269</ele>
        <time>2019-10-26T06:25:12Z</time>
      </trkpt>
      <trkpt lat="44.18625" lon="5.02329">
        <ele>269</ele>
        <time>2019-10-26T06:25:13Z</time>
      </trkpt>
      <trkpt lat="44.1861" lon="5.02345">
        <ele>271</ele>
        <time>2019-10-26T06:25:24Z</time>
      </trkpt>
      <trkpt lat="44.18598" lon="5.0235">
        <ele>274</ele>
        <time>2019-10-26T06:25:32Z</time>
      </trkpt>
      <trkpt lat="44.18594" lon="5.02351">
        <ele>274</ele>
        <time>2019-10-26T06:25:35Z</time>
      </trkpt>
      <trkpt lat="44.18592" lon="5.02351">
        <ele>275</ele>
        <time>2019-10-26T06:25:36Z</time>
      </trkpt>
      <trkpt lat="44.1859" lon="5.02352">
        <ele>275</ele>
        <time>2019-10-26T06:25:37Z</time>
      </trkpt>
      <trkpt lat="44.18589" lon="5.02352">
        <ele>275</ele>
        <time>2019-10-26T06:25:38Z</time>
      </trkpt>
      <trkpt lat="44.18587" lon="5.02353">
        <ele>276</ele>
        <time>2019-10-26T06:25:39Z</time>
      </trkpt>
      <trkpt lat="44.18585" lon="5.02355">
        <ele>276</ele>
        <time>2019-10-26T06:25:40Z</time>
      </trkpt>
      <trkpt lat="44.18583" lon="5.02355">
        <ele>276</ele>
        <time>2019-10-26T06:25:41Z</time>
      </trkpt>
      <trkpt lat="44.18582" lon="5.02356">
        <ele>277</ele>
        <time>2019-10-26T06:25:42Z</time>
      </trkpt>
      <trkpt lat="44.18569" lon="5.02361">
        <ele>279</ele>
        <time>2019-10-26T06:25:50Z</time>
      </trkpt>
      <trkpt lat="44.18565" lon="5.02362">
        <ele>279</ele>
        <time>2019-10-26T06:25:52Z</time>
      </trkpt>
      <trkpt lat="44.18562" lon="5.02363">
        <ele>280</ele>
        <time>2019-10-26T06:25:53Z</time>
      </trkpt>
      <trkpt lat="44.18559" lon="5.02365">
        <ele>280</ele>
        <time>2019-10-26T06:25:54Z</time>
      </trkpt>
      <trkpt lat="44.18557" lon="5.02366">
        <ele>281</ele>
        <time>2019-10-26T06:25:55Z</time>
      </trkpt>
      <trkpt lat="44.18555" lon="5.02367">
        <ele>282</ele>
        <time>2019-10-26T06:25:56Z</time>
      </trkpt>
      <trkpt lat="44.18553" lon="5.02369">
        <ele>282</ele>
        <time>2019-10-26T06:25:57Z</time>
      </trkpt>
      <trkpt lat="44.18551" lon="5.02371">
        <ele>283</ele>
        <time>2019-10-26T06:25:58Z</time>
      </trkpt>
      <trkpt lat="44.18539" lon="5.02381">
        <ele>286</ele>
        <time>2019-10-26T06:26:07Z</time>
      </trkpt>
      <trkpt lat="44.1852" lon="5.02387">
        <ele>288</ele>
        <time>2019-10-26T06:26:19Z</time>
      </trkpt>
      <trkpt lat="44.18512" lon="5.0239">
        <ele>289</ele>
        <time>2019-10-26T06:26:24Z</time>
      </trkpt>
      <trkpt lat="44.18497" lon="5.02397">
        <ele>292</ele>
        <time>2019-10-26T06:26:32Z</time>
      </trkpt>
      <trkpt lat="44.18495" lon="5.02398">
        <ele>292</ele>
        <time>2019-10-26T06:26:33Z</time>
      </trkpt>
      <trkpt lat="44.18493" lon="5.02399">
        <ele>293</ele>
        <time>2019-10-26T06:26:34Z</time>
      </trkpt>
      <trkpt lat="44.18476" lon="5.02409">
        <ele>295</ele>
        <time>2019-10-26T06:26:43Z</time>
      </trkpt>
      <trkpt lat="44.1846" lon="5.02411">
        <ele>296</ele>
        <time>2019-10-26T06:26:56Z</time>
      </trkpt>
      <trkpt lat="44.18446" lon="5.02412">
        <ele>297</ele>
        <time>2019-10-26T06:27:07Z</time>
      </trkpt>
      <trkpt lat="44.18433" lon="5.0242">
        <ele>295</ele>
        <time>2019-10-26T06:27:15Z</time>
      </trkpt>
      <trkpt lat="44.1843" lon="5.02422">
        <ele>295</ele>
        <time>2019-10-26T06:27:16Z</time>
      </trkpt>
      <trkpt lat="44.18428" lon="5.02425">
        <ele>295</ele>
        <time>2019-10-26T06:27:17Z</time>
      </trkpt>
      <trkpt lat="44.18426" lon="5.02426">
        <ele>295</ele>
        <time>2019-10-26T06:27:18Z</time>
      </trkpt>
      <trkpt lat="44.18424" lon="5.02428">
        <ele>295</ele>
        <time>2019-10-26T06:27:19Z</time>
      </trkpt>
      <trkpt lat="44.18422" lon="5.0243">
        <ele>294</ele>
        <time>2019-10-26T06:27:20Z</time>
      </trkpt>
      <trkpt lat="44.18417" lon="5.02432">
        <ele>294</ele>
        <time>2019-10-26T06:27:23Z</time>
      </trkpt>
      <trkpt lat="44.18398" lon="5.02453">
        <ele>296</ele>
        <time>2019-10-26T06:27:32Z</time>
      </trkpt>
      <trkpt lat="44.18371" lon="5.02476">
        <ele>298</ele>
        <time>2019-10-26T06:27:42Z</time>
      </trkpt>
      <trkpt lat="44.18348" lon="5.02495">
        <ele>298</ele>
        <time>2019-10-26T06:27:53Z</time>
      </trkpt>
      <trkpt lat="44.18325" lon="5.02511">
        <ele>296</ele>
        <time>2019-10-26T06:28:04Z</time>
      </trkpt>
      <trkpt lat="44.18301" lon="5.02529">
        <ele>294</ele>
        <time>2019-10-26T06:28:15Z</time>
      </trkpt>
      <trkpt lat="44.18299" lon="5.0253">
        <ele>294</ele>
        <time>2019-10-26T06:28:16Z</time>
      </trkpt>
      <trkpt lat="44.18297" lon="5.02532">
        <ele>293</ele>
        <time>2019-10-26T06:28:17Z</time>
      </trkpt>
      <trkpt lat="44.18283" lon="5.0255">
        <ele>292</ele>
        <time>2019-10-26T06:28:26Z</time>
      </trkpt>
      <trkpt lat="44.18267" lon="5.02572">
        <ele>291</ele>
        <time>2019-10-26T06:28:36Z</time>
      </trkpt>
      <trkpt lat="44.18263" lon="5.02602">
        <ele>293</ele>
        <time>2019-10-26T06:28:46Z</time>
      </trkpt>
      <trkpt lat="44.18257" lon="5.02627">
        <ele>292</ele>
        <time>2019-10-26T06:28:54Z</time>
      </trkpt>
      <trkpt lat="44.18256" lon="5.02631">
        <ele>292</ele>
        <time>2019-10-26T06:28:55Z</time>
      </trkpt>
      <trkpt lat="44.18254" lon="5.02634">
        <ele>291</ele>
        <time>2019-10-26T06:28:56Z</time>
      </trkpt>
      <trkpt lat="44.18252" lon="5.02637">
        <ele>291</ele>
        <time>2019-10-26T06:28:57Z</time>
      </trkpt>
      <trkpt lat="44.1825" lon="5.0264">
        <ele>290</ele>
        <time>2019-10-26T06:28:58Z</time>
      </trkpt>
      <trkpt lat="44.18248" lon="5.02642">
        <ele>289</ele>
        <time>2019-10-26T06:28:59Z</time>
      </trkpt>
      <trkpt lat="44.18246" lon="5.02645">
        <ele>288</ele>
        <time>2019-10-26T06:29:00Z</time>
      </trkpt>
      <trkpt lat="44.18244" lon="5.02647">
        <ele>287</ele>
        <time>2019-10-26T06:29:01Z</time>
      </trkpt>
      <trkpt lat="44.18242" lon="5.02649">
        <ele>286</ele>
        <time>2019-10-26T06:29:02Z</time>
      </trkpt>
      <trkpt lat="44.18241" lon="5.02651">
        <ele>286</ele>
        <time>2019-10-26T06:29:03Z</time>
      </trkpt>
      <trkpt lat="44.18239" lon="5.02653">
        <ele>285</ele>
        <time>2019-10-26T06:29:04Z</time>
      </trkpt>
      <trkpt lat="44.18237" lon="5.02654">
        <ele>284</ele>
        <time>2019-10-26T06:29:05Z</time>
      </trkpt>
      <trkpt lat="44.18236" lon="5.02655">
        <ele>284</ele>
        <time>2019-10-26T06:29:06Z</time>
      </trkpt>
      <trkpt lat="44.18234" lon="5.02656">
        <ele>283</ele>
        <time>2019-10-26T06:29:07Z</time>
      </trkpt>
      <trkpt lat="44.18233" lon="5.02657">
        <ele>283</ele>
        <time>2019-10-26T06:29:08Z</time>
      </trkpt>
      <trkpt lat="44.18231" lon="5.02659">
        <ele>282</ele>
        <time>2019-10-26T06:29:09Z</time>
      </trkpt>
      <trkpt lat="44.1823" lon="5.0266">
        <ele>282</ele>
        <time>2019-10-26T06:29:10Z</time>
      </trkpt>
      <trkpt lat="44.18228" lon="5.02663">
        <ele>282</ele>
        <time>2019-10-26T06:29:11Z</time>
      </trkpt>
      <trkpt lat="44.18227" lon="5.02665">
        <ele>281</ele>
        <time>2019-10-26T06:29:12Z</time>
      </trkpt>
      <trkpt lat="44.18226" lon="5.02667">
        <ele>281</ele>
        <time>2019-10-26T06:29:13Z</time>
      </trkpt>
      <trkpt lat="44.18225" lon="5.02668">
        <ele>281</ele>
        <time>2019-10-26T06:29:14Z</time>
      </trkpt>
      <trkpt lat="44.1822" lon="5.02674">
        <ele>278</ele>
        <time>2019-10-26T06:29:23Z</time>
      </trkpt>
      <trkpt lat="44.18217" lon="5.02693">
        <ele>276</ele>
        <time>2019-10-26T06:31:51Z</time>
      </trkpt>
      <trkpt lat="44.18218" lon="5.02696">
        <ele>276</ele>
        <time>2019-10-26T06:31:53Z</time>
      </trkpt>
      <trkpt lat="44.18221" lon="5.02712">
        <ele>272</ele>
        <time>2019-10-26T06:32:00Z</time>
      </trkpt>
      <trkpt lat="44.18213" lon="5.02726">
        <ele>266</ele>
        <time>2019-10-26T06:32:09Z</time>
      </trkpt>
      <trkpt lat="44.18209" lon="5.02726">
        <ele>266</ele>
        <time>2019-10-26T06:32:13Z</time>
      </trkpt>
      <trkpt lat="44.18207" lon="5.02733">
        <ele>263</ele>
        <time>2019-10-26T06:32:18Z</time>
      </trkpt>
      <trkpt lat="44.18208" lon="5.02735">
        <ele>262</ele>
        <time>2019-10-26T06:32:19Z</time>
      </trkpt>
      <trkpt lat="44.18214" lon="5.0274">
        <ele>261</ele>
        <time>2019-10-26T06:32:26Z</time>
      </trkpt>
      <trkpt lat="44.18219" lon="5.02747">
        <ele>259</ele>
        <time>2019-10-26T06:32:32Z</time>
      </trkpt>
      <trkpt lat="44.1822" lon="5.02747">
        <ele>259</ele>
        <time>2019-10-26T06:32:33Z</time>
      </trkpt>
      <trkpt lat="44.18225" lon="5.02753">
        <ele>256</ele>
        <time>2019-10-26T06:32:39Z</time>
      </trkpt>
      <trkpt lat="44.18228" lon="5.02759">
        <ele>252</ele>
        <time>2019-10-26T06:32:44Z</time>
      </trkpt>
      <trkpt lat="44.1823" lon="5.02763">
        <ele>250</ele>
        <time>2019-10-26T06:32:46Z</time>
      </trkpt>
      <trkpt lat="44.18231" lon="5.02766">
        <ele>248</ele>
        <time>2019-10-26T06:32:47Z</time>
      </trkpt>
      <trkpt lat="44.18242" lon="5.02779">
        <ele>241</ele>
        <time>2019-10-26T06:32:55Z</time>
      </trkpt>
      <trkpt lat="44.1825" lon="5.02781">
        <ele>240</ele>
        <time>2019-10-26T06:33:06Z</time>
      </trkpt>
      <trkpt lat="44.18256" lon="5.02787">
        <ele>239</ele>
        <time>2019-10-26T06:33:12Z</time>
      </trkpt>
      <trkpt lat="44.1826" lon="5.0279">
        <ele>238</ele>
        <time>2019-10-26T06:33:15Z</time>
      </trkpt>
      <trkpt lat="44.18262" lon="5.02791">
        <ele>238</ele>
        <time>2019-10-26T06:33:16Z</time>
      </trkpt>
      <trkpt lat="44.18263" lon="5.02791">
        <ele>238</ele>
        <time>2019-10-26T06:33:17Z</time>
      </trkpt>
      <trkpt lat="44.18268" lon="5.02792">
        <ele>238</ele>
        <time>2019-10-26T06:33:20Z</time>
      </trkpt>
      <trkpt lat="44.1827" lon="5.02794">
        <ele>237</ele>
        <time>2019-10-26T06:33:21Z</time>
      </trkpt>
      <trkpt lat="44.18271" lon="5.02796">
        <ele>237</ele>
        <time>2019-10-26T06:33:22Z</time>
      </trkpt>
      <trkpt lat="44.18275" lon="5.02824">
        <ele>231</ele>
        <time>2019-10-26T06:33:32Z</time>
      </trkpt>
      <trkpt lat="44.18276" lon="5.02834">
        <ele>231</ele>
        <time>2019-10-26T06:33:36Z</time>
      </trkpt>
      <trkpt lat="44.18277" lon="5.02837">
        <ele>231</ele>
        <time>2019-10-26T06:33:37Z</time>
      </trkpt>
      <trkpt lat="44.18279" lon="5.02841">
        <ele>233</ele>
        <time>2019-10-26T06:33:39Z</time>
      </trkpt>
      <trkpt lat="44.18283" lon="5.02849">
        <ele>236</ele>
        <time>2019-10-26T06:33:43Z</time>
      </trkpt>
      <trkpt lat="44.18293" lon="5.02861">
        <ele>238</ele>
        <time>2019-10-26T06:33:52Z</time>
      </trkpt>
      <trkpt lat="44.18295" lon="5.02862">
        <ele>238</ele>
        <time>2019-10-26T06:33:55Z</time>
      </trkpt>
      <trkpt lat="44.18296" lon="5.02863">
        <ele>238</ele>
        <time>2019-10-26T06:33:56Z</time>
      </trkpt>
      <trkpt lat="44.18302" lon="5.02867">
        <ele>239</ele>
        <time>2019-10-26T06:34:02Z</time>
      </trkpt>
      <trkpt lat="44.18303" lon="5.02869">
        <ele>239</ele>
        <time>2019-10-26T06:34:04Z</time>
      </trkpt>
      <trkpt lat="44.18306" lon="5.02869">
        <ele>238</ele>
        <time>2019-10-26T06:34:06Z</time>
      </trkpt>
      <trkpt lat="44.18312" lon="5.02869">
        <ele>239</ele>
        <time>2019-10-26T06:34:12Z</time>
      </trkpt>
      <trkpt lat="44.18314" lon="5.02869">
        <ele>239</ele>
        <time>2019-10-26T06:34:13Z</time>
      </trkpt>
      <trkpt lat="44.1832" lon="5.02873">
        <ele>239</ele>
        <time>2019-10-26T06:34:16Z</time>
      </trkpt>
      <trkpt lat="44.18323" lon="5.02876">
        <ele>240</ele>
        <time>2019-10-26T06:34:18Z</time>
      </trkpt>
      <trkpt lat="44.18323" lon="5.02878">
        <ele>240</ele>
        <time>2019-10-26T06:34:19Z</time>
      </trkpt>
      <trkpt lat="44.18325" lon="5.02887">
        <ele>240</ele>
        <time>2019-10-26T06:34:28Z</time>
      </trkpt>
      <trkpt lat="44.18326" lon="5.0289">
        <ele>241</ele>
        <time>2019-10-26T06:34:30Z</time>
      </trkpt>
      <trkpt lat="44.18325" lon="5.02902">
        <ele>241</ele>
        <time>2019-10-26T06:34:38Z</time>
      </trkpt>
      <trkpt lat="44.18326" lon="5.02904">
        <ele>242</ele>
        <time>2019-10-26T06:34:39Z</time>
      </trkpt>
      <trkpt lat="44.18327" lon="5.02912">
        <ele>242</ele>
        <time>2019-10-26T06:34:43Z</time>
      </trkpt>
      <trkpt lat="44.18326" lon="5.02914">
        <ele>242</ele>
        <time>2019-10-26T06:34:44Z</time>
      </trkpt>
      <trkpt lat="44.18327" lon="5.02916">
        <ele>242</ele>
        <time>2019-10-26T06:34:45Z</time>
      </trkpt>
      <trkpt lat="44.18327" lon="5.02918">
        <ele>242</ele>
        <time>2019-10-26T06:34:46Z</time>
      </trkpt>
      <trkpt lat="44.18327" lon="5.0292">
        <ele>242</ele>
        <time>2019-10-26T06:34:47Z</time>
      </trkpt>
      <trkpt lat="44.18327" lon="5.02922">
        <ele>243</ele>
        <time>2019-10-26T06:34:48Z</time>
      </trkpt>
      <trkpt lat="44.18327" lon="5.02924">
        <ele>243</ele>
        <time>2019-10-26T06:34:49Z</time>
      </trkpt>
      <trkpt lat="44.18327" lon="5.02925">
        <ele>243</ele>
        <time>2019-10-26T06:34:50Z</time>
      </trkpt>
      <trkpt lat="44.18326" lon="5.02935">
        <ele>244</ele>
        <time>2019-10-26T06:34:58Z</time>
      </trkpt>
      <trkpt lat="44.18325" lon="5.02954">
        <ele>246</ele>
        <time>2019-10-26T06:35:08Z</time>
      </trkpt>
      <trkpt lat="44.18322" lon="5.02974">
        <ele>249</ele>
        <time>2019-10-26T06:35:19Z</time>
      </trkpt>
      <trkpt lat="44.18323" lon="5.02978">
        <ele>249</ele>
        <time>2019-10-26T06:35:28Z</time>
      </trkpt>
      <trkpt lat="44.1832" lon="5.02986">
        <ele>251</ele>
        <time>2019-10-26T06:35:37Z</time>
      </trkpt>
      <trkpt lat="44.18318" lon="5.02997">
        <ele>253</ele>
        <time>2019-10-26T06:35:43Z</time>
      </trkpt>
      <trkpt lat="44.18315" lon="5.03007">
        <ele>256</ele>
        <time>2019-10-26T06:35:49Z</time>
      </trkpt>
      <trkpt lat="44.18315" lon="5.03009">
        <ele>256</ele>
        <time>2019-10-26T06:35:50Z</time>
      </trkpt>
      <trkpt lat="44.18315" lon="5.03011">
        <ele>256</ele>
        <time>2019-10-26T06:35:51Z</time>
      </trkpt>
      <trkpt lat="44.18313" lon="5.03019">
        <ele>258</ele>
        <time>2019-10-26T06:35:56Z</time>
      </trkpt>
      <trkpt lat="44.18313" lon="5.03027">
        <ele>259</ele>
        <time>2019-10-26T06:36:00Z</time>
      </trkpt>
      <trkpt lat="44.18307" lon="5.0304">
        <ele>263</ele>
        <time>2019-10-26T06:36:10Z</time>
      </trkpt>
      <trkpt lat="44.18306" lon="5.03047">
        <ele>264</ele>
        <time>2019-10-26T06:36:14Z</time>
      </trkpt>
      <trkpt lat="44.18306" lon="5.03049">
        <ele>264</ele>
        <time>2019-10-26T06:36:15Z</time>
      </trkpt>
      <trkpt lat="44.18306" lon="5.03066">
        <ele>265</ele>
        <time>2019-10-26T06:36:25Z</time>
      </trkpt>
      <trkpt lat="44.18309" lon="5.0308">
        <ele>266</ele>
        <time>2019-10-26T06:36:34Z</time>
      </trkpt>
      <trkpt lat="44.18318" lon="5.03099">
        <ele>264</ele>
        <time>2019-10-26T06:36:43Z</time>
      </trkpt>
      <trkpt lat="44.18321" lon="5.03114">
        <ele>264</ele>
        <time>2019-10-26T06:36:49Z</time>
      </trkpt>
      <trkpt lat="44.18322" lon="5.03115">
        <ele>264</ele>
        <time>2019-10-26T06:36:50Z</time>
      </trkpt>
      <trkpt lat="44.18327" lon="5.03131">
        <ele>262</ele>
        <time>2019-10-26T06:36:59Z</time>
      </trkpt>
      <trkpt lat="44.18329" lon="5.03137">
        <ele>261</ele>
        <time>2019-10-26T06:37:02Z</time>
      </trkpt>
      <trkpt lat="44.18329" lon="5.0314">
        <ele>261</ele>
        <time>2019-10-26T06:37:03Z</time>
      </trkpt>
      <trkpt lat="44.18328" lon="5.03143">
        <ele>261</ele>
        <time>2019-10-26T06:37:04Z</time>
      </trkpt>
      <trkpt lat="44.18327" lon="5.03145">
        <ele>260</ele>
        <time>2019-10-26T06:37:05Z</time>
      </trkpt>
      <trkpt lat="44.18325" lon="5.03147">
        <ele>260</ele>
        <time>2019-10-26T06:37:06Z</time>
      </trkpt>
      <trkpt lat="44.18324" lon="5.03149">
        <ele>260</ele>
        <time>2019-10-26T06:37:07Z</time>
      </trkpt>
      <trkpt lat="44.18322" lon="5.03151">
        <ele>261</ele>
        <time>2019-10-26T06:37:08Z</time>
      </trkpt>
      <trkpt lat="44.1832" lon="5.03152">
        <ele>261</ele>
        <time>2019-10-26T06:37:09Z</time>
      </trkpt>
      <trkpt lat="44.18318" lon="5.03154">
        <ele>261</ele>
        <time>2019-10-26T06:37:10Z</time>
      </trkpt>
      <trkpt lat="44.18316" lon="5.03156">
        <ele>261</ele>
        <time>2019-10-26T06:37:11Z</time>
      </trkpt>
      <trkpt lat="44.18305" lon="5.03168">
        <ele>261</ele>
        <time>2019-10-26T06:37:17Z</time>
      </trkpt>
      <trkpt lat="44.18289" lon="5.03171">
        <ele>264</ele>
        <time>2019-10-26T06:37:26Z</time>
      </trkpt>
      <trkpt lat="44.18271" lon="5.03171">
        <ele>266</ele>
        <time>2019-10-26T06:37:34Z</time>
      </trkpt>
      <trkpt lat="44.18258" lon="5.03166">
        <ele>268</ele>
        <time>2019-10-26T06:37:40Z</time>
      </trkpt>
      <trkpt lat="44.18257" lon="5.03164">
        <ele>268</ele>
        <time>2019-10-26T06:37:41Z</time>
      </trkpt>
      <trkpt lat="44.18255" lon="5.03163">
        <ele>269</ele>
        <time>2019-10-26T06:37:42Z</time>
      </trkpt>
      <trkpt lat="44.18252" lon="5.03162">
        <ele>269</ele>
        <time>2019-10-26T06:37:43Z</time>
      </trkpt>
      <trkpt lat="44.1825" lon="5.03161">
        <ele>269</ele>
        <time>2019-10-26T06:37:44Z</time>
      </trkpt>
      <trkpt lat="44.18248" lon="5.03161">
        <ele>269</ele>
        <time>2019-10-26T06:37:45Z</time>
      </trkpt>
      <trkpt lat="44.18246" lon="5.0316">
        <ele>270</ele>
        <time>2019-10-26T06:37:46Z</time>
      </trkpt>
      <trkpt lat="44.18244" lon="5.03159">
        <ele>270</ele>
        <time>2019-10-26T06:37:47Z</time>
      </trkpt>
      <trkpt lat="44.18242" lon="5.03159">
        <ele>270</ele>
        <time>2019-10-26T06:37:48Z</time>
      </trkpt>
      <trkpt lat="44.1824" lon="5.03158">
        <ele>270</ele>
        <time>2019-10-26T06:37:49Z</time>
      </trkpt>
      <trkpt lat="44.18237" lon="5.03158">
        <ele>270</ele>
        <time>2019-10-26T06:37:50Z</time>
      </trkpt>
      <trkpt lat="44.18219" lon="5.03155">
        <ele>271</ele>
        <time>2019-10-26T06:38:00Z</time>
      </trkpt>
      <trkpt lat="44.18197" lon="5.0315">
        <ele>272</ele>
        <time>2019-10-26T06:38:13Z</time>
      </trkpt>
      <trkpt lat="44.18175" lon="5.03145">
        <ele>271</ele>
        <time>2019-10-26T06:38:26Z</time>
      </trkpt>
      <trkpt lat="44.18152" lon="5.03143">
        <ele>270</ele>
        <time>2019-10-26T06:38:36Z</time>
      </trkpt>
      <trkpt lat="44.18128" lon="5.03139">
        <ele>271</ele>
        <time>2019-10-26T06:38:46Z</time>
      </trkpt>
      <trkpt lat="44.18111" lon="5.03131">
        <ele>272</ele>
        <time>2019-10-26T06:38:55Z</time>
      </trkpt>
      <trkpt lat="44.18088" lon="5.03122">
        <ele>275</ele>
        <time>2019-10-26T06:39:06Z</time>
      </trkpt>
      <trkpt lat="44.18068" lon="5.03128">
        <ele>278</ele>
        <time>2019-10-26T06:39:15Z</time>
      </trkpt>
      <trkpt lat="44.18047" lon="5.03138">
        <ele>280</ele>
        <time>2019-10-26T06:39:25Z</time>
      </trkpt>
      <trkpt lat="44.18022" lon="5.03147">
        <ele>282</ele>
        <time>2019-10-26T06:39:37Z</time>
      </trkpt>
      <trkpt lat="44.18003" lon="5.03155">
        <ele>285</ele>
        <time>2019-10-26T06:39:47Z</time>
      </trkpt>
      <trkpt lat="44.17988" lon="5.03165">
        <ele>287</ele>
        <time>2019-10-26T06:39:56Z</time>
      </trkpt>
      <trkpt lat="44.17973" lon="5.03176">
        <ele>289</ele>
        <time>2019-10-26T06:40:06Z</time>
      </trkpt>
      <trkpt lat="44.17958" lon="5.03189">
        <ele>291</ele>
        <time>2019-10-26T06:40:16Z</time>
      </trkpt>
      <trkpt lat="44.1795" lon="5.0321">
        <ele>292</ele>
        <time>2019-10-26T06:40:26Z</time>
      </trkpt>
      <trkpt lat="44.17944" lon="5.03237">
        <ele>295</ele>
        <time>2019-10-26T06:40:37Z</time>
      </trkpt>
      <trkpt lat="44.17937" lon="5.03256">
        <ele>297</ele>
        <time>2019-10-26T06:40:46Z</time>
      </trkpt>
      <trkpt lat="44.17936" lon="5.03258">
        <ele>297</ele>
        <time>2019-10-26T06:40:47Z</time>
      </trkpt>
      <trkpt lat="44.17935" lon="5.03259">
        <ele>297</ele>
        <time>2019-10-26T06:40:48Z</time>
      </trkpt>
      <trkpt lat="44.17929" lon="5.03276">
        <ele>299</ele>
        <time>2019-10-26T06:40:56Z</time>
      </trkpt>
      <trkpt lat="44.1793" lon="5.03282">
        <ele>299</ele>
        <time>2019-10-26T06:40:59Z</time>
      </trkpt>
      <trkpt lat="44.17931" lon="5.03283">
        <ele>299</ele>
        <time>2019-10-26T06:41:00Z</time>
      </trkpt>
      <trkpt lat="44.17932" lon="5.03285">
        <ele>299</ele>
        <time>2019-10-26T06:41:01Z</time>
      </trkpt>
      <trkpt lat="44.17944" lon="5.03307">
        <ele>299</ele>
        <time>2019-10-26T06:41:11Z</time>
      </trkpt>
      <trkpt lat="44.17961" lon="5.03325">
        <ele>297</ele>
        <time>2019-10-26T06:41:20Z</time>
      </trkpt>
      <trkpt lat="44.17967" lon="5.03336">
        <ele>296</ele>
        <time>2019-10-26T06:41:25Z</time>
      </trkpt>
      <trkpt lat="44.17965" lon="5.03351">
        <ele>297</ele>
        <time>2019-10-26T06:41:30Z</time>
      </trkpt>
      <trkpt lat="44.17963" lon="5.03362">
        <ele>297</ele>
        <time>2019-10-26T06:41:33Z</time>
      </trkpt>
      <trkpt lat="44.17969" lon="5.03392">
        <ele>296</ele>
        <time>2019-10-26T06:41:41Z</time>
      </trkpt>
      <trkpt lat="44.17969" lon="5.03399">
        <ele>296</ele>
        <time>2019-10-26T06:41:43Z</time>
      </trkpt>
      <trkpt lat="44.17962" lon="5.03417">
        <ele>298</ele>
        <time>2019-10-26T06:41:49Z</time>
      </trkpt>
      <trkpt lat="44.17956" lon="5.03441">
        <ele>303</ele>
        <time>2019-10-26T06:41:58Z</time>
      </trkpt>
      <trkpt lat="44.17956" lon="5.03465">
        <ele>306</ele>
        <time>2019-10-26T06:42:08Z</time>
      </trkpt>
      <trkpt lat="44.17955" lon="5.03484">
        <ele>308</ele>
        <time>2019-10-26T06:42:17Z</time>
      </trkpt>
      <trkpt lat="44.17953" lon="5.03487">
        <ele>309</ele>
        <time>2019-10-26T06:42:20Z</time>
      </trkpt>
      <trkpt lat="44.17944" lon="5.03501">
        <ele>311</ele>
        <time>2019-10-26T06:42:28Z</time>
      </trkpt>
      <trkpt lat="44.17928" lon="5.0351">
        <ele>314</ele>
        <time>2019-10-26T06:42:40Z</time>
      </trkpt>
      <trkpt lat="44.17925" lon="5.03511">
        <ele>315</ele>
        <time>2019-10-26T06:42:43Z</time>
      </trkpt>
      <trkpt lat="44.17911" lon="5.03521">
        <ele>318</ele>
        <time>2019-10-26T06:42:54Z</time>
      </trkpt>
      <trkpt lat="44.17903" lon="5.03535">
        <ele>320</ele>
        <time>2019-10-26T06:43:02Z</time>
      </trkpt>
      <trkpt lat="44.17899" lon="5.03538">
        <ele>321</ele>
        <time>2019-10-26T06:43:06Z</time>
      </trkpt>
      <trkpt lat="44.17891" lon="5.03547">
        <ele>323</ele>
        <time>2019-10-26T06:43:13Z</time>
      </trkpt>
      <trkpt lat="44.17879" lon="5.03564">
        <ele>326</ele>
        <time>2019-10-26T06:43:25Z</time>
      </trkpt>
      <trkpt lat="44.17871" lon="5.0358">
        <ele>329</ele>
        <time>2019-10-26T06:43:35Z</time>
      </trkpt>
      <trkpt lat="44.17858" lon="5.03596">
        <ele>331</ele>
        <time>2019-10-26T06:43:47Z</time>
      </trkpt>
      <trkpt lat="44.17843" lon="5.03613">
        <ele>334</ele>
        <time>2019-10-26T06:44:00Z</time>
      </trkpt>
      <trkpt lat="44.17829" lon="5.03627">
        <ele>337</ele>
        <time>2019-10-26T06:44:12Z</time>
      </trkpt>
      <trkpt lat="44.17814" lon="5.03642">
        <ele>341</ele>
        <time>2019-10-26T06:44:25Z</time>
      </trkpt>
      <trkpt lat="44.17804" lon="5.03654">
        <ele>345</ele>
        <time>2019-10-26T06:44:35Z</time>
      </trkpt>
      <trkpt lat="44.17798" lon="5.03666">
        <ele>347</ele>
        <time>2019-10-26T06:44:44Z</time>
      </trkpt>
      <trkpt lat="44.17796" lon="5.0367">
        <ele>348</ele>
        <time>2019-10-26T06:44:47Z</time>
      </trkpt>
      <trkpt lat="44.17795" lon="5.03682">
        <ele>349</ele>
        <time>2019-10-26T06:44:54Z</time>
      </trkpt>
      <trkpt lat="44.17794" lon="5.03704">
        <ele>351</ele>
        <time>2019-10-26T06:45:05Z</time>
      </trkpt>
      <trkpt lat="44.17794" lon="5.03711">
        <ele>352</ele>
        <time>2019-10-26T06:45:08Z</time>
      </trkpt>
      <trkpt lat="44.17789" lon="5.03732">
        <ele>352</ele>
        <time>2019-10-26T06:45:19Z</time>
      </trkpt>
      <trkpt lat="44.17788" lon="5.03735">
        <ele>352</ele>
        <time>2019-10-26T06:45:21Z</time>
      </trkpt>
      <trkpt lat="44.17787" lon="5.03757">
        <ele>353</ele>
        <time>2019-10-26T06:45:33Z</time>
      </trkpt>
      <trkpt lat="44.17793" lon="5.03777">
        <ele>353</ele>
        <time>2019-10-26T06:45:47Z</time>
      </trkpt>
      <trkpt lat="44.17793" lon="5.03779">
        <ele>353</ele>
        <time>2019-10-26T06:45:48Z</time>
      </trkpt>
      <trkpt lat="44.17793" lon="5.03788">
        <ele>354</ele>
        <time>2019-10-26T06:45:51Z</time>
      </trkpt>
      <trkpt lat="44.17794" lon="5.03801">
        <ele>354</ele>
        <time>2019-10-26T06:45:56Z</time>
      </trkpt>
      <trkpt lat="44.17783" lon="5.03819">
        <ele>358</ele>
        <time>2019-10-26T06:46:06Z</time>
      </trkpt>
      <trkpt lat="44.17771" lon="5.03839">
        <ele>362</ele>
        <time>2019-10-26T06:46:17Z</time>
      </trkpt>
      <trkpt lat="44.17763" lon="5.03858">
        <ele>363</ele>
        <time>2019-10-26T06:46:27Z</time>
      </trkpt>
      <trkpt lat="44.1776" lon="5.03862">
        <ele>364</ele>
        <time>2019-10-26T06:46:31Z</time>
      </trkpt>
      <trkpt lat="44.17753" lon="5.03865">
        <ele>366</ele>
        <time>2019-10-26T06:46:39Z</time>
      </trkpt>
      <trkpt lat="44.17749" lon="5.03847">
        <ele>368</ele>
        <time>2019-10-26T06:46:52Z</time>
      </trkpt>
      <trkpt lat="44.17742" lon="5.03833">
        <ele>371</ele>
        <time>2019-10-26T06:46:59Z</time>
      </trkpt>
      <trkpt lat="44.17733" lon="5.03826">
        <ele>373</ele>
        <time>2019-10-26T06:47:06Z</time>
      </trkpt>
      <trkpt lat="44.17728" lon="5.03828">
        <ele>375</ele>
        <time>2019-10-26T06:47:09Z</time>
      </trkpt>
      <trkpt lat="44.17723" lon="5.03842">
        <ele>376</ele>
        <time>2019-10-26T06:47:20Z</time>
      </trkpt>
      <trkpt lat="44.17724" lon="5.03858">
        <ele>376</ele>
        <time>2019-10-26T06:47:28Z</time>
      </trkpt>
      <trkpt lat="44.17723" lon="5.03874">
        <ele>376</ele>
        <time>2019-10-26T06:47:38Z</time>
      </trkpt>
      <trkpt lat="44.17722" lon="5.03875">
        <ele>376</ele>
        <time>2019-10-26T06:47:39Z</time>
      </trkpt>
      <trkpt lat="44.1772" lon="5.03878">
        <ele>377</ele>
        <time>2019-10-26T06:47:41Z</time>
      </trkpt>
      <trkpt lat="44.17708" lon="5.03891">
        <ele>384</ele>
        <time>2019-10-26T06:47:51Z</time>
      </trkpt>
      <trkpt lat="44.17698" lon="5.03901">
        <ele>390</ele>
        <time>2019-10-26T06:48:00Z</time>
      </trkpt>
      <trkpt lat="44.17693" lon="5.03904">
        <ele>391</ele>
        <time>2019-10-26T06:48:04Z</time>
      </trkpt>
      <trkpt lat="44.17689" lon="5.03916">
        <ele>392</ele>
        <time>2019-10-26T06:48:12Z</time>
      </trkpt>
      <trkpt lat="44.17698" lon="5.03938">
        <ele>393</ele>
        <time>2019-10-26T06:48:24Z</time>
      </trkpt>
      <trkpt lat="44.17705" lon="5.03956">
        <ele>394</ele>
        <time>2019-10-26T06:48:36Z</time>
      </trkpt>
      <trkpt lat="44.17701" lon="5.03974">
        <ele>397</ele>
        <time>2019-10-26T06:48:46Z</time>
      </trkpt>
      <trkpt lat="44.17704" lon="5.04013">
        <ele>400</ele>
        <time>2019-10-26T06:48:59Z</time>
      </trkpt>
      <trkpt lat="44.17706" lon="5.04025">
        <ele>402</ele>
        <time>2019-10-26T06:49:03Z</time>
      </trkpt>
      <trkpt lat="44.17724" lon="5.04054">
        <ele>403</ele>
        <time>2019-10-26T06:49:16Z</time>
      </trkpt>
      <trkpt lat="44.17733" lon="5.04073">
        <ele>406</ele>
        <time>2019-10-26T06:49:27Z</time>
      </trkpt>
      <trkpt lat="44.17747" lon="5.04085">
        <ele>408</ele>
        <time>2019-10-26T06:49:36Z</time>
      </trkpt>
      <trkpt lat="44.17765" lon="5.0409">
        <ele>409</ele>
        <time>2019-10-26T06:49:47Z</time>
      </trkpt>
      <trkpt lat="44.17771" lon="5.0409">
        <ele>409</ele>
        <time>2019-10-26T06:49:51Z</time>
      </trkpt>
      <trkpt lat="44.17779" lon="5.04088">
        <ele>409</ele>
        <time>2019-10-26T06:49:56Z</time>
      </trkpt>
      <trkpt lat="44.17785" lon="5.04108">
        <ele>411</ele>
        <time>2019-10-26T06:50:06Z</time>
      </trkpt>
      <trkpt lat="44.17785" lon="5.04112">
        <ele>412</ele>
        <time>2019-10-26T06:50:08Z</time>
      </trkpt>
      <trkpt lat="44.17785" lon="5.04125">
        <ele>413</ele>
        <time>2019-10-26T06:50:13Z</time>
      </trkpt>
      <trkpt lat="44.17786" lon="5.04137">
        <ele>415</ele>
        <time>2019-10-26T06:50:19Z</time>
      </trkpt>
      <trkpt lat="44.17786" lon="5.04158">
        <ele>418</ele>
        <time>2019-10-26T06:50:29Z</time>
      </trkpt>
      <trkpt lat="44.17784" lon="5.04169">
        <ele>420</ele>
        <time>2019-10-26T06:50:35Z</time>
      </trkpt>
      <trkpt lat="44.17783" lon="5.04193">
        <ele>424</ele>
        <time>2019-10-26T06:50:46Z</time>
      </trkpt>
      <trkpt lat="44.17783" lon="5.04196">
        <ele>425</ele>
        <time>2019-10-26T06:50:48Z</time>
      </trkpt>
      <trkpt lat="44.17785" lon="5.04215">
        <ele>428</ele>
        <time>2019-10-26T06:50:58Z</time>
      </trkpt>
      <trkpt lat="44.17792" lon="5.04238">
        <ele>431</ele>
        <time>2019-10-26T06:51:10Z</time>
      </trkpt>
      <trkpt lat="44.17795" lon="5.04247">
        <ele>432</ele>
        <time>2019-10-26T06:51:15Z</time>
      </trkpt>
      <trkpt lat="44.17798" lon="5.04265">
        <ele>436</ele>
        <time>2019-10-26T06:51:24Z</time>
      </trkpt>
      <trkpt lat="44.17803" lon="5.04283">
        <ele>439</ele>
        <time>2019-10-26T06:51:34Z</time>
      </trkpt>
      <trkpt lat="44.17806" lon="5.04297">
        <ele>440</ele>
        <time>2019-10-26T06:51:43Z</time>
      </trkpt>
      <trkpt lat="44.17806" lon="5.04303">
        <ele>441</ele>
        <time>2019-10-26T06:51:47Z</time>
      </trkpt>
      <trkpt lat="44.17806" lon="5.04321">
        <ele>444</ele>
        <time>2019-10-26T06:51:57Z</time>
      </trkpt>
      <trkpt lat="44.17807" lon="5.04339">
        <ele>448</ele>
        <time>2019-10-26T06:52:07Z</time>
      </trkpt>
      <trkpt lat="44.17806" lon="5.04349">
        <ele>451</ele>
        <time>2019-10-26T06:52:13Z</time>
      </trkpt>
      <trkpt lat="44.17802" lon="5.0434">
        <ele>451</ele>
        <time>2019-10-26T06:52:27Z</time>
      </trkpt>
      <trkpt lat="44.17801" lon="5.0434">
        <ele>452</ele>
        <time>2019-10-26T06:52:30Z</time>
      </trkpt>
      <trkpt lat="44.17798" lon="5.04338">
        <ele>453</ele>
        <time>2019-10-26T06:52:36Z</time>
      </trkpt>
      <trkpt lat="44.17783" lon="5.04325">
        <ele>458</ele>
        <time>2019-10-26T06:52:49Z</time>
      </trkpt>
      <trkpt lat="44.17773" lon="5.04313">
        <ele>459</ele>
        <time>2019-10-26T06:53:00Z</time>
      </trkpt>
      <trkpt lat="44.17761" lon="5.04294">
        <ele>460</ele>
        <time>2019-10-26T06:53:13Z</time>
      </trkpt>
      <trkpt lat="44.17755" lon="5.04287">
        <ele>462</ele>
        <time>2019-10-26T06:53:25Z</time>
      </trkpt>
      <trkpt lat="44.17748" lon="5.04278">
        <ele>463</ele>
        <time>2019-10-26T06:53:37Z</time>
      </trkpt>
      <trkpt lat="44.1774" lon="5.04268">
        <ele>463</ele>
        <time>2019-10-26T06:53:46Z</time>
      </trkpt>
      <trkpt lat="44.17735" lon="5.04266">
        <ele>466</ele>
        <time>2019-10-26T06:53:50Z</time>
      </trkpt>
      <trkpt lat="44.17735" lon="5.04272">
        <ele>467</ele>
        <time>2019-10-26T06:53:55Z</time>
      </trkpt>
      <trkpt lat="44.17748" lon="5.04296">
        <ele>467</ele>
        <time>2019-10-26T06:54:10Z</time>
      </trkpt>
      <trkpt lat="44.1775" lon="5.04304">
        <ele>469</ele>
        <time>2019-10-26T06:54:14Z</time>
      </trkpt>
      <trkpt lat="44.17751" lon="5.04311">
        <ele>470</ele>
        <time>2019-10-26T06:54:18Z</time>
      </trkpt>
      <trkpt lat="44.17752" lon="5.04321">
        <ele>470</ele>
        <time>2019-10-26T06:54:22Z</time>
      </trkpt>
      <trkpt lat="44.17757" lon="5.04332">
        <ele>470</ele>
        <time>2019-10-26T06:54:27Z</time>
      </trkpt>
      <trkpt lat="44.17758" lon="5.04335">
        <ele>470</ele>
        <time>2019-10-26T06:54:28Z</time>
      </trkpt>
      <trkpt lat="44.1776" lon="5.04337">
        <ele>470</ele>
        <time>2019-10-26T06:54:29Z</time>
      </trkpt>
      <trkpt lat="44.17761" lon="5.04339">
        <ele>470</ele>
        <time>2019-10-26T06:54:30Z</time>
      </trkpt>
      <trkpt lat="44.17762" lon="5.04342">
        <ele>470</ele>
        <time>2019-10-26T06:54:31Z</time>
      </trkpt>
      <trkpt lat="44.17768" lon="5.04354">
        <ele>471</ele>
        <time>2019-10-26T06:54:35Z</time>
      </trkpt>
      <trkpt lat="44.17769" lon="5.04357">
        <ele>471</ele>
        <time>2019-10-26T06:54:36Z</time>
      </trkpt>
      <trkpt lat="44.17777" lon="5.04382">
        <ele>472</ele>
        <time>2019-10-26T06:54:44Z</time>
      </trkpt>
      <trkpt lat="44.17782" lon="5.04404">
        <ele>470</ele>
        <time>2019-10-26T06:54:51Z</time>
      </trkpt>
      <trkpt lat="44.17784" lon="5.04416">
        <ele>470</ele>
        <time>2019-10-26T06:54:55Z</time>
      </trkpt>
      <trkpt lat="44.17785" lon="5.04439">
        <ele>469</ele>
        <time>2019-10-26T06:55:02Z</time>
      </trkpt>
      <trkpt lat="44.17784" lon="5.04445">
        <ele>468</ele>
        <time>2019-10-26T06:55:04Z</time>
      </trkpt>
      <trkpt lat="44.17785" lon="5.04448">
        <ele>468</ele>
        <time>2019-10-26T06:55:05Z</time>
      </trkpt>
      <trkpt lat="44.17785" lon="5.04451">
        <ele>468</ele>
        <time>2019-10-26T06:55:06Z</time>
      </trkpt>
      <trkpt lat="44.17786" lon="5.04455">
        <ele>467</ele>
        <time>2019-10-26T06:55:07Z</time>
      </trkpt>
      <trkpt lat="44.17786" lon="5.04458">
        <ele>467</ele>
        <time>2019-10-26T06:55:08Z</time>
      </trkpt>
      <trkpt lat="44.17787" lon="5.0446">
        <ele>467</ele>
        <time>2019-10-26T06:55:09Z</time>
      </trkpt>
      <trkpt lat="44.17787" lon="5.04463">
        <ele>466</ele>
        <time>2019-10-26T06:55:10Z</time>
      </trkpt>
      <trkpt lat="44.17788" lon="5.04466">
        <ele>466</ele>
        <time>2019-10-26T06:55:11Z</time>
      </trkpt>
      <trkpt lat="44.17788" lon="5.04469">
        <ele>466</ele>
        <time>2019-10-26T06:55:12Z</time>
      </trkpt>
      <trkpt lat="44.1779" lon="5.04485">
        <ele>464</ele>
        <time>2019-10-26T06:55:17Z</time>
      </trkpt>
      <trkpt lat="44.1779" lon="5.04487">
        <ele>464</ele>
        <time>2019-10-26T06:55:18Z</time>
      </trkpt>
      <trkpt lat="44.17789" lon="5.0449">
        <ele>464</ele>
        <time>2019-10-26T06:55:19Z</time>
      </trkpt>
      <trkpt lat="44.17785" lon="5.04514">
        <ele>465</ele>
        <time>2019-10-26T06:55:28Z</time>
      </trkpt>
      <trkpt lat="44.17784" lon="5.0452">
        <ele>465</ele>
        <time>2019-10-26T06:55:31Z</time>
      </trkpt>
      <trkpt lat="44.17779" lon="5.04544">
        <ele>468</ele>
        <time>2019-10-26T06:55:42Z</time>
      </trkpt>
      <trkpt lat="44.17775" lon="5.04564">
        <ele>470</ele>
        <time>2019-10-26T06:55:52Z</time>
      </trkpt>
      <trkpt lat="44.17775" lon="5.04566">
        <ele>471</ele>
        <time>2019-10-26T06:55:53Z</time>
      </trkpt>
      <trkpt lat="44.17772" lon="5.0458">
        <ele>474</ele>
        <time>2019-10-26T06:56:00Z</time>
      </trkpt>
      <trkpt lat="44.17768" lon="5.04585">
        <ele>477</ele>
        <time>2019-10-26T06:56:04Z</time>
      </trkpt>
      <trkpt lat="44.17765" lon="5.046">
        <ele>479</ele>
        <time>2019-10-26T06:56:12Z</time>
      </trkpt>
      <trkpt lat="44.17762" lon="5.04615">
        <ele>482</ele>
        <time>2019-10-26T06:56:22Z</time>
      </trkpt>
      <trkpt lat="44.17761" lon="5.04616">
        <ele>483</ele>
        <time>2019-10-26T06:56:23Z</time>
      </trkpt>
      <trkpt lat="44.17759" lon="5.04621">
        <ele>485</ele>
        <time>2019-10-26T06:56:27Z</time>
      </trkpt>
      <trkpt lat="44.17759" lon="5.04623">
        <ele>485</ele>
        <time>2019-10-26T06:56:28Z</time>
      </trkpt>
      <trkpt lat="44.17758" lon="5.04625">
        <ele>486</ele>
        <time>2019-10-26T06:56:29Z</time>
      </trkpt>
      <trkpt lat="44.17756" lon="5.0464">
        <ele>488</ele>
        <time>2019-10-26T06:56:37Z</time>
      </trkpt>
      <trkpt lat="44.17756" lon="5.04642">
        <ele>489</ele>
        <time>2019-10-26T06:56:38Z</time>
      </trkpt>
      <trkpt lat="44.17756" lon="5.04665">
        <ele>491</ele>
        <time>2019-10-26T06:56:49Z</time>
      </trkpt>
      <trkpt lat="44.17757" lon="5.04681">
        <ele>494</ele>
        <time>2019-10-26T06:56:56Z</time>
      </trkpt>
      <trkpt lat="44.17763" lon="5.047">
        <ele>491</ele>
        <time>2019-10-26T06:57:05Z</time>
      </trkpt>
      <trkpt lat="44.17763" lon="5.04702">
        <ele>492</ele>
        <time>2019-10-26T06:57:06Z</time>
      </trkpt>
      <trkpt lat="44.17764" lon="5.04704">
        <ele>492</ele>
        <time>2019-10-26T06:57:07Z</time>
      </trkpt>
      <trkpt lat="44.17764" lon="5.04706">
        <ele>492</ele>
        <time>2019-10-26T06:57:08Z</time>
      </trkpt>
      <trkpt lat="44.17765" lon="5.04708">
        <ele>492</ele>
        <time>2019-10-26T06:57:09Z</time>
      </trkpt>
      <trkpt lat="44.17765" lon="5.04711">
        <ele>492</ele>
        <time>2019-10-26T06:57:10Z</time>
      </trkpt>
      <trkpt lat="44.17766" lon="5.04713">
        <ele>491</ele>
        <time>2019-10-26T06:57:11Z</time>
      </trkpt>
      <trkpt lat="44.17772" lon="5.04737">
        <ele>490</ele>
        <time>2019-10-26T06:57:23Z</time>
      </trkpt>
      <trkpt lat="44.17769" lon="5.04765">
        <ele>491</ele>
        <time>2019-10-26T06:57:33Z</time>
      </trkpt>
      <trkpt lat="44.17764" lon="5.0479">
        <ele>492</ele>
        <time>2019-10-26T06:57:41Z</time>
      </trkpt>
      <trkpt lat="44.17762" lon="5.04806">
        <ele>491</ele>
        <time>2019-10-26T06:57:46Z</time>
      </trkpt>
      <trkpt lat="44.17762" lon="5.04809">
        <ele>490</ele>
        <time>2019-10-26T06:57:47Z</time>
      </trkpt>
      <trkpt lat="44.17766" lon="5.04835">
        <ele>482</ele>
        <time>2019-10-26T06:57:54Z</time>
      </trkpt>
      <trkpt lat="44.17765" lon="5.04855">
        <ele>476</ele>
        <time>2019-10-26T06:57:59Z</time>
      </trkpt>
      <trkpt lat="44.17765" lon="5.04858">
        <ele>476</ele>
        <time>2019-10-26T06:58:00Z</time>
      </trkpt>
      <trkpt lat="44.17764" lon="5.04862">
        <ele>477</ele>
        <time>2019-10-26T06:58:01Z</time>
      </trkpt>
      <trkpt lat="44.17762" lon="5.04866">
        <ele>478</ele>
        <time>2019-10-26T06:58:02Z</time>
      </trkpt>
      <trkpt lat="44.17761" lon="5.0487">
        <ele>480</ele>
        <time>2019-10-26T06:58:03Z</time>
      </trkpt>
      <trkpt lat="44.17759" lon="5.04873">
        <ele>482</ele>
        <time>2019-10-26T06:58:04Z</time>
      </trkpt>
      <trkpt lat="44.17755" lon="5.04883">
        <ele>484</ele>
        <time>2019-10-26T06:58:07Z</time>
      </trkpt>
      <trkpt lat="44.17754" lon="5.04887">
        <ele>485</ele>
        <time>2019-10-26T06:58:08Z</time>
      </trkpt>
      <trkpt lat="44.17754" lon="5.0489">
        <ele>485</ele>
        <time>2019-10-26T06:58:09Z</time>
      </trkpt>
      <trkpt lat="44.17753" lon="5.04894">
        <ele>485</ele>
        <time>2019-10-26T06:58:10Z</time>
      </trkpt>
      <trkpt lat="44.17753" lon="5.04897">
        <ele>485</ele>
        <time>2019-10-26T06:58:11Z</time>
      </trkpt>
      <trkpt lat="44.17752" lon="5.049">
        <ele>485</ele>
        <time>2019-10-26T06:58:12Z</time>
      </trkpt>
      <trkpt lat="44.17751" lon="5.04904">
        <ele>485</ele>
        <time>2019-10-26T06:58:13Z</time>
      </trkpt>
      <trkpt lat="44.1775" lon="5.04906">
        <ele>486</ele>
        <time>2019-10-26T06:58:14Z</time>
      </trkpt>
      <trkpt lat="44.17749" lon="5.04908">
        <ele>486</ele>
        <time>2019-10-26T06:58:15Z</time>
      </trkpt>
      <trkpt lat="44.17748" lon="5.0491">
        <ele>486</ele>
        <time>2019-10-26T06:58:16Z</time>
      </trkpt>
      <trkpt lat="44.17746" lon="5.04911">
        <ele>486</ele>
        <time>2019-10-26T06:58:17Z</time>
      </trkpt>
      <trkpt lat="44.17744" lon="5.04912">
        <ele>486</ele>
        <time>2019-10-26T06:58:18Z</time>
      </trkpt>
      <trkpt lat="44.17743" lon="5.04912">
        <ele>487</ele>
        <time>2019-10-26T06:58:19Z</time>
      </trkpt>
      <trkpt lat="44.17741" lon="5.04912">
        <ele>487</ele>
        <time>2019-10-26T06:58:20Z</time>
      </trkpt>
      <trkpt lat="44.17739" lon="5.04913">
        <ele>487</ele>
        <time>2019-10-26T06:58:21Z</time>
      </trkpt>
      <trkpt lat="44.17737" lon="5.04913">
        <ele>488</ele>
        <time>2019-10-26T06:58:22Z</time>
      </trkpt>
      <trkpt lat="44.17735" lon="5.04914">
        <ele>488</ele>
        <time>2019-10-26T06:58:23Z</time>
      </trkpt>
      <trkpt lat="44.17733" lon="5.04914">
        <ele>488</ele>
        <time>2019-10-26T06:58:24Z</time>
      </trkpt>
      <trkpt lat="44.17731" lon="5.04915">
        <ele>488</ele>
        <time>2019-10-26T06:58:25Z</time>
      </trkpt>
      <trkpt lat="44.17729" lon="5.04917">
        <ele>488</ele>
        <time>2019-10-26T06:58:26Z</time>
      </trkpt>
      <trkpt lat="44.17714" lon="5.04927">
        <ele>486</ele>
        <time>2019-10-26T06:58:34Z</time>
      </trkpt>
      <trkpt lat="44.17695" lon="5.04935">
        <ele>482</ele>
        <time>2019-10-26T06:58:43Z</time>
      </trkpt>
      <trkpt lat="44.17685" lon="5.04935">
        <ele>482</ele>
        <time>2019-10-26T06:58:48Z</time>
      </trkpt>
      <trkpt lat="44.17684" lon="5.04935">
        <ele>481</ele>
        <time>2019-10-26T06:58:49Z</time>
      </trkpt>
      <trkpt lat="44.17681" lon="5.04935">
        <ele>481</ele>
        <time>2019-10-26T06:58:50Z</time>
      </trkpt>
      <trkpt lat="44.17679" lon="5.04936">
        <ele>481</ele>
        <time>2019-10-26T06:58:51Z</time>
      </trkpt>
      <trkpt lat="44.17678" lon="5.04937">
        <ele>480</ele>
        <time>2019-10-26T06:58:52Z</time>
      </trkpt>
      <trkpt lat="44.17676" lon="5.04939">
        <ele>480</ele>
        <time>2019-10-26T06:58:53Z</time>
      </trkpt>
      <trkpt lat="44.17671" lon="5.04947">
        <ele>478</ele>
        <time>2019-10-26T06:58:56Z</time>
      </trkpt>
      <trkpt lat="44.17665" lon="5.04954">
        <ele>476</ele>
        <time>2019-10-26T06:59:00Z</time>
      </trkpt>
      <trkpt lat="44.17665" lon="5.04957">
        <ele>476</ele>
        <time>2019-10-26T06:59:01Z</time>
      </trkpt>
      <trkpt lat="44.17665" lon="5.04969">
        <ele>474</ele>
        <time>2019-10-26T06:59:05Z</time>
      </trkpt>
      <trkpt lat="44.17667" lon="5.04993">
        <ele>469</ele>
        <time>2019-10-26T06:59:12Z</time>
      </trkpt>
      <trkpt lat="44.17666" lon="5.04995">
        <ele>468</ele>
        <time>2019-10-26T06:59:13Z</time>
      </trkpt>
      <trkpt lat="44.17665" lon="5.04998">
        <ele>467</ele>
        <time>2019-10-26T06:59:14Z</time>
      </trkpt>
      <trkpt lat="44.17665" lon="5.05001">
        <ele>467</ele>
        <time>2019-10-26T06:59:15Z</time>
      </trkpt>
      <trkpt lat="44.17664" lon="5.05004">
        <ele>466</ele>
        <time>2019-10-26T06:59:16Z</time>
      </trkpt>
      <trkpt lat="44.17664" lon="5.05008">
        <ele>465</ele>
        <time>2019-10-26T06:59:17Z</time>
      </trkpt>
      <trkpt lat="44.17664" lon="5.05012">
        <ele>465</ele>
        <time>2019-10-26T06:59:18Z</time>
      </trkpt>
      <trkpt lat="44.17664" lon="5.05015">
        <ele>464</ele>
        <time>2019-10-26T06:59:19Z</time>
      </trkpt>
      <trkpt lat="44.17664" lon="5.05018">
        <ele>463</ele>
        <time>2019-10-26T06:59:20Z</time>
      </trkpt>
      <trkpt lat="44.17664" lon="5.05022">
        <ele>462</ele>
        <time>2019-10-26T06:59:21Z</time>
      </trkpt>
      <trkpt lat="44.17663" lon="5.05025">
        <ele>462</ele>
        <time>2019-10-26T06:59:22Z</time>
      </trkpt>
      <trkpt lat="44.17663" lon="5.05028">
        <ele>461</ele>
        <time>2019-10-26T06:59:23Z</time>
      </trkpt>
      <trkpt lat="44.17663" lon="5.05031">
        <ele>461</ele>
        <time>2019-10-26T06:59:24Z</time>
      </trkpt>
      <trkpt lat="44.17662" lon="5.05035">
        <ele>461</ele>
        <time>2019-10-26T06:59:25Z</time>
      </trkpt>
      <trkpt lat="44.17662" lon="5.05038">
        <ele>461</ele>
        <time>2019-10-26T06:59:26Z</time>
      </trkpt>
      <trkpt lat="44.17661" lon="5.0504">
        <ele>461</ele>
        <time>2019-10-26T06:59:27Z</time>
      </trkpt>
      <trkpt lat="44.1766" lon="5.05042">
        <ele>461</ele>
        <time>2019-10-26T06:59:28Z</time>
      </trkpt>
      <trkpt lat="44.17658" lon="5.0505">
        <ele>461</ele>
        <time>2019-10-26T06:59:34Z</time>
      </trkpt>
      <trkpt lat="44.1766" lon="5.05051">
        <ele>460</ele>
        <time>2019-10-26T06:59:35Z</time>
      </trkpt>
      <trkpt lat="44.17661" lon="5.05051">
        <ele>460</ele>
        <time>2019-10-26T06:59:36Z</time>
      </trkpt>
      <trkpt lat="44.1766" lon="5.05052">
        <ele>460</ele>
        <time>2019-10-26T06:59:38Z</time>
      </trkpt>
      <trkpt lat="44.17658" lon="5.05052">
        <ele>460</ele>
        <time>2019-10-26T06:59:39Z</time>
      </trkpt>
      <trkpt lat="44.17658" lon="5.05053">
        <ele>460</ele>
        <time>2019-10-26T06:59:40Z</time>
      </trkpt>
      <trkpt lat="44.17659" lon="5.05056">
        <ele>460</ele>
        <time>2019-10-26T06:59:42Z</time>
      </trkpt>
      <trkpt lat="44.17675" lon="5.05068">
        <ele>462</ele>
        <time>2019-10-26T06:59:54Z</time>
      </trkpt>
      <trkpt lat="44.1769" lon="5.05088">
        <ele>465</ele>
        <time>2019-10-26T07:00:03Z</time>
      </trkpt>
      <trkpt lat="44.17697" lon="5.05095">
        <ele>466</ele>
        <time>2019-10-26T07:00:07Z</time>
      </trkpt>
      <trkpt lat="44.17699" lon="5.05094">
        <ele>466</ele>
        <time>2019-10-26T07:00:08Z</time>
      </trkpt>
      <trkpt lat="44.17701" lon="5.05095">
        <ele>466</ele>
        <time>2019-10-26T07:00:09Z</time>
      </trkpt>
      <trkpt lat="44.17702" lon="5.05096">
        <ele>466</ele>
        <time>2019-10-26T07:00:10Z</time>
      </trkpt>
      <trkpt lat="44.17704" lon="5.05097">
        <ele>466</ele>
        <time>2019-10-26T07:00:11Z</time>
      </trkpt>
      <trkpt lat="44.17705" lon="5.05098">
        <ele>467</ele>
        <time>2019-10-26T07:00:12Z</time>
      </trkpt>
      <trkpt lat="44.17706" lon="5.051">
        <ele>467</ele>
        <time>2019-10-26T07:00:13Z</time>
      </trkpt>
      <trkpt lat="44.17711" lon="5.05102">
        <ele>467</ele>
        <time>2019-10-26T07:00:16Z</time>
      </trkpt>
      <trkpt lat="44.17725" lon="5.05115">
        <ele>469</ele>
        <time>2019-10-26T07:00:25Z</time>
      </trkpt>
      <trkpt lat="44.17726" lon="5.05117">
        <ele>469</ele>
        <time>2019-10-26T07:00:26Z</time>
      </trkpt>
      <trkpt lat="44.17738" lon="5.05139">
        <ele>471</ele>
        <time>2019-10-26T07:00:36Z</time>
      </trkpt>
      <trkpt lat="44.17742" lon="5.05147">
        <ele>471</ele>
        <time>2019-10-26T07:00:40Z</time>
      </trkpt>
      <trkpt lat="44.17742" lon="5.05149">
        <ele>472</ele>
        <time>2019-10-26T07:00:41Z</time>
      </trkpt>
      <trkpt lat="44.17742" lon="5.05152">
        <ele>472</ele>
        <time>2019-10-26T07:00:42Z</time>
      </trkpt>
      <trkpt lat="44.17741" lon="5.05155">
        <ele>472</ele>
        <time>2019-10-26T07:00:44Z</time>
      </trkpt>
      <trkpt lat="44.1774" lon="5.05157">
        <ele>473</ele>
        <time>2019-10-26T07:00:45Z</time>
      </trkpt>
      <trkpt lat="44.1774" lon="5.05159">
        <ele>473</ele>
        <time>2019-10-26T07:00:46Z</time>
      </trkpt>
      <trkpt lat="44.17739" lon="5.05161">
        <ele>473</ele>
        <time>2019-10-26T07:00:47Z</time>
      </trkpt>
      <trkpt lat="44.17738" lon="5.05163">
        <ele>473</ele>
        <time>2019-10-26T07:00:48Z</time>
      </trkpt>
      <trkpt lat="44.17735" lon="5.05165">
        <ele>474</ele>
        <time>2019-10-26T07:00:50Z</time>
      </trkpt>
      <trkpt lat="44.17734" lon="5.05165">
        <ele>474</ele>
        <time>2019-10-26T07:00:51Z</time>
      </trkpt>
      <trkpt lat="44.17733" lon="5.05165">
        <ele>474</ele>
        <time>2019-10-26T07:00:52Z</time>
      </trkpt>
      <trkpt lat="44.17732" lon="5.05164">
        <ele>474</ele>
        <time>2019-10-26T07:00:53Z</time>
      </trkpt>
      <trkpt lat="44.17731" lon="5.05163">
        <ele>474</ele>
        <time>2019-10-26T07:00:54Z</time>
      </trkpt>
      <trkpt lat="44.17724" lon="5.0516">
        <ele>474</ele>
        <time>2019-10-26T07:00:59Z</time>
      </trkpt>
      <trkpt lat="44.17722" lon="5.05162">
        <ele>474</ele>
        <time>2019-10-26T07:01:00Z</time>
      </trkpt>
      <trkpt lat="44.17721" lon="5.05164">
        <ele>475</ele>
        <time>2019-10-26T07:01:01Z</time>
      </trkpt>
      <trkpt lat="44.1772" lon="5.05166">
        <ele>475</ele>
        <time>2019-10-26T07:01:02Z</time>
      </trkpt>
      <trkpt lat="44.17721" lon="5.05169">
        <ele>475</ele>
        <time>2019-10-26T07:01:03Z</time>
      </trkpt>
      <trkpt lat="44.17721" lon="5.05171">
        <ele>475</ele>
        <time>2019-10-26T07:01:04Z</time>
      </trkpt>
      <trkpt lat="44.17722" lon="5.05174">
        <ele>476</ele>
        <time>2019-10-26T07:01:05Z</time>
      </trkpt>
      <trkpt lat="44.17724" lon="5.05176">
        <ele>476</ele>
        <time>2019-10-26T07:01:06Z</time>
      </trkpt>
      <trkpt lat="44.17725" lon="5.05178">
        <ele>476</ele>
        <time>2019-10-26T07:01:07Z</time>
      </trkpt>
      <trkpt lat="44.17726" lon="5.05181">
        <ele>476</ele>
        <time>2019-10-26T07:01:08Z</time>
      </trkpt>
      <trkpt lat="44.17727" lon="5.05183">
        <ele>476</ele>
        <time>2019-10-26T07:01:09Z</time>
      </trkpt>
      <trkpt lat="44.17728" lon="5.05186">
        <ele>477</ele>
        <time>2019-10-26T07:01:10Z</time>
      </trkpt>
      <trkpt lat="44.17728" lon="5.05188">
        <ele>477</ele>
        <time>2019-10-26T07:01:11Z</time>
      </trkpt>
      <trkpt lat="44.17729" lon="5.05191">
        <ele>477</ele>
        <time>2019-10-26T07:01:12Z</time>
      </trkpt>
      <trkpt lat="44.1773" lon="5.05194">
        <ele>477</ele>
        <time>2019-10-26T07:01:13Z</time>
      </trkpt>
      <trkpt lat="44.17731" lon="5.05197">
        <ele>478</ele>
        <time>2019-10-26T07:01:14Z</time>
      </trkpt>
      <trkpt lat="44.17732" lon="5.05199">
        <ele>478</ele>
        <time>2019-10-26T07:01:15Z</time>
      </trkpt>
      <trkpt lat="44.17732" lon="5.05202">
        <ele>478</ele>
        <time>2019-10-26T07:01:16Z</time>
      </trkpt>
      <trkpt lat="44.17733" lon="5.05204">
        <ele>478</ele>
        <time>2019-10-26T07:01:17Z</time>
      </trkpt>
      <trkpt lat="44.17734" lon="5.05206">
        <ele>478</ele>
        <time>2019-10-26T07:01:18Z</time>
      </trkpt>
      <trkpt lat="44.17735" lon="5.05209">
        <ele>479</ele>
        <time>2019-10-26T07:01:19Z</time>
      </trkpt>
      <trkpt lat="44.17735" lon="5.05211">
        <ele>479</ele>
        <time>2019-10-26T07:01:20Z</time>
      </trkpt>
      <trkpt lat="44.17736" lon="5.05214">
        <ele>479</ele>
        <time>2019-10-26T07:01:21Z</time>
      </trkpt>
      <trkpt lat="44.17737" lon="5.05216">
        <ele>479</ele>
        <time>2019-10-26T07:01:22Z</time>
      </trkpt>
      <trkpt lat="44.17739" lon="5.0522">
        <ele>480</ele>
        <time>2019-10-26T07:01:24Z</time>
      </trkpt>
      <trkpt lat="44.17739" lon="5.05223">
        <ele>480</ele>
        <time>2019-10-26T07:01:25Z</time>
      </trkpt>
      <trkpt lat="44.1774" lon="5.05225">
        <ele>480</ele>
        <time>2019-10-26T07:01:26Z</time>
      </trkpt>
      <trkpt lat="44.1774" lon="5.05227">
        <ele>480</ele>
        <time>2019-10-26T07:01:27Z</time>
      </trkpt>
      <trkpt lat="44.17741" lon="5.0523">
        <ele>481</ele>
        <time>2019-10-26T07:01:28Z</time>
      </trkpt>
      <trkpt lat="44.1775" lon="5.05251">
        <ele>483</ele>
        <time>2019-10-26T07:01:37Z</time>
      </trkpt>
      <trkpt lat="44.17763" lon="5.05269">
        <ele>487</ele>
        <time>2019-10-26T07:01:48Z</time>
      </trkpt>
      <trkpt lat="44.17775" lon="5.05278">
        <ele>488</ele>
        <time>2019-10-26T07:01:59Z</time>
      </trkpt>
      <trkpt lat="44.1778" lon="5.0528">
        <ele>489</ele>
        <time>2019-10-26T07:02:04Z</time>
      </trkpt>
      <trkpt lat="44.1779" lon="5.05296">
        <ele>493</ele>
        <time>2019-10-26T07:02:16Z</time>
      </trkpt>
      <trkpt lat="44.17793" lon="5.053">
        <ele>494</ele>
        <time>2019-10-26T07:02:20Z</time>
      </trkpt>
      <trkpt lat="44.17793" lon="5.05302">
        <ele>494</ele>
        <time>2019-10-26T07:02:21Z</time>
      </trkpt>
      <trkpt lat="44.17794" lon="5.05304">
        <ele>495</ele>
        <time>2019-10-26T07:02:22Z</time>
      </trkpt>
      <trkpt lat="44.17797" lon="5.05314">
        <ele>497</ele>
        <time>2019-10-26T07:02:32Z</time>
      </trkpt>
      <trkpt lat="44.17799" lon="5.05316">
        <ele>498</ele>
        <time>2019-10-26T07:02:34Z</time>
      </trkpt>
      <trkpt lat="44.178" lon="5.05318">
        <ele>498</ele>
        <time>2019-10-26T07:02:35Z</time>
      </trkpt>
      <trkpt lat="44.178" lon="5.05319">
        <ele>498</ele>
        <time>2019-10-26T07:02:36Z</time>
      </trkpt>
      <trkpt lat="44.17801" lon="5.0532">
        <ele>499</ele>
        <time>2019-10-26T07:02:37Z</time>
      </trkpt>
      <trkpt lat="44.17802" lon="5.05321">
        <ele>499</ele>
        <time>2019-10-26T07:02:38Z</time>
      </trkpt>
      <trkpt lat="44.17815" lon="5.05319">
        <ele>501</ele>
        <time>2019-10-26T07:02:47Z</time>
      </trkpt>
      <trkpt lat="44.17821" lon="5.05314">
        <ele>501</ele>
        <time>2019-10-26T07:02:50Z</time>
      </trkpt>
      <trkpt lat="44.17823" lon="5.05312">
        <ele>501</ele>
        <time>2019-10-26T07:02:51Z</time>
      </trkpt>
      <trkpt lat="44.17824" lon="5.05311">
        <ele>501</ele>
        <time>2019-10-26T07:02:52Z</time>
      </trkpt>
      <trkpt lat="44.17825" lon="5.05309">
        <ele>501</ele>
        <time>2019-10-26T07:02:53Z</time>
      </trkpt>
      <trkpt lat="44.17826" lon="5.05307">
        <ele>501</ele>
        <time>2019-10-26T07:02:54Z</time>
      </trkpt>
      <trkpt lat="44.17828" lon="5.05305">
        <ele>501</ele>
        <time>2019-10-26T07:02:55Z</time>
      </trkpt>
      <trkpt lat="44.17829" lon="5.05304">
        <ele>501</ele>
        <time>2019-10-26T07:02:56Z</time>
      </trkpt>
      <trkpt lat="44.17831" lon="5.05303">
        <ele>501</ele>
        <time>2019-10-26T07:02:57Z</time>
      </trkpt>
      <trkpt lat="44.17833" lon="5.05301">
        <ele>501</ele>
        <time>2019-10-26T07:02:58Z</time>
      </trkpt>
      <trkpt lat="44.17835" lon="5.053">
        <ele>501</ele>
        <time>2019-10-26T07:02:59Z</time>
      </trkpt>
      <trkpt lat="44.17837" lon="5.05298">
        <ele>501</ele>
        <time>2019-10-26T07:03:00Z</time>
      </trkpt>
      <trkpt lat="44.17839" lon="5.05297">
        <ele>501</ele>
        <time>2019-10-26T07:03:01Z</time>
      </trkpt>
      <trkpt lat="44.17841" lon="5.05296">
        <ele>502</ele>
        <time>2019-10-26T07:03:02Z</time>
      </trkpt>
      <trkpt lat="44.17844" lon="5.05294">
        <ele>502</ele>
        <time>2019-10-26T07:03:03Z</time>
      </trkpt>
      <trkpt lat="44.1786" lon="5.05281">
        <ele>502</ele>
        <time>2019-10-26T07:03:12Z</time>
      </trkpt>
      <trkpt lat="44.17878" lon="5.05267">
        <ele>505</ele>
        <time>2019-10-26T07:03:22Z</time>
      </trkpt>
      <trkpt lat="44.17884" lon="5.05266">
        <ele>506</ele>
        <time>2019-10-26T07:03:25Z</time>
      </trkpt>
      <trkpt lat="44.17886" lon="5.05266">
        <ele>507</ele>
        <time>2019-10-26T07:03:26Z</time>
      </trkpt>
      <trkpt lat="44.17887" lon="5.05267">
        <ele>507</ele>
        <time>2019-10-26T07:03:27Z</time>
      </trkpt>
      <trkpt lat="44.17888" lon="5.05268">
        <ele>508</ele>
        <time>2019-10-26T07:03:28Z</time>
      </trkpt>
      <trkpt lat="44.1789" lon="5.05269">
        <ele>508</ele>
        <time>2019-10-26T07:03:29Z</time>
      </trkpt>
      <trkpt lat="44.17893" lon="5.05276">
        <ele>509</ele>
        <time>2019-10-26T07:03:34Z</time>
      </trkpt>
      <trkpt lat="44.17893" lon="5.05278">
        <ele>509</ele>
        <time>2019-10-26T07:03:35Z</time>
      </trkpt>
      <trkpt lat="44.17894" lon="5.0528">
        <ele>510</ele>
        <time>2019-10-26T07:03:36Z</time>
      </trkpt>
      <trkpt lat="44.17895" lon="5.05282">
        <ele>510</ele>
        <time>2019-10-26T07:03:37Z</time>
      </trkpt>
      <trkpt lat="44.17895" lon="5.05284">
        <ele>510</ele>
        <time>2019-10-26T07:03:38Z</time>
      </trkpt>
      <trkpt lat="44.17895" lon="5.05285">
        <ele>511</ele>
        <time>2019-10-26T07:03:40Z</time>
      </trkpt>
      <trkpt lat="44.17901" lon="5.05295">
        <ele>513</ele>
        <time>2019-10-26T07:03:49Z</time>
      </trkpt>
      <trkpt lat="44.1791" lon="5.05304">
        <ele>516</ele>
        <time>2019-10-26T07:03:59Z</time>
      </trkpt>
      <trkpt lat="44.17924" lon="5.05311">
        <ele>520</ele>
        <time>2019-10-26T07:04:11Z</time>
      </trkpt>
      <trkpt lat="44.17932" lon="5.05312">
        <ele>522</ele>
        <time>2019-10-26T07:04:20Z</time>
      </trkpt>
      <trkpt lat="44.17936" lon="5.05313">
        <ele>523</ele>
        <time>2019-10-26T07:04:24Z</time>
      </trkpt>
      <trkpt lat="44.1795" lon="5.05313">
        <ele>525</ele>
        <time>2019-10-26T07:04:34Z</time>
      </trkpt>
      <trkpt lat="44.17961" lon="5.05324">
        <ele>528</ele>
        <time>2019-10-26T07:04:44Z</time>
      </trkpt>
      <trkpt lat="44.1797" lon="5.05334">
        <ele>530</ele>
        <time>2019-10-26T07:04:53Z</time>
      </trkpt>
      <trkpt lat="44.17976" lon="5.05347">
        <ele>532</ele>
        <time>2019-10-26T07:05:02Z</time>
      </trkpt>
      <trkpt lat="44.1798" lon="5.05352">
        <ele>532</ele>
        <time>2019-10-26T07:05:07Z</time>
      </trkpt>
      <trkpt lat="44.17985" lon="5.05365">
        <ele>534</ele>
        <time>2019-10-26T07:05:17Z</time>
      </trkpt>
      <trkpt lat="44.17986" lon="5.05369">
        <ele>535</ele>
        <time>2019-10-26T07:05:20Z</time>
      </trkpt>
      <trkpt lat="44.17986" lon="5.05384">
        <ele>538</ele>
        <time>2019-10-26T07:05:29Z</time>
      </trkpt>
      <trkpt lat="44.17986" lon="5.05398">
        <ele>540</ele>
        <time>2019-10-26T07:05:39Z</time>
      </trkpt>
      <trkpt lat="44.17987" lon="5.05414">
        <ele>543</ele>
        <time>2019-10-26T07:05:49Z</time>
      </trkpt>
      <trkpt lat="44.17987" lon="5.05419">
        <ele>543</ele>
        <time>2019-10-26T07:05:52Z</time>
      </trkpt>
      <trkpt lat="44.17987" lon="5.05421">
        <ele>544</ele>
        <time>2019-10-26T07:05:53Z</time>
      </trkpt>
      <trkpt lat="44.17986" lon="5.05424">
        <ele>544</ele>
        <time>2019-10-26T07:05:55Z</time>
      </trkpt>
      <trkpt lat="44.17983" lon="5.05438">
        <ele>546</ele>
        <time>2019-10-26T07:06:02Z</time>
      </trkpt>
      <trkpt lat="44.17979" lon="5.05451">
        <ele>548</ele>
        <time>2019-10-26T07:06:12Z</time>
      </trkpt>
      <trkpt lat="44.17966" lon="5.05469">
        <ele>550</ele>
        <time>2019-10-26T07:06:27Z</time>
      </trkpt>
      <trkpt lat="44.17959" lon="5.05475">
        <ele>551</ele>
        <time>2019-10-26T07:06:37Z</time>
      </trkpt>
      <trkpt lat="44.17944" lon="5.05489">
        <ele>552</ele>
        <time>2019-10-26T07:08:50Z</time>
      </trkpt>
      <trkpt lat="44.17928" lon="5.05503">
        <ele>555</ele>
        <time>2019-10-26T07:09:03Z</time>
      </trkpt>
      <trkpt lat="44.17915" lon="5.05512">
        <ele>556</ele>
        <time>2019-10-26T07:09:11Z</time>
      </trkpt>
      <trkpt lat="44.17909" lon="5.05515">
        <ele>557</ele>
        <time>2019-10-26T07:09:14Z</time>
      </trkpt>
      <trkpt lat="44.17907" lon="5.05516">
        <ele>557</ele>
        <time>2019-10-26T07:09:15Z</time>
      </trkpt>
      <trkpt lat="44.17906" lon="5.05516">
        <ele>558</ele>
        <time>2019-10-26T07:09:16Z</time>
      </trkpt>
      <trkpt lat="44.17904" lon="5.05517">
        <ele>558</ele>
        <time>2019-10-26T07:09:17Z</time>
      </trkpt>
      <trkpt lat="44.17902" lon="5.05517">
        <ele>558</ele>
        <time>2019-10-26T07:09:18Z</time>
      </trkpt>
      <trkpt lat="44.179" lon="5.05518">
        <ele>558</ele>
        <time>2019-10-26T07:09:19Z</time>
      </trkpt>
      <trkpt lat="44.17899" lon="5.05518">
        <ele>558</ele>
        <time>2019-10-26T07:09:20Z</time>
      </trkpt>
      <trkpt lat="44.17883" lon="5.05526">
        <ele>560</ele>
        <time>2019-10-26T07:09:29Z</time>
      </trkpt>
      <trkpt lat="44.17867" lon="5.05534">
        <ele>562</ele>
        <time>2019-10-26T07:09:41Z</time>
      </trkpt>
      <trkpt lat="44.17853" lon="5.05542">
        <ele>563</ele>
        <time>2019-10-26T07:09:51Z</time>
      </trkpt>
      <trkpt lat="44.17832" lon="5.05553">
        <ele>565</ele>
        <time>2019-10-26T07:10:04Z</time>
      </trkpt>
      <trkpt lat="44.17816" lon="5.05562">
        <ele>568</ele>
        <time>2019-10-26T07:10:16Z</time>
      </trkpt>
      <trkpt lat="44.17815" lon="5.05563">
        <ele>568</ele>
        <time>2019-10-26T07:10:17Z</time>
      </trkpt>
      <trkpt lat="44.17802" lon="5.05575">
        <ele>572</ele>
        <time>2019-10-26T07:10:29Z</time>
      </trkpt>
      <trkpt lat="44.1779" lon="5.05595">
        <ele>576</ele>
        <time>2019-10-26T07:10:41Z</time>
      </trkpt>
      <trkpt lat="44.17787" lon="5.05598">
        <ele>576</ele>
        <time>2019-10-26T07:10:43Z</time>
      </trkpt>
      <trkpt lat="44.17785" lon="5.056">
        <ele>577</ele>
        <time>2019-10-26T07:10:44Z</time>
      </trkpt>
      <trkpt lat="44.17783" lon="5.05602">
        <ele>577</ele>
        <time>2019-10-26T07:10:45Z</time>
      </trkpt>
      <trkpt lat="44.17782" lon="5.05603">
        <ele>577</ele>
        <time>2019-10-26T07:10:46Z</time>
      </trkpt>
      <trkpt lat="44.1778" lon="5.05605">
        <ele>577</ele>
        <time>2019-10-26T07:10:47Z</time>
      </trkpt>
      <trkpt lat="44.17779" lon="5.05606">
        <ele>577</ele>
        <time>2019-10-26T07:10:48Z</time>
      </trkpt>
      <trkpt lat="44.17777" lon="5.05608">
        <ele>577</ele>
        <time>2019-10-26T07:10:49Z</time>
      </trkpt>
      <trkpt lat="44.17776" lon="5.05609">
        <ele>578</ele>
        <time>2019-10-26T07:10:50Z</time>
      </trkpt>
      <trkpt lat="44.17774" lon="5.0561">
        <ele>578</ele>
        <time>2019-10-26T07:10:51Z</time>
      </trkpt>
      <trkpt lat="44.17773" lon="5.05612">
        <ele>578</ele>
        <time>2019-10-26T07:10:52Z</time>
      </trkpt>
      <trkpt lat="44.17771" lon="5.05613">
        <ele>578</ele>
        <time>2019-10-26T07:10:53Z</time>
      </trkpt>
      <trkpt lat="44.17769" lon="5.05615">
        <ele>579</ele>
        <time>2019-10-26T07:10:54Z</time>
      </trkpt>
      <trkpt lat="44.17768" lon="5.05616">
        <ele>579</ele>
        <time>2019-10-26T07:10:55Z</time>
      </trkpt>
      <trkpt lat="44.17766" lon="5.05618">
        <ele>579</ele>
        <time>2019-10-26T07:10:56Z</time>
      </trkpt>
      <trkpt lat="44.17765" lon="5.05619">
        <ele>579</ele>
        <time>2019-10-26T07:10:57Z</time>
      </trkpt>
      <trkpt lat="44.17764" lon="5.05621">
        <ele>579</ele>
        <time>2019-10-26T07:10:58Z</time>
      </trkpt>
      <trkpt lat="44.17762" lon="5.05622">
        <ele>580</ele>
        <time>2019-10-26T07:10:59Z</time>
      </trkpt>
      <trkpt lat="44.17761" lon="5.05624">
        <ele>580</ele>
        <time>2019-10-26T07:11:00Z</time>
      </trkpt>
      <trkpt lat="44.17759" lon="5.05625">
        <ele>580</ele>
        <time>2019-10-26T07:11:01Z</time>
      </trkpt>
      <trkpt lat="44.17758" lon="5.05627">
        <ele>580</ele>
        <time>2019-10-26T07:11:02Z</time>
      </trkpt>
      <trkpt lat="44.17757" lon="5.05629">
        <ele>580</ele>
        <time>2019-10-26T07:11:03Z</time>
      </trkpt>
      <trkpt lat="44.17755" lon="5.05631">
        <ele>580</ele>
        <time>2019-10-26T07:11:04Z</time>
      </trkpt>
      <trkpt lat="44.17753" lon="5.05632">
        <ele>580</ele>
        <time>2019-10-26T07:11:05Z</time>
      </trkpt>
      <trkpt lat="44.17752" lon="5.05634">
        <ele>581</ele>
        <time>2019-10-26T07:11:06Z</time>
      </trkpt>
      <trkpt lat="44.17751" lon="5.05636">
        <ele>581</ele>
        <time>2019-10-26T07:11:07Z</time>
      </trkpt>
      <trkpt lat="44.17749" lon="5.05638">
        <ele>581</ele>
        <time>2019-10-26T07:11:08Z</time>
      </trkpt>
      <trkpt lat="44.17747" lon="5.0564">
        <ele>581</ele>
        <time>2019-10-26T07:11:09Z</time>
      </trkpt>
      <trkpt lat="44.17746" lon="5.05641">
        <ele>581</ele>
        <time>2019-10-26T07:11:10Z</time>
      </trkpt>
      <trkpt lat="44.17744" lon="5.05643">
        <ele>581</ele>
        <time>2019-10-26T07:11:11Z</time>
      </trkpt>
      <trkpt lat="44.17743" lon="5.05646">
        <ele>581</ele>
        <time>2019-10-26T07:11:12Z</time>
      </trkpt>
      <trkpt lat="44.1774" lon="5.05658">
        <ele>582</ele>
        <time>2019-10-26T07:11:16Z</time>
      </trkpt>
      <trkpt lat="44.1774" lon="5.05662">
        <ele>582</ele>
        <time>2019-10-26T07:11:17Z</time>
      </trkpt>
      <trkpt lat="44.1774" lon="5.05665">
        <ele>582</ele>
        <time>2019-10-26T07:11:18Z</time>
      </trkpt>
      <trkpt lat="44.17741" lon="5.05668">
        <ele>582</ele>
        <time>2019-10-26T07:11:19Z</time>
      </trkpt>
      <trkpt lat="44.17741" lon="5.05671">
        <ele>583</ele>
        <time>2019-10-26T07:11:20Z</time>
      </trkpt>
      <trkpt lat="44.17742" lon="5.05674">
        <ele>583</ele>
        <time>2019-10-26T07:11:21Z</time>
      </trkpt>
      <trkpt lat="44.17742" lon="5.05677">
        <ele>583</ele>
        <time>2019-10-26T07:11:22Z</time>
      </trkpt>
      <trkpt lat="44.17742" lon="5.0568">
        <ele>583</ele>
        <time>2019-10-26T07:11:23Z</time>
      </trkpt>
      <trkpt lat="44.17742" lon="5.05683">
        <ele>583</ele>
        <time>2019-10-26T07:11:24Z</time>
      </trkpt>
      <trkpt lat="44.17742" lon="5.05686">
        <ele>583</ele>
        <time>2019-10-26T07:11:25Z</time>
      </trkpt>
      <trkpt lat="44.17742" lon="5.05689">
        <ele>584</ele>
        <time>2019-10-26T07:11:26Z</time>
      </trkpt>
      <trkpt lat="44.17742" lon="5.05692">
        <ele>584</ele>
        <time>2019-10-26T07:11:27Z</time>
      </trkpt>
      <trkpt lat="44.17742" lon="5.05695">
        <ele>584</ele>
        <time>2019-10-26T07:11:28Z</time>
      </trkpt>
      <trkpt lat="44.17742" lon="5.05698">
        <ele>584</ele>
        <time>2019-10-26T07:11:29Z</time>
      </trkpt>
      <trkpt lat="44.17742" lon="5.057">
        <ele>584</ele>
        <time>2019-10-26T07:11:30Z</time>
      </trkpt>
      <trkpt lat="44.17742" lon="5.05703">
        <ele>584</ele>
        <time>2019-10-26T07:11:31Z</time>
      </trkpt>
      <trkpt lat="44.17742" lon="5.05706">
        <ele>584</ele>
        <time>2019-10-26T07:11:32Z</time>
      </trkpt>
      <trkpt lat="44.17742" lon="5.05708">
        <ele>584</ele>
        <time>2019-10-26T07:11:33Z</time>
      </trkpt>
      <trkpt lat="44.17742" lon="5.05711">
        <ele>584</ele>
        <time>2019-10-26T07:11:34Z</time>
      </trkpt>
      <trkpt lat="44.17742" lon="5.05713">
        <ele>585</ele>
        <time>2019-10-26T07:11:35Z</time>
      </trkpt>
      <trkpt lat="44.17745" lon="5.05729">
        <ele>586</ele>
        <time>2019-10-26T07:11:43Z</time>
      </trkpt>
      <trkpt lat="44.17746" lon="5.05731">
        <ele>586</ele>
        <time>2019-10-26T07:11:44Z</time>
      </trkpt>
      <trkpt lat="44.17748" lon="5.05732">
        <ele>586</ele>
        <time>2019-10-26T07:11:45Z</time>
      </trkpt>
      <trkpt lat="44.17749" lon="5.05733">
        <ele>587</ele>
        <time>2019-10-26T07:11:46Z</time>
      </trkpt>
      <trkpt lat="44.17751" lon="5.05734">
        <ele>587</ele>
        <time>2019-10-26T07:11:47Z</time>
      </trkpt>
      <trkpt lat="44.17752" lon="5.05734">
        <ele>587</ele>
        <time>2019-10-26T07:11:48Z</time>
      </trkpt>
      <trkpt lat="44.17754" lon="5.05734">
        <ele>588</ele>
        <time>2019-10-26T07:11:49Z</time>
      </trkpt>
      <trkpt lat="44.17756" lon="5.05734">
        <ele>588</ele>
        <time>2019-10-26T07:11:50Z</time>
      </trkpt>
      <trkpt lat="44.1777" lon="5.05734">
        <ele>592</ele>
        <time>2019-10-26T07:12:00Z</time>
      </trkpt>
      <trkpt lat="44.17774" lon="5.05736">
        <ele>594</ele>
        <time>2019-10-26T07:12:03Z</time>
      </trkpt>
      <trkpt lat="44.17776" lon="5.05736">
        <ele>594</ele>
        <time>2019-10-26T07:12:04Z</time>
      </trkpt>
      <trkpt lat="44.17778" lon="5.05735">
        <ele>594</ele>
        <time>2019-10-26T07:12:05Z</time>
      </trkpt>
      <trkpt lat="44.17779" lon="5.05735">
        <ele>595</ele>
        <time>2019-10-26T07:12:06Z</time>
      </trkpt>
      <trkpt lat="44.17781" lon="5.05734">
        <ele>595</ele>
        <time>2019-10-26T07:12:07Z</time>
      </trkpt>
      <trkpt lat="44.17782" lon="5.05733">
        <ele>595</ele>
        <time>2019-10-26T07:12:08Z</time>
      </trkpt>
      <trkpt lat="44.17789" lon="5.05725">
        <ele>596</ele>
        <time>2019-10-26T07:12:16Z</time>
      </trkpt>
      <trkpt lat="44.17791" lon="5.05723">
        <ele>596</ele>
        <time>2019-10-26T07:12:17Z</time>
      </trkpt>
      <trkpt lat="44.17807" lon="5.05707">
        <ele>598</ele>
        <time>2019-10-26T07:12:26Z</time>
      </trkpt>
      <trkpt lat="44.1781" lon="5.05704">
        <ele>599</ele>
        <time>2019-10-26T07:12:28Z</time>
      </trkpt>
      <trkpt lat="44.17811" lon="5.05703">
        <ele>599</ele>
        <time>2019-10-26T07:12:29Z</time>
      </trkpt>
      <trkpt lat="44.17813" lon="5.05701">
        <ele>599</ele>
        <time>2019-10-26T07:12:30Z</time>
      </trkpt>
      <trkpt lat="44.17814" lon="5.057">
        <ele>600</ele>
        <time>2019-10-26T07:12:31Z</time>
      </trkpt>
      <trkpt lat="44.17816" lon="5.05699">
        <ele>600</ele>
        <time>2019-10-26T07:12:32Z</time>
      </trkpt>
      <trkpt lat="44.17818" lon="5.05697">
        <ele>600</ele>
        <time>2019-10-26T07:12:33Z</time>
      </trkpt>
      <trkpt lat="44.17819" lon="5.05697">
        <ele>601</ele>
        <time>2019-10-26T07:12:34Z</time>
      </trkpt>
      <trkpt lat="44.17821" lon="5.05696">
        <ele>601</ele>
        <time>2019-10-26T07:12:35Z</time>
      </trkpt>
      <trkpt lat="44.17823" lon="5.05696">
        <ele>602</ele>
        <time>2019-10-26T07:12:36Z</time>
      </trkpt>
      <trkpt lat="44.17824" lon="5.05696">
        <ele>602</ele>
        <time>2019-10-26T07:12:37Z</time>
      </trkpt>
      <trkpt lat="44.17826" lon="5.05696">
        <ele>603</ele>
        <time>2019-10-26T07:12:38Z</time>
      </trkpt>
      <trkpt lat="44.17827" lon="5.05695">
        <ele>603</ele>
        <time>2019-10-26T07:12:39Z</time>
      </trkpt>
      <trkpt lat="44.17829" lon="5.05694">
        <ele>603</ele>
        <time>2019-10-26T07:12:40Z</time>
      </trkpt>
      <trkpt lat="44.1784" lon="5.05692">
        <ele>606</ele>
        <time>2019-10-26T07:12:50Z</time>
      </trkpt>
      <trkpt lat="44.17846" lon="5.05693">
        <ele>607</ele>
        <time>2019-10-26T07:12:56Z</time>
      </trkpt>
      <trkpt lat="44.17859" lon="5.05691">
        <ele>610</ele>
        <time>2019-10-26T07:13:08Z</time>
      </trkpt>
      <trkpt lat="44.17871" lon="5.05687">
        <ele>611</ele>
        <time>2019-10-26T07:13:17Z</time>
      </trkpt>
      <trkpt lat="44.17872" lon="5.05686">
        <ele>611</ele>
        <time>2019-10-26T07:13:18Z</time>
      </trkpt>
      <trkpt lat="44.17874" lon="5.05685">
        <ele>611</ele>
        <time>2019-10-26T07:13:19Z</time>
      </trkpt>
      <trkpt lat="44.17876" lon="5.05684">
        <ele>612</ele>
        <time>2019-10-26T07:13:20Z</time>
      </trkpt>
      <trkpt lat="44.17877" lon="5.05683">
        <ele>612</ele>
        <time>2019-10-26T07:13:21Z</time>
      </trkpt>
      <trkpt lat="44.17879" lon="5.05683">
        <ele>612</ele>
        <time>2019-10-26T07:13:22Z</time>
      </trkpt>
      <trkpt lat="44.1788" lon="5.05683">
        <ele>612</ele>
        <time>2019-10-26T07:13:23Z</time>
      </trkpt>
      <trkpt lat="44.17882" lon="5.05683">
        <ele>613</ele>
        <time>2019-10-26T07:13:24Z</time>
      </trkpt>
      <trkpt lat="44.17883" lon="5.05684">
        <ele>613</ele>
        <time>2019-10-26T07:13:25Z</time>
      </trkpt>
      <trkpt lat="44.17889" lon="5.05686">
        <ele>614</ele>
        <time>2019-10-26T07:13:30Z</time>
      </trkpt>
      <trkpt lat="44.17907" lon="5.05693">
        <ele>617</ele>
        <time>2019-10-26T07:13:43Z</time>
      </trkpt>
      <trkpt lat="44.17908" lon="5.05693">
        <ele>617</ele>
        <time>2019-10-26T07:13:44Z</time>
      </trkpt>
      <trkpt lat="44.17927" lon="5.05682">
        <ele>613</ele>
        <time>2019-10-26T07:13:53Z</time>
      </trkpt>
      <trkpt lat="44.17928" lon="5.0568">
        <ele>613</ele>
        <time>2019-10-26T07:13:54Z</time>
      </trkpt>
      <trkpt lat="44.1793" lon="5.0568">
        <ele>613</ele>
        <time>2019-10-26T07:13:55Z</time>
      </trkpt>
      <trkpt lat="44.17932" lon="5.05679">
        <ele>612</ele>
        <time>2019-10-26T07:13:56Z</time>
      </trkpt>
      <trkpt lat="44.17939" lon="5.05679">
        <ele>612</ele>
        <time>2019-10-26T07:14:00Z</time>
      </trkpt>
      <trkpt lat="44.17941" lon="5.0568">
        <ele>612</ele>
        <time>2019-10-26T07:14:01Z</time>
      </trkpt>
      <trkpt lat="44.17944" lon="5.05681">
        <ele>612</ele>
        <time>2019-10-26T07:14:02Z</time>
      </trkpt>
      <trkpt lat="44.17946" lon="5.05682">
        <ele>612</ele>
        <time>2019-10-26T07:14:03Z</time>
      </trkpt>
      <trkpt lat="44.17948" lon="5.05683">
        <ele>612</ele>
        <time>2019-10-26T07:14:04Z</time>
      </trkpt>
      <trkpt lat="44.17957" lon="5.05688">
        <ele>613</ele>
        <time>2019-10-26T07:14:08Z</time>
      </trkpt>
      <trkpt lat="44.17959" lon="5.05689">
        <ele>613</ele>
        <time>2019-10-26T07:14:09Z</time>
      </trkpt>
      <trkpt lat="44.17961" lon="5.0569">
        <ele>613</ele>
        <time>2019-10-26T07:14:10Z</time>
      </trkpt>
      <trkpt lat="44.17963" lon="5.05691">
        <ele>613</ele>
        <time>2019-10-26T07:14:11Z</time>
      </trkpt>
      <trkpt lat="44.17964" lon="5.05693">
        <ele>613</ele>
        <time>2019-10-26T07:14:12Z</time>
      </trkpt>
      <trkpt lat="44.17966" lon="5.05694">
        <ele>613</ele>
        <time>2019-10-26T07:14:13Z</time>
      </trkpt>
      <trkpt lat="44.17968" lon="5.05695">
        <ele>614</ele>
        <time>2019-10-26T07:14:14Z</time>
      </trkpt>
      <trkpt lat="44.1797" lon="5.05696">
        <ele>614</ele>
        <time>2019-10-26T07:14:15Z</time>
      </trkpt>
      <trkpt lat="44.17973" lon="5.05698">
        <ele>614</ele>
        <time>2019-10-26T07:14:17Z</time>
      </trkpt>
      <trkpt lat="44.17977" lon="5.057">
        <ele>614</ele>
        <time>2019-10-26T07:14:19Z</time>
      </trkpt>
      <trkpt lat="44.17993" lon="5.05707">
        <ele>614</ele>
        <time>2019-10-26T07:14:29Z</time>
      </trkpt>
      <trkpt lat="44.18006" lon="5.05712">
        <ele>614</ele>
        <time>2019-10-26T07:14:38Z</time>
      </trkpt>
      <trkpt lat="44.1801" lon="5.05714">
        <ele>613</ele>
        <time>2019-10-26T07:14:40Z</time>
      </trkpt>
      <trkpt lat="44.18016" lon="5.0572">
        <ele>614</ele>
        <time>2019-10-26T07:14:43Z</time>
      </trkpt>
      <trkpt lat="44.18018" lon="5.05723">
        <ele>614</ele>
        <time>2019-10-26T07:14:44Z</time>
      </trkpt>
      <trkpt lat="44.1802" lon="5.05724">
        <ele>614</ele>
        <time>2019-10-26T07:14:45Z</time>
      </trkpt>
      <trkpt lat="44.18022" lon="5.05726">
        <ele>614</ele>
        <time>2019-10-26T07:14:46Z</time>
      </trkpt>
      <trkpt lat="44.18024" lon="5.05727">
        <ele>614</ele>
        <time>2019-10-26T07:14:47Z</time>
      </trkpt>
      <trkpt lat="44.18033" lon="5.05731">
        <ele>613</ele>
        <time>2019-10-26T07:14:53Z</time>
      </trkpt>
      <trkpt lat="44.18041" lon="5.05735">
        <ele>612</ele>
        <time>2019-10-26T07:14:57Z</time>
      </trkpt>
      <trkpt lat="44.18043" lon="5.05737">
        <ele>612</ele>
        <time>2019-10-26T07:14:58Z</time>
      </trkpt>
      <trkpt lat="44.18044" lon="5.05739">
        <ele>612</ele>
        <time>2019-10-26T07:14:59Z</time>
      </trkpt>
      <trkpt lat="44.18046" lon="5.05741">
        <ele>612</ele>
        <time>2019-10-26T07:15:00Z</time>
      </trkpt>
      <trkpt lat="44.18048" lon="5.05742">
        <ele>612</ele>
        <time>2019-10-26T07:15:01Z</time>
      </trkpt>
      <trkpt lat="44.1805" lon="5.05744">
        <ele>612</ele>
        <time>2019-10-26T07:15:02Z</time>
      </trkpt>
      <trkpt lat="44.18064" lon="5.05757">
        <ele>612</ele>
        <time>2019-10-26T07:15:10Z</time>
      </trkpt>
      <trkpt lat="44.18076" lon="5.05774">
        <ele>613</ele>
        <time>2019-10-26T07:15:19Z</time>
      </trkpt>
      <trkpt lat="44.18078" lon="5.05775">
        <ele>613</ele>
        <time>2019-10-26T07:15:20Z</time>
      </trkpt>
      <trkpt lat="44.18079" lon="5.05777">
        <ele>613</ele>
        <time>2019-10-26T07:15:21Z</time>
      </trkpt>
      <trkpt lat="44.18081" lon="5.05778">
        <ele>614</ele>
        <time>2019-10-26T07:15:22Z</time>
      </trkpt>
      <trkpt lat="44.18082" lon="5.0578">
        <ele>614</ele>
        <time>2019-10-26T07:15:23Z</time>
      </trkpt>
      <trkpt lat="44.18083" lon="5.05782">
        <ele>614</ele>
        <time>2019-10-26T07:15:24Z</time>
      </trkpt>
      <trkpt lat="44.18085" lon="5.05783">
        <ele>614</ele>
        <time>2019-10-26T07:15:25Z</time>
      </trkpt>
      <trkpt lat="44.18086" lon="5.05784">
        <ele>614</ele>
        <time>2019-10-26T07:15:26Z</time>
      </trkpt>
      <trkpt lat="44.18087" lon="5.05786">
        <ele>614</ele>
        <time>2019-10-26T07:15:27Z</time>
      </trkpt>
      <trkpt lat="44.18088" lon="5.05789">
        <ele>614</ele>
        <time>2019-10-26T07:15:28Z</time>
      </trkpt>
      <trkpt lat="44.18095" lon="5.05798">
        <ele>614</ele>
        <time>2019-10-26T07:15:33Z</time>
      </trkpt>
      <trkpt lat="44.18097" lon="5.058">
        <ele>614</ele>
        <time>2019-10-26T07:15:34Z</time>
      </trkpt>
      <trkpt lat="44.18099" lon="5.05802">
        <ele>614</ele>
        <time>2019-10-26T07:15:35Z</time>
      </trkpt>
      <trkpt lat="44.18101" lon="5.05804">
        <ele>614</ele>
        <time>2019-10-26T07:15:36Z</time>
      </trkpt>
      <trkpt lat="44.18103" lon="5.05805">
        <ele>614</ele>
        <time>2019-10-26T07:15:37Z</time>
      </trkpt>
      <trkpt lat="44.1811" lon="5.05812">
        <ele>613</ele>
        <time>2019-10-26T07:15:41Z</time>
      </trkpt>
      <trkpt lat="44.18112" lon="5.05814">
        <ele>613</ele>
        <time>2019-10-26T07:15:42Z</time>
      </trkpt>
      <trkpt lat="44.18117" lon="5.05819">
        <ele>613</ele>
        <time>2019-10-26T07:15:45Z</time>
      </trkpt>
      <trkpt lat="44.18119" lon="5.05821">
        <ele>613</ele>
        <time>2019-10-26T07:15:46Z</time>
      </trkpt>
      <trkpt lat="44.18121" lon="5.05822">
        <ele>612</ele>
        <time>2019-10-26T07:15:47Z</time>
      </trkpt>
      <trkpt lat="44.18122" lon="5.05825">
        <ele>613</ele>
        <time>2019-10-26T07:15:49Z</time>
      </trkpt>
      <trkpt lat="44.18121" lon="5.05827">
        <ele>613</ele>
        <time>2019-10-26T07:15:50Z</time>
      </trkpt>
      <trkpt lat="44.1812" lon="5.05828">
        <ele>613</ele>
        <time>2019-10-26T07:15:51Z</time>
      </trkpt>
      <trkpt lat="44.18119" lon="5.05829">
        <ele>613</ele>
        <time>2019-10-26T07:15:52Z</time>
      </trkpt>
      <trkpt lat="44.18118" lon="5.05831">
        <ele>613</ele>
        <time>2019-10-26T07:15:53Z</time>
      </trkpt>
      <trkpt lat="44.18117" lon="5.05832">
        <ele>614</ele>
        <time>2019-10-26T07:15:54Z</time>
      </trkpt>
      <trkpt lat="44.18117" lon="5.05833">
        <ele>614</ele>
        <time>2019-10-26T07:15:55Z</time>
      </trkpt>
      <trkpt lat="44.18109" lon="5.05839">
        <ele>616</ele>
        <time>2019-10-26T07:16:06Z</time>
      </trkpt>
      <trkpt lat="44.18102" lon="5.05848">
        <ele>619</ele>
        <time>2019-10-26T07:16:16Z</time>
      </trkpt>
      <trkpt lat="44.18095" lon="5.05851">
        <ele>622</ele>
        <time>2019-10-26T07:16:25Z</time>
      </trkpt>
      <trkpt lat="44.18085" lon="5.0585">
        <ele>625</ele>
        <time>2019-10-26T07:16:36Z</time>
      </trkpt>
      <trkpt lat="44.18077" lon="5.05851">
        <ele>628</ele>
        <time>2019-10-26T07:16:45Z</time>
      </trkpt>
      <trkpt lat="44.18075" lon="5.0586">
        <ele>630</ele>
        <time>2019-10-26T07:16:53Z</time>
      </trkpt>
      <trkpt lat="44.18068" lon="5.05863">
        <ele>634</ele>
        <time>2019-10-26T07:17:03Z</time>
      </trkpt>
      <trkpt lat="44.18062" lon="5.05859">
        <ele>636</ele>
        <time>2019-10-26T07:17:13Z</time>
      </trkpt>
      <trkpt lat="44.18057" lon="5.0587">
        <ele>640</ele>
        <time>2019-10-26T07:17:24Z</time>
      </trkpt>
      <trkpt lat="44.18054" lon="5.05883">
        <ele>643</ele>
        <time>2019-10-26T07:17:35Z</time>
      </trkpt>
      <trkpt lat="44.18049" lon="5.05894">
        <ele>648</ele>
        <time>2019-10-26T07:17:46Z</time>
      </trkpt>
      <trkpt lat="44.18044" lon="5.05903">
        <ele>654</ele>
        <time>2019-10-26T07:17:56Z</time>
      </trkpt>
      <trkpt lat="44.18041" lon="5.05911">
        <ele>657</ele>
        <time>2019-10-26T07:18:06Z</time>
      </trkpt>
      <trkpt lat="44.18038" lon="5.05923">
        <ele>662</ele>
        <time>2019-10-26T07:18:17Z</time>
      </trkpt>
      <trkpt lat="44.18035" lon="5.05934">
        <ele>667</ele>
        <time>2019-10-26T07:18:28Z</time>
      </trkpt>
      <trkpt lat="44.18033" lon="5.05942">
        <ele>671</ele>
        <time>2019-10-26T07:18:37Z</time>
      </trkpt>
      <trkpt lat="44.18027" lon="5.05941">
        <ele>675</ele>
        <time>2019-10-26T07:18:47Z</time>
      </trkpt>
      <trkpt lat="44.18024" lon="5.05934">
        <ele>675</ele>
        <time>2019-10-26T07:18:58Z</time>
      </trkpt>
      <trkpt lat="44.18022" lon="5.05925">
        <ele>674</ele>
        <time>2019-10-26T07:19:07Z</time>
      </trkpt>
      <trkpt lat="44.18021" lon="5.05912">
        <ele>671</ele>
        <time>2019-10-26T07:19:15Z</time>
      </trkpt>
      <trkpt lat="44.18023" lon="5.0591">
        <ele>670</ele>
        <time>2019-10-26T07:19:26Z</time>
      </trkpt>
      <trkpt lat="44.18024" lon="5.05908">
        <ele>669</ele>
        <time>2019-10-26T07:19:41Z</time>
      </trkpt>
      <trkpt lat="44.18023" lon="5.05908">
        <ele>669</ele>
        <time>2019-10-26T07:19:57Z</time>
      </trkpt>
      <trkpt lat="44.18022" lon="5.05905">
        <ele>669</ele>
        <time>2019-10-26T07:20:04Z</time>
      </trkpt>
      <trkpt lat="44.18016" lon="5.05905">
        <ele>673</ele>
        <time>2019-10-26T07:20:14Z</time>
      </trkpt>
      <trkpt lat="44.18015" lon="5.05903">
        <ele>674</ele>
        <time>2019-10-26T07:20:23Z</time>
      </trkpt>
      <trkpt lat="44.18014" lon="5.05902">
        <ele>674</ele>
        <time>2019-10-26T07:20:38Z</time>
      </trkpt>
      <trkpt lat="44.18012" lon="5.05898">
        <ele>675</ele>
        <time>2019-10-26T07:20:44Z</time>
      </trkpt>
      <trkpt lat="44.18012" lon="5.05896">
        <ele>675</ele>
        <time>2019-10-26T07:20:46Z</time>
      </trkpt>
      <trkpt lat="44.18012" lon="5.05894">
        <ele>674</ele>
        <time>2019-10-26T07:20:47Z</time>
      </trkpt>
      <trkpt lat="44.18012" lon="5.05891">
        <ele>674</ele>
        <time>2019-10-26T07:20:49Z</time>
      </trkpt>
      <trkpt lat="44.18012" lon="5.05889">
        <ele>673</ele>
        <time>2019-10-26T07:20:50Z</time>
      </trkpt>
      <trkpt lat="44.18012" lon="5.05886">
        <ele>673</ele>
        <time>2019-10-26T07:20:52Z</time>
      </trkpt>
      <trkpt lat="44.18011" lon="5.05884">
        <ele>673</ele>
        <time>2019-10-26T07:20:54Z</time>
      </trkpt>
      <trkpt lat="44.18008" lon="5.05875">
        <ele>672</ele>
        <time>2019-10-26T07:21:04Z</time>
      </trkpt>
      <trkpt lat="44.18004" lon="5.05868">
        <ele>674</ele>
        <time>2019-10-26T07:21:13Z</time>
      </trkpt>
      <trkpt lat="44.17997" lon="5.05864">
        <ele>678</ele>
        <time>2019-10-26T07:21:24Z</time>
      </trkpt>
      <trkpt lat="44.17991" lon="5.05862">
        <ele>682</ele>
        <time>2019-10-26T07:21:34Z</time>
      </trkpt>
      <trkpt lat="44.17986" lon="5.05863">
        <ele>686</ele>
        <time>2019-10-26T07:21:43Z</time>
      </trkpt>
      <trkpt lat="44.17981" lon="5.05868">
        <ele>691</ele>
        <time>2019-10-26T07:21:52Z</time>
      </trkpt>
      <trkpt lat="44.17977" lon="5.05876">
        <ele>694</ele>
        <time>2019-10-26T07:22:02Z</time>
      </trkpt>
      <trkpt lat="44.17971" lon="5.0589">
        <ele>699</ele>
        <time>2019-10-26T07:22:14Z</time>
      </trkpt>
      <trkpt lat="44.17971" lon="5.05891">
        <ele>700</ele>
        <time>2019-10-26T07:22:15Z</time>
      </trkpt>
      <trkpt lat="44.1797" lon="5.05893">
        <ele>700</ele>
        <time>2019-10-26T07:22:16Z</time>
      </trkpt>
      <trkpt lat="44.17968" lon="5.059">
        <ele>701</ele>
        <time>2019-10-26T07:22:21Z</time>
      </trkpt>
      <trkpt lat="44.17966" lon="5.05905">
        <ele>703</ele>
        <time>2019-10-26T07:22:24Z</time>
      </trkpt>
      <trkpt lat="44.17965" lon="5.05906">
        <ele>703</ele>
        <time>2019-10-26T07:22:25Z</time>
      </trkpt>
      <trkpt lat="44.17964" lon="5.05907">
        <ele>703</ele>
        <time>2019-10-26T07:22:26Z</time>
      </trkpt>
      <trkpt lat="44.17964" lon="5.05908">
        <ele>704</ele>
        <time>2019-10-26T07:22:27Z</time>
      </trkpt>
      <trkpt lat="44.17963" lon="5.0591">
        <ele>704</ele>
        <time>2019-10-26T07:22:28Z</time>
      </trkpt>
      <trkpt lat="44.17963" lon="5.05912">
        <ele>704</ele>
        <time>2019-10-26T07:22:29Z</time>
      </trkpt>
      <trkpt lat="44.17962" lon="5.05913">
        <ele>705</ele>
        <time>2019-10-26T07:22:30Z</time>
      </trkpt>
      <trkpt lat="44.17962" lon="5.05915">
        <ele>705</ele>
        <time>2019-10-26T07:22:31Z</time>
      </trkpt>
      <trkpt lat="44.17958" lon="5.0593">
        <ele>708</ele>
        <time>2019-10-26T07:22:40Z</time>
      </trkpt>
      <trkpt lat="44.17952" lon="5.05951">
        <ele>713</ele>
        <time>2019-10-26T07:22:53Z</time>
      </trkpt>
      <trkpt lat="44.17946" lon="5.05953">
        <ele>716</ele>
        <time>2019-10-26T07:23:02Z</time>
      </trkpt>
      <trkpt lat="44.17939" lon="5.05962">
        <ele>719</ele>
        <time>2019-10-26T07:23:13Z</time>
      </trkpt>
      <trkpt lat="44.17934" lon="5.05966">
        <ele>720</ele>
        <time>2019-10-26T07:23:23Z</time>
      </trkpt>
      <trkpt lat="44.1793" lon="5.05973">
        <ele>721</ele>
        <time>2019-10-26T07:23:29Z</time>
      </trkpt>
      <trkpt lat="44.17923" lon="5.05989">
        <ele>725</ele>
        <time>2019-10-26T07:23:39Z</time>
      </trkpt>
      <trkpt lat="44.17916" lon="5.06002">
        <ele>729</ele>
        <time>2019-10-26T07:23:49Z</time>
      </trkpt>
      <trkpt lat="44.17916" lon="5.06003">
        <ele>729</ele>
        <time>2019-10-26T07:23:50Z</time>
      </trkpt>
      <trkpt lat="44.17913" lon="5.0601">
        <ele>728</ele>
        <time>2019-10-26T07:24:43Z</time>
      </trkpt>
      <trkpt lat="44.17916" lon="5.06012">
        <ele>729</ele>
        <time>2019-10-26T07:24:53Z</time>
      </trkpt>
      <trkpt lat="44.1792" lon="5.06013">
        <ele>729</ele>
        <time>2019-10-26T07:25:00Z</time>
      </trkpt>
      <trkpt lat="44.17927" lon="5.06014">
        <ele>728</ele>
        <time>2019-10-26T07:25:05Z</time>
      </trkpt>
      <trkpt lat="44.17929" lon="5.06014">
        <ele>727</ele>
        <time>2019-10-26T07:25:06Z</time>
      </trkpt>
      <trkpt lat="44.17931" lon="5.06014">
        <ele>727</ele>
        <time>2019-10-26T07:25:07Z</time>
      </trkpt>
      <trkpt lat="44.17932" lon="5.06015">
        <ele>727</ele>
        <time>2019-10-26T07:25:08Z</time>
      </trkpt>
      <trkpt lat="44.17934" lon="5.06016">
        <ele>727</ele>
        <time>2019-10-26T07:25:09Z</time>
      </trkpt>
      <trkpt lat="44.17936" lon="5.06017">
        <ele>726</ele>
        <time>2019-10-26T07:25:10Z</time>
      </trkpt>
      <trkpt lat="44.17937" lon="5.06018">
        <ele>726</ele>
        <time>2019-10-26T07:25:11Z</time>
      </trkpt>
      <trkpt lat="44.17938" lon="5.0602">
        <ele>726</ele>
        <time>2019-10-26T07:25:12Z</time>
      </trkpt>
      <trkpt lat="44.1794" lon="5.06021">
        <ele>726</ele>
        <time>2019-10-26T07:25:13Z</time>
      </trkpt>
      <trkpt lat="44.17941" lon="5.06023">
        <ele>726</ele>
        <time>2019-10-26T07:25:14Z</time>
      </trkpt>
      <trkpt lat="44.17942" lon="5.06025">
        <ele>726</ele>
        <time>2019-10-26T07:25:15Z</time>
      </trkpt>
      <trkpt lat="44.17943" lon="5.06027">
        <ele>726</ele>
        <time>2019-10-26T07:25:16Z</time>
      </trkpt>
      <trkpt lat="44.17945" lon="5.06029">
        <ele>726</ele>
        <time>2019-10-26T07:25:17Z</time>
      </trkpt>
      <trkpt lat="44.17946" lon="5.06031">
        <ele>726</ele>
        <time>2019-10-26T07:25:18Z</time>
      </trkpt>
      <trkpt lat="44.17958" lon="5.06048">
        <ele>725</ele>
        <time>2019-10-26T07:25:27Z</time>
      </trkpt>
      <trkpt lat="44.1797" lon="5.06065">
        <ele>723</ele>
        <time>2019-10-26T07:25:35Z</time>
      </trkpt>
      <trkpt lat="44.17978" lon="5.06074">
        <ele>721</ele>
        <time>2019-10-26T07:25:40Z</time>
      </trkpt>
      <trkpt lat="44.17979" lon="5.06076">
        <ele>721</ele>
        <time>2019-10-26T07:25:41Z</time>
      </trkpt>
      <trkpt lat="44.17995" lon="5.06096">
        <ele>719</ele>
        <time>2019-10-26T07:25:51Z</time>
      </trkpt>
      <trkpt lat="44.18004" lon="5.06108">
        <ele>719</ele>
        <time>2019-10-26T07:25:57Z</time>
      </trkpt>
      <trkpt lat="44.18005" lon="5.06111">
        <ele>719</ele>
        <time>2019-10-26T07:25:58Z</time>
      </trkpt>
      <trkpt lat="44.18006" lon="5.06113">
        <ele>719</ele>
        <time>2019-10-26T07:25:59Z</time>
      </trkpt>
      <trkpt lat="44.18011" lon="5.06118">
        <ele>718</ele>
        <time>2019-10-26T07:26:02Z</time>
      </trkpt>
      <trkpt lat="44.18012" lon="5.0612">
        <ele>718</ele>
        <time>2019-10-26T07:26:03Z</time>
      </trkpt>
      <trkpt lat="44.18014" lon="5.06122">
        <ele>718</ele>
        <time>2019-10-26T07:26:04Z</time>
      </trkpt>
      <trkpt lat="44.18025" lon="5.06136">
        <ele>718</ele>
        <time>2019-10-26T07:26:12Z</time>
      </trkpt>
      <trkpt lat="44.18034" lon="5.06154">
        <ele>717</ele>
        <time>2019-10-26T07:26:20Z</time>
      </trkpt>
      <trkpt lat="44.18035" lon="5.06156">
        <ele>717</ele>
        <time>2019-10-26T07:26:21Z</time>
      </trkpt>
      <trkpt lat="44.18036" lon="5.06159">
        <ele>717</ele>
        <time>2019-10-26T07:26:22Z</time>
      </trkpt>
      <trkpt lat="44.18037" lon="5.06161">
        <ele>717</ele>
        <time>2019-10-26T07:26:23Z</time>
      </trkpt>
      <trkpt lat="44.18038" lon="5.06164">
        <ele>717</ele>
        <time>2019-10-26T07:26:24Z</time>
      </trkpt>
      <trkpt lat="44.18039" lon="5.06167">
        <ele>717</ele>
        <time>2019-10-26T07:26:25Z</time>
      </trkpt>
      <trkpt lat="44.18041" lon="5.0617">
        <ele>717</ele>
        <time>2019-10-26T07:26:26Z</time>
      </trkpt>
      <trkpt lat="44.18042" lon="5.06172">
        <ele>716</ele>
        <time>2019-10-26T07:26:27Z</time>
      </trkpt>
      <trkpt lat="44.18051" lon="5.06196">
        <ele>715</ele>
        <time>2019-10-26T07:26:35Z</time>
      </trkpt>
      <trkpt lat="44.18061" lon="5.06221">
        <ele>712</ele>
        <time>2019-10-26T07:26:44Z</time>
      </trkpt>
      <trkpt lat="44.18063" lon="5.06235">
        <ele>712</ele>
        <time>2019-10-26T07:26:51Z</time>
      </trkpt>
      <trkpt lat="44.18063" lon="5.06238">
        <ele>711</ele>
        <time>2019-10-26T07:26:54Z</time>
      </trkpt>
      <trkpt lat="44.18063" lon="5.06241">
        <ele>711</ele>
        <time>2019-10-26T07:27:03Z</time>
      </trkpt>
      <trkpt lat="44.18069" lon="5.06245">
        <ele>711</ele>
        <time>2019-10-26T07:27:21Z</time>
      </trkpt>
      <trkpt lat="44.18069" lon="5.06248">
        <ele>711</ele>
        <time>2019-10-26T07:27:44Z</time>
      </trkpt>
      <trkpt lat="44.18066" lon="5.06251">
        <ele>711</ele>
        <time>2019-10-26T07:28:05Z</time>
      </trkpt>
      <trkpt lat="44.18067" lon="5.06253">
        <ele>711</ele>
        <time>2019-10-26T07:28:08Z</time>
      </trkpt>
      <trkpt lat="44.18067" lon="5.06255">
        <ele>711</ele>
        <time>2019-10-26T07:28:09Z</time>
      </trkpt>
      <trkpt lat="44.18068" lon="5.06256">
        <ele>711</ele>
        <time>2019-10-26T07:28:10Z</time>
      </trkpt>
      <trkpt lat="44.18072" lon="5.06261">
        <ele>711</ele>
        <time>2019-10-26T07:28:13Z</time>
      </trkpt>
      <trkpt lat="44.18084" lon="5.06275">
        <ele>710</ele>
        <time>2019-10-26T07:28:21Z</time>
      </trkpt>
      <trkpt lat="44.18085" lon="5.06278">
        <ele>710</ele>
        <time>2019-10-26T07:28:22Z</time>
      </trkpt>
      <trkpt lat="44.18089" lon="5.06292">
        <ele>709</ele>
        <time>2019-10-26T07:28:28Z</time>
      </trkpt>
      <trkpt lat="44.1809" lon="5.06294">
        <ele>709</ele>
        <time>2019-10-26T07:28:29Z</time>
      </trkpt>
      <trkpt lat="44.18093" lon="5.06312">
        <ele>709</ele>
        <time>2019-10-26T07:28:37Z</time>
      </trkpt>
      <trkpt lat="44.18094" lon="5.06315">
        <ele>709</ele>
        <time>2019-10-26T07:28:38Z</time>
      </trkpt>
      <trkpt lat="44.18097" lon="5.06327">
        <ele>709</ele>
        <time>2019-10-26T07:28:42Z</time>
      </trkpt>
      <trkpt lat="44.18098" lon="5.06329">
        <ele>709</ele>
        <time>2019-10-26T07:28:43Z</time>
      </trkpt>
      <trkpt lat="44.181" lon="5.06332">
        <ele>709</ele>
        <time>2019-10-26T07:28:44Z</time>
      </trkpt>
      <trkpt lat="44.18101" lon="5.06335">
        <ele>709</ele>
        <time>2019-10-26T07:28:45Z</time>
      </trkpt>
      <trkpt lat="44.18102" lon="5.06338">
        <ele>708</ele>
        <time>2019-10-26T07:28:46Z</time>
      </trkpt>
      <trkpt lat="44.18104" lon="5.0634">
        <ele>708</ele>
        <time>2019-10-26T07:28:47Z</time>
      </trkpt>
      <trkpt lat="44.18105" lon="5.06342">
        <ele>708</ele>
        <time>2019-10-26T07:28:48Z</time>
      </trkpt>
      <trkpt lat="44.18118" lon="5.06359">
        <ele>708</ele>
        <time>2019-10-26T07:28:56Z</time>
      </trkpt>
      <trkpt lat="44.18125" lon="5.06366">
        <ele>708</ele>
        <time>2019-10-26T07:30:53Z</time>
      </trkpt>
      <trkpt lat="44.18128" lon="5.06366">
        <ele>708</ele>
        <time>2019-10-26T07:30:55Z</time>
      </trkpt>
      <trkpt lat="44.18129" lon="5.06368">
        <ele>708</ele>
        <time>2019-10-26T07:30:56Z</time>
      </trkpt>
      <trkpt lat="44.18131" lon="5.06369">
        <ele>708</ele>
        <time>2019-10-26T07:30:57Z</time>
      </trkpt>
      <trkpt lat="44.18145" lon="5.06382">
        <ele>708</ele>
        <time>2019-10-26T07:31:06Z</time>
      </trkpt>
      <trkpt lat="44.18149" lon="5.06388">
        <ele>709</ele>
        <time>2019-10-26T07:31:09Z</time>
      </trkpt>
      <trkpt lat="44.1815" lon="5.0639">
        <ele>709</ele>
        <time>2019-10-26T07:31:10Z</time>
      </trkpt>
      <trkpt lat="44.18151" lon="5.06392">
        <ele>709</ele>
        <time>2019-10-26T07:31:11Z</time>
      </trkpt>
      <trkpt lat="44.18151" lon="5.06394">
        <ele>709</ele>
        <time>2019-10-26T07:31:12Z</time>
      </trkpt>
      <trkpt lat="44.18152" lon="5.06396">
        <ele>709</ele>
        <time>2019-10-26T07:31:13Z</time>
      </trkpt>
      <trkpt lat="44.18153" lon="5.06398">
        <ele>710</ele>
        <time>2019-10-26T07:31:14Z</time>
      </trkpt>
      <trkpt lat="44.18156" lon="5.06407">
        <ele>711</ele>
        <time>2019-10-26T07:31:19Z</time>
      </trkpt>
      <trkpt lat="44.18157" lon="5.06415">
        <ele>711</ele>
        <time>2019-10-26T07:31:23Z</time>
      </trkpt>
      <trkpt lat="44.18158" lon="5.06416">
        <ele>712</ele>
        <time>2019-10-26T07:31:24Z</time>
      </trkpt>
      <trkpt lat="44.1816" lon="5.06417">
        <ele>712</ele>
        <time>2019-10-26T07:31:25Z</time>
      </trkpt>
      <trkpt lat="44.18161" lon="5.06419">
        <ele>712</ele>
        <time>2019-10-26T07:31:26Z</time>
      </trkpt>
      <trkpt lat="44.18161" lon="5.0642">
        <ele>712</ele>
        <time>2019-10-26T07:31:27Z</time>
      </trkpt>
      <trkpt lat="44.18169" lon="5.06435">
        <ele>715</ele>
        <time>2019-10-26T07:31:36Z</time>
      </trkpt>
      <trkpt lat="44.1817" lon="5.06435">
        <ele>715</ele>
        <time>2019-10-26T07:31:38Z</time>
      </trkpt>
      <trkpt lat="44.18171" lon="5.06436">
        <ele>715</ele>
        <time>2019-10-26T07:31:39Z</time>
      </trkpt>
      <trkpt lat="44.18173" lon="5.06437">
        <ele>715</ele>
        <time>2019-10-26T07:31:40Z</time>
      </trkpt>
      <trkpt lat="44.18174" lon="5.06438">
        <ele>715</ele>
        <time>2019-10-26T07:31:41Z</time>
      </trkpt>
      <trkpt lat="44.18175" lon="5.06439">
        <ele>715</ele>
        <time>2019-10-26T07:31:42Z</time>
      </trkpt>
      <trkpt lat="44.18176" lon="5.0644">
        <ele>715</ele>
        <time>2019-10-26T07:31:43Z</time>
      </trkpt>
      <trkpt lat="44.18178" lon="5.06441">
        <ele>715</ele>
        <time>2019-10-26T07:31:44Z</time>
      </trkpt>
      <trkpt lat="44.18179" lon="5.06442">
        <ele>715</ele>
        <time>2019-10-26T07:31:45Z</time>
      </trkpt>
      <trkpt lat="44.1818" lon="5.06444">
        <ele>715</ele>
        <time>2019-10-26T07:31:46Z</time>
      </trkpt>
      <trkpt lat="44.18182" lon="5.06446">
        <ele>715</ele>
        <time>2019-10-26T07:31:47Z</time>
      </trkpt>
      <trkpt lat="44.18187" lon="5.06451">
        <ele>715</ele>
        <time>2019-10-26T07:31:51Z</time>
      </trkpt>
      <trkpt lat="44.18189" lon="5.06453">
        <ele>715</ele>
        <time>2019-10-26T07:31:52Z</time>
      </trkpt>
      <trkpt lat="44.18191" lon="5.06457">
        <ele>715</ele>
        <time>2019-10-26T07:31:55Z</time>
      </trkpt>
      <trkpt lat="44.18196" lon="5.06464">
        <ele>714</ele>
        <time>2019-10-26T07:32:00Z</time>
      </trkpt>
      <trkpt lat="44.182" lon="5.06467">
        <ele>713</ele>
        <time>2019-10-26T07:32:03Z</time>
      </trkpt>
      <trkpt lat="44.18201" lon="5.06468">
        <ele>713</ele>
        <time>2019-10-26T07:32:04Z</time>
      </trkpt>
      <trkpt lat="44.18203" lon="5.06469">
        <ele>713</ele>
        <time>2019-10-26T07:32:05Z</time>
      </trkpt>
      <trkpt lat="44.18204" lon="5.0647">
        <ele>713</ele>
        <time>2019-10-26T07:32:06Z</time>
      </trkpt>
      <trkpt lat="44.18206" lon="5.0647">
        <ele>713</ele>
        <time>2019-10-26T07:32:07Z</time>
      </trkpt>
      <trkpt lat="44.18209" lon="5.06473">
        <ele>712</ele>
        <time>2019-10-26T07:32:09Z</time>
      </trkpt>
      <trkpt lat="44.18212" lon="5.06476">
        <ele>712</ele>
        <time>2019-10-26T07:32:11Z</time>
      </trkpt>
      <trkpt lat="44.18213" lon="5.06476">
        <ele>712</ele>
        <time>2019-10-26T07:32:12Z</time>
      </trkpt>
      <trkpt lat="44.18216" lon="5.06477">
        <ele>711</ele>
        <time>2019-10-26T07:32:13Z</time>
      </trkpt>
      <trkpt lat="44.18218" lon="5.06476">
        <ele>711</ele>
        <time>2019-10-26T07:32:14Z</time>
      </trkpt>
      <trkpt lat="44.1822" lon="5.06476">
        <ele>711</ele>
        <time>2019-10-26T07:32:15Z</time>
      </trkpt>
      <trkpt lat="44.18221" lon="5.06475">
        <ele>711</ele>
        <time>2019-10-26T07:32:16Z</time>
      </trkpt>
      <trkpt lat="44.18223" lon="5.06475">
        <ele>711</ele>
        <time>2019-10-26T07:32:17Z</time>
      </trkpt>
      <trkpt lat="44.18225" lon="5.06475">
        <ele>711</ele>
        <time>2019-10-26T07:32:18Z</time>
      </trkpt>
      <trkpt lat="44.18227" lon="5.06476">
        <ele>711</ele>
        <time>2019-10-26T07:32:19Z</time>
      </trkpt>
      <trkpt lat="44.18239" lon="5.06484">
        <ele>710</ele>
        <time>2019-10-26T07:32:25Z</time>
      </trkpt>
      <trkpt lat="44.1824" lon="5.06484">
        <ele>710</ele>
        <time>2019-10-26T07:32:26Z</time>
      </trkpt>
      <trkpt lat="44.18242" lon="5.06483">
        <ele>710</ele>
        <time>2019-10-26T07:32:27Z</time>
      </trkpt>
      <trkpt lat="44.18243" lon="5.06483">
        <ele>710</ele>
        <time>2019-10-26T07:32:28Z</time>
      </trkpt>
      <trkpt lat="44.18245" lon="5.06482">
        <ele>710</ele>
        <time>2019-10-26T07:32:29Z</time>
      </trkpt>
      <trkpt lat="44.18247" lon="5.06481">
        <ele>710</ele>
        <time>2019-10-26T07:32:30Z</time>
      </trkpt>
      <trkpt lat="44.18248" lon="5.06479">
        <ele>710</ele>
        <time>2019-10-26T07:32:31Z</time>
      </trkpt>
      <trkpt lat="44.18249" lon="5.06478">
        <ele>710</ele>
        <time>2019-10-26T07:32:32Z</time>
      </trkpt>
      <trkpt lat="44.18251" lon="5.06477">
        <ele>710</ele>
        <time>2019-10-26T07:32:33Z</time>
      </trkpt>
      <trkpt lat="44.18253" lon="5.06476">
        <ele>710</ele>
        <time>2019-10-26T07:32:34Z</time>
      </trkpt>
      <trkpt lat="44.18255" lon="5.06474">
        <ele>710</ele>
        <time>2019-10-26T07:32:35Z</time>
      </trkpt>
      <trkpt lat="44.18258" lon="5.06473">
        <ele>710</ele>
        <time>2019-10-26T07:32:36Z</time>
      </trkpt>
      <trkpt lat="44.1826" lon="5.06473">
        <ele>710</ele>
        <time>2019-10-26T07:32:37Z</time>
      </trkpt>
      <trkpt lat="44.18262" lon="5.06474">
        <ele>710</ele>
        <time>2019-10-26T07:32:38Z</time>
      </trkpt>
      <trkpt lat="44.18265" lon="5.06474">
        <ele>710</ele>
        <time>2019-10-26T07:32:39Z</time>
      </trkpt>
      <trkpt lat="44.18268" lon="5.06474">
        <ele>710</ele>
        <time>2019-10-26T07:32:40Z</time>
      </trkpt>
      <trkpt lat="44.18271" lon="5.06474">
        <ele>710</ele>
        <time>2019-10-26T07:32:41Z</time>
      </trkpt>
      <trkpt lat="44.18273" lon="5.06475">
        <ele>710</ele>
        <time>2019-10-26T07:32:42Z</time>
      </trkpt>
      <trkpt lat="44.18275" lon="5.06475">
        <ele>710</ele>
        <time>2019-10-26T07:32:43Z</time>
      </trkpt>
      <trkpt lat="44.18287" lon="5.0648">
        <ele>709</ele>
        <time>2019-10-26T07:32:50Z</time>
      </trkpt>
      <trkpt lat="44.18289" lon="5.06479">
        <ele>709</ele>
        <time>2019-10-26T07:32:51Z</time>
      </trkpt>
      <trkpt lat="44.1829" lon="5.06478">
        <ele>709</ele>
        <time>2019-10-26T07:32:52Z</time>
      </trkpt>
      <trkpt lat="44.18292" lon="5.06478">
        <ele>709</ele>
        <time>2019-10-26T07:32:53Z</time>
      </trkpt>
      <trkpt lat="44.18293" lon="5.0648">
        <ele>709</ele>
        <time>2019-10-26T07:32:54Z</time>
      </trkpt>
      <trkpt lat="44.18295" lon="5.06481">
        <ele>709</ele>
        <time>2019-10-26T07:32:55Z</time>
      </trkpt>
      <trkpt lat="44.18297" lon="5.06483">
        <ele>709</ele>
        <time>2019-10-26T07:32:56Z</time>
      </trkpt>
      <trkpt lat="44.18298" lon="5.06485">
        <ele>709</ele>
        <time>2019-10-26T07:32:57Z</time>
      </trkpt>
      <trkpt lat="44.18299" lon="5.06487">
        <ele>709</ele>
        <time>2019-10-26T07:32:58Z</time>
      </trkpt>
      <trkpt lat="44.18299" lon="5.06489">
        <ele>709</ele>
        <time>2019-10-26T07:32:59Z</time>
      </trkpt>
      <trkpt lat="44.18301" lon="5.06491">
        <ele>709</ele>
        <time>2019-10-26T07:33:00Z</time>
      </trkpt>
      <trkpt lat="44.18302" lon="5.06493">
        <ele>709</ele>
        <time>2019-10-26T07:33:01Z</time>
      </trkpt>
      <trkpt lat="44.18303" lon="5.06495">
        <ele>709</ele>
        <time>2019-10-26T07:33:02Z</time>
      </trkpt>
      <trkpt lat="44.18305" lon="5.06502">
        <ele>709</ele>
        <time>2019-10-26T07:33:06Z</time>
      </trkpt>
      <trkpt lat="44.18306" lon="5.06503">
        <ele>709</ele>
        <time>2019-10-26T07:33:07Z</time>
      </trkpt>
      <trkpt lat="44.18307" lon="5.06505">
        <ele>708</ele>
        <time>2019-10-26T07:33:08Z</time>
      </trkpt>
      <trkpt lat="44.18309" lon="5.06507">
        <ele>708</ele>
        <time>2019-10-26T07:33:09Z</time>
      </trkpt>
      <trkpt lat="44.1831" lon="5.06509">
        <ele>708</ele>
        <time>2019-10-26T07:33:10Z</time>
      </trkpt>
      <trkpt lat="44.18317" lon="5.06534">
        <ele>704</ele>
        <time>2019-10-26T07:33:19Z</time>
      </trkpt>
      <trkpt lat="44.18326" lon="5.06563">
        <ele>702</ele>
        <time>2019-10-26T07:33:28Z</time>
      </trkpt>
      <trkpt lat="44.18334" lon="5.06582">
        <ele>701</ele>
        <time>2019-10-26T07:33:36Z</time>
      </trkpt>
      <trkpt lat="44.18337" lon="5.0659">
        <ele>701</ele>
        <time>2019-10-26T07:33:41Z</time>
      </trkpt>
      <trkpt lat="44.1834" lon="5.06592">
        <ele>701</ele>
        <time>2019-10-26T07:33:43Z</time>
      </trkpt>
      <trkpt lat="44.18355" lon="5.06602">
        <ele>702</ele>
        <time>2019-10-26T07:33:52Z</time>
      </trkpt>
      <trkpt lat="44.18357" lon="5.06603">
        <ele>702</ele>
        <time>2019-10-26T07:33:53Z</time>
      </trkpt>
      <trkpt lat="44.18359" lon="5.06604">
        <ele>702</ele>
        <time>2019-10-26T07:33:54Z</time>
      </trkpt>
      <trkpt lat="44.1836" lon="5.06606">
        <ele>702</ele>
        <time>2019-10-26T07:33:55Z</time>
      </trkpt>
      <trkpt lat="44.18362" lon="5.06609">
        <ele>702</ele>
        <time>2019-10-26T07:33:56Z</time>
      </trkpt>
      <trkpt lat="44.18364" lon="5.0661">
        <ele>702</ele>
        <time>2019-10-26T07:33:57Z</time>
      </trkpt>
      <trkpt lat="44.18365" lon="5.06613">
        <ele>702</ele>
        <time>2019-10-26T07:33:58Z</time>
      </trkpt>
      <trkpt lat="44.18367" lon="5.06615">
        <ele>701</ele>
        <time>2019-10-26T07:33:59Z</time>
      </trkpt>
      <trkpt lat="44.18368" lon="5.06617">
        <ele>701</ele>
        <time>2019-10-26T07:34:00Z</time>
      </trkpt>
      <trkpt lat="44.18375" lon="5.06626">
        <ele>701</ele>
        <time>2019-10-26T07:34:04Z</time>
      </trkpt>
      <trkpt lat="44.18376" lon="5.06628">
        <ele>701</ele>
        <time>2019-10-26T07:34:05Z</time>
      </trkpt>
      <trkpt lat="44.18377" lon="5.0663">
        <ele>701</ele>
        <time>2019-10-26T07:34:06Z</time>
      </trkpt>
      <trkpt lat="44.18378" lon="5.06633">
        <ele>700</ele>
        <time>2019-10-26T07:34:07Z</time>
      </trkpt>
      <trkpt lat="44.1838" lon="5.06636">
        <ele>700</ele>
        <time>2019-10-26T07:34:08Z</time>
      </trkpt>
      <trkpt lat="44.18381" lon="5.06638">
        <ele>700</ele>
        <time>2019-10-26T07:34:09Z</time>
      </trkpt>
      <trkpt lat="44.18385" lon="5.06646">
        <ele>698</ele>
        <time>2019-10-26T07:34:13Z</time>
      </trkpt>
      <trkpt lat="44.18386" lon="5.06649">
        <ele>698</ele>
        <time>2019-10-26T07:34:14Z</time>
      </trkpt>
      <trkpt lat="44.18395" lon="5.06658">
        <ele>696</ele>
        <time>2019-10-26T07:34:20Z</time>
      </trkpt>
      <trkpt lat="44.18406" lon="5.06661">
        <ele>698</ele>
        <time>2019-10-26T07:34:28Z</time>
      </trkpt>
      <trkpt lat="44.18408" lon="5.0666">
        <ele>698</ele>
        <time>2019-10-26T07:34:29Z</time>
      </trkpt>
      <trkpt lat="44.18412" lon="5.06659">
        <ele>700</ele>
        <time>2019-10-26T07:34:32Z</time>
      </trkpt>
      <trkpt lat="44.18416" lon="5.06658">
        <ele>700</ele>
        <time>2019-10-26T07:34:35Z</time>
      </trkpt>
      <trkpt lat="44.18417" lon="5.06658">
        <ele>701</ele>
        <time>2019-10-26T07:34:36Z</time>
      </trkpt>
      <trkpt lat="44.18418" lon="5.06658">
        <ele>700</ele>
        <time>2019-10-26T07:34:37Z</time>
      </trkpt>
      <trkpt lat="44.1842" lon="5.06658">
        <ele>700</ele>
        <time>2019-10-26T07:34:38Z</time>
      </trkpt>
      <trkpt lat="44.18423" lon="5.0666">
        <ele>699</ele>
        <time>2019-10-26T07:34:42Z</time>
      </trkpt>
      <trkpt lat="44.18424" lon="5.0666">
        <ele>698</ele>
        <time>2019-10-26T07:34:43Z</time>
      </trkpt>
      <trkpt lat="44.18426" lon="5.06661">
        <ele>698</ele>
        <time>2019-10-26T07:34:44Z</time>
      </trkpt>
      <trkpt lat="44.18427" lon="5.06661">
        <ele>698</ele>
        <time>2019-10-26T07:34:45Z</time>
      </trkpt>
      <trkpt lat="44.18437" lon="5.06666">
        <ele>696</ele>
        <time>2019-10-26T07:34:54Z</time>
      </trkpt>
      <trkpt lat="44.18439" lon="5.06673">
        <ele>695</ele>
        <time>2019-10-26T07:35:02Z</time>
      </trkpt>
      <trkpt lat="44.18439" lon="5.06674">
        <ele>695</ele>
        <time>2019-10-26T07:35:03Z</time>
      </trkpt>
      <trkpt lat="44.1844" lon="5.06683">
        <ele>693</ele>
        <time>2019-10-26T07:35:12Z</time>
      </trkpt>
      <trkpt lat="44.18438" lon="5.06688">
        <ele>692</ele>
        <time>2019-10-26T07:35:21Z</time>
      </trkpt>
      <trkpt lat="44.18441" lon="5.06692">
        <ele>691</ele>
        <time>2019-10-26T07:35:32Z</time>
      </trkpt>
      <trkpt lat="44.18445" lon="5.06691">
        <ele>692</ele>
        <time>2019-10-26T07:35:41Z</time>
      </trkpt>
      <trkpt lat="44.18446" lon="5.06693">
        <ele>691</ele>
        <time>2019-10-26T07:35:51Z</time>
      </trkpt>
      <trkpt lat="44.18448" lon="5.06695">
        <ele>689</ele>
        <time>2019-10-26T07:35:58Z</time>
      </trkpt>
      <trkpt lat="44.1845" lon="5.06699">
        <ele>686</ele>
        <time>2019-10-26T07:36:08Z</time>
      </trkpt>
      <trkpt lat="44.18453" lon="5.06701">
        <ele>684</ele>
        <time>2019-10-26T07:36:14Z</time>
      </trkpt>
      <trkpt lat="44.18454" lon="5.06702">
        <ele>683</ele>
        <time>2019-10-26T07:36:15Z</time>
      </trkpt>
      <trkpt lat="44.18467" lon="5.06707">
        <ele>677</ele>
        <time>2019-10-26T07:36:23Z</time>
      </trkpt>
      <trkpt lat="44.18478" lon="5.06709">
        <ele>673</ele>
        <time>2019-10-26T07:36:30Z</time>
      </trkpt>
      <trkpt lat="44.18483" lon="5.06713">
        <ele>672</ele>
        <time>2019-10-26T07:36:38Z</time>
      </trkpt>
      <trkpt lat="44.18485" lon="5.06714">
        <ele>671</ele>
        <time>2019-10-26T07:36:40Z</time>
      </trkpt>
      <trkpt lat="44.18487" lon="5.06716">
        <ele>671</ele>
        <time>2019-10-26T07:36:42Z</time>
      </trkpt>
      <trkpt lat="44.18493" lon="5.0672">
        <ele>671</ele>
        <time>2019-10-26T07:36:49Z</time>
      </trkpt>
      <trkpt lat="44.18494" lon="5.06721">
        <ele>671</ele>
        <time>2019-10-26T07:36:50Z</time>
      </trkpt>
      <trkpt lat="44.18496" lon="5.06723">
        <ele>670</ele>
        <time>2019-10-26T07:36:51Z</time>
      </trkpt>
      <trkpt lat="44.18498" lon="5.06724">
        <ele>670</ele>
        <time>2019-10-26T07:36:52Z</time>
      </trkpt>
      <trkpt lat="44.185" lon="5.06726">
        <ele>670</ele>
        <time>2019-10-26T07:36:53Z</time>
      </trkpt>
      <trkpt lat="44.18509" lon="5.06735">
        <ele>669</ele>
        <time>2019-10-26T07:36:59Z</time>
      </trkpt>
      <trkpt lat="44.18509" lon="5.06738">
        <ele>669</ele>
        <time>2019-10-26T07:37:00Z</time>
      </trkpt>
      <trkpt lat="44.1851" lon="5.06741">
        <ele>670</ele>
        <time>2019-10-26T07:37:01Z</time>
      </trkpt>
      <trkpt lat="44.18512" lon="5.06744">
        <ele>670</ele>
        <time>2019-10-26T07:37:02Z</time>
      </trkpt>
      <trkpt lat="44.18514" lon="5.06746">
        <ele>670</ele>
        <time>2019-10-26T07:37:03Z</time>
      </trkpt>
      <trkpt lat="44.18516" lon="5.06748">
        <ele>670</ele>
        <time>2019-10-26T07:37:04Z</time>
      </trkpt>
      <trkpt lat="44.18518" lon="5.0675">
        <ele>671</ele>
        <time>2019-10-26T07:37:05Z</time>
      </trkpt>
      <trkpt lat="44.1852" lon="5.06753">
        <ele>671</ele>
        <time>2019-10-26T07:37:06Z</time>
      </trkpt>
      <trkpt lat="44.18526" lon="5.06761">
        <ele>672</ele>
        <time>2019-10-26T07:37:10Z</time>
      </trkpt>
      <trkpt lat="44.18527" lon="5.06762">
        <ele>672</ele>
        <time>2019-10-26T07:37:11Z</time>
      </trkpt>
      <trkpt lat="44.1853" lon="5.06764">
        <ele>672</ele>
        <time>2019-10-26T07:37:13Z</time>
      </trkpt>
      <trkpt lat="44.18531" lon="5.06766">
        <ele>673</ele>
        <time>2019-10-26T07:37:15Z</time>
      </trkpt>
      <trkpt lat="44.18535" lon="5.06768">
        <ele>674</ele>
        <time>2019-10-26T07:37:18Z</time>
      </trkpt>
      <trkpt lat="44.18541" lon="5.06772">
        <ele>675</ele>
        <time>2019-10-26T07:37:22Z</time>
      </trkpt>
      <trkpt lat="44.18542" lon="5.06772">
        <ele>675</ele>
        <time>2019-10-26T07:37:23Z</time>
      </trkpt>
      <trkpt lat="44.18546" lon="5.06774">
        <ele>676</ele>
        <time>2019-10-26T07:37:26Z</time>
      </trkpt>
      <trkpt lat="44.18547" lon="5.06775">
        <ele>677</ele>
        <time>2019-10-26T07:37:27Z</time>
      </trkpt>
      <trkpt lat="44.1855" lon="5.06776">
        <ele>677</ele>
        <time>2019-10-26T07:37:29Z</time>
      </trkpt>
      <trkpt lat="44.18554" lon="5.06779">
        <ele>679</ele>
        <time>2019-10-26T07:37:40Z</time>
      </trkpt>
      <trkpt lat="44.1856" lon="5.06783">
        <ele>680</ele>
        <time>2019-10-26T07:37:44Z</time>
      </trkpt>
      <trkpt lat="44.18568" lon="5.06788">
        <ele>681</ele>
        <time>2019-10-26T07:37:49Z</time>
      </trkpt>
      <trkpt lat="44.18569" lon="5.06788">
        <ele>681</ele>
        <time>2019-10-26T07:37:50Z</time>
      </trkpt>
      <trkpt lat="44.18571" lon="5.06789">
        <ele>682</ele>
        <time>2019-10-26T07:37:51Z</time>
      </trkpt>
      <trkpt lat="44.18574" lon="5.06791">
        <ele>682</ele>
        <time>2019-10-26T07:37:54Z</time>
      </trkpt>
      <trkpt lat="44.18583" lon="5.06797">
        <ele>685</ele>
        <time>2019-10-26T07:38:04Z</time>
      </trkpt>
      <trkpt lat="44.18586" lon="5.06799">
        <ele>685</ele>
        <time>2019-10-26T07:38:06Z</time>
      </trkpt>
      <trkpt lat="44.18594" lon="5.06799">
        <ele>684</ele>
        <time>2019-10-26T07:38:15Z</time>
      </trkpt>
      <trkpt lat="44.18603" lon="5.0681">
        <ele>685</ele>
        <time>2019-10-26T07:38:24Z</time>
      </trkpt>
      <trkpt lat="44.1861" lon="5.06832">
        <ele>689</ele>
        <time>2019-10-26T07:38:33Z</time>
      </trkpt>
      <trkpt lat="44.18612" lon="5.06838">
        <ele>689</ele>
        <time>2019-10-26T07:39:10Z</time>
      </trkpt>
      <trkpt lat="44.18614" lon="5.0684">
        <ele>688</ele>
        <time>2019-10-26T07:40:53Z</time>
      </trkpt>
      <trkpt lat="44.18625" lon="5.06853">
        <ele>686</ele>
        <time>2019-10-26T07:41:02Z</time>
      </trkpt>
      <trkpt lat="44.18628" lon="5.06856">
        <ele>685</ele>
        <time>2019-10-26T07:41:04Z</time>
      </trkpt>
      <trkpt lat="44.18629" lon="5.06859">
        <ele>685</ele>
        <time>2019-10-26T07:41:05Z</time>
      </trkpt>
      <trkpt lat="44.1863" lon="5.06861">
        <ele>685</ele>
        <time>2019-10-26T07:41:06Z</time>
      </trkpt>
      <trkpt lat="44.1863" lon="5.06863">
        <ele>685</ele>
        <time>2019-10-26T07:41:07Z</time>
      </trkpt>
      <trkpt lat="44.18631" lon="5.06866">
        <ele>686</ele>
        <time>2019-10-26T07:41:08Z</time>
      </trkpt>
      <trkpt lat="44.18632" lon="5.06868">
        <ele>686</ele>
        <time>2019-10-26T07:41:09Z</time>
      </trkpt>
      <trkpt lat="44.18634" lon="5.0687">
        <ele>686</ele>
        <time>2019-10-26T07:41:10Z</time>
      </trkpt>
      <trkpt lat="44.18635" lon="5.06872">
        <ele>686</ele>
        <time>2019-10-26T07:41:11Z</time>
      </trkpt>
      <trkpt lat="44.18636" lon="5.06873">
        <ele>686</ele>
        <time>2019-10-26T07:41:12Z</time>
      </trkpt>
      <trkpt lat="44.18638" lon="5.06875">
        <ele>686</ele>
        <time>2019-10-26T07:41:13Z</time>
      </trkpt>
      <trkpt lat="44.18639" lon="5.06878">
        <ele>686</ele>
        <time>2019-10-26T07:41:14Z</time>
      </trkpt>
      <trkpt lat="44.1864" lon="5.0688">
        <ele>686</ele>
        <time>2019-10-26T07:41:15Z</time>
      </trkpt>
      <trkpt lat="44.18641" lon="5.06882">
        <ele>686</ele>
        <time>2019-10-26T07:41:16Z</time>
      </trkpt>
      <trkpt lat="44.18642" lon="5.06884">
        <ele>686</ele>
        <time>2019-10-26T07:41:17Z</time>
      </trkpt>
      <trkpt lat="44.18643" lon="5.06887">
        <ele>686</ele>
        <time>2019-10-26T07:41:18Z</time>
      </trkpt>
      <trkpt lat="44.18644" lon="5.0689">
        <ele>686</ele>
        <time>2019-10-26T07:41:19Z</time>
      </trkpt>
      <trkpt lat="44.18645" lon="5.06892">
        <ele>686</ele>
        <time>2019-10-26T07:41:20Z</time>
      </trkpt>
      <trkpt lat="44.18645" lon="5.06895">
        <ele>686</ele>
        <time>2019-10-26T07:41:21Z</time>
      </trkpt>
      <trkpt lat="44.18646" lon="5.06897">
        <ele>687</ele>
        <time>2019-10-26T07:41:22Z</time>
      </trkpt>
      <trkpt lat="44.18647" lon="5.06899">
        <ele>686</ele>
        <time>2019-10-26T07:41:23Z</time>
      </trkpt>
      <trkpt lat="44.18649" lon="5.06901">
        <ele>686</ele>
        <time>2019-10-26T07:41:24Z</time>
      </trkpt>
      <trkpt lat="44.1865" lon="5.06903">
        <ele>686</ele>
        <time>2019-10-26T07:41:25Z</time>
      </trkpt>
      <trkpt lat="44.18651" lon="5.06906">
        <ele>686</ele>
        <time>2019-10-26T07:41:26Z</time>
      </trkpt>
      <trkpt lat="44.18652" lon="5.06908">
        <ele>686</ele>
        <time>2019-10-26T07:41:27Z</time>
      </trkpt>
      <trkpt lat="44.18653" lon="5.06911">
        <ele>687</ele>
        <time>2019-10-26T07:41:28Z</time>
      </trkpt>
      <trkpt lat="44.18654" lon="5.06914">
        <ele>687</ele>
        <time>2019-10-26T07:41:29Z</time>
      </trkpt>
      <trkpt lat="44.18655" lon="5.06917">
        <ele>688</ele>
        <time>2019-10-26T07:41:30Z</time>
      </trkpt>
      <trkpt lat="44.18656" lon="5.0692">
        <ele>688</ele>
        <time>2019-10-26T07:41:31Z</time>
      </trkpt>
      <trkpt lat="44.18656" lon="5.06923">
        <ele>689</ele>
        <time>2019-10-26T07:41:32Z</time>
      </trkpt>
      <trkpt lat="44.18656" lon="5.06927">
        <ele>689</ele>
        <time>2019-10-26T07:41:33Z</time>
      </trkpt>
      <trkpt lat="44.18657" lon="5.0693">
        <ele>690</ele>
        <time>2019-10-26T07:41:34Z</time>
      </trkpt>
      <trkpt lat="44.18657" lon="5.06933">
        <ele>691</ele>
        <time>2019-10-26T07:41:35Z</time>
      </trkpt>
      <trkpt lat="44.18662" lon="5.06947">
        <ele>694</ele>
        <time>2019-10-26T07:41:42Z</time>
      </trkpt>
      <trkpt lat="44.18662" lon="5.0695">
        <ele>694</ele>
        <time>2019-10-26T07:41:43Z</time>
      </trkpt>
      <trkpt lat="44.18663" lon="5.06953">
        <ele>695</ele>
        <time>2019-10-26T07:41:44Z</time>
      </trkpt>
      <trkpt lat="44.18664" lon="5.06955">
        <ele>695</ele>
        <time>2019-10-26T07:41:45Z</time>
      </trkpt>
      <trkpt lat="44.18666" lon="5.06957">
        <ele>696</ele>
        <time>2019-10-26T07:41:46Z</time>
      </trkpt>
      <trkpt lat="44.18667" lon="5.0696">
        <ele>696</ele>
        <time>2019-10-26T07:41:47Z</time>
      </trkpt>
      <trkpt lat="44.18668" lon="5.06962">
        <ele>696</ele>
        <time>2019-10-26T07:41:48Z</time>
      </trkpt>
      <trkpt lat="44.18668" lon="5.06964">
        <ele>696</ele>
        <time>2019-10-26T07:41:49Z</time>
      </trkpt>
      <trkpt lat="44.18669" lon="5.06966">
        <ele>697</ele>
        <time>2019-10-26T07:41:50Z</time>
      </trkpt>
      <trkpt lat="44.18671" lon="5.0697">
        <ele>697</ele>
        <time>2019-10-26T07:41:53Z</time>
      </trkpt>
      <trkpt lat="44.18671" lon="5.06972">
        <ele>697</ele>
        <time>2019-10-26T07:41:54Z</time>
      </trkpt>
      <trkpt lat="44.18671" lon="5.06976">
        <ele>696</ele>
        <time>2019-10-26T07:41:56Z</time>
      </trkpt>
      <trkpt lat="44.18671" lon="5.06979">
        <ele>696</ele>
        <time>2019-10-26T07:41:57Z</time>
      </trkpt>
      <trkpt lat="44.18671" lon="5.06981">
        <ele>695</ele>
        <time>2019-10-26T07:41:58Z</time>
      </trkpt>
      <trkpt lat="44.18672" lon="5.06984">
        <ele>694</ele>
        <time>2019-10-26T07:41:59Z</time>
      </trkpt>
      <trkpt lat="44.18673" lon="5.06986">
        <ele>693</ele>
        <time>2019-10-26T07:42:00Z</time>
      </trkpt>
      <trkpt lat="44.18675" lon="5.06989">
        <ele>693</ele>
        <time>2019-10-26T07:42:01Z</time>
      </trkpt>
      <trkpt lat="44.18676" lon="5.06991">
        <ele>693</ele>
        <time>2019-10-26T07:42:02Z</time>
      </trkpt>
      <trkpt lat="44.18677" lon="5.06992">
        <ele>692</ele>
        <time>2019-10-26T07:42:03Z</time>
      </trkpt>
      <trkpt lat="44.18677" lon="5.06994">
        <ele>692</ele>
        <time>2019-10-26T07:42:04Z</time>
      </trkpt>
      <trkpt lat="44.18678" lon="5.06997">
        <ele>692</ele>
        <time>2019-10-26T07:42:05Z</time>
      </trkpt>
      <trkpt lat="44.18678" lon="5.06999">
        <ele>692</ele>
        <time>2019-10-26T07:42:06Z</time>
      </trkpt>
      <trkpt lat="44.18679" lon="5.07002">
        <ele>691</ele>
        <time>2019-10-26T07:42:07Z</time>
      </trkpt>
      <trkpt lat="44.1868" lon="5.07004">
        <ele>691</ele>
        <time>2019-10-26T07:42:08Z</time>
      </trkpt>
      <trkpt lat="44.18681" lon="5.07006">
        <ele>691</ele>
        <time>2019-10-26T07:42:09Z</time>
      </trkpt>
      <trkpt lat="44.18682" lon="5.07008">
        <ele>690</ele>
        <time>2019-10-26T07:42:10Z</time>
      </trkpt>
      <trkpt lat="44.18684" lon="5.0701">
        <ele>690</ele>
        <time>2019-10-26T07:42:11Z</time>
      </trkpt>
      <trkpt lat="44.18685" lon="5.07012">
        <ele>690</ele>
        <time>2019-10-26T07:42:12Z</time>
      </trkpt>
      <trkpt lat="44.18687" lon="5.07014">
        <ele>690</ele>
        <time>2019-10-26T07:42:13Z</time>
      </trkpt>
      <trkpt lat="44.18688" lon="5.07016">
        <ele>690</ele>
        <time>2019-10-26T07:42:14Z</time>
      </trkpt>
      <trkpt lat="44.1869" lon="5.07017">
        <ele>690</ele>
        <time>2019-10-26T07:42:15Z</time>
      </trkpt>
      <trkpt lat="44.18691" lon="5.0702">
        <ele>690</ele>
        <time>2019-10-26T07:42:16Z</time>
      </trkpt>
      <trkpt lat="44.18692" lon="5.07022">
        <ele>690</ele>
        <time>2019-10-26T07:42:17Z</time>
      </trkpt>
      <trkpt lat="44.18692" lon="5.07024">
        <ele>690</ele>
        <time>2019-10-26T07:42:18Z</time>
      </trkpt>
      <trkpt lat="44.18693" lon="5.07026">
        <ele>690</ele>
        <time>2019-10-26T07:42:19Z</time>
      </trkpt>
      <trkpt lat="44.18693" lon="5.07029">
        <ele>689</ele>
        <time>2019-10-26T07:42:20Z</time>
      </trkpt>
      <trkpt lat="44.18693" lon="5.07032">
        <ele>689</ele>
        <time>2019-10-26T07:42:21Z</time>
      </trkpt>
      <trkpt lat="44.18693" lon="5.07034">
        <ele>688</ele>
        <time>2019-10-26T07:42:22Z</time>
      </trkpt>
      <trkpt lat="44.18693" lon="5.07036">
        <ele>687</ele>
        <time>2019-10-26T07:42:23Z</time>
      </trkpt>
      <trkpt lat="44.18693" lon="5.07039">
        <ele>687</ele>
        <time>2019-10-26T07:42:24Z</time>
      </trkpt>
      <trkpt lat="44.18705" lon="5.07054">
        <ele>685</ele>
        <time>2019-10-26T07:42:32Z</time>
      </trkpt>
      <trkpt lat="44.1871" lon="5.0706">
        <ele>685</ele>
        <time>2019-10-26T07:42:35Z</time>
      </trkpt>
      <trkpt lat="44.18712" lon="5.07062">
        <ele>684</ele>
        <time>2019-10-26T07:42:36Z</time>
      </trkpt>
      <trkpt lat="44.18722" lon="5.07082">
        <ele>684</ele>
        <time>2019-10-26T07:42:44Z</time>
      </trkpt>
      <trkpt lat="44.18727" lon="5.07109">
        <ele>683</ele>
        <time>2019-10-26T07:42:52Z</time>
      </trkpt>
      <trkpt lat="44.18728" lon="5.07116">
        <ele>682</ele>
        <time>2019-10-26T07:42:54Z</time>
      </trkpt>
      <trkpt lat="44.18729" lon="5.07119">
        <ele>682</ele>
        <time>2019-10-26T07:42:55Z</time>
      </trkpt>
      <trkpt lat="44.1873" lon="5.07122">
        <ele>682</ele>
        <time>2019-10-26T07:42:56Z</time>
      </trkpt>
      <trkpt lat="44.18732" lon="5.07125">
        <ele>683</ele>
        <time>2019-10-26T07:42:57Z</time>
      </trkpt>
      <trkpt lat="44.18732" lon="5.07128">
        <ele>683</ele>
        <time>2019-10-26T07:42:58Z</time>
      </trkpt>
      <trkpt lat="44.18736" lon="5.07139">
        <ele>684</ele>
        <time>2019-10-26T07:43:02Z</time>
      </trkpt>
      <trkpt lat="44.1874" lon="5.07157">
        <ele>685</ele>
        <time>2019-10-26T07:43:08Z</time>
      </trkpt>
      <trkpt lat="44.18742" lon="5.07179">
        <ele>684</ele>
        <time>2019-10-26T07:43:15Z</time>
      </trkpt>
      <trkpt lat="44.18742" lon="5.07182">
        <ele>684</ele>
        <time>2019-10-26T07:43:16Z</time>
      </trkpt>
      <trkpt lat="44.1875" lon="5.0721">
        <ele>687</ele>
        <time>2019-10-26T07:43:25Z</time>
      </trkpt>
      <trkpt lat="44.18757" lon="5.07236">
        <ele>684</ele>
        <time>2019-10-26T07:43:33Z</time>
      </trkpt>
      <trkpt lat="44.18761" lon="5.07256">
        <ele>683</ele>
        <time>2019-10-26T07:43:39Z</time>
      </trkpt>
      <trkpt lat="44.18766" lon="5.0728">
        <ele>683</ele>
        <time>2019-10-26T07:43:46Z</time>
      </trkpt>
      <trkpt lat="44.18773" lon="5.07303">
        <ele>684</ele>
        <time>2019-10-26T07:43:54Z</time>
      </trkpt>
      <trkpt lat="44.18774" lon="5.07306">
        <ele>684</ele>
        <time>2019-10-26T07:43:55Z</time>
      </trkpt>
      <trkpt lat="44.18775" lon="5.07308">
        <ele>684</ele>
        <time>2019-10-26T07:43:56Z</time>
      </trkpt>
      <trkpt lat="44.18776" lon="5.07311">
        <ele>685</ele>
        <time>2019-10-26T07:43:57Z</time>
      </trkpt>
      <trkpt lat="44.18777" lon="5.07313">
        <ele>685</ele>
        <time>2019-10-26T07:43:58Z</time>
      </trkpt>
      <trkpt lat="44.18778" lon="5.07316">
        <ele>685</ele>
        <time>2019-10-26T07:43:59Z</time>
      </trkpt>
      <trkpt lat="44.18778" lon="5.07318">
        <ele>684</ele>
        <time>2019-10-26T07:44:00Z</time>
      </trkpt>
      <trkpt lat="44.18779" lon="5.07321">
        <ele>684</ele>
        <time>2019-10-26T07:44:01Z</time>
      </trkpt>
      <trkpt lat="44.1878" lon="5.07324">
        <ele>683</ele>
        <time>2019-10-26T07:44:02Z</time>
      </trkpt>
      <trkpt lat="44.18781" lon="5.07326">
        <ele>682</ele>
        <time>2019-10-26T07:44:03Z</time>
      </trkpt>
      <trkpt lat="44.18781" lon="5.07329">
        <ele>682</ele>
        <time>2019-10-26T07:44:04Z</time>
      </trkpt>
      <trkpt lat="44.18782" lon="5.07332">
        <ele>682</ele>
        <time>2019-10-26T07:44:05Z</time>
      </trkpt>
      <trkpt lat="44.18782" lon="5.07336">
        <ele>681</ele>
        <time>2019-10-26T07:44:06Z</time>
      </trkpt>
      <trkpt lat="44.18782" lon="5.07339">
        <ele>681</ele>
        <time>2019-10-26T07:44:07Z</time>
      </trkpt>
      <trkpt lat="44.18782" lon="5.07342">
        <ele>681</ele>
        <time>2019-10-26T07:44:08Z</time>
      </trkpt>
      <trkpt lat="44.18782" lon="5.07344">
        <ele>681</ele>
        <time>2019-10-26T07:44:09Z</time>
      </trkpt>
      <trkpt lat="44.18783" lon="5.07347">
        <ele>681</ele>
        <time>2019-10-26T07:44:10Z</time>
      </trkpt>
      <trkpt lat="44.18783" lon="5.0735">
        <ele>681</ele>
        <time>2019-10-26T07:44:11Z</time>
      </trkpt>
      <trkpt lat="44.18782" lon="5.07353">
        <ele>681</ele>
        <time>2019-10-26T07:44:12Z</time>
      </trkpt>
      <trkpt lat="44.18782" lon="5.07356">
        <ele>681</ele>
        <time>2019-10-26T07:44:13Z</time>
      </trkpt>
      <trkpt lat="44.18782" lon="5.07359">
        <ele>681</ele>
        <time>2019-10-26T07:44:14Z</time>
      </trkpt>
      <trkpt lat="44.18782" lon="5.07362">
        <ele>681</ele>
        <time>2019-10-26T07:44:15Z</time>
      </trkpt>
      <trkpt lat="44.18782" lon="5.07364">
        <ele>682</ele>
        <time>2019-10-26T07:44:16Z</time>
      </trkpt>
      <trkpt lat="44.18782" lon="5.07367">
        <ele>682</ele>
        <time>2019-10-26T07:44:17Z</time>
      </trkpt>
      <trkpt lat="44.18782" lon="5.0737">
        <ele>682</ele>
        <time>2019-10-26T07:44:18Z</time>
      </trkpt>
      <trkpt lat="44.18782" lon="5.07372">
        <ele>682</ele>
        <time>2019-10-26T07:44:19Z</time>
      </trkpt>
      <trkpt lat="44.18782" lon="5.07375">
        <ele>682</ele>
        <time>2019-10-26T07:44:20Z</time>
      </trkpt>
      <trkpt lat="44.18782" lon="5.07378">
        <ele>682</ele>
        <time>2019-10-26T07:44:21Z</time>
      </trkpt>
      <trkpt lat="44.18782" lon="5.07381">
        <ele>682</ele>
        <time>2019-10-26T07:44:22Z</time>
      </trkpt>
      <trkpt lat="44.18784" lon="5.07408">
        <ele>681</ele>
        <time>2019-10-26T07:44:30Z</time>
      </trkpt>
      <trkpt lat="44.1879" lon="5.07433">
        <ele>678</ele>
        <time>2019-10-26T07:44:38Z</time>
      </trkpt>
      <trkpt lat="44.1879" lon="5.07436">
        <ele>678</ele>
        <time>2019-10-26T07:44:39Z</time>
      </trkpt>
      <trkpt lat="44.18791" lon="5.07438">
        <ele>678</ele>
        <time>2019-10-26T07:44:40Z</time>
      </trkpt>
      <trkpt lat="44.18792" lon="5.07441">
        <ele>678</ele>
        <time>2019-10-26T07:44:41Z</time>
      </trkpt>
      <trkpt lat="44.18791" lon="5.07443">
        <ele>678</ele>
        <time>2019-10-26T07:44:42Z</time>
      </trkpt>
      <trkpt lat="44.1879" lon="5.07445">
        <ele>679</ele>
        <time>2019-10-26T07:44:43Z</time>
      </trkpt>
      <trkpt lat="44.18789" lon="5.07447">
        <ele>678</ele>
        <time>2019-10-26T07:44:44Z</time>
      </trkpt>
      <trkpt lat="44.1879" lon="5.0745">
        <ele>678</ele>
        <time>2019-10-26T07:44:45Z</time>
      </trkpt>
      <trkpt lat="44.1879" lon="5.07453">
        <ele>678</ele>
        <time>2019-10-26T07:44:46Z</time>
      </trkpt>
      <trkpt lat="44.1879" lon="5.07455">
        <ele>678</ele>
        <time>2019-10-26T07:44:47Z</time>
      </trkpt>
      <trkpt lat="44.18791" lon="5.07457">
        <ele>677</ele>
        <time>2019-10-26T07:44:48Z</time>
      </trkpt>
      <trkpt lat="44.18791" lon="5.0746">
        <ele>677</ele>
        <time>2019-10-26T07:44:49Z</time>
      </trkpt>
      <trkpt lat="44.1879" lon="5.07462">
        <ele>677</ele>
        <time>2019-10-26T07:44:50Z</time>
      </trkpt>
      <trkpt lat="44.18788" lon="5.07467">
        <ele>677</ele>
        <time>2019-10-26T07:45:00Z</time>
      </trkpt>
      <trkpt lat="44.18787" lon="5.07469">
        <ele>677</ele>
        <time>2019-10-26T07:45:01Z</time>
      </trkpt>
      <trkpt lat="44.18783" lon="5.07473">
        <ele>676</ele>
        <time>2019-10-26T07:45:04Z</time>
      </trkpt>
      <trkpt lat="44.18782" lon="5.07474">
        <ele>676</ele>
        <time>2019-10-26T07:45:05Z</time>
      </trkpt>
      <trkpt lat="44.18781" lon="5.07475">
        <ele>675</ele>
        <time>2019-10-26T07:45:06Z</time>
      </trkpt>
      <trkpt lat="44.1878" lon="5.07477">
        <ele>675</ele>
        <time>2019-10-26T07:45:07Z</time>
      </trkpt>
      <trkpt lat="44.1878" lon="5.07479">
        <ele>674</ele>
        <time>2019-10-26T07:45:08Z</time>
      </trkpt>
      <trkpt lat="44.18779" lon="5.07481">
        <ele>673</ele>
        <time>2019-10-26T07:45:09Z</time>
      </trkpt>
      <trkpt lat="44.18779" lon="5.07484">
        <ele>673</ele>
        <time>2019-10-26T07:45:10Z</time>
      </trkpt>
      <trkpt lat="44.1878" lon="5.07486">
        <ele>672</ele>
        <time>2019-10-26T07:45:11Z</time>
      </trkpt>
      <trkpt lat="44.18781" lon="5.07488">
        <ele>671</ele>
        <time>2019-10-26T07:45:12Z</time>
      </trkpt>
      <trkpt lat="44.18782" lon="5.07491">
        <ele>671</ele>
        <time>2019-10-26T07:45:13Z</time>
      </trkpt>
      <trkpt lat="44.18783" lon="5.07493">
        <ele>671</ele>
        <time>2019-10-26T07:45:14Z</time>
      </trkpt>
      <trkpt lat="44.18784" lon="5.07495">
        <ele>670</ele>
        <time>2019-10-26T07:45:15Z</time>
      </trkpt>
      <trkpt lat="44.18786" lon="5.07497">
        <ele>670</ele>
        <time>2019-10-26T07:45:16Z</time>
      </trkpt>
      <trkpt lat="44.18787" lon="5.07499">
        <ele>670</ele>
        <time>2019-10-26T07:45:17Z</time>
      </trkpt>
      <trkpt lat="44.18789" lon="5.07501">
        <ele>670</ele>
        <time>2019-10-26T07:45:18Z</time>
      </trkpt>
      <trkpt lat="44.18792" lon="5.07505">
        <ele>670</ele>
        <time>2019-10-26T07:45:20Z</time>
      </trkpt>
      <trkpt lat="44.18798" lon="5.07512">
        <ele>669</ele>
        <time>2019-10-26T07:45:29Z</time>
      </trkpt>
      <trkpt lat="44.188" lon="5.07519">
        <ele>668</ele>
        <time>2019-10-26T07:45:40Z</time>
      </trkpt>
      <trkpt lat="44.18801" lon="5.07524">
        <ele>666</ele>
        <time>2019-10-26T07:45:48Z</time>
      </trkpt>
      <trkpt lat="44.188" lon="5.07531">
        <ele>663</ele>
        <time>2019-10-26T07:45:56Z</time>
      </trkpt>
      <trkpt lat="44.18806" lon="5.0754">
        <ele>661</ele>
        <time>2019-10-26T07:46:02Z</time>
      </trkpt>
      <trkpt lat="44.18811" lon="5.07551">
        <ele>656</ele>
        <time>2019-10-26T07:46:07Z</time>
      </trkpt>
      <trkpt lat="44.18812" lon="5.07554">
        <ele>655</ele>
        <time>2019-10-26T07:46:09Z</time>
      </trkpt>
      <trkpt lat="44.18812" lon="5.07556">
        <ele>655</ele>
        <time>2019-10-26T07:46:10Z</time>
      </trkpt>
      <trkpt lat="44.18812" lon="5.07559">
        <ele>654</ele>
        <time>2019-10-26T07:46:11Z</time>
      </trkpt>
      <trkpt lat="44.18813" lon="5.07562">
        <ele>653</ele>
        <time>2019-10-26T07:46:12Z</time>
      </trkpt>
      <trkpt lat="44.18814" lon="5.07564">
        <ele>652</ele>
        <time>2019-10-26T07:46:13Z</time>
      </trkpt>
      <trkpt lat="44.18815" lon="5.07567">
        <ele>651</ele>
        <time>2019-10-26T07:46:14Z</time>
      </trkpt>
      <trkpt lat="44.18816" lon="5.07568">
        <ele>651</ele>
        <time>2019-10-26T07:46:15Z</time>
      </trkpt>
      <trkpt lat="44.18817" lon="5.07573">
        <ele>650</ele>
        <time>2019-10-26T07:46:18Z</time>
      </trkpt>
      <trkpt lat="44.18817" lon="5.07575">
        <ele>649</ele>
        <time>2019-10-26T07:46:19Z</time>
      </trkpt>
      <trkpt lat="44.18818" lon="5.07577">
        <ele>649</ele>
        <time>2019-10-26T07:46:20Z</time>
      </trkpt>
      <trkpt lat="44.18818" lon="5.07578">
        <ele>648</ele>
        <time>2019-10-26T07:46:21Z</time>
      </trkpt>
      <trkpt lat="44.18818" lon="5.0758">
        <ele>648</ele>
        <time>2019-10-26T07:46:22Z</time>
      </trkpt>
      <trkpt lat="44.18819" lon="5.07583">
        <ele>647</ele>
        <time>2019-10-26T07:46:23Z</time>
      </trkpt>
      <trkpt lat="44.18819" lon="5.07585">
        <ele>647</ele>
        <time>2019-10-26T07:46:24Z</time>
      </trkpt>
      <trkpt lat="44.1882" lon="5.07587">
        <ele>647</ele>
        <time>2019-10-26T07:46:25Z</time>
      </trkpt>
      <trkpt lat="44.18821" lon="5.0759">
        <ele>646</ele>
        <time>2019-10-26T07:46:26Z</time>
      </trkpt>
      <trkpt lat="44.18823" lon="5.07592">
        <ele>646</ele>
        <time>2019-10-26T07:46:27Z</time>
      </trkpt>
      <trkpt lat="44.18824" lon="5.07594">
        <ele>647</ele>
        <time>2019-10-26T07:46:28Z</time>
      </trkpt>
      <trkpt lat="44.18825" lon="5.07599">
        <ele>646</ele>
        <time>2019-10-26T07:46:32Z</time>
      </trkpt>
      <trkpt lat="44.18825" lon="5.076">
        <ele>646</ele>
        <time>2019-10-26T07:46:33Z</time>
      </trkpt>
      <trkpt lat="44.18825" lon="5.07603">
        <ele>645</ele>
        <time>2019-10-26T07:46:34Z</time>
      </trkpt>
      <trkpt lat="44.18825" lon="5.07605">
        <ele>645</ele>
        <time>2019-10-26T07:46:35Z</time>
      </trkpt>
      <trkpt lat="44.18826" lon="5.07607">
        <ele>645</ele>
        <time>2019-10-26T07:46:36Z</time>
      </trkpt>
      <trkpt lat="44.18827" lon="5.0761">
        <ele>644</ele>
        <time>2019-10-26T07:46:37Z</time>
      </trkpt>
      <trkpt lat="44.18827" lon="5.07612">
        <ele>644</ele>
        <time>2019-10-26T07:46:38Z</time>
      </trkpt>
      <trkpt lat="44.18828" lon="5.07616">
        <ele>644</ele>
        <time>2019-10-26T07:46:40Z</time>
      </trkpt>
      <trkpt lat="44.18829" lon="5.07618">
        <ele>644</ele>
        <time>2019-10-26T07:46:41Z</time>
      </trkpt>
      <trkpt lat="44.18829" lon="5.07621">
        <ele>643</ele>
        <time>2019-10-26T07:46:42Z</time>
      </trkpt>
      <trkpt lat="44.18829" lon="5.07623">
        <ele>643</ele>
        <time>2019-10-26T07:46:43Z</time>
      </trkpt>
      <trkpt lat="44.1883" lon="5.07626">
        <ele>643</ele>
        <time>2019-10-26T07:46:45Z</time>
      </trkpt>
      <trkpt lat="44.18829" lon="5.07628">
        <ele>642</ele>
        <time>2019-10-26T07:46:46Z</time>
      </trkpt>
      <trkpt lat="44.1883" lon="5.07631">
        <ele>642</ele>
        <time>2019-10-26T07:46:47Z</time>
      </trkpt>
      <trkpt lat="44.1883" lon="5.07633">
        <ele>642</ele>
        <time>2019-10-26T07:46:48Z</time>
      </trkpt>
      <trkpt lat="44.18831" lon="5.07635">
        <ele>641</ele>
        <time>2019-10-26T07:46:49Z</time>
      </trkpt>
      <trkpt lat="44.18831" lon="5.07638">
        <ele>641</ele>
        <time>2019-10-26T07:46:50Z</time>
      </trkpt>
      <trkpt lat="44.18831" lon="5.07641">
        <ele>640</ele>
        <time>2019-10-26T07:46:51Z</time>
      </trkpt>
      <trkpt lat="44.18831" lon="5.07643">
        <ele>640</ele>
        <time>2019-10-26T07:46:52Z</time>
      </trkpt>
      <trkpt lat="44.18832" lon="5.07652">
        <ele>639</ele>
        <time>2019-10-26T07:46:56Z</time>
      </trkpt>
      <trkpt lat="44.18832" lon="5.07654">
        <ele>639</ele>
        <time>2019-10-26T07:46:57Z</time>
      </trkpt>
      <trkpt lat="44.18832" lon="5.07656">
        <ele>638</ele>
        <time>2019-10-26T07:46:58Z</time>
      </trkpt>
      <trkpt lat="44.18832" lon="5.07659">
        <ele>638</ele>
        <time>2019-10-26T07:46:59Z</time>
      </trkpt>
      <trkpt lat="44.18832" lon="5.07662">
        <ele>637</ele>
        <time>2019-10-26T07:47:00Z</time>
      </trkpt>
      <trkpt lat="44.18832" lon="5.07665">
        <ele>637</ele>
        <time>2019-10-26T07:47:01Z</time>
      </trkpt>
      <trkpt lat="44.18833" lon="5.07667">
        <ele>637</ele>
        <time>2019-10-26T07:47:02Z</time>
      </trkpt>
      <trkpt lat="44.18834" lon="5.07669">
        <ele>636</ele>
        <time>2019-10-26T07:47:03Z</time>
      </trkpt>
      <trkpt lat="44.18835" lon="5.07671">
        <ele>636</ele>
        <time>2019-10-26T07:47:04Z</time>
      </trkpt>
      <trkpt lat="44.18834" lon="5.07674">
        <ele>635</ele>
        <time>2019-10-26T07:47:05Z</time>
      </trkpt>
      <trkpt lat="44.18835" lon="5.07677">
        <ele>635</ele>
        <time>2019-10-26T07:47:06Z</time>
      </trkpt>
      <trkpt lat="44.18835" lon="5.0768">
        <ele>634</ele>
        <time>2019-10-26T07:47:07Z</time>
      </trkpt>
      <trkpt lat="44.18836" lon="5.07683">
        <ele>634</ele>
        <time>2019-10-26T07:47:08Z</time>
      </trkpt>
      <trkpt lat="44.18837" lon="5.07685">
        <ele>633</ele>
        <time>2019-10-26T07:47:09Z</time>
      </trkpt>
      <trkpt lat="44.18837" lon="5.07687">
        <ele>633</ele>
        <time>2019-10-26T07:47:10Z</time>
      </trkpt>
      <trkpt lat="44.18837" lon="5.07689">
        <ele>632</ele>
        <time>2019-10-26T07:47:11Z</time>
      </trkpt>
      <trkpt lat="44.18836" lon="5.07692">
        <ele>632</ele>
        <time>2019-10-26T07:47:12Z</time>
      </trkpt>
      <trkpt lat="44.18837" lon="5.07695">
        <ele>631</ele>
        <time>2019-10-26T07:47:13Z</time>
      </trkpt>
      <trkpt lat="44.18838" lon="5.07697">
        <ele>631</ele>
        <time>2019-10-26T07:47:14Z</time>
      </trkpt>
      <trkpt lat="44.18839" lon="5.07699">
        <ele>631</ele>
        <time>2019-10-26T07:47:15Z</time>
      </trkpt>
      <trkpt lat="44.1884" lon="5.07701">
        <ele>630</ele>
        <time>2019-10-26T07:47:16Z</time>
      </trkpt>
      <trkpt lat="44.1884" lon="5.07704">
        <ele>630</ele>
        <time>2019-10-26T07:47:17Z</time>
      </trkpt>
      <trkpt lat="44.18841" lon="5.07723">
        <ele>627</ele>
        <time>2019-10-26T07:47:23Z</time>
      </trkpt>
      <trkpt lat="44.18841" lon="5.07726">
        <ele>627</ele>
        <time>2019-10-26T07:47:24Z</time>
      </trkpt>
      <trkpt lat="44.18842" lon="5.07728">
        <ele>627</ele>
        <time>2019-10-26T07:47:25Z</time>
      </trkpt>
      <trkpt lat="44.18843" lon="5.0773">
        <ele>627</ele>
        <time>2019-10-26T07:47:26Z</time>
      </trkpt>
      <trkpt lat="44.18843" lon="5.07732">
        <ele>626</ele>
        <time>2019-10-26T07:47:27Z</time>
      </trkpt>
      <trkpt lat="44.18843" lon="5.07735">
        <ele>626</ele>
        <time>2019-10-26T07:47:28Z</time>
      </trkpt>
      <trkpt lat="44.18844" lon="5.07738">
        <ele>626</ele>
        <time>2019-10-26T07:47:29Z</time>
      </trkpt>
      <trkpt lat="44.18845" lon="5.0774">
        <ele>626</ele>
        <time>2019-10-26T07:47:30Z</time>
      </trkpt>
      <trkpt lat="44.18846" lon="5.07742">
        <ele>626</ele>
        <time>2019-10-26T07:47:31Z</time>
      </trkpt>
      <trkpt lat="44.18846" lon="5.07744">
        <ele>625</ele>
        <time>2019-10-26T07:47:32Z</time>
      </trkpt>
      <trkpt lat="44.18846" lon="5.07747">
        <ele>625</ele>
        <time>2019-10-26T07:47:33Z</time>
      </trkpt>
      <trkpt lat="44.18847" lon="5.07754">
        <ele>624</ele>
        <time>2019-10-26T07:47:35Z</time>
      </trkpt>
      <trkpt lat="44.18847" lon="5.07757">
        <ele>624</ele>
        <time>2019-10-26T07:47:36Z</time>
      </trkpt>
      <trkpt lat="44.18848" lon="5.0776">
        <ele>624</ele>
        <time>2019-10-26T07:47:37Z</time>
      </trkpt>
      <trkpt lat="44.18849" lon="5.07768">
        <ele>623</ele>
        <time>2019-10-26T07:47:40Z</time>
      </trkpt>
      <trkpt lat="44.18849" lon="5.0777">
        <ele>623</ele>
        <time>2019-10-26T07:47:41Z</time>
      </trkpt>
      <trkpt lat="44.18849" lon="5.07772">
        <ele>622</ele>
        <time>2019-10-26T07:47:42Z</time>
      </trkpt>
      <trkpt lat="44.18849" lon="5.07775">
        <ele>622</ele>
        <time>2019-10-26T07:47:43Z</time>
      </trkpt>
      <trkpt lat="44.1885" lon="5.07778">
        <ele>622</ele>
        <time>2019-10-26T07:47:44Z</time>
      </trkpt>
      <trkpt lat="44.1885" lon="5.0778">
        <ele>621</ele>
        <time>2019-10-26T07:47:45Z</time>
      </trkpt>
      <trkpt lat="44.18851" lon="5.07782">
        <ele>621</ele>
        <time>2019-10-26T07:47:46Z</time>
      </trkpt>
      <trkpt lat="44.18851" lon="5.07785">
        <ele>620</ele>
        <time>2019-10-26T07:47:48Z</time>
      </trkpt>
      <trkpt lat="44.1885" lon="5.07791">
        <ele>619</ele>
        <time>2019-10-26T07:47:55Z</time>
      </trkpt>
      <trkpt lat="44.1885" lon="5.07793">
        <ele>618</ele>
        <time>2019-10-26T07:47:56Z</time>
      </trkpt>
      <trkpt lat="44.18851" lon="5.07796">
        <ele>618</ele>
        <time>2019-10-26T07:47:57Z</time>
      </trkpt>
      <trkpt lat="44.18851" lon="5.07799">
        <ele>617</ele>
        <time>2019-10-26T07:47:58Z</time>
      </trkpt>
      <trkpt lat="44.18852" lon="5.07801">
        <ele>617</ele>
        <time>2019-10-26T07:47:59Z</time>
      </trkpt>
      <trkpt lat="44.18852" lon="5.07803">
        <ele>617</ele>
        <time>2019-10-26T07:48:00Z</time>
      </trkpt>
      <trkpt lat="44.18853" lon="5.07805">
        <ele>616</ele>
        <time>2019-10-26T07:48:01Z</time>
      </trkpt>
      <trkpt lat="44.18853" lon="5.07808">
        <ele>616</ele>
        <time>2019-10-26T07:48:02Z</time>
      </trkpt>
      <trkpt lat="44.18854" lon="5.0781">
        <ele>616</ele>
        <time>2019-10-26T07:48:03Z</time>
      </trkpt>
      <trkpt lat="44.18855" lon="5.07812">
        <ele>615</ele>
        <time>2019-10-26T07:48:04Z</time>
      </trkpt>
      <trkpt lat="44.18855" lon="5.07815">
        <ele>615</ele>
        <time>2019-10-26T07:48:05Z</time>
      </trkpt>
      <trkpt lat="44.18856" lon="5.07817">
        <ele>615</ele>
        <time>2019-10-26T07:48:06Z</time>
      </trkpt>
      <trkpt lat="44.18857" lon="5.07819">
        <ele>615</ele>
        <time>2019-10-26T07:48:07Z</time>
      </trkpt>
      <trkpt lat="44.18858" lon="5.07822">
        <ele>615</ele>
        <time>2019-10-26T07:48:08Z</time>
      </trkpt>
      <trkpt lat="44.18859" lon="5.07824">
        <ele>614</ele>
        <time>2019-10-26T07:48:09Z</time>
      </trkpt>
      <trkpt lat="44.18864" lon="5.07838">
        <ele>611</ele>
        <time>2019-10-26T07:48:15Z</time>
      </trkpt>
      <trkpt lat="44.18866" lon="5.07845">
        <ele>609</ele>
        <time>2019-10-26T07:48:18Z</time>
      </trkpt>
      <trkpt lat="44.18867" lon="5.07849">
        <ele>608</ele>
        <time>2019-10-26T07:48:20Z</time>
      </trkpt>
      <trkpt lat="44.18868" lon="5.07851">
        <ele>607</ele>
        <time>2019-10-26T07:48:21Z</time>
      </trkpt>
      <trkpt lat="44.18869" lon="5.07853">
        <ele>607</ele>
        <time>2019-10-26T07:48:22Z</time>
      </trkpt>
      <trkpt lat="44.1887" lon="5.07855">
        <ele>606</ele>
        <time>2019-10-26T07:48:23Z</time>
      </trkpt>
      <trkpt lat="44.18871" lon="5.07857">
        <ele>606</ele>
        <time>2019-10-26T07:48:24Z</time>
      </trkpt>
      <trkpt lat="44.18872" lon="5.07859">
        <ele>605</ele>
        <time>2019-10-26T07:48:25Z</time>
      </trkpt>
      <trkpt lat="44.18873" lon="5.07862">
        <ele>605</ele>
        <time>2019-10-26T07:48:26Z</time>
      </trkpt>
      <trkpt lat="44.18873" lon="5.07864">
        <ele>604</ele>
        <time>2019-10-26T07:48:27Z</time>
      </trkpt>
      <trkpt lat="44.18874" lon="5.07866">
        <ele>604</ele>
        <time>2019-10-26T07:48:28Z</time>
      </trkpt>
      <trkpt lat="44.18875" lon="5.07868">
        <ele>604</ele>
        <time>2019-10-26T07:48:29Z</time>
      </trkpt>
      <trkpt lat="44.18876" lon="5.07871">
        <ele>603</ele>
        <time>2019-10-26T07:48:30Z</time>
      </trkpt>
      <trkpt lat="44.18876" lon="5.07872">
        <ele>603</ele>
        <time>2019-10-26T07:48:31Z</time>
      </trkpt>
      <trkpt lat="44.18876" lon="5.07875">
        <ele>603</ele>
        <time>2019-10-26T07:48:32Z</time>
      </trkpt>
      <trkpt lat="44.18877" lon="5.07877">
        <ele>602</ele>
        <time>2019-10-26T07:48:33Z</time>
      </trkpt>
      <trkpt lat="44.18878" lon="5.0788">
        <ele>602</ele>
        <time>2019-10-26T07:48:34Z</time>
      </trkpt>
      <trkpt lat="44.18885" lon="5.07894">
        <ele>601</ele>
        <time>2019-10-26T07:48:40Z</time>
      </trkpt>
      <trkpt lat="44.18886" lon="5.07897">
        <ele>600</ele>
        <time>2019-10-26T07:48:41Z</time>
      </trkpt>
      <trkpt lat="44.18887" lon="5.07899">
        <ele>600</ele>
        <time>2019-10-26T07:48:42Z</time>
      </trkpt>
      <trkpt lat="44.18888" lon="5.07901">
        <ele>601</ele>
        <time>2019-10-26T07:48:43Z</time>
      </trkpt>
      <trkpt lat="44.18889" lon="5.07903">
        <ele>600</ele>
        <time>2019-10-26T07:48:44Z</time>
      </trkpt>
      <trkpt lat="44.1889" lon="5.07906">
        <ele>600</ele>
        <time>2019-10-26T07:48:45Z</time>
      </trkpt>
      <trkpt lat="44.1889" lon="5.07909">
        <ele>599</ele>
        <time>2019-10-26T07:48:46Z</time>
      </trkpt>
      <trkpt lat="44.18892" lon="5.07912">
        <ele>598</ele>
        <time>2019-10-26T07:48:47Z</time>
      </trkpt>
      <trkpt lat="44.18893" lon="5.07914">
        <ele>597</ele>
        <time>2019-10-26T07:48:48Z</time>
      </trkpt>
      <trkpt lat="44.18895" lon="5.0792">
        <ele>596</ele>
        <time>2019-10-26T07:48:51Z</time>
      </trkpt>
      <trkpt lat="44.18894" lon="5.07922">
        <ele>596</ele>
        <time>2019-10-26T07:48:52Z</time>
      </trkpt>
      <trkpt lat="44.18894" lon="5.07927">
        <ele>595</ele>
        <time>2019-10-26T07:48:55Z</time>
      </trkpt>
      <trkpt lat="44.18895" lon="5.07929">
        <ele>594</ele>
        <time>2019-10-26T07:48:56Z</time>
      </trkpt>
      <trkpt lat="44.18896" lon="5.07931">
        <ele>593</ele>
        <time>2019-10-26T07:48:57Z</time>
      </trkpt>
      <trkpt lat="44.18896" lon="5.07935">
        <ele>592</ele>
        <time>2019-10-26T07:49:07Z</time>
      </trkpt>
      <trkpt lat="44.18897" lon="5.07934">
        <ele>592</ele>
        <time>2019-10-26T07:49:27Z</time>
      </trkpt>
      <trkpt lat="44.18897" lon="5.07935">
        <ele>592</ele>
        <time>2019-10-26T07:49:37Z</time>
      </trkpt>
      <trkpt lat="44.18896" lon="5.07939">
        <ele>592</ele>
        <time>2019-10-26T07:49:41Z</time>
      </trkpt>
      <trkpt lat="44.18896" lon="5.07941">
        <ele>591</ele>
        <time>2019-10-26T07:49:42Z</time>
      </trkpt>
      <trkpt lat="44.18896" lon="5.07943">
        <ele>591</ele>
        <time>2019-10-26T07:49:43Z</time>
      </trkpt>
      <trkpt lat="44.18896" lon="5.07945">
        <ele>590</ele>
        <time>2019-10-26T07:49:44Z</time>
      </trkpt>
      <trkpt lat="44.18896" lon="5.07948">
        <ele>589</ele>
        <time>2019-10-26T07:49:45Z</time>
      </trkpt>
      <trkpt lat="44.18895" lon="5.0795">
        <ele>589</ele>
        <time>2019-10-26T07:49:46Z</time>
      </trkpt>
      <trkpt lat="44.18895" lon="5.07952">
        <ele>588</ele>
        <time>2019-10-26T07:49:47Z</time>
      </trkpt>
      <trkpt lat="44.18896" lon="5.07954">
        <ele>587</ele>
        <time>2019-10-26T07:49:48Z</time>
      </trkpt>
      <trkpt lat="44.18896" lon="5.07956">
        <ele>586</ele>
        <time>2019-10-26T07:49:49Z</time>
      </trkpt>
      <trkpt lat="44.18897" lon="5.07958">
        <ele>586</ele>
        <time>2019-10-26T07:49:50Z</time>
      </trkpt>
      <trkpt lat="44.18897" lon="5.0796">
        <ele>585</ele>
        <time>2019-10-26T07:49:51Z</time>
      </trkpt>
      <trkpt lat="44.18898" lon="5.07962">
        <ele>584</ele>
        <time>2019-10-26T07:49:52Z</time>
      </trkpt>
      <trkpt lat="44.18898" lon="5.07965">
        <ele>583</ele>
        <time>2019-10-26T07:49:53Z</time>
      </trkpt>
      <trkpt lat="44.18898" lon="5.07967">
        <ele>582</ele>
        <time>2019-10-26T07:49:54Z</time>
      </trkpt>
      <trkpt lat="44.18897" lon="5.0797">
        <ele>581</ele>
        <time>2019-10-26T07:49:55Z</time>
      </trkpt>
      <trkpt lat="44.18897" lon="5.07972">
        <ele>580</ele>
        <time>2019-10-26T07:49:56Z</time>
      </trkpt>
      <trkpt lat="44.18897" lon="5.07974">
        <ele>580</ele>
        <time>2019-10-26T07:49:57Z</time>
      </trkpt>
      <trkpt lat="44.18897" lon="5.07977">
        <ele>579</ele>
        <time>2019-10-26T07:49:58Z</time>
      </trkpt>
      <trkpt lat="44.18897" lon="5.07979">
        <ele>578</ele>
        <time>2019-10-26T07:49:59Z</time>
      </trkpt>
      <trkpt lat="44.18897" lon="5.07982">
        <ele>578</ele>
        <time>2019-10-26T07:50:00Z</time>
      </trkpt>
      <trkpt lat="44.18897" lon="5.07985">
        <ele>577</ele>
        <time>2019-10-26T07:50:01Z</time>
      </trkpt>
      <trkpt lat="44.18897" lon="5.07987">
        <ele>576</ele>
        <time>2019-10-26T07:50:02Z</time>
      </trkpt>
      <trkpt lat="44.18898" lon="5.07991">
        <ele>576</ele>
        <time>2019-10-26T07:50:03Z</time>
      </trkpt>
      <trkpt lat="44.18898" lon="5.07994">
        <ele>575</ele>
        <time>2019-10-26T07:50:04Z</time>
      </trkpt>
      <trkpt lat="44.18902" lon="5.08004">
        <ele>574</ele>
        <time>2019-10-26T07:50:08Z</time>
      </trkpt>
      <trkpt lat="44.18902" lon="5.08007">
        <ele>574</ele>
        <time>2019-10-26T07:50:09Z</time>
      </trkpt>
      <trkpt lat="44.18902" lon="5.08011">
        <ele>574</ele>
        <time>2019-10-26T07:50:10Z</time>
      </trkpt>
      <trkpt lat="44.18903" lon="5.08017">
        <ele>573</ele>
        <time>2019-10-26T07:50:12Z</time>
      </trkpt>
      <trkpt lat="44.18901" lon="5.08032">
        <ele>570</ele>
        <time>2019-10-26T07:50:16Z</time>
      </trkpt>
      <trkpt lat="44.18899" lon="5.08052">
        <ele>567</ele>
        <time>2019-10-26T07:50:21Z</time>
      </trkpt>
      <trkpt lat="44.18897" lon="5.08079">
        <ele>562</ele>
        <time>2019-10-26T07:50:28Z</time>
      </trkpt>
      <trkpt lat="44.18896" lon="5.08107">
        <ele>561</ele>
        <time>2019-10-26T07:50:35Z</time>
      </trkpt>
      <trkpt lat="44.18891" lon="5.08135">
        <ele>557</ele>
        <time>2019-10-26T07:50:43Z</time>
      </trkpt>
      <trkpt lat="44.18885" lon="5.08158">
        <ele>555</ele>
        <time>2019-10-26T07:50:49Z</time>
      </trkpt>
      <trkpt lat="44.18879" lon="5.08187">
        <ele>552</ele>
        <time>2019-10-26T07:50:57Z</time>
      </trkpt>
      <trkpt lat="44.18878" lon="5.08194">
        <ele>552</ele>
        <time>2019-10-26T07:50:59Z</time>
      </trkpt>
      <trkpt lat="44.18878" lon="5.08198">
        <ele>552</ele>
        <time>2019-10-26T07:51:00Z</time>
      </trkpt>
      <trkpt lat="44.18878" lon="5.08202">
        <ele>552</ele>
        <time>2019-10-26T07:51:01Z</time>
      </trkpt>
      <trkpt lat="44.18878" lon="5.08205">
        <ele>552</ele>
        <time>2019-10-26T07:51:02Z</time>
      </trkpt>
      <trkpt lat="44.18877" lon="5.08209">
        <ele>552</ele>
        <time>2019-10-26T07:51:03Z</time>
      </trkpt>
      <trkpt lat="44.18877" lon="5.08212">
        <ele>552</ele>
        <time>2019-10-26T07:51:04Z</time>
      </trkpt>
      <trkpt lat="44.18877" lon="5.08216">
        <ele>552</ele>
        <time>2019-10-26T07:51:05Z</time>
      </trkpt>
      <trkpt lat="44.18878" lon="5.08219">
        <ele>552</ele>
        <time>2019-10-26T07:51:06Z</time>
      </trkpt>
      <trkpt lat="44.18878" lon="5.08247">
        <ele>551</ele>
        <time>2019-10-26T07:51:14Z</time>
      </trkpt>
      <trkpt lat="44.18879" lon="5.08249">
        <ele>551</ele>
        <time>2019-10-26T07:51:15Z</time>
      </trkpt>
      <trkpt lat="44.18878" lon="5.08252">
        <ele>550</ele>
        <time>2019-10-26T07:51:16Z</time>
      </trkpt>
      <trkpt lat="44.18878" lon="5.08255">
        <ele>550</ele>
        <time>2019-10-26T07:51:17Z</time>
      </trkpt>
      <trkpt lat="44.18878" lon="5.08258">
        <ele>550</ele>
        <time>2019-10-26T07:51:18Z</time>
      </trkpt>
      <trkpt lat="44.18878" lon="5.08262">
        <ele>550</ele>
        <time>2019-10-26T07:51:19Z</time>
      </trkpt>
      <trkpt lat="44.18879" lon="5.08265">
        <ele>549</ele>
        <time>2019-10-26T07:51:20Z</time>
      </trkpt>
      <trkpt lat="44.18879" lon="5.08269">
        <ele>549</ele>
        <time>2019-10-26T07:51:21Z</time>
      </trkpt>
      <trkpt lat="44.18879" lon="5.08273">
        <ele>549</ele>
        <time>2019-10-26T07:51:22Z</time>
      </trkpt>
      <trkpt lat="44.18879" lon="5.08276">
        <ele>548</ele>
        <time>2019-10-26T07:51:23Z</time>
      </trkpt>
      <trkpt lat="44.18879" lon="5.0828">
        <ele>548</ele>
        <time>2019-10-26T07:51:24Z</time>
      </trkpt>
      <trkpt lat="44.18879" lon="5.08284">
        <ele>548</ele>
        <time>2019-10-26T07:51:25Z</time>
      </trkpt>
      <trkpt lat="44.18879" lon="5.08288">
        <ele>547</ele>
        <time>2019-10-26T07:51:26Z</time>
      </trkpt>
      <trkpt lat="44.18879" lon="5.08291">
        <ele>547</ele>
        <time>2019-10-26T07:51:27Z</time>
      </trkpt>
      <trkpt lat="44.1888" lon="5.08295">
        <ele>547</ele>
        <time>2019-10-26T07:51:28Z</time>
      </trkpt>
      <trkpt lat="44.1888" lon="5.08298">
        <ele>547</ele>
        <time>2019-10-26T07:51:29Z</time>
      </trkpt>
      <trkpt lat="44.1888" lon="5.08301">
        <ele>547</ele>
        <time>2019-10-26T07:51:30Z</time>
      </trkpt>
      <trkpt lat="44.1888" lon="5.08304">
        <ele>547</ele>
        <time>2019-10-26T07:51:31Z</time>
      </trkpt>
      <trkpt lat="44.1888" lon="5.08307">
        <ele>547</ele>
        <time>2019-10-26T07:51:32Z</time>
      </trkpt>
      <trkpt lat="44.18881" lon="5.0831">
        <ele>547</ele>
        <time>2019-10-26T07:51:33Z</time>
      </trkpt>
      <trkpt lat="44.18881" lon="5.08312">
        <ele>547</ele>
        <time>2019-10-26T07:51:34Z</time>
      </trkpt>
      <trkpt lat="44.18881" lon="5.08316">
        <ele>546</ele>
        <time>2019-10-26T07:51:35Z</time>
      </trkpt>
      <trkpt lat="44.18881" lon="5.08319">
        <ele>546</ele>
        <time>2019-10-26T07:51:36Z</time>
      </trkpt>
      <trkpt lat="44.1888" lon="5.08322">
        <ele>545</ele>
        <time>2019-10-26T07:51:37Z</time>
      </trkpt>
      <trkpt lat="44.1888" lon="5.08324">
        <ele>545</ele>
        <time>2019-10-26T07:51:38Z</time>
      </trkpt>
      <trkpt lat="44.18879" lon="5.08328">
        <ele>545</ele>
        <time>2019-10-26T07:51:39Z</time>
      </trkpt>
      <trkpt lat="44.18879" lon="5.0833">
        <ele>544</ele>
        <time>2019-10-26T07:51:40Z</time>
      </trkpt>
      <trkpt lat="44.18878" lon="5.08332">
        <ele>543</ele>
        <time>2019-10-26T07:51:41Z</time>
      </trkpt>
      <trkpt lat="44.18877" lon="5.08337">
        <ele>542</ele>
        <time>2019-10-26T07:51:45Z</time>
      </trkpt>
      <trkpt lat="44.18876" lon="5.08339">
        <ele>542</ele>
        <time>2019-10-26T07:51:46Z</time>
      </trkpt>
      <trkpt lat="44.18876" lon="5.0834">
        <ele>542</ele>
        <time>2019-10-26T07:51:47Z</time>
      </trkpt>
      <trkpt lat="44.18875" lon="5.0835">
        <ele>540</ele>
        <time>2019-10-26T07:51:52Z</time>
      </trkpt>
      <trkpt lat="44.18875" lon="5.08353">
        <ele>540</ele>
        <time>2019-10-26T07:51:53Z</time>
      </trkpt>
      <trkpt lat="44.18875" lon="5.08355">
        <ele>540</ele>
        <time>2019-10-26T07:51:54Z</time>
      </trkpt>
      <trkpt lat="44.18875" lon="5.08357">
        <ele>539</ele>
        <time>2019-10-26T07:51:55Z</time>
      </trkpt>
      <trkpt lat="44.18875" lon="5.0836">
        <ele>539</ele>
        <time>2019-10-26T07:51:56Z</time>
      </trkpt>
      <trkpt lat="44.18876" lon="5.08362">
        <ele>539</ele>
        <time>2019-10-26T07:51:57Z</time>
      </trkpt>
      <trkpt lat="44.18876" lon="5.08364">
        <ele>539</ele>
        <time>2019-10-26T07:51:58Z</time>
      </trkpt>
      <trkpt lat="44.18876" lon="5.08367">
        <ele>539</ele>
        <time>2019-10-26T07:51:59Z</time>
      </trkpt>
      <trkpt lat="44.18876" lon="5.08369">
        <ele>538</ele>
        <time>2019-10-26T07:52:00Z</time>
      </trkpt>
      <trkpt lat="44.18876" lon="5.08372">
        <ele>538</ele>
        <time>2019-10-26T07:52:01Z</time>
      </trkpt>
      <trkpt lat="44.18876" lon="5.08374">
        <ele>538</ele>
        <time>2019-10-26T07:52:02Z</time>
      </trkpt>
      <trkpt lat="44.18876" lon="5.08376">
        <ele>538</ele>
        <time>2019-10-26T07:52:03Z</time>
      </trkpt>
      <trkpt lat="44.18877" lon="5.08383">
        <ele>537</ele>
        <time>2019-10-26T07:52:06Z</time>
      </trkpt>
      <trkpt lat="44.18877" lon="5.08404">
        <ele>534</ele>
        <time>2019-10-26T07:52:13Z</time>
      </trkpt>
      <trkpt lat="44.18878" lon="5.08407">
        <ele>533</ele>
        <time>2019-10-26T07:52:14Z</time>
      </trkpt>
      <trkpt lat="44.18879" lon="5.0841">
        <ele>533</ele>
        <time>2019-10-26T07:52:15Z</time>
      </trkpt>
      <trkpt lat="44.1888" lon="5.08413">
        <ele>533</ele>
        <time>2019-10-26T07:52:16Z</time>
      </trkpt>
      <trkpt lat="44.18881" lon="5.08415">
        <ele>533</ele>
        <time>2019-10-26T07:52:17Z</time>
      </trkpt>
      <trkpt lat="44.18882" lon="5.08417">
        <ele>533</ele>
        <time>2019-10-26T07:52:18Z</time>
      </trkpt>
      <trkpt lat="44.18882" lon="5.0842">
        <ele>532</ele>
        <time>2019-10-26T07:52:19Z</time>
      </trkpt>
      <trkpt lat="44.18883" lon="5.08423">
        <ele>532</ele>
        <time>2019-10-26T07:52:20Z</time>
      </trkpt>
      <trkpt lat="44.18884" lon="5.08426">
        <ele>532</ele>
        <time>2019-10-26T07:52:21Z</time>
      </trkpt>
      <trkpt lat="44.18884" lon="5.08428">
        <ele>531</ele>
        <time>2019-10-26T07:52:22Z</time>
      </trkpt>
      <trkpt lat="44.18886" lon="5.08431">
        <ele>531</ele>
        <time>2019-10-26T07:52:23Z</time>
      </trkpt>
      <trkpt lat="44.18889" lon="5.08434">
        <ele>532</ele>
        <time>2019-10-26T07:52:25Z</time>
      </trkpt>
      <trkpt lat="44.18889" lon="5.08436">
        <ele>531</ele>
        <time>2019-10-26T07:52:26Z</time>
      </trkpt>
      <trkpt lat="44.1889" lon="5.08438">
        <ele>531</ele>
        <time>2019-10-26T07:52:27Z</time>
      </trkpt>
      <trkpt lat="44.18891" lon="5.08441">
        <ele>530</ele>
        <time>2019-10-26T07:52:28Z</time>
      </trkpt>
      <trkpt lat="44.18893" lon="5.08443">
        <ele>530</ele>
        <time>2019-10-26T07:52:29Z</time>
      </trkpt>
      <trkpt lat="44.18898" lon="5.0845">
        <ele>529</ele>
        <time>2019-10-26T07:52:33Z</time>
      </trkpt>
      <trkpt lat="44.18899" lon="5.08452">
        <ele>529</ele>
        <time>2019-10-26T07:52:34Z</time>
      </trkpt>
      <trkpt lat="44.189" lon="5.08455">
        <ele>529</ele>
        <time>2019-10-26T07:52:35Z</time>
      </trkpt>
      <trkpt lat="44.18901" lon="5.08457">
        <ele>528</ele>
        <time>2019-10-26T07:52:36Z</time>
      </trkpt>
      <trkpt lat="44.18902" lon="5.0846">
        <ele>527</ele>
        <time>2019-10-26T07:52:37Z</time>
      </trkpt>
      <trkpt lat="44.18903" lon="5.08462">
        <ele>527</ele>
        <time>2019-10-26T07:52:38Z</time>
      </trkpt>
      <trkpt lat="44.18905" lon="5.08464">
        <ele>527</ele>
        <time>2019-10-26T07:52:39Z</time>
      </trkpt>
      <trkpt lat="44.18907" lon="5.08465">
        <ele>527</ele>
        <time>2019-10-26T07:52:40Z</time>
      </trkpt>
      <trkpt lat="44.18908" lon="5.08467">
        <ele>527</ele>
        <time>2019-10-26T07:52:41Z</time>
      </trkpt>
      <trkpt lat="44.18908" lon="5.0847">
        <ele>526</ele>
        <time>2019-10-26T07:52:42Z</time>
      </trkpt>
      <trkpt lat="44.18909" lon="5.08473">
        <ele>525</ele>
        <time>2019-10-26T07:52:43Z</time>
      </trkpt>
      <trkpt lat="44.18912" lon="5.08497">
        <ele>521</ele>
        <time>2019-10-26T07:52:50Z</time>
      </trkpt>
      <trkpt lat="44.18912" lon="5.08501">
        <ele>521</ele>
        <time>2019-10-26T07:52:51Z</time>
      </trkpt>
      <trkpt lat="44.18913" lon="5.08514">
        <ele>519</ele>
        <time>2019-10-26T07:52:54Z</time>
      </trkpt>
      <trkpt lat="44.18913" lon="5.08518">
        <ele>518</ele>
        <time>2019-10-26T07:52:55Z</time>
      </trkpt>
      <trkpt lat="44.18913" lon="5.08522">
        <ele>517</ele>
        <time>2019-10-26T07:52:56Z</time>
      </trkpt>
      <trkpt lat="44.18914" lon="5.08526">
        <ele>516</ele>
        <time>2019-10-26T07:52:57Z</time>
      </trkpt>
      <trkpt lat="44.18914" lon="5.0853">
        <ele>516</ele>
        <time>2019-10-26T07:52:58Z</time>
      </trkpt>
      <trkpt lat="44.18914" lon="5.08533">
        <ele>515</ele>
        <time>2019-10-26T07:52:59Z</time>
      </trkpt>
      <trkpt lat="44.18914" lon="5.08536">
        <ele>515</ele>
        <time>2019-10-26T07:53:00Z</time>
      </trkpt>
      <trkpt lat="44.18912" lon="5.08552">
        <ele>511</ele>
        <time>2019-10-26T07:53:05Z</time>
      </trkpt>
      <trkpt lat="44.18911" lon="5.08555">
        <ele>511</ele>
        <time>2019-10-26T07:53:06Z</time>
      </trkpt>
      <trkpt lat="44.18909" lon="5.08558">
        <ele>510</ele>
        <time>2019-10-26T07:53:07Z</time>
      </trkpt>
      <trkpt lat="44.18909" lon="5.08561">
        <ele>509</ele>
        <time>2019-10-26T07:53:08Z</time>
      </trkpt>
      <trkpt lat="44.18908" lon="5.08564">
        <ele>508</ele>
        <time>2019-10-26T07:53:09Z</time>
      </trkpt>
      <trkpt lat="44.18908" lon="5.08567">
        <ele>507</ele>
        <time>2019-10-26T07:53:10Z</time>
      </trkpt>
      <trkpt lat="44.18907" lon="5.0857">
        <ele>506</ele>
        <time>2019-10-26T07:53:11Z</time>
      </trkpt>
      <trkpt lat="44.18907" lon="5.08582">
        <ele>503</ele>
        <time>2019-10-26T07:53:15Z</time>
      </trkpt>
      <trkpt lat="44.18906" lon="5.08584">
        <ele>502</ele>
        <time>2019-10-26T07:53:16Z</time>
      </trkpt>
      <trkpt lat="44.18905" lon="5.08586">
        <ele>501</ele>
        <time>2019-10-26T07:53:17Z</time>
      </trkpt>
      <trkpt lat="44.18905" lon="5.08589">
        <ele>501</ele>
        <time>2019-10-26T07:53:18Z</time>
      </trkpt>
      <trkpt lat="44.18904" lon="5.08591">
        <ele>500</ele>
        <time>2019-10-26T07:53:19Z</time>
      </trkpt>
      <trkpt lat="44.18903" lon="5.08593">
        <ele>500</ele>
        <time>2019-10-26T07:53:20Z</time>
      </trkpt>
      <trkpt lat="44.18901" lon="5.08595">
        <ele>499</ele>
        <time>2019-10-26T07:53:21Z</time>
      </trkpt>
      <trkpt lat="44.189" lon="5.08596">
        <ele>499</ele>
        <time>2019-10-26T07:53:22Z</time>
      </trkpt>
      <trkpt lat="44.18898" lon="5.08597">
        <ele>499</ele>
        <time>2019-10-26T07:53:23Z</time>
      </trkpt>
      <trkpt lat="44.18896" lon="5.08597">
        <ele>499</ele>
        <time>2019-10-26T07:53:24Z</time>
      </trkpt>
      <trkpt lat="44.18895" lon="5.08597">
        <ele>499</ele>
        <time>2019-10-26T07:53:25Z</time>
      </trkpt>
      <trkpt lat="44.18889" lon="5.08594">
        <ele>499</ele>
        <time>2019-10-26T07:54:17Z</time>
      </trkpt>
      <trkpt lat="44.18886" lon="5.08594">
        <ele>499</ele>
        <time>2019-10-26T07:58:06Z</time>
      </trkpt>
      <trkpt lat="44.18878" lon="5.08595">
        <ele>496</ele>
        <time>2019-10-26T07:58:13Z</time>
      </trkpt>
      <trkpt lat="44.18877" lon="5.08596">
        <ele>495</ele>
        <time>2019-10-26T07:58:15Z</time>
      </trkpt>
      <trkpt lat="44.18872" lon="5.08608">
        <ele>492</ele>
        <time>2019-10-26T07:58:22Z</time>
      </trkpt>
      <trkpt lat="44.1887" lon="5.08626">
        <ele>489</ele>
        <time>2019-10-26T07:58:29Z</time>
      </trkpt>
      <trkpt lat="44.18871" lon="5.08637">
        <ele>488</ele>
        <time>2019-10-26T07:58:33Z</time>
      </trkpt>
      <trkpt lat="44.18872" lon="5.08638">
        <ele>488</ele>
        <time>2019-10-26T07:58:34Z</time>
      </trkpt>
      <trkpt lat="44.18873" lon="5.0864">
        <ele>488</ele>
        <time>2019-10-26T07:58:35Z</time>
      </trkpt>
      <trkpt lat="44.18873" lon="5.08656">
        <ele>485</ele>
        <time>2019-10-26T07:58:45Z</time>
      </trkpt>
      <trkpt lat="44.18872" lon="5.08658">
        <ele>484</ele>
        <time>2019-10-26T07:58:46Z</time>
      </trkpt>
      <trkpt lat="44.18866" lon="5.08661">
        <ele>483</ele>
        <time>2019-10-26T07:58:56Z</time>
      </trkpt>
      <trkpt lat="44.18865" lon="5.08663">
        <ele>483</ele>
        <time>2019-10-26T07:58:57Z</time>
      </trkpt>
      <trkpt lat="44.18865" lon="5.08665">
        <ele>483</ele>
        <time>2019-10-26T07:58:58Z</time>
      </trkpt>
      <trkpt lat="44.18867" lon="5.0867">
        <ele>482</ele>
        <time>2019-10-26T07:59:00Z</time>
      </trkpt>
      <trkpt lat="44.1887" lon="5.08674">
        <ele>480</ele>
        <time>2019-10-26T07:59:04Z</time>
      </trkpt>
      <trkpt lat="44.1887" lon="5.08677">
        <ele>479</ele>
        <time>2019-10-26T07:59:05Z</time>
      </trkpt>
      <trkpt lat="44.18871" lon="5.08679">
        <ele>479</ele>
        <time>2019-10-26T07:59:06Z</time>
      </trkpt>
      <trkpt lat="44.18872" lon="5.08682">
        <ele>478</ele>
        <time>2019-10-26T07:59:07Z</time>
      </trkpt>
      <trkpt lat="44.18874" lon="5.08684">
        <ele>477</ele>
        <time>2019-10-26T07:59:08Z</time>
      </trkpt>
      <trkpt lat="44.18875" lon="5.08686">
        <ele>476</ele>
        <time>2019-10-26T07:59:09Z</time>
      </trkpt>
      <trkpt lat="44.18877" lon="5.08688">
        <ele>475</ele>
        <time>2019-10-26T07:59:10Z</time>
      </trkpt>
      <trkpt lat="44.18892" lon="5.08692">
        <ele>471</ele>
        <time>2019-10-26T07:59:19Z</time>
      </trkpt>
      <trkpt lat="44.18902" lon="5.08686">
        <ele>469</ele>
        <time>2019-10-26T07:59:25Z</time>
      </trkpt>
      <trkpt lat="44.18904" lon="5.08684">
        <ele>470</ele>
        <time>2019-10-26T07:59:26Z</time>
      </trkpt>
      <trkpt lat="44.18905" lon="5.08683">
        <ele>470</ele>
        <time>2019-10-26T07:59:27Z</time>
      </trkpt>
      <trkpt lat="44.18905" lon="5.08681">
        <ele>471</ele>
        <time>2019-10-26T07:59:28Z</time>
      </trkpt>
      <trkpt lat="44.18906" lon="5.08678">
        <ele>472</ele>
        <time>2019-10-26T07:59:29Z</time>
      </trkpt>
      <trkpt lat="44.18907" lon="5.08675">
        <ele>472</ele>
        <time>2019-10-26T07:59:30Z</time>
      </trkpt>
      <trkpt lat="44.18908" lon="5.08673">
        <ele>473</ele>
        <time>2019-10-26T07:59:31Z</time>
      </trkpt>
      <trkpt lat="44.1891" lon="5.08671">
        <ele>473</ele>
        <time>2019-10-26T07:59:32Z</time>
      </trkpt>
      <trkpt lat="44.18911" lon="5.08669">
        <ele>474</ele>
        <time>2019-10-26T07:59:33Z</time>
      </trkpt>
      <trkpt lat="44.18912" lon="5.08667">
        <ele>474</ele>
        <time>2019-10-26T07:59:34Z</time>
      </trkpt>
      <trkpt lat="44.18915" lon="5.08665">
        <ele>474</ele>
        <time>2019-10-26T07:59:37Z</time>
      </trkpt>
      <trkpt lat="44.18916" lon="5.08665">
        <ele>473</ele>
        <time>2019-10-26T07:59:38Z</time>
      </trkpt>
      <trkpt lat="44.18918" lon="5.08665">
        <ele>472</ele>
        <time>2019-10-26T07:59:39Z</time>
      </trkpt>
      <trkpt lat="44.1892" lon="5.08666">
        <ele>472</ele>
        <time>2019-10-26T07:59:40Z</time>
      </trkpt>
      <trkpt lat="44.18922" lon="5.08667">
        <ele>471</ele>
        <time>2019-10-26T07:59:41Z</time>
      </trkpt>
      <trkpt lat="44.18923" lon="5.08667">
        <ele>470</ele>
        <time>2019-10-26T07:59:42Z</time>
      </trkpt>
      <trkpt lat="44.18925" lon="5.08668">
        <ele>470</ele>
        <time>2019-10-26T07:59:43Z</time>
      </trkpt>
      <trkpt lat="44.18931" lon="5.08669">
        <ele>468</ele>
        <time>2019-10-26T07:59:46Z</time>
      </trkpt>
      <trkpt lat="44.18933" lon="5.08669">
        <ele>468</ele>
        <time>2019-10-26T07:59:47Z</time>
      </trkpt>
      <trkpt lat="44.18936" lon="5.08669">
        <ele>467</ele>
        <time>2019-10-26T07:59:48Z</time>
      </trkpt>
      <trkpt lat="44.18937" lon="5.0867">
        <ele>467</ele>
        <time>2019-10-26T07:59:49Z</time>
      </trkpt>
      <trkpt lat="44.18941" lon="5.08669">
        <ele>466</ele>
        <time>2019-10-26T07:59:52Z</time>
      </trkpt>
      <trkpt lat="44.18943" lon="5.08669">
        <ele>466</ele>
        <time>2019-10-26T07:59:53Z</time>
      </trkpt>
      <trkpt lat="44.18954" lon="5.08672">
        <ele>464</ele>
        <time>2019-10-26T07:59:59Z</time>
      </trkpt>
      <trkpt lat="44.1896" lon="5.08675">
        <ele>462</ele>
        <time>2019-10-26T08:00:02Z</time>
      </trkpt>
      <trkpt lat="44.18966" lon="5.08679">
        <ele>460</ele>
        <time>2019-10-26T08:00:05Z</time>
      </trkpt>
      <trkpt lat="44.18968" lon="5.08681">
        <ele>459</ele>
        <time>2019-10-26T08:00:06Z</time>
      </trkpt>
      <trkpt lat="44.18981" lon="5.08696">
        <ele>455</ele>
        <time>2019-10-26T08:00:13Z</time>
      </trkpt>
      <trkpt lat="44.18986" lon="5.08703">
        <ele>453</ele>
        <time>2019-10-26T08:00:17Z</time>
      </trkpt>
      <trkpt lat="44.18988" lon="5.08705">
        <ele>452</ele>
        <time>2019-10-26T08:00:18Z</time>
      </trkpt>
      <trkpt lat="44.18989" lon="5.08707">
        <ele>452</ele>
        <time>2019-10-26T08:00:19Z</time>
      </trkpt>
      <trkpt lat="44.1899" lon="5.08709">
        <ele>452</ele>
        <time>2019-10-26T08:00:20Z</time>
      </trkpt>
      <trkpt lat="44.18992" lon="5.08711">
        <ele>451</ele>
        <time>2019-10-26T08:00:21Z</time>
      </trkpt>
      <trkpt lat="44.18993" lon="5.08713">
        <ele>451</ele>
        <time>2019-10-26T08:00:22Z</time>
      </trkpt>
      <trkpt lat="44.19006" lon="5.08731">
        <ele>446</ele>
        <time>2019-10-26T08:00:31Z</time>
      </trkpt>
      <trkpt lat="44.1901" lon="5.08736">
        <ele>444</ele>
        <time>2019-10-26T08:00:34Z</time>
      </trkpt>
      <trkpt lat="44.19013" lon="5.08746">
        <ele>442</ele>
        <time>2019-10-26T08:00:40Z</time>
      </trkpt>
      <trkpt lat="44.19018" lon="5.08756">
        <ele>439</ele>
        <time>2019-10-26T08:00:46Z</time>
      </trkpt>
      <trkpt lat="44.1902" lon="5.08759">
        <ele>438</ele>
        <time>2019-10-26T08:00:47Z</time>
      </trkpt>
      <trkpt lat="44.19031" lon="5.0878">
        <ele>433</ele>
        <time>2019-10-26T08:00:56Z</time>
      </trkpt>
      <trkpt lat="44.19033" lon="5.08781">
        <ele>433</ele>
        <time>2019-10-26T08:00:57Z</time>
      </trkpt>
      <trkpt lat="44.19046" lon="5.08794">
        <ele>429</ele>
        <time>2019-10-26T08:01:04Z</time>
      </trkpt>
      <trkpt lat="44.19047" lon="5.08795">
        <ele>429</ele>
        <time>2019-10-26T08:01:05Z</time>
      </trkpt>
      <trkpt lat="44.19048" lon="5.08797">
        <ele>429</ele>
        <time>2019-10-26T08:01:06Z</time>
      </trkpt>
      <trkpt lat="44.1905" lon="5.08798">
        <ele>429</ele>
        <time>2019-10-26T08:01:07Z</time>
      </trkpt>
      <trkpt lat="44.19051" lon="5.08799">
        <ele>428</ele>
        <time>2019-10-26T08:01:08Z</time>
      </trkpt>
      <trkpt lat="44.19058" lon="5.08797">
        <ele>427</ele>
        <time>2019-10-26T08:01:15Z</time>
      </trkpt>
      <trkpt lat="44.19062" lon="5.08795">
        <ele>425</ele>
        <time>2019-10-26T08:01:18Z</time>
      </trkpt>
      <trkpt lat="44.19066" lon="5.08792">
        <ele>423</ele>
        <time>2019-10-26T08:01:21Z</time>
      </trkpt>
      <trkpt lat="44.19068" lon="5.0879">
        <ele>422</ele>
        <time>2019-10-26T08:01:22Z</time>
      </trkpt>
      <trkpt lat="44.19072" lon="5.08776">
        <ele>420</ele>
        <time>2019-10-26T08:01:29Z</time>
      </trkpt>
      <trkpt lat="44.19071" lon="5.08772">
        <ele>420</ele>
        <time>2019-10-26T08:01:42Z</time>
      </trkpt>
      <trkpt lat="44.19074" lon="5.08773">
        <ele>419</ele>
        <time>2019-10-26T08:02:03Z</time>
      </trkpt>
      <trkpt lat="44.19075" lon="5.08775">
        <ele>419</ele>
        <time>2019-10-26T08:02:21Z</time>
      </trkpt>
      <trkpt lat="44.19075" lon="5.0876">
        <ele>419</ele>
        <time>2019-10-26T08:02:38Z</time>
      </trkpt>
      <trkpt lat="44.19076" lon="5.08757">
        <ele>418</ele>
        <time>2019-10-26T08:02:39Z</time>
      </trkpt>
      <trkpt lat="44.19077" lon="5.08754">
        <ele>418</ele>
        <time>2019-10-26T08:02:40Z</time>
      </trkpt>
      <trkpt lat="44.19078" lon="5.08751">
        <ele>417</ele>
        <time>2019-10-26T08:02:41Z</time>
      </trkpt>
      <trkpt lat="44.19079" lon="5.08749">
        <ele>417</ele>
        <time>2019-10-26T08:02:42Z</time>
      </trkpt>
      <trkpt lat="44.1908" lon="5.08746">
        <ele>417</ele>
        <time>2019-10-26T08:02:43Z</time>
      </trkpt>
      <trkpt lat="44.19081" lon="5.08744">
        <ele>417</ele>
        <time>2019-10-26T08:02:44Z</time>
      </trkpt>
      <trkpt lat="44.19082" lon="5.08741">
        <ele>417</ele>
        <time>2019-10-26T08:02:45Z</time>
      </trkpt>
      <trkpt lat="44.19086" lon="5.08725">
        <ele>418</ele>
        <time>2019-10-26T08:02:51Z</time>
      </trkpt>
      <trkpt lat="44.19086" lon="5.08724">
        <ele>418</ele>
        <time>2019-10-26T08:02:52Z</time>
      </trkpt>
      <trkpt lat="44.19087" lon="5.08721">
        <ele>418</ele>
        <time>2019-10-26T08:02:53Z</time>
      </trkpt>
      <trkpt lat="44.19088" lon="5.0872">
        <ele>418</ele>
        <time>2019-10-26T08:02:54Z</time>
      </trkpt>
      <trkpt lat="44.19089" lon="5.08718">
        <ele>418</ele>
        <time>2019-10-26T08:02:55Z</time>
      </trkpt>
      <trkpt lat="44.19089" lon="5.08716">
        <ele>418</ele>
        <time>2019-10-26T08:02:56Z</time>
      </trkpt>
      <trkpt lat="44.1909" lon="5.08714">
        <ele>417</ele>
        <time>2019-10-26T08:02:57Z</time>
      </trkpt>
      <trkpt lat="44.19092" lon="5.08712">
        <ele>417</ele>
        <time>2019-10-26T08:02:58Z</time>
      </trkpt>
      <trkpt lat="44.19093" lon="5.0871">
        <ele>417</ele>
        <time>2019-10-26T08:02:59Z</time>
      </trkpt>
      <trkpt lat="44.19094" lon="5.08709">
        <ele>416</ele>
        <time>2019-10-26T08:03:00Z</time>
      </trkpt>
      <trkpt lat="44.19094" lon="5.08707">
        <ele>416</ele>
        <time>2019-10-26T08:03:01Z</time>
      </trkpt>
      <trkpt lat="44.19095" lon="5.08705">
        <ele>416</ele>
        <time>2019-10-26T08:03:02Z</time>
      </trkpt>
      <trkpt lat="44.19099" lon="5.08689">
        <ele>417</ele>
        <time>2019-10-26T08:03:11Z</time>
      </trkpt>
      <trkpt lat="44.19104" lon="5.08677">
        <ele>416</ele>
        <time>2019-10-26T08:03:18Z</time>
      </trkpt>
      <trkpt lat="44.19105" lon="5.08676">
        <ele>416</ele>
        <time>2019-10-26T08:03:19Z</time>
      </trkpt>
      <trkpt lat="44.19106" lon="5.08674">
        <ele>415</ele>
        <time>2019-10-26T08:03:20Z</time>
      </trkpt>
      <trkpt lat="44.19107" lon="5.08672">
        <ele>415</ele>
        <time>2019-10-26T08:03:21Z</time>
      </trkpt>
      <trkpt lat="44.19108" lon="5.0867">
        <ele>415</ele>
        <time>2019-10-26T08:03:22Z</time>
      </trkpt>
      <trkpt lat="44.19119" lon="5.08654">
        <ele>413</ele>
        <time>2019-10-26T08:03:30Z</time>
      </trkpt>
      <trkpt lat="44.19124" lon="5.08643">
        <ele>412</ele>
        <time>2019-10-26T08:03:35Z</time>
      </trkpt>
      <trkpt lat="44.1913" lon="5.08634">
        <ele>411</ele>
        <time>2019-10-26T08:03:39Z</time>
      </trkpt>
      <trkpt lat="44.1913" lon="5.08631">
        <ele>411</ele>
        <time>2019-10-26T08:03:40Z</time>
      </trkpt>
      <trkpt lat="44.19134" lon="5.08615">
        <ele>413</ele>
        <time>2019-10-26T08:03:48Z</time>
      </trkpt>
      <trkpt lat="44.19134" lon="5.08613">
        <ele>414</ele>
        <time>2019-10-26T08:03:49Z</time>
      </trkpt>
      <trkpt lat="44.19136" lon="5.08599">
        <ele>415</ele>
        <time>2019-10-26T08:03:55Z</time>
      </trkpt>
      <trkpt lat="44.19137" lon="5.08597">
        <ele>415</ele>
        <time>2019-10-26T08:03:56Z</time>
      </trkpt>
      <trkpt lat="44.19139" lon="5.08594">
        <ele>415</ele>
        <time>2019-10-26T08:03:57Z</time>
      </trkpt>
      <trkpt lat="44.1914" lon="5.08591">
        <ele>415</ele>
        <time>2019-10-26T08:03:58Z</time>
      </trkpt>
      <trkpt lat="44.19142" lon="5.08589">
        <ele>414</ele>
        <time>2019-10-26T08:03:59Z</time>
      </trkpt>
      <trkpt lat="44.19144" lon="5.08587">
        <ele>414</ele>
        <time>2019-10-26T08:04:00Z</time>
      </trkpt>
      <trkpt lat="44.19145" lon="5.08584">
        <ele>414</ele>
        <time>2019-10-26T08:04:01Z</time>
      </trkpt>
      <trkpt lat="44.19146" lon="5.08582">
        <ele>414</ele>
        <time>2019-10-26T08:04:02Z</time>
      </trkpt>
      <trkpt lat="44.19157" lon="5.0856">
        <ele>414</ele>
        <time>2019-10-26T08:04:13Z</time>
      </trkpt>
      <trkpt lat="44.19159" lon="5.08543">
        <ele>415</ele>
        <time>2019-10-26T08:04:23Z</time>
      </trkpt>
      <trkpt lat="44.19157" lon="5.08519">
        <ele>418</ele>
        <time>2019-10-26T08:04:34Z</time>
      </trkpt>
      <trkpt lat="44.19161" lon="5.08489">
        <ele>418</ele>
        <time>2019-10-26T08:04:45Z</time>
      </trkpt>
      <trkpt lat="44.19167" lon="5.08459">
        <ele>419</ele>
        <time>2019-10-26T08:04:56Z</time>
      </trkpt>
      <trkpt lat="44.19167" lon="5.08456">
        <ele>419</ele>
        <time>2019-10-26T08:04:57Z</time>
      </trkpt>
      <trkpt lat="44.19168" lon="5.08453">
        <ele>419</ele>
        <time>2019-10-26T08:04:58Z</time>
      </trkpt>
      <trkpt lat="44.19169" lon="5.0845">
        <ele>419</ele>
        <time>2019-10-26T08:04:59Z</time>
      </trkpt>
      <trkpt lat="44.19169" lon="5.08447">
        <ele>419</ele>
        <time>2019-10-26T08:05:00Z</time>
      </trkpt>
      <trkpt lat="44.1917" lon="5.08445">
        <ele>419</ele>
        <time>2019-10-26T08:05:01Z</time>
      </trkpt>
      <trkpt lat="44.19171" lon="5.08441">
        <ele>419</ele>
        <time>2019-10-26T08:05:02Z</time>
      </trkpt>
      <trkpt lat="44.19171" lon="5.08438">
        <ele>419</ele>
        <time>2019-10-26T08:05:03Z</time>
      </trkpt>
      <trkpt lat="44.19172" lon="5.08435">
        <ele>419</ele>
        <time>2019-10-26T08:05:04Z</time>
      </trkpt>
      <trkpt lat="44.19173" lon="5.0843">
        <ele>419</ele>
        <time>2019-10-26T08:05:06Z</time>
      </trkpt>
      <trkpt lat="44.19174" lon="5.08427">
        <ele>419</ele>
        <time>2019-10-26T08:05:07Z</time>
      </trkpt>
      <trkpt lat="44.19175" lon="5.08423">
        <ele>419</ele>
        <time>2019-10-26T08:05:08Z</time>
      </trkpt>
      <trkpt lat="44.19176" lon="5.0842">
        <ele>419</ele>
        <time>2019-10-26T08:05:09Z</time>
      </trkpt>
      <trkpt lat="44.19177" lon="5.08417">
        <ele>419</ele>
        <time>2019-10-26T08:05:10Z</time>
      </trkpt>
      <trkpt lat="44.19178" lon="5.08413">
        <ele>419</ele>
        <time>2019-10-26T08:05:11Z</time>
      </trkpt>
      <trkpt lat="44.19179" lon="5.0841">
        <ele>419</ele>
        <time>2019-10-26T08:05:12Z</time>
      </trkpt>
      <trkpt lat="44.1918" lon="5.08407">
        <ele>419</ele>
        <time>2019-10-26T08:05:13Z</time>
      </trkpt>
      <trkpt lat="44.1918" lon="5.08404">
        <ele>419</ele>
        <time>2019-10-26T08:05:14Z</time>
      </trkpt>
      <trkpt lat="44.19181" lon="5.08402">
        <ele>419</ele>
        <time>2019-10-26T08:05:15Z</time>
      </trkpt>
      <trkpt lat="44.19188" lon="5.08376">
        <ele>418</ele>
        <time>2019-10-26T08:05:23Z</time>
      </trkpt>
      <trkpt lat="44.19189" lon="5.08374">
        <ele>418</ele>
        <time>2019-10-26T08:05:24Z</time>
      </trkpt>
      <trkpt lat="44.1919" lon="5.0837">
        <ele>418</ele>
        <time>2019-10-26T08:05:25Z</time>
      </trkpt>
      <trkpt lat="44.19191" lon="5.08367">
        <ele>417</ele>
        <time>2019-10-26T08:05:26Z</time>
      </trkpt>
      <trkpt lat="44.19192" lon="5.08363">
        <ele>417</ele>
        <time>2019-10-26T08:05:27Z</time>
      </trkpt>
      <trkpt lat="44.19192" lon="5.08359">
        <ele>417</ele>
        <time>2019-10-26T08:05:28Z</time>
      </trkpt>
      <trkpt lat="44.19193" lon="5.08355">
        <ele>417</ele>
        <time>2019-10-26T08:05:29Z</time>
      </trkpt>
      <trkpt lat="44.19193" lon="5.08352">
        <ele>417</ele>
        <time>2019-10-26T08:05:30Z</time>
      </trkpt>
      <trkpt lat="44.19194" lon="5.08349">
        <ele>417</ele>
        <time>2019-10-26T08:05:31Z</time>
      </trkpt>
      <trkpt lat="44.19195" lon="5.08346">
        <ele>417</ele>
        <time>2019-10-26T08:05:32Z</time>
      </trkpt>
      <trkpt lat="44.19199" lon="5.08321">
        <ele>419</ele>
        <time>2019-10-26T08:05:40Z</time>
      </trkpt>
      <trkpt lat="44.19199" lon="5.08318">
        <ele>419</ele>
        <time>2019-10-26T08:05:41Z</time>
      </trkpt>
      <trkpt lat="44.19199" lon="5.08315">
        <ele>419</ele>
        <time>2019-10-26T08:05:42Z</time>
      </trkpt>
      <trkpt lat="44.19199" lon="5.08312">
        <ele>419</ele>
        <time>2019-10-26T08:05:43Z</time>
      </trkpt>
      <trkpt lat="44.19199" lon="5.0831">
        <ele>419</ele>
        <time>2019-10-26T08:05:44Z</time>
      </trkpt>
      <trkpt lat="44.192" lon="5.08307">
        <ele>419</ele>
        <time>2019-10-26T08:05:45Z</time>
      </trkpt>
      <trkpt lat="44.192" lon="5.08304">
        <ele>419</ele>
        <time>2019-10-26T08:05:46Z</time>
      </trkpt>
      <trkpt lat="44.19201" lon="5.08301">
        <ele>420</ele>
        <time>2019-10-26T08:05:47Z</time>
      </trkpt>
      <trkpt lat="44.19201" lon="5.08298">
        <ele>420</ele>
        <time>2019-10-26T08:05:48Z</time>
      </trkpt>
      <trkpt lat="44.19201" lon="5.08294">
        <ele>420</ele>
        <time>2019-10-26T08:05:49Z</time>
      </trkpt>
      <trkpt lat="44.192" lon="5.08291">
        <ele>420</ele>
        <time>2019-10-26T08:05:50Z</time>
      </trkpt>
      <trkpt lat="44.192" lon="5.08289">
        <ele>420</ele>
        <time>2019-10-26T08:05:51Z</time>
      </trkpt>
      <trkpt lat="44.192" lon="5.08285">
        <ele>421</ele>
        <time>2019-10-26T08:05:52Z</time>
      </trkpt>
      <trkpt lat="44.19197" lon="5.08264">
        <ele>422</ele>
        <time>2019-10-26T08:06:01Z</time>
      </trkpt>
      <trkpt lat="44.19192" lon="5.08243">
        <ele>423</ele>
        <time>2019-10-26T08:06:11Z</time>
      </trkpt>
      <trkpt lat="44.19184" lon="5.08227">
        <ele>426</ele>
        <time>2019-10-26T08:06:20Z</time>
      </trkpt>
      <trkpt lat="44.1918" lon="5.08209">
        <ele>427</ele>
        <time>2019-10-26T08:06:30Z</time>
      </trkpt>
      <trkpt lat="44.19178" lon="5.08196">
        <ele>428</ele>
        <time>2019-10-26T08:06:36Z</time>
      </trkpt>
      <trkpt lat="44.19175" lon="5.08188">
        <ele>429</ele>
        <time>2019-10-26T08:06:39Z</time>
      </trkpt>
      <trkpt lat="44.19172" lon="5.08177">
        <ele>430</ele>
        <time>2019-10-26T08:06:45Z</time>
      </trkpt>
      <trkpt lat="44.19172" lon="5.08166">
        <ele>430</ele>
        <time>2019-10-26T08:06:49Z</time>
      </trkpt>
      <trkpt lat="44.19173" lon="5.08163">
        <ele>430</ele>
        <time>2019-10-26T08:06:50Z</time>
      </trkpt>
      <trkpt lat="44.19173" lon="5.08159">
        <ele>430</ele>
        <time>2019-10-26T08:06:51Z</time>
      </trkpt>
      <trkpt lat="44.19173" lon="5.08156">
        <ele>431</ele>
        <time>2019-10-26T08:06:52Z</time>
      </trkpt>
      <trkpt lat="44.19173" lon="5.08152">
        <ele>431</ele>
        <time>2019-10-26T08:06:53Z</time>
      </trkpt>
      <trkpt lat="44.19173" lon="5.08149">
        <ele>431</ele>
        <time>2019-10-26T08:06:54Z</time>
      </trkpt>
      <trkpt lat="44.19174" lon="5.08146">
        <ele>431</ele>
        <time>2019-10-26T08:06:55Z</time>
      </trkpt>
      <trkpt lat="44.19174" lon="5.08143">
        <ele>431</ele>
        <time>2019-10-26T08:06:56Z</time>
      </trkpt>
      <trkpt lat="44.19174" lon="5.08138">
        <ele>431</ele>
        <time>2019-10-26T08:06:58Z</time>
      </trkpt>
      <trkpt lat="44.19174" lon="5.08135">
        <ele>431</ele>
        <time>2019-10-26T08:06:59Z</time>
      </trkpt>
      <trkpt lat="44.19174" lon="5.08132">
        <ele>431</ele>
        <time>2019-10-26T08:07:00Z</time>
      </trkpt>
      <trkpt lat="44.19174" lon="5.08129">
        <ele>432</ele>
        <time>2019-10-26T08:07:01Z</time>
      </trkpt>
      <trkpt lat="44.19174" lon="5.08125">
        <ele>432</ele>
        <time>2019-10-26T08:07:02Z</time>
      </trkpt>
      <trkpt lat="44.19174" lon="5.08119">
        <ele>432</ele>
        <time>2019-10-26T08:07:04Z</time>
      </trkpt>
      <trkpt lat="44.19179" lon="5.08093">
        <ele>434</ele>
        <time>2019-10-26T08:07:12Z</time>
      </trkpt>
      <trkpt lat="44.19183" lon="5.08074">
        <ele>435</ele>
        <time>2019-10-26T08:07:20Z</time>
      </trkpt>
      <trkpt lat="44.19188" lon="5.08044">
        <ele>437</ele>
        <time>2019-10-26T08:07:30Z</time>
      </trkpt>
      <trkpt lat="44.19187" lon="5.08028">
        <ele>438</ele>
        <time>2019-10-26T08:07:36Z</time>
      </trkpt>
      <trkpt lat="44.19187" lon="5.08026">
        <ele>438</ele>
        <time>2019-10-26T08:07:37Z</time>
      </trkpt>
      <trkpt lat="44.19189" lon="5.08012">
        <ele>439</ele>
        <time>2019-10-26T08:07:42Z</time>
      </trkpt>
      <trkpt lat="44.19189" lon="5.08008">
        <ele>439</ele>
        <time>2019-10-26T08:07:43Z</time>
      </trkpt>
      <trkpt lat="44.1919" lon="5.08005">
        <ele>439</ele>
        <time>2019-10-26T08:07:44Z</time>
      </trkpt>
      <trkpt lat="44.1919" lon="5.08">
        <ele>440</ele>
        <time>2019-10-26T08:07:45Z</time>
      </trkpt>
      <trkpt lat="44.19192" lon="5.07996">
        <ele>440</ele>
        <time>2019-10-26T08:07:46Z</time>
      </trkpt>
      <trkpt lat="44.19192" lon="5.07995">
        <ele>440</ele>
        <time>2019-10-26T08:07:47Z</time>
      </trkpt>
      <trkpt lat="44.19197" lon="5.07961">
        <ele>443</ele>
        <time>2019-10-26T08:08:00Z</time>
      </trkpt>
      <trkpt lat="44.19197" lon="5.07951">
        <ele>444</ele>
        <time>2019-10-26T08:08:05Z</time>
      </trkpt>
      <trkpt lat="44.19198" lon="5.07945">
        <ele>445</ele>
        <time>2019-10-26T08:08:08Z</time>
      </trkpt>
      <trkpt lat="44.19197" lon="5.07925">
        <ele>446</ele>
        <time>2019-10-26T08:08:18Z</time>
      </trkpt>
      <trkpt lat="44.19192" lon="5.07904">
        <ele>447</ele>
        <time>2019-10-26T08:08:30Z</time>
      </trkpt>
      <trkpt lat="44.19183" lon="5.07886">
        <ele>450</ele>
        <time>2019-10-26T08:08:42Z</time>
      </trkpt>
      <trkpt lat="44.19179" lon="5.0787">
        <ele>451</ele>
        <time>2019-10-26T08:08:50Z</time>
      </trkpt>
      <trkpt lat="44.19175" lon="5.07849">
        <ele>453</ele>
        <time>2019-10-26T08:08:57Z</time>
      </trkpt>
      <trkpt lat="44.19174" lon="5.07832">
        <ele>455</ele>
        <time>2019-10-26T08:09:06Z</time>
      </trkpt>
      <trkpt lat="44.19173" lon="5.07826">
        <ele>456</ele>
        <time>2019-10-26T08:09:08Z</time>
      </trkpt>
      <trkpt lat="44.19172" lon="5.07817">
        <ele>456</ele>
        <time>2019-10-26T08:09:13Z</time>
      </trkpt>
      <trkpt lat="44.19172" lon="5.07813">
        <ele>457</ele>
        <time>2019-10-26T08:09:15Z</time>
      </trkpt>
      <trkpt lat="44.1917" lon="5.07803">
        <ele>457</ele>
        <time>2019-10-26T08:09:19Z</time>
      </trkpt>
      <trkpt lat="44.1917" lon="5.07802">
        <ele>458</ele>
        <time>2019-10-26T08:09:20Z</time>
      </trkpt>
      <trkpt lat="44.1917" lon="5.078">
        <ele>458</ele>
        <time>2019-10-26T08:09:21Z</time>
      </trkpt>
      <trkpt lat="44.19169" lon="5.07797">
        <ele>458</ele>
        <time>2019-10-26T08:09:22Z</time>
      </trkpt>
      <trkpt lat="44.19169" lon="5.07786">
        <ele>459</ele>
        <time>2019-10-26T08:09:28Z</time>
      </trkpt>
      <trkpt lat="44.19169" lon="5.07783">
        <ele>459</ele>
        <time>2019-10-26T08:09:29Z</time>
      </trkpt>
      <trkpt lat="44.19169" lon="5.07779">
        <ele>459</ele>
        <time>2019-10-26T08:09:30Z</time>
      </trkpt>
      <trkpt lat="44.19169" lon="5.07778">
        <ele>459</ele>
        <time>2019-10-26T08:09:31Z</time>
      </trkpt>
      <trkpt lat="44.19161" lon="5.07759">
        <ele>462</ele>
        <time>2019-10-26T08:09:42Z</time>
      </trkpt>
      <trkpt lat="44.19155" lon="5.07737">
        <ele>465</ele>
        <time>2019-10-26T08:09:53Z</time>
      </trkpt>
      <trkpt lat="44.19156" lon="5.07719">
        <ele>467</ele>
        <time>2019-10-26T08:10:03Z</time>
      </trkpt>
      <trkpt lat="44.19149" lon="5.07694">
        <ele>471</ele>
        <time>2019-10-26T08:10:15Z</time>
      </trkpt>
      <trkpt lat="44.1915" lon="5.07689">
        <ele>472</ele>
        <time>2019-10-26T08:10:18Z</time>
      </trkpt>
      <trkpt lat="44.19149" lon="5.07686">
        <ele>473</ele>
        <time>2019-10-26T08:10:21Z</time>
      </trkpt>
      <trkpt lat="44.19148" lon="5.07667">
        <ele>475</ele>
        <time>2019-10-26T08:10:33Z</time>
      </trkpt>
      <trkpt lat="44.19144" lon="5.07647">
        <ele>477</ele>
        <time>2019-10-26T08:10:44Z</time>
      </trkpt>
      <trkpt lat="44.19144" lon="5.07646">
        <ele>477</ele>
        <time>2019-10-26T08:10:45Z</time>
      </trkpt>
      <trkpt lat="44.19141" lon="5.07621">
        <ele>480</ele>
        <time>2019-10-26T08:10:59Z</time>
      </trkpt>
      <trkpt lat="44.19151" lon="5.07621">
        <ele>482</ele>
        <time>2019-10-26T08:11:10Z</time>
      </trkpt>
      <trkpt lat="44.19167" lon="5.07625">
        <ele>484</ele>
        <time>2019-10-26T08:11:20Z</time>
      </trkpt>
      <trkpt lat="44.19185" lon="5.07632">
        <ele>487</ele>
        <time>2019-10-26T08:11:32Z</time>
      </trkpt>
      <trkpt lat="44.19199" lon="5.07647">
        <ele>488</ele>
        <time>2019-10-26T08:11:44Z</time>
      </trkpt>
      <trkpt lat="44.19215" lon="5.0767">
        <ele>489</ele>
        <time>2019-10-26T08:11:57Z</time>
      </trkpt>
      <trkpt lat="44.19227" lon="5.07689">
        <ele>489</ele>
        <time>2019-10-26T08:12:09Z</time>
      </trkpt>
      <trkpt lat="44.19242" lon="5.07694">
        <ele>494</ele>
        <time>2019-10-26T08:12:21Z</time>
      </trkpt>
      <trkpt lat="44.19244" lon="5.07695">
        <ele>494</ele>
        <time>2019-10-26T08:12:22Z</time>
      </trkpt>
      <trkpt lat="44.1926" lon="5.07714">
        <ele>497</ele>
        <time>2019-10-26T08:12:33Z</time>
      </trkpt>
      <trkpt lat="44.19275" lon="5.0773">
        <ele>499</ele>
        <time>2019-10-26T08:12:41Z</time>
      </trkpt>
      <trkpt lat="44.19288" lon="5.07746">
        <ele>499</ele>
        <time>2019-10-26T08:12:50Z</time>
      </trkpt>
      <trkpt lat="44.19297" lon="5.07758">
        <ele>499</ele>
        <time>2019-10-26T08:12:57Z</time>
      </trkpt>
      <trkpt lat="44.19307" lon="5.07771">
        <ele>499</ele>
        <time>2019-10-26T08:13:07Z</time>
      </trkpt>
      <trkpt lat="44.19315" lon="5.07783">
        <ele>499</ele>
        <time>2019-10-26T08:13:13Z</time>
      </trkpt>
      <trkpt lat="44.19329" lon="5.07793">
        <ele>498</ele>
        <time>2019-10-26T08:13:24Z</time>
      </trkpt>
      <trkpt lat="44.1933" lon="5.07793">
        <ele>498</ele>
        <time>2019-10-26T08:13:25Z</time>
      </trkpt>
      <trkpt lat="44.19331" lon="5.07793">
        <ele>498</ele>
        <time>2019-10-26T08:13:26Z</time>
      </trkpt>
      <trkpt lat="44.19333" lon="5.07793">
        <ele>498</ele>
        <time>2019-10-26T08:13:27Z</time>
      </trkpt>
      <trkpt lat="44.19335" lon="5.07792">
        <ele>497</ele>
        <time>2019-10-26T08:13:28Z</time>
      </trkpt>
      <trkpt lat="44.19336" lon="5.0779">
        <ele>497</ele>
        <time>2019-10-26T08:13:29Z</time>
      </trkpt>
      <trkpt lat="44.19338" lon="5.07789">
        <ele>496</ele>
        <time>2019-10-26T08:13:30Z</time>
      </trkpt>
      <trkpt lat="44.19339" lon="5.07788">
        <ele>496</ele>
        <time>2019-10-26T08:13:31Z</time>
      </trkpt>
      <trkpt lat="44.19345" lon="5.07775">
        <ele>493</ele>
        <time>2019-10-26T08:13:41Z</time>
      </trkpt>
      <trkpt lat="44.1935" lon="5.07756">
        <ele>491</ele>
        <time>2019-10-26T08:13:50Z</time>
      </trkpt>
      <trkpt lat="44.19351" lon="5.07751">
        <ele>491</ele>
        <time>2019-10-26T08:13:52Z</time>
      </trkpt>
      <trkpt lat="44.19351" lon="5.07748">
        <ele>491</ele>
        <time>2019-10-26T08:13:53Z</time>
      </trkpt>
      <trkpt lat="44.19351" lon="5.07745">
        <ele>490</ele>
        <time>2019-10-26T08:13:54Z</time>
      </trkpt>
      <trkpt lat="44.19351" lon="5.07742">
        <ele>490</ele>
        <time>2019-10-26T08:13:55Z</time>
      </trkpt>
      <trkpt lat="44.1935" lon="5.07739">
        <ele>490</ele>
        <time>2019-10-26T08:13:56Z</time>
      </trkpt>
      <trkpt lat="44.1935" lon="5.07737">
        <ele>490</ele>
        <time>2019-10-26T08:13:57Z</time>
      </trkpt>
      <trkpt lat="44.1935" lon="5.07712">
        <ele>490</ele>
        <time>2019-10-26T08:14:05Z</time>
      </trkpt>
      <trkpt lat="44.19349" lon="5.07709">
        <ele>490</ele>
        <time>2019-10-26T08:14:06Z</time>
      </trkpt>
      <trkpt lat="44.19349" lon="5.07695">
        <ele>489</ele>
        <time>2019-10-26T08:14:10Z</time>
      </trkpt>
      <trkpt lat="44.19349" lon="5.07693">
        <ele>489</ele>
        <time>2019-10-26T08:14:11Z</time>
      </trkpt>
      <trkpt lat="44.19349" lon="5.07692">
        <ele>489</ele>
        <time>2019-10-26T08:14:12Z</time>
      </trkpt>
      <trkpt lat="44.19348" lon="5.07691">
        <ele>489</ele>
        <time>2019-10-26T08:14:13Z</time>
      </trkpt>
      <trkpt lat="44.19348" lon="5.07689">
        <ele>490</ele>
        <time>2019-10-26T08:14:14Z</time>
      </trkpt>
      <trkpt lat="44.19347" lon="5.07686">
        <ele>490</ele>
        <time>2019-10-26T08:14:15Z</time>
      </trkpt>
      <trkpt lat="44.19346" lon="5.07683">
        <ele>490</ele>
        <time>2019-10-26T08:14:16Z</time>
      </trkpt>
      <trkpt lat="44.19345" lon="5.07681">
        <ele>490</ele>
        <time>2019-10-26T08:14:17Z</time>
      </trkpt>
      <trkpt lat="44.19344" lon="5.07677">
        <ele>490</ele>
        <time>2019-10-26T08:14:18Z</time>
      </trkpt>
      <trkpt lat="44.19344" lon="5.07674">
        <ele>490</ele>
        <time>2019-10-26T08:14:19Z</time>
      </trkpt>
      <trkpt lat="44.19343" lon="5.07664">
        <ele>490</ele>
        <time>2019-10-26T08:14:22Z</time>
      </trkpt>
      <trkpt lat="44.19342" lon="5.0766">
        <ele>490</ele>
        <time>2019-10-26T08:14:23Z</time>
      </trkpt>
      <trkpt lat="44.19342" lon="5.07657">
        <ele>490</ele>
        <time>2019-10-26T08:14:24Z</time>
      </trkpt>
      <trkpt lat="44.19338" lon="5.07637">
        <ele>491</ele>
        <time>2019-10-26T08:14:30Z</time>
      </trkpt>
      <trkpt lat="44.19338" lon="5.07634">
        <ele>491</ele>
        <time>2019-10-26T08:14:31Z</time>
      </trkpt>
      <trkpt lat="44.19337" lon="5.07631">
        <ele>491</ele>
        <time>2019-10-26T08:14:32Z</time>
      </trkpt>
      <trkpt lat="44.19337" lon="5.07627">
        <ele>491</ele>
        <time>2019-10-26T08:14:33Z</time>
      </trkpt>
      <trkpt lat="44.19336" lon="5.07624">
        <ele>491</ele>
        <time>2019-10-26T08:14:34Z</time>
      </trkpt>
      <trkpt lat="44.19334" lon="5.07619">
        <ele>491</ele>
        <time>2019-10-26T08:14:36Z</time>
      </trkpt>
      <trkpt lat="44.19333" lon="5.07616">
        <ele>491</ele>
        <time>2019-10-26T08:14:37Z</time>
      </trkpt>
      <trkpt lat="44.19332" lon="5.07607">
        <ele>491</ele>
        <time>2019-10-26T08:14:40Z</time>
      </trkpt>
      <trkpt lat="44.19331" lon="5.07604">
        <ele>491</ele>
        <time>2019-10-26T08:14:41Z</time>
      </trkpt>
      <trkpt lat="44.19331" lon="5.07601">
        <ele>491</ele>
        <time>2019-10-26T08:14:42Z</time>
      </trkpt>
      <trkpt lat="44.19331" lon="5.07598">
        <ele>491</ele>
        <time>2019-10-26T08:14:43Z</time>
      </trkpt>
      <trkpt lat="44.1933" lon="5.07595">
        <ele>491</ele>
        <time>2019-10-26T08:14:44Z</time>
      </trkpt>
      <trkpt lat="44.19329" lon="5.07593">
        <ele>491</ele>
        <time>2019-10-26T08:14:45Z</time>
      </trkpt>
      <trkpt lat="44.19326" lon="5.07577">
        <ele>491</ele>
        <time>2019-10-26T08:14:51Z</time>
      </trkpt>
      <trkpt lat="44.1932" lon="5.07557">
        <ele>492</ele>
        <time>2019-10-26T08:14:58Z</time>
      </trkpt>
      <trkpt lat="44.19313" lon="5.07541">
        <ele>493</ele>
        <time>2019-10-26T08:15:05Z</time>
      </trkpt>
      <trkpt lat="44.19304" lon="5.07518">
        <ele>494</ele>
        <time>2019-10-26T08:15:13Z</time>
      </trkpt>
      <trkpt lat="44.19297" lon="5.07505">
        <ele>495</ele>
        <time>2019-10-26T08:15:18Z</time>
      </trkpt>
      <trkpt lat="44.19295" lon="5.07503">
        <ele>495</ele>
        <time>2019-10-26T08:15:19Z</time>
      </trkpt>
      <trkpt lat="44.19294" lon="5.07501">
        <ele>495</ele>
        <time>2019-10-26T08:15:20Z</time>
      </trkpt>
      <trkpt lat="44.19292" lon="5.07499">
        <ele>495</ele>
        <time>2019-10-26T08:15:21Z</time>
      </trkpt>
      <trkpt lat="44.19291" lon="5.07496">
        <ele>495</ele>
        <time>2019-10-26T08:15:22Z</time>
      </trkpt>
      <trkpt lat="44.19289" lon="5.07493">
        <ele>495</ele>
        <time>2019-10-26T08:15:23Z</time>
      </trkpt>
      <trkpt lat="44.19288" lon="5.0749">
        <ele>495</ele>
        <time>2019-10-26T08:15:24Z</time>
      </trkpt>
      <trkpt lat="44.19286" lon="5.07488">
        <ele>495</ele>
        <time>2019-10-26T08:15:25Z</time>
      </trkpt>
      <trkpt lat="44.19284" lon="5.07486">
        <ele>496</ele>
        <time>2019-10-26T08:15:26Z</time>
      </trkpt>
      <trkpt lat="44.19283" lon="5.07484">
        <ele>496</ele>
        <time>2019-10-26T08:15:27Z</time>
      </trkpt>
      <trkpt lat="44.19281" lon="5.07482">
        <ele>496</ele>
        <time>2019-10-26T08:15:28Z</time>
      </trkpt>
      <trkpt lat="44.19271" lon="5.07467">
        <ele>495</ele>
        <time>2019-10-26T08:15:35Z</time>
      </trkpt>
      <trkpt lat="44.1927" lon="5.07465">
        <ele>495</ele>
        <time>2019-10-26T08:15:36Z</time>
      </trkpt>
      <trkpt lat="44.19268" lon="5.07462">
        <ele>495</ele>
        <time>2019-10-26T08:15:37Z</time>
      </trkpt>
      <trkpt lat="44.19265" lon="5.07457">
        <ele>494</ele>
        <time>2019-10-26T08:15:39Z</time>
      </trkpt>
      <trkpt lat="44.19264" lon="5.07455">
        <ele>494</ele>
        <time>2019-10-26T08:15:40Z</time>
      </trkpt>
      <trkpt lat="44.19263" lon="5.07453">
        <ele>494</ele>
        <time>2019-10-26T08:15:41Z</time>
      </trkpt>
      <trkpt lat="44.19261" lon="5.0745">
        <ele>494</ele>
        <time>2019-10-26T08:15:42Z</time>
      </trkpt>
      <trkpt lat="44.1926" lon="5.07449">
        <ele>494</ele>
        <time>2019-10-26T08:15:43Z</time>
      </trkpt>
      <trkpt lat="44.19247" lon="5.0742">
        <ele>492</ele>
        <time>2019-10-26T08:15:54Z</time>
      </trkpt>
      <trkpt lat="44.19236" lon="5.07398">
        <ele>494</ele>
        <time>2019-10-26T08:16:03Z</time>
      </trkpt>
      <trkpt lat="44.19234" lon="5.07393">
        <ele>495</ele>
        <time>2019-10-26T08:16:05Z</time>
      </trkpt>
      <trkpt lat="44.19233" lon="5.07391">
        <ele>495</ele>
        <time>2019-10-26T08:16:06Z</time>
      </trkpt>
      <trkpt lat="44.19232" lon="5.07389">
        <ele>495</ele>
        <time>2019-10-26T08:16:07Z</time>
      </trkpt>
      <trkpt lat="44.19232" lon="5.07386">
        <ele>495</ele>
        <time>2019-10-26T08:16:08Z</time>
      </trkpt>
      <trkpt lat="44.19231" lon="5.07383">
        <ele>495</ele>
        <time>2019-10-26T08:16:09Z</time>
      </trkpt>
      <trkpt lat="44.1923" lon="5.0738">
        <ele>496</ele>
        <time>2019-10-26T08:16:10Z</time>
      </trkpt>
      <trkpt lat="44.19229" lon="5.07378">
        <ele>496</ele>
        <time>2019-10-26T08:16:11Z</time>
      </trkpt>
      <trkpt lat="44.19228" lon="5.07375">
        <ele>496</ele>
        <time>2019-10-26T08:16:12Z</time>
      </trkpt>
      <trkpt lat="44.19227" lon="5.07372">
        <ele>496</ele>
        <time>2019-10-26T08:16:13Z</time>
      </trkpt>
      <trkpt lat="44.19226" lon="5.07368">
        <ele>496</ele>
        <time>2019-10-26T08:16:14Z</time>
      </trkpt>
      <trkpt lat="44.19226" lon="5.07366">
        <ele>496</ele>
        <time>2019-10-26T08:16:15Z</time>
      </trkpt>
      <trkpt lat="44.19225" lon="5.07363">
        <ele>496</ele>
        <time>2019-10-26T08:16:16Z</time>
      </trkpt>
      <trkpt lat="44.19224" lon="5.0736">
        <ele>496</ele>
        <time>2019-10-26T08:16:17Z</time>
      </trkpt>
      <trkpt lat="44.19223" lon="5.07358">
        <ele>496</ele>
        <time>2019-10-26T08:16:18Z</time>
      </trkpt>
      <trkpt lat="44.19222" lon="5.07355">
        <ele>497</ele>
        <time>2019-10-26T08:16:19Z</time>
      </trkpt>
      <trkpt lat="44.19215" lon="5.07333">
        <ele>498</ele>
        <time>2019-10-26T08:16:29Z</time>
      </trkpt>
      <trkpt lat="44.19208" lon="5.0731">
        <ele>500</ele>
        <time>2019-10-26T08:16:41Z</time>
      </trkpt>
      <trkpt lat="44.19208" lon="5.07288">
        <ele>502</ele>
        <time>2019-10-26T08:16:50Z</time>
      </trkpt>
      <trkpt lat="44.19207" lon="5.07259">
        <ele>504</ele>
        <time>2019-10-26T08:17:01Z</time>
      </trkpt>
      <trkpt lat="44.19206" lon="5.07253">
        <ele>505</ele>
        <time>2019-10-26T08:17:04Z</time>
      </trkpt>
      <trkpt lat="44.19207" lon="5.07237">
        <ele>507</ele>
        <time>2019-10-26T08:17:14Z</time>
      </trkpt>
      <trkpt lat="44.19208" lon="5.07227">
        <ele>508</ele>
        <time>2019-10-26T08:17:20Z</time>
      </trkpt>
      <trkpt lat="44.19209" lon="5.07223">
        <ele>509</ele>
        <time>2019-10-26T08:17:22Z</time>
      </trkpt>
      <trkpt lat="44.19211" lon="5.07219">
        <ele>510</ele>
        <time>2019-10-26T08:17:24Z</time>
      </trkpt>
      <trkpt lat="44.19213" lon="5.07215">
        <ele>510</ele>
        <time>2019-10-26T08:17:26Z</time>
      </trkpt>
      <trkpt lat="44.19214" lon="5.07211">
        <ele>511</ele>
        <time>2019-10-26T08:17:28Z</time>
      </trkpt>
      <trkpt lat="44.19207" lon="5.07194">
        <ele>514</ele>
        <time>2019-10-26T08:17:39Z</time>
      </trkpt>
      <trkpt lat="44.19204" lon="5.07192">
        <ele>514</ele>
        <time>2019-10-26T08:17:48Z</time>
      </trkpt>
      <trkpt lat="44.19198" lon="5.07178">
        <ele>513</ele>
        <time>2019-10-26T08:18:17Z</time>
      </trkpt>
      <trkpt lat="44.19198" lon="5.07171">
        <ele>513</ele>
        <time>2019-10-26T08:18:26Z</time>
      </trkpt>
      <trkpt lat="44.192" lon="5.0717">
        <ele>514</ele>
        <time>2019-10-26T08:18:37Z</time>
      </trkpt>
      <trkpt lat="44.19203" lon="5.07164">
        <ele>514</ele>
        <time>2019-10-26T08:18:47Z</time>
      </trkpt>
      <trkpt lat="44.19205" lon="5.0716">
        <ele>514</ele>
        <time>2019-10-26T08:18:49Z</time>
      </trkpt>
      <trkpt lat="44.19207" lon="5.07155">
        <ele>513</ele>
        <time>2019-10-26T08:18:51Z</time>
      </trkpt>
      <trkpt lat="44.19208" lon="5.07152">
        <ele>513</ele>
        <time>2019-10-26T08:18:52Z</time>
      </trkpt>
      <trkpt lat="44.19213" lon="5.07138">
        <ele>512</ele>
        <time>2019-10-26T08:18:57Z</time>
      </trkpt>
      <trkpt lat="44.19215" lon="5.07136">
        <ele>512</ele>
        <time>2019-10-26T08:18:58Z</time>
      </trkpt>
      <trkpt lat="44.19221" lon="5.07126">
        <ele>512</ele>
        <time>2019-10-26T08:19:02Z</time>
      </trkpt>
      <trkpt lat="44.19222" lon="5.07123">
        <ele>511</ele>
        <time>2019-10-26T08:19:03Z</time>
      </trkpt>
      <trkpt lat="44.19236" lon="5.07094">
        <ele>507</ele>
        <time>2019-10-26T08:19:14Z</time>
      </trkpt>
      <trkpt lat="44.19248" lon="5.07064">
        <ele>503</ele>
        <time>2019-10-26T08:19:24Z</time>
      </trkpt>
      <trkpt lat="44.19254" lon="5.07051">
        <ele>502</ele>
        <time>2019-10-26T08:19:28Z</time>
      </trkpt>
      <trkpt lat="44.19265" lon="5.07025">
        <ele>498</ele>
        <time>2019-10-26T08:19:36Z</time>
      </trkpt>
      <trkpt lat="44.19271" lon="5.06993">
        <ele>494</ele>
        <time>2019-10-26T08:19:45Z</time>
      </trkpt>
      <trkpt lat="44.19271" lon="5.06986">
        <ele>493</ele>
        <time>2019-10-26T08:19:47Z</time>
      </trkpt>
      <trkpt lat="44.19262" lon="5.06964">
        <ele>490</ele>
        <time>2019-10-26T08:19:55Z</time>
      </trkpt>
      <trkpt lat="44.19257" lon="5.0695">
        <ele>488</ele>
        <time>2019-10-26T08:20:00Z</time>
      </trkpt>
      <trkpt lat="44.19261" lon="5.06927">
        <ele>486</ele>
        <time>2019-10-26T08:20:08Z</time>
      </trkpt>
      <trkpt lat="44.19264" lon="5.06921">
        <ele>486</ele>
        <time>2019-10-26T08:20:26Z</time>
      </trkpt>
      <trkpt lat="44.19266" lon="5.06921">
        <ele>486</ele>
        <time>2019-10-26T08:20:27Z</time>
      </trkpt>
      <trkpt lat="44.19272" lon="5.06922">
        <ele>485</ele>
        <time>2019-10-26T08:20:30Z</time>
      </trkpt>
      <trkpt lat="44.19278" lon="5.06925">
        <ele>485</ele>
        <time>2019-10-26T08:20:33Z</time>
      </trkpt>
      <trkpt lat="44.1928" lon="5.06926">
        <ele>485</ele>
        <time>2019-10-26T08:20:34Z</time>
      </trkpt>
      <trkpt lat="44.19282" lon="5.06926">
        <ele>485</ele>
        <time>2019-10-26T08:20:35Z</time>
      </trkpt>
      <trkpt lat="44.19297" lon="5.06914">
        <ele>486</ele>
        <time>2019-10-26T08:20:43Z</time>
      </trkpt>
      <trkpt lat="44.19312" lon="5.0689">
        <ele>484</ele>
        <time>2019-10-26T08:20:52Z</time>
      </trkpt>
      <trkpt lat="44.19318" lon="5.06862">
        <ele>481</ele>
        <time>2019-10-26T08:21:00Z</time>
      </trkpt>
      <trkpt lat="44.19322" lon="5.06827">
        <ele>479</ele>
        <time>2019-10-26T08:21:09Z</time>
      </trkpt>
      <trkpt lat="44.19339" lon="5.06805">
        <ele>476</ele>
        <time>2019-10-26T08:21:17Z</time>
      </trkpt>
      <trkpt lat="44.19359" lon="5.06783">
        <ele>475</ele>
        <time>2019-10-26T08:21:26Z</time>
      </trkpt>
      <trkpt lat="44.19369" lon="5.06754">
        <ele>473</ele>
        <time>2019-10-26T08:21:35Z</time>
      </trkpt>
      <trkpt lat="44.19367" lon="5.06731">
        <ele>470</ele>
        <time>2019-10-26T08:21:41Z</time>
      </trkpt>
      <trkpt lat="44.19367" lon="5.06727">
        <ele>470</ele>
        <time>2019-10-26T08:21:42Z</time>
      </trkpt>
      <trkpt lat="44.19369" lon="5.06716">
        <ele>470</ele>
        <time>2019-10-26T08:21:45Z</time>
      </trkpt>
      <trkpt lat="44.19369" lon="5.06712">
        <ele>470</ele>
        <time>2019-10-26T08:21:46Z</time>
      </trkpt>
      <trkpt lat="44.1937" lon="5.06708">
        <ele>470</ele>
        <time>2019-10-26T08:21:47Z</time>
      </trkpt>
      <trkpt lat="44.19371" lon="5.06705">
        <ele>470</ele>
        <time>2019-10-26T08:21:48Z</time>
      </trkpt>
      <trkpt lat="44.19373" lon="5.06702">
        <ele>471</ele>
        <time>2019-10-26T08:21:49Z</time>
      </trkpt>
      <trkpt lat="44.19375" lon="5.06701">
        <ele>471</ele>
        <time>2019-10-26T08:21:50Z</time>
      </trkpt>
      <trkpt lat="44.19384" lon="5.06702">
        <ele>472</ele>
        <time>2019-10-26T08:21:55Z</time>
      </trkpt>
      <trkpt lat="44.19386" lon="5.06702">
        <ele>472</ele>
        <time>2019-10-26T08:21:56Z</time>
      </trkpt>
      <trkpt lat="44.19405" lon="5.06707">
        <ele>476</ele>
        <time>2019-10-26T08:22:08Z</time>
      </trkpt>
      <trkpt lat="44.19423" lon="5.06708">
        <ele>480</ele>
        <time>2019-10-26T08:22:19Z</time>
      </trkpt>
      <trkpt lat="44.19434" lon="5.06698">
        <ele>482</ele>
        <time>2019-10-26T08:22:30Z</time>
      </trkpt>
      <trkpt lat="44.19439" lon="5.06691">
        <ele>483</ele>
        <time>2019-10-26T08:22:38Z</time>
      </trkpt>
      <trkpt lat="44.19447" lon="5.06667">
        <ele>484</ele>
        <time>2019-10-26T08:22:47Z</time>
      </trkpt>
      <trkpt lat="44.19455" lon="5.06644">
        <ele>484</ele>
        <time>2019-10-26T08:22:55Z</time>
      </trkpt>
      <trkpt lat="44.19463" lon="5.06614">
        <ele>485</ele>
        <time>2019-10-26T08:23:04Z</time>
      </trkpt>
      <trkpt lat="44.19465" lon="5.06603">
        <ele>486</ele>
        <time>2019-10-26T08:23:07Z</time>
      </trkpt>
      <trkpt lat="44.1947" lon="5.0657">
        <ele>487</ele>
        <time>2019-10-26T08:23:17Z</time>
      </trkpt>
      <trkpt lat="44.19476" lon="5.0653">
        <ele>487</ele>
        <time>2019-10-26T08:23:29Z</time>
      </trkpt>
      <trkpt lat="44.19476" lon="5.06496">
        <ele>487</ele>
        <time>2019-10-26T08:23:38Z</time>
      </trkpt>
      <trkpt lat="44.19479" lon="5.06455">
        <ele>487</ele>
        <time>2019-10-26T08:23:49Z</time>
      </trkpt>
      <trkpt lat="44.19482" lon="5.06421">
        <ele>486</ele>
        <time>2019-10-26T08:23:59Z</time>
      </trkpt>
      <trkpt lat="44.19483" lon="5.06414">
        <ele>486</ele>
        <time>2019-10-26T08:24:01Z</time>
      </trkpt>
      <trkpt lat="44.19488" lon="5.06378">
        <ele>487</ele>
        <time>2019-10-26T08:24:12Z</time>
      </trkpt>
      <trkpt lat="44.19494" lon="5.06343">
        <ele>487</ele>
        <time>2019-10-26T08:24:23Z</time>
      </trkpt>
      <trkpt lat="44.19498" lon="5.06313">
        <ele>487</ele>
        <time>2019-10-26T08:24:33Z</time>
      </trkpt>
      <trkpt lat="44.19502" lon="5.06286">
        <ele>488</ele>
        <time>2019-10-26T08:24:44Z</time>
      </trkpt>
      <trkpt lat="44.19508" lon="5.06251">
        <ele>489</ele>
        <time>2019-10-26T08:24:58Z</time>
      </trkpt>
      <trkpt lat="44.19513" lon="5.06222">
        <ele>489</ele>
        <time>2019-10-26T08:25:07Z</time>
      </trkpt>
      <trkpt lat="44.19518" lon="5.06195">
        <ele>489</ele>
        <time>2019-10-26T08:25:16Z</time>
      </trkpt>
      <trkpt lat="44.19524" lon="5.06168">
        <ele>489</ele>
        <time>2019-10-26T08:25:24Z</time>
      </trkpt>
      <trkpt lat="44.19536" lon="5.06147">
        <ele>491</ele>
        <time>2019-10-26T08:25:33Z</time>
      </trkpt>
      <trkpt lat="44.19551" lon="5.06133">
        <ele>494</ele>
        <time>2019-10-26T08:25:44Z</time>
      </trkpt>
      <trkpt lat="44.19564" lon="5.06122">
        <ele>495</ele>
        <time>2019-10-26T08:25:54Z</time>
      </trkpt>
      <trkpt lat="44.19581" lon="5.06116">
        <ele>498</ele>
        <time>2019-10-26T08:26:06Z</time>
      </trkpt>
      <trkpt lat="44.19585" lon="5.06116">
        <ele>498</ele>
        <time>2019-10-26T08:26:09Z</time>
      </trkpt>
      <trkpt lat="44.19597" lon="5.06118">
        <ele>498</ele>
        <time>2019-10-26T08:26:18Z</time>
      </trkpt>
      <trkpt lat="44.19606" lon="5.06121">
        <ele>498</ele>
        <time>2019-10-26T08:26:24Z</time>
      </trkpt>
      <trkpt lat="44.19624" lon="5.06123">
        <ele>496</ele>
        <time>2019-10-26T08:26:33Z</time>
      </trkpt>
      <trkpt lat="44.19631" lon="5.06117">
        <ele>495</ele>
        <time>2019-10-26T08:26:37Z</time>
      </trkpt>
      <trkpt lat="44.19633" lon="5.06114">
        <ele>495</ele>
        <time>2019-10-26T08:26:38Z</time>
      </trkpt>
      <trkpt lat="44.19634" lon="5.0611">
        <ele>495</ele>
        <time>2019-10-26T08:26:39Z</time>
      </trkpt>
      <trkpt lat="44.19635" lon="5.06107">
        <ele>495</ele>
        <time>2019-10-26T08:26:40Z</time>
      </trkpt>
      <trkpt lat="44.19635" lon="5.06104">
        <ele>495</ele>
        <time>2019-10-26T08:26:41Z</time>
      </trkpt>
      <trkpt lat="44.19635" lon="5.06101">
        <ele>495</ele>
        <time>2019-10-26T08:26:42Z</time>
      </trkpt>
      <trkpt lat="44.19636" lon="5.06097">
        <ele>495</ele>
        <time>2019-10-26T08:26:43Z</time>
      </trkpt>
      <trkpt lat="44.19635" lon="5.06074">
        <ele>496</ele>
        <time>2019-10-26T08:26:50Z</time>
      </trkpt>
      <trkpt lat="44.19635" lon="5.0607">
        <ele>496</ele>
        <time>2019-10-26T08:26:51Z</time>
      </trkpt>
      <trkpt lat="44.19635" lon="5.06067">
        <ele>496</ele>
        <time>2019-10-26T08:26:52Z</time>
      </trkpt>
      <trkpt lat="44.19635" lon="5.06063">
        <ele>496</ele>
        <time>2019-10-26T08:26:53Z</time>
      </trkpt>
      <trkpt lat="44.19635" lon="5.06059">
        <ele>496</ele>
        <time>2019-10-26T08:26:54Z</time>
      </trkpt>
      <trkpt lat="44.19635" lon="5.06056">
        <ele>496</ele>
        <time>2019-10-26T08:26:55Z</time>
      </trkpt>
      <trkpt lat="44.19635" lon="5.06052">
        <ele>496</ele>
        <time>2019-10-26T08:26:56Z</time>
      </trkpt>
      <trkpt lat="44.19635" lon="5.06049">
        <ele>496</ele>
        <time>2019-10-26T08:26:57Z</time>
      </trkpt>
      <trkpt lat="44.19636" lon="5.06022">
        <ele>497</ele>
        <time>2019-10-26T08:27:05Z</time>
      </trkpt>
      <trkpt lat="44.19637" lon="5.05996">
        <ele>498</ele>
        <time>2019-10-26T08:27:13Z</time>
      </trkpt>
      <trkpt lat="44.1964" lon="5.05964">
        <ele>499</ele>
        <time>2019-10-26T08:27:23Z</time>
      </trkpt>
      <trkpt lat="44.19643" lon="5.05942">
        <ele>499</ele>
        <time>2019-10-26T08:27:30Z</time>
      </trkpt>
      <trkpt lat="44.19645" lon="5.05932">
        <ele>499</ele>
        <time>2019-10-26T08:27:33Z</time>
      </trkpt>
      <trkpt lat="44.19646" lon="5.05929">
        <ele>499</ele>
        <time>2019-10-26T08:27:34Z</time>
      </trkpt>
      <trkpt lat="44.19646" lon="5.05927">
        <ele>499</ele>
        <time>2019-10-26T08:27:35Z</time>
      </trkpt>
      <trkpt lat="44.19647" lon="5.05924">
        <ele>499</ele>
        <time>2019-10-26T08:27:36Z</time>
      </trkpt>
      <trkpt lat="44.19648" lon="5.05922">
        <ele>499</ele>
        <time>2019-10-26T08:27:37Z</time>
      </trkpt>
      <trkpt lat="44.19649" lon="5.05919">
        <ele>499</ele>
        <time>2019-10-26T08:27:38Z</time>
      </trkpt>
      <trkpt lat="44.19649" lon="5.05917">
        <ele>499</ele>
        <time>2019-10-26T08:27:39Z</time>
      </trkpt>
      <trkpt lat="44.1966" lon="5.05892">
        <ele>501</ele>
        <time>2019-10-26T08:27:49Z</time>
      </trkpt>
      <trkpt lat="44.19663" lon="5.05884">
        <ele>501</ele>
        <time>2019-10-26T08:27:52Z</time>
      </trkpt>
      <trkpt lat="44.19664" lon="5.05881">
        <ele>501</ele>
        <time>2019-10-26T08:27:53Z</time>
      </trkpt>
      <trkpt lat="44.19666" lon="5.05879">
        <ele>502</ele>
        <time>2019-10-26T08:27:54Z</time>
      </trkpt>
      <trkpt lat="44.19667" lon="5.05876">
        <ele>502</ele>
        <time>2019-10-26T08:27:55Z</time>
      </trkpt>
      <trkpt lat="44.19668" lon="5.05874">
        <ele>502</ele>
        <time>2019-10-26T08:27:56Z</time>
      </trkpt>
      <trkpt lat="44.1967" lon="5.05872">
        <ele>502</ele>
        <time>2019-10-26T08:27:57Z</time>
      </trkpt>
      <trkpt lat="44.19671" lon="5.05871">
        <ele>502</ele>
        <time>2019-10-26T08:27:58Z</time>
      </trkpt>
      <trkpt lat="44.19673" lon="5.05869">
        <ele>503</ele>
        <time>2019-10-26T08:27:59Z</time>
      </trkpt>
      <trkpt lat="44.19674" lon="5.05867">
        <ele>503</ele>
        <time>2019-10-26T08:28:00Z</time>
      </trkpt>
      <trkpt lat="44.19681" lon="5.05859">
        <ele>504</ele>
        <time>2019-10-26T08:28:04Z</time>
      </trkpt>
      <trkpt lat="44.19682" lon="5.05857">
        <ele>504</ele>
        <time>2019-10-26T08:28:05Z</time>
      </trkpt>
      <trkpt lat="44.19683" lon="5.05855">
        <ele>504</ele>
        <time>2019-10-26T08:28:06Z</time>
      </trkpt>
      <trkpt lat="44.19685" lon="5.05852">
        <ele>505</ele>
        <time>2019-10-26T08:28:07Z</time>
      </trkpt>
      <trkpt lat="44.19686" lon="5.05849">
        <ele>505</ele>
        <time>2019-10-26T08:28:08Z</time>
      </trkpt>
      <trkpt lat="44.19687" lon="5.05819">
        <ele>504</ele>
        <time>2019-10-26T08:28:17Z</time>
      </trkpt>
      <trkpt lat="44.19686" lon="5.05812">
        <ele>504</ele>
        <time>2019-10-26T08:28:19Z</time>
      </trkpt>
      <trkpt lat="44.19685" lon="5.05809">
        <ele>503</ele>
        <time>2019-10-26T08:28:20Z</time>
      </trkpt>
      <trkpt lat="44.19683" lon="5.05806">
        <ele>503</ele>
        <time>2019-10-26T08:28:21Z</time>
      </trkpt>
      <trkpt lat="44.19682" lon="5.05803">
        <ele>503</ele>
        <time>2019-10-26T08:28:22Z</time>
      </trkpt>
      <trkpt lat="44.19681" lon="5.05801">
        <ele>502</ele>
        <time>2019-10-26T08:28:23Z</time>
      </trkpt>
      <trkpt lat="44.19679" lon="5.05798">
        <ele>502</ele>
        <time>2019-10-26T08:28:24Z</time>
      </trkpt>
      <trkpt lat="44.19677" lon="5.05795">
        <ele>502</ele>
        <time>2019-10-26T08:28:25Z</time>
      </trkpt>
      <trkpt lat="44.1967" lon="5.05787">
        <ele>501</ele>
        <time>2019-10-26T08:28:29Z</time>
      </trkpt>
      <trkpt lat="44.19668" lon="5.05785">
        <ele>501</ele>
        <time>2019-10-26T08:28:30Z</time>
      </trkpt>
      <trkpt lat="44.19666" lon="5.05782">
        <ele>500</ele>
        <time>2019-10-26T08:28:31Z</time>
      </trkpt>
      <trkpt lat="44.19656" lon="5.05755">
        <ele>500</ele>
        <time>2019-10-26T08:28:40Z</time>
      </trkpt>
      <trkpt lat="44.19648" lon="5.05731">
        <ele>499</ele>
        <time>2019-10-26T08:28:48Z</time>
      </trkpt>
      <trkpt lat="44.19639" lon="5.05705">
        <ele>499</ele>
        <time>2019-10-26T08:28:57Z</time>
      </trkpt>
      <trkpt lat="44.19632" lon="5.05678">
        <ele>499</ele>
        <time>2019-10-26T08:29:05Z</time>
      </trkpt>
      <trkpt lat="44.19624" lon="5.05655">
        <ele>498</ele>
        <time>2019-10-26T08:29:12Z</time>
      </trkpt>
      <trkpt lat="44.19617" lon="5.05633">
        <ele>498</ele>
        <time>2019-10-26T08:29:20Z</time>
      </trkpt>
      <trkpt lat="44.19609" lon="5.05609">
        <ele>498</ele>
        <time>2019-10-26T08:29:28Z</time>
      </trkpt>
      <trkpt lat="44.19606" lon="5.05586">
        <ele>497</ele>
        <time>2019-10-26T08:29:36Z</time>
      </trkpt>
      <trkpt lat="44.19604" lon="5.05575">
        <ele>497</ele>
        <time>2019-10-26T08:29:40Z</time>
      </trkpt>
      <trkpt lat="44.19604" lon="5.05573">
        <ele>497</ele>
        <time>2019-10-26T08:29:41Z</time>
      </trkpt>
      <trkpt lat="44.19603" lon="5.0557">
        <ele>497</ele>
        <time>2019-10-26T08:29:42Z</time>
      </trkpt>
      <trkpt lat="44.19599" lon="5.05538">
        <ele>495</ele>
        <time>2019-10-26T08:29:52Z</time>
      </trkpt>
      <trkpt lat="44.19598" lon="5.05535">
        <ele>495</ele>
        <time>2019-10-26T08:29:53Z</time>
      </trkpt>
      <trkpt lat="44.19598" lon="5.05532">
        <ele>495</ele>
        <time>2019-10-26T08:29:54Z</time>
      </trkpt>
      <trkpt lat="44.19598" lon="5.05529">
        <ele>495</ele>
        <time>2019-10-26T08:29:55Z</time>
      </trkpt>
      <trkpt lat="44.19597" lon="5.05526">
        <ele>495</ele>
        <time>2019-10-26T08:29:56Z</time>
      </trkpt>
      <trkpt lat="44.19597" lon="5.05522">
        <ele>494</ele>
        <time>2019-10-26T08:29:57Z</time>
      </trkpt>
      <trkpt lat="44.19597" lon="5.05519">
        <ele>494</ele>
        <time>2019-10-26T08:29:58Z</time>
      </trkpt>
      <trkpt lat="44.19597" lon="5.05516">
        <ele>494</ele>
        <time>2019-10-26T08:29:59Z</time>
      </trkpt>
      <trkpt lat="44.19597" lon="5.05512">
        <ele>494</ele>
        <time>2019-10-26T08:30:00Z</time>
      </trkpt>
      <trkpt lat="44.19597" lon="5.05508">
        <ele>494</ele>
        <time>2019-10-26T08:30:01Z</time>
      </trkpt>
      <trkpt lat="44.19596" lon="5.05505">
        <ele>494</ele>
        <time>2019-10-26T08:30:02Z</time>
      </trkpt>
      <trkpt lat="44.19596" lon="5.05502">
        <ele>494</ele>
        <time>2019-10-26T08:30:03Z</time>
      </trkpt>
      <trkpt lat="44.19596" lon="5.05498">
        <ele>494</ele>
        <time>2019-10-26T08:30:04Z</time>
      </trkpt>
      <trkpt lat="44.19596" lon="5.05495">
        <ele>494</ele>
        <time>2019-10-26T08:30:05Z</time>
      </trkpt>
      <trkpt lat="44.19595" lon="5.05491">
        <ele>494</ele>
        <time>2019-10-26T08:30:06Z</time>
      </trkpt>
      <trkpt lat="44.19595" lon="5.05488">
        <ele>494</ele>
        <time>2019-10-26T08:30:07Z</time>
      </trkpt>
      <trkpt lat="44.19594" lon="5.05485">
        <ele>494</ele>
        <time>2019-10-26T08:30:08Z</time>
      </trkpt>
      <trkpt lat="44.19594" lon="5.05482">
        <ele>494</ele>
        <time>2019-10-26T08:30:09Z</time>
      </trkpt>
      <trkpt lat="44.19594" lon="5.05478">
        <ele>494</ele>
        <time>2019-10-26T08:30:10Z</time>
      </trkpt>
      <trkpt lat="44.19593" lon="5.05475">
        <ele>494</ele>
        <time>2019-10-26T08:30:11Z</time>
      </trkpt>
      <trkpt lat="44.19593" lon="5.05472">
        <ele>494</ele>
        <time>2019-10-26T08:30:12Z</time>
      </trkpt>
      <trkpt lat="44.1959" lon="5.05461">
        <ele>493</ele>
        <time>2019-10-26T08:30:16Z</time>
      </trkpt>
      <trkpt lat="44.1959" lon="5.05458">
        <ele>493</ele>
        <time>2019-10-26T08:30:17Z</time>
      </trkpt>
      <trkpt lat="44.19589" lon="5.05455">
        <ele>493</ele>
        <time>2019-10-26T08:30:18Z</time>
      </trkpt>
      <trkpt lat="44.19588" lon="5.05452">
        <ele>493</ele>
        <time>2019-10-26T08:30:19Z</time>
      </trkpt>
      <trkpt lat="44.19588" lon="5.05449">
        <ele>493</ele>
        <time>2019-10-26T08:30:20Z</time>
      </trkpt>
      <trkpt lat="44.19587" lon="5.05447">
        <ele>493</ele>
        <time>2019-10-26T08:30:21Z</time>
      </trkpt>
      <trkpt lat="44.19582" lon="5.05429">
        <ele>491</ele>
        <time>2019-10-26T08:30:27Z</time>
      </trkpt>
      <trkpt lat="44.19581" lon="5.05426">
        <ele>491</ele>
        <time>2019-10-26T08:30:28Z</time>
      </trkpt>
      <trkpt lat="44.19581" lon="5.05424">
        <ele>491</ele>
        <time>2019-10-26T08:30:29Z</time>
      </trkpt>
      <trkpt lat="44.1958" lon="5.05421">
        <ele>491</ele>
        <time>2019-10-26T08:30:30Z</time>
      </trkpt>
      <trkpt lat="44.1958" lon="5.05418">
        <ele>491</ele>
        <time>2019-10-26T08:30:31Z</time>
      </trkpt>
      <trkpt lat="44.1958" lon="5.05415">
        <ele>491</ele>
        <time>2019-10-26T08:30:32Z</time>
      </trkpt>
      <trkpt lat="44.1958" lon="5.05409">
        <ele>490</ele>
        <time>2019-10-26T08:30:34Z</time>
      </trkpt>
      <trkpt lat="44.19579" lon="5.05405">
        <ele>490</ele>
        <time>2019-10-26T08:30:35Z</time>
      </trkpt>
      <trkpt lat="44.19579" lon="5.05401">
        <ele>490</ele>
        <time>2019-10-26T08:30:36Z</time>
      </trkpt>
      <trkpt lat="44.19581" lon="5.05372">
        <ele>488</ele>
        <time>2019-10-26T08:30:45Z</time>
      </trkpt>
      <trkpt lat="44.19582" lon="5.05364">
        <ele>488</ele>
        <time>2019-10-26T08:30:47Z</time>
      </trkpt>
      <trkpt lat="44.19583" lon="5.05361">
        <ele>488</ele>
        <time>2019-10-26T08:30:48Z</time>
      </trkpt>
      <trkpt lat="44.19584" lon="5.05357">
        <ele>488</ele>
        <time>2019-10-26T08:30:49Z</time>
      </trkpt>
      <trkpt lat="44.19584" lon="5.05354">
        <ele>488</ele>
        <time>2019-10-26T08:30:50Z</time>
      </trkpt>
      <trkpt lat="44.19584" lon="5.0535">
        <ele>487</ele>
        <time>2019-10-26T08:30:51Z</time>
      </trkpt>
      <trkpt lat="44.19583" lon="5.05321">
        <ele>485</ele>
        <time>2019-10-26T08:31:00Z</time>
      </trkpt>
      <trkpt lat="44.19583" lon="5.05293">
        <ele>482</ele>
        <time>2019-10-26T08:31:09Z</time>
      </trkpt>
      <trkpt lat="44.19581" lon="5.05279">
        <ele>481</ele>
        <time>2019-10-26T08:31:13Z</time>
      </trkpt>
      <trkpt lat="44.19581" lon="5.05248">
        <ele>479</ele>
        <time>2019-10-26T08:31:22Z</time>
      </trkpt>
      <trkpt lat="44.1959" lon="5.05214">
        <ele>477</ele>
        <time>2019-10-26T08:31:31Z</time>
      </trkpt>
      <trkpt lat="44.196" lon="5.05183">
        <ele>474</ele>
        <time>2019-10-26T08:31:40Z</time>
      </trkpt>
      <trkpt lat="44.19604" lon="5.05174">
        <ele>473</ele>
        <time>2019-10-26T08:31:43Z</time>
      </trkpt>
      <trkpt lat="44.19605" lon="5.05171">
        <ele>472</ele>
        <time>2019-10-26T08:31:44Z</time>
      </trkpt>
      <trkpt lat="44.19607" lon="5.05168">
        <ele>472</ele>
        <time>2019-10-26T08:31:45Z</time>
      </trkpt>
      <trkpt lat="44.19623" lon="5.05157">
        <ele>471</ele>
        <time>2019-10-26T08:31:52Z</time>
      </trkpt>
      <trkpt lat="44.19645" lon="5.0514">
        <ele>470</ele>
        <time>2019-10-26T08:32:01Z</time>
      </trkpt>
      <trkpt lat="44.19662" lon="5.05118">
        <ele>470</ele>
        <time>2019-10-26T08:32:10Z</time>
      </trkpt>
      <trkpt lat="44.19672" lon="5.05109">
        <ele>469</ele>
        <time>2019-10-26T08:32:14Z</time>
      </trkpt>
      <trkpt lat="44.19692" lon="5.05083">
        <ele>466</ele>
        <time>2019-10-26T08:32:24Z</time>
      </trkpt>
      <trkpt lat="44.19702" lon="5.05068">
        <ele>466</ele>
        <time>2019-10-26T08:32:30Z</time>
      </trkpt>
      <trkpt lat="44.19703" lon="5.05066">
        <ele>465</ele>
        <time>2019-10-26T08:32:31Z</time>
      </trkpt>
      <trkpt lat="44.19705" lon="5.05064">
        <ele>465</ele>
        <time>2019-10-26T08:32:32Z</time>
      </trkpt>
      <trkpt lat="44.19718" lon="5.05046">
        <ele>463</ele>
        <time>2019-10-26T08:32:39Z</time>
      </trkpt>
      <trkpt lat="44.1972" lon="5.05043">
        <ele>463</ele>
        <time>2019-10-26T08:32:40Z</time>
      </trkpt>
      <trkpt lat="44.19722" lon="5.0504">
        <ele>462</ele>
        <time>2019-10-26T08:32:41Z</time>
      </trkpt>
      <trkpt lat="44.19724" lon="5.05037">
        <ele>462</ele>
        <time>2019-10-26T08:32:42Z</time>
      </trkpt>
      <trkpt lat="44.19726" lon="5.05034">
        <ele>462</ele>
        <time>2019-10-26T08:32:43Z</time>
      </trkpt>
      <trkpt lat="44.19728" lon="5.05032">
        <ele>462</ele>
        <time>2019-10-26T08:32:44Z</time>
      </trkpt>
      <trkpt lat="44.19744" lon="5.05007">
        <ele>460</ele>
        <time>2019-10-26T08:32:53Z</time>
      </trkpt>
      <trkpt lat="44.19749" lon="5.04999">
        <ele>460</ele>
        <time>2019-10-26T08:32:56Z</time>
      </trkpt>
      <trkpt lat="44.1975" lon="5.04997">
        <ele>460</ele>
        <time>2019-10-26T08:32:57Z</time>
      </trkpt>
      <trkpt lat="44.19752" lon="5.04995">
        <ele>460</ele>
        <time>2019-10-26T08:32:58Z</time>
      </trkpt>
      <trkpt lat="44.19753" lon="5.04993">
        <ele>460</ele>
        <time>2019-10-26T08:32:59Z</time>
      </trkpt>
      <trkpt lat="44.19755" lon="5.04991">
        <ele>460</ele>
        <time>2019-10-26T08:33:00Z</time>
      </trkpt>
      <trkpt lat="44.19758" lon="5.04984">
        <ele>460</ele>
        <time>2019-10-26T08:33:58Z</time>
      </trkpt>
      <trkpt lat="44.19759" lon="5.04979">
        <ele>460</ele>
        <time>2019-10-26T08:34:04Z</time>
      </trkpt>
      <trkpt lat="44.1976" lon="5.04977">
        <ele>460</ele>
        <time>2019-10-26T08:34:05Z</time>
      </trkpt>
      <trkpt lat="44.19761" lon="5.04973">
        <ele>460</ele>
        <time>2019-10-26T08:34:07Z</time>
      </trkpt>
      <trkpt lat="44.19763" lon="5.04968">
        <ele>460</ele>
        <time>2019-10-26T08:34:09Z</time>
      </trkpt>
      <trkpt lat="44.19765" lon="5.04963">
        <ele>460</ele>
        <time>2019-10-26T08:34:11Z</time>
      </trkpt>
      <trkpt lat="44.19767" lon="5.04958">
        <ele>460</ele>
        <time>2019-10-26T08:34:13Z</time>
      </trkpt>
      <trkpt lat="44.19768" lon="5.04956">
        <ele>460</ele>
        <time>2019-10-26T08:34:14Z</time>
      </trkpt>
      <trkpt lat="44.19768" lon="5.04953">
        <ele>460</ele>
        <time>2019-10-26T08:34:15Z</time>
      </trkpt>
      <trkpt lat="44.19769" lon="5.0495">
        <ele>460</ele>
        <time>2019-10-26T08:34:16Z</time>
      </trkpt>
      <trkpt lat="44.1977" lon="5.04947">
        <ele>460</ele>
        <time>2019-10-26T08:34:17Z</time>
      </trkpt>
      <trkpt lat="44.19771" lon="5.04944">
        <ele>460</ele>
        <time>2019-10-26T08:34:18Z</time>
      </trkpt>
      <trkpt lat="44.19772" lon="5.04942">
        <ele>460</ele>
        <time>2019-10-26T08:34:19Z</time>
      </trkpt>
      <trkpt lat="44.19773" lon="5.0494">
        <ele>460</ele>
        <time>2019-10-26T08:34:20Z</time>
      </trkpt>
      <trkpt lat="44.19775" lon="5.04937">
        <ele>460</ele>
        <time>2019-10-26T08:34:21Z</time>
      </trkpt>
      <trkpt lat="44.19777" lon="5.04929">
        <ele>460</ele>
        <time>2019-10-26T08:34:24Z</time>
      </trkpt>
      <trkpt lat="44.19778" lon="5.04927">
        <ele>460</ele>
        <time>2019-10-26T08:34:25Z</time>
      </trkpt>
      <trkpt lat="44.19778" lon="5.04925">
        <ele>460</ele>
        <time>2019-10-26T08:34:26Z</time>
      </trkpt>
      <trkpt lat="44.19779" lon="5.04923">
        <ele>460</ele>
        <time>2019-10-26T08:34:27Z</time>
      </trkpt>
      <trkpt lat="44.1978" lon="5.04921">
        <ele>460</ele>
        <time>2019-10-26T08:34:28Z</time>
      </trkpt>
      <trkpt lat="44.19781" lon="5.04918">
        <ele>460</ele>
        <time>2019-10-26T08:34:29Z</time>
      </trkpt>
      <trkpt lat="44.19782" lon="5.04916">
        <ele>460</ele>
        <time>2019-10-26T08:34:30Z</time>
      </trkpt>
      <trkpt lat="44.19782" lon="5.04914">
        <ele>460</ele>
        <time>2019-10-26T08:34:31Z</time>
      </trkpt>
      <trkpt lat="44.19783" lon="5.04911">
        <ele>460</ele>
        <time>2019-10-26T08:34:32Z</time>
      </trkpt>
      <trkpt lat="44.19784" lon="5.04909">
        <ele>459</ele>
        <time>2019-10-26T08:34:33Z</time>
      </trkpt>
      <trkpt lat="44.19784" lon="5.04907">
        <ele>459</ele>
        <time>2019-10-26T08:34:34Z</time>
      </trkpt>
      <trkpt lat="44.19795" lon="5.04877">
        <ele>458</ele>
        <time>2019-10-26T08:34:44Z</time>
      </trkpt>
      <trkpt lat="44.19804" lon="5.04845">
        <ele>458</ele>
        <time>2019-10-26T08:34:54Z</time>
      </trkpt>
      <trkpt lat="44.19805" lon="5.04826">
        <ele>456</ele>
        <time>2019-10-26T08:35:00Z</time>
      </trkpt>
      <trkpt lat="44.19805" lon="5.0482">
        <ele>456</ele>
        <time>2019-10-26T08:35:02Z</time>
      </trkpt>
      <trkpt lat="44.19803" lon="5.04808">
        <ele>454</ele>
        <time>2019-10-26T08:35:09Z</time>
      </trkpt>
      <trkpt lat="44.19802" lon="5.04804">
        <ele>453</ele>
        <time>2019-10-26T08:35:11Z</time>
      </trkpt>
      <trkpt lat="44.19802" lon="5.04802">
        <ele>453</ele>
        <time>2019-10-26T08:35:12Z</time>
      </trkpt>
      <trkpt lat="44.19801" lon="5.04799">
        <ele>453</ele>
        <time>2019-10-26T08:35:13Z</time>
      </trkpt>
      <trkpt lat="44.19802" lon="5.04796">
        <ele>453</ele>
        <time>2019-10-26T08:35:14Z</time>
      </trkpt>
      <trkpt lat="44.19802" lon="5.04793">
        <ele>452</ele>
        <time>2019-10-26T08:35:15Z</time>
      </trkpt>
      <trkpt lat="44.19802" lon="5.0479">
        <ele>452</ele>
        <time>2019-10-26T08:35:16Z</time>
      </trkpt>
      <trkpt lat="44.19802" lon="5.04787">
        <ele>452</ele>
        <time>2019-10-26T08:35:17Z</time>
      </trkpt>
      <trkpt lat="44.19802" lon="5.04784">
        <ele>452</ele>
        <time>2019-10-26T08:35:18Z</time>
      </trkpt>
      <trkpt lat="44.19802" lon="5.04781">
        <ele>451</ele>
        <time>2019-10-26T08:35:19Z</time>
      </trkpt>
      <trkpt lat="44.19802" lon="5.04778">
        <ele>451</ele>
        <time>2019-10-26T08:35:20Z</time>
      </trkpt>
      <trkpt lat="44.19802" lon="5.04775">
        <ele>451</ele>
        <time>2019-10-26T08:35:21Z</time>
      </trkpt>
      <trkpt lat="44.19802" lon="5.04772">
        <ele>450</ele>
        <time>2019-10-26T08:35:22Z</time>
      </trkpt>
      <trkpt lat="44.19802" lon="5.04769">
        <ele>450</ele>
        <time>2019-10-26T08:35:23Z</time>
      </trkpt>
      <trkpt lat="44.19803" lon="5.04767">
        <ele>450</ele>
        <time>2019-10-26T08:35:24Z</time>
      </trkpt>
      <trkpt lat="44.19804" lon="5.04761">
        <ele>450</ele>
        <time>2019-10-26T08:35:26Z</time>
      </trkpt>
      <trkpt lat="44.19803" lon="5.04757">
        <ele>449</ele>
        <time>2019-10-26T08:35:28Z</time>
      </trkpt>
      <trkpt lat="44.19803" lon="5.04755">
        <ele>449</ele>
        <time>2019-10-26T08:35:29Z</time>
      </trkpt>
      <trkpt lat="44.19803" lon="5.04752">
        <ele>448</ele>
        <time>2019-10-26T08:35:30Z</time>
      </trkpt>
      <trkpt lat="44.19803" lon="5.04749">
        <ele>448</ele>
        <time>2019-10-26T08:35:31Z</time>
      </trkpt>
      <trkpt lat="44.19803" lon="5.04745">
        <ele>447</ele>
        <time>2019-10-26T08:35:33Z</time>
      </trkpt>
      <trkpt lat="44.19803" lon="5.04742">
        <ele>447</ele>
        <time>2019-10-26T08:35:34Z</time>
      </trkpt>
      <trkpt lat="44.19804" lon="5.04739">
        <ele>447</ele>
        <time>2019-10-26T08:35:35Z</time>
      </trkpt>
      <trkpt lat="44.19804" lon="5.04736">
        <ele>446</ele>
        <time>2019-10-26T08:35:36Z</time>
      </trkpt>
      <trkpt lat="44.19803" lon="5.04734">
        <ele>446</ele>
        <time>2019-10-26T08:35:37Z</time>
      </trkpt>
      <trkpt lat="44.19803" lon="5.0473">
        <ele>445</ele>
        <time>2019-10-26T08:35:39Z</time>
      </trkpt>
      <trkpt lat="44.19803" lon="5.04728">
        <ele>445</ele>
        <time>2019-10-26T08:35:40Z</time>
      </trkpt>
      <trkpt lat="44.19804" lon="5.04708">
        <ele>443</ele>
        <time>2019-10-26T08:35:49Z</time>
      </trkpt>
      <trkpt lat="44.19809" lon="5.0468">
        <ele>440</ele>
        <time>2019-10-26T08:35:59Z</time>
      </trkpt>
      <trkpt lat="44.19808" lon="5.04679">
        <ele>439</ele>
        <time>2019-10-26T08:36:00Z</time>
      </trkpt>
      <trkpt lat="44.19808" lon="5.04671">
        <ele>438</ele>
        <time>2019-10-26T08:36:04Z</time>
      </trkpt>
      <trkpt lat="44.19808" lon="5.04648">
        <ele>435</ele>
        <time>2019-10-26T08:36:13Z</time>
      </trkpt>
      <trkpt lat="44.19808" lon="5.04644">
        <ele>435</ele>
        <time>2019-10-26T08:36:15Z</time>
      </trkpt>
      <trkpt lat="44.19808" lon="5.04641">
        <ele>435</ele>
        <time>2019-10-26T08:36:16Z</time>
      </trkpt>
      <trkpt lat="44.19809" lon="5.04639">
        <ele>435</ele>
        <time>2019-10-26T08:36:17Z</time>
      </trkpt>
      <trkpt lat="44.19815" lon="5.04622">
        <ele>434</ele>
        <time>2019-10-26T08:36:26Z</time>
      </trkpt>
      <trkpt lat="44.19816" lon="5.04616">
        <ele>433</ele>
        <time>2019-10-26T08:36:28Z</time>
      </trkpt>
      <trkpt lat="44.19817" lon="5.04613">
        <ele>433</ele>
        <time>2019-10-26T08:36:29Z</time>
      </trkpt>
      <trkpt lat="44.19817" lon="5.0461">
        <ele>433</ele>
        <time>2019-10-26T08:36:30Z</time>
      </trkpt>
      <trkpt lat="44.19818" lon="5.04606">
        <ele>433</ele>
        <time>2019-10-26T08:36:31Z</time>
      </trkpt>
      <trkpt lat="44.19819" lon="5.04602">
        <ele>432</ele>
        <time>2019-10-26T08:36:32Z</time>
      </trkpt>
      <trkpt lat="44.1982" lon="5.04599">
        <ele>432</ele>
        <time>2019-10-26T08:36:33Z</time>
      </trkpt>
      <trkpt lat="44.1982" lon="5.04596">
        <ele>432</ele>
        <time>2019-10-26T08:36:34Z</time>
      </trkpt>
      <trkpt lat="44.19821" lon="5.04593">
        <ele>431</ele>
        <time>2019-10-26T08:36:35Z</time>
      </trkpt>
      <trkpt lat="44.19823" lon="5.04586">
        <ele>431</ele>
        <time>2019-10-26T08:36:37Z</time>
      </trkpt>
      <trkpt lat="44.19824" lon="5.04583">
        <ele>431</ele>
        <time>2019-10-26T08:36:38Z</time>
      </trkpt>
      <trkpt lat="44.19824" lon="5.0458">
        <ele>430</ele>
        <time>2019-10-26T08:36:39Z</time>
      </trkpt>
      <trkpt lat="44.19824" lon="5.04576">
        <ele>430</ele>
        <time>2019-10-26T08:36:41Z</time>
      </trkpt>
      <trkpt lat="44.19824" lon="5.04573">
        <ele>429</ele>
        <time>2019-10-26T08:36:42Z</time>
      </trkpt>
      <trkpt lat="44.19825" lon="5.0457">
        <ele>429</ele>
        <time>2019-10-26T08:36:43Z</time>
      </trkpt>
      <trkpt lat="44.19826" lon="5.04567">
        <ele>429</ele>
        <time>2019-10-26T08:36:44Z</time>
      </trkpt>
      <trkpt lat="44.19827" lon="5.04565">
        <ele>429</ele>
        <time>2019-10-26T08:36:45Z</time>
      </trkpt>
      <trkpt lat="44.19827" lon="5.04562">
        <ele>429</ele>
        <time>2019-10-26T08:36:46Z</time>
      </trkpt>
      <trkpt lat="44.19827" lon="5.04559">
        <ele>428</ele>
        <time>2019-10-26T08:36:47Z</time>
      </trkpt>
      <trkpt lat="44.19828" lon="5.04557">
        <ele>428</ele>
        <time>2019-10-26T08:36:48Z</time>
      </trkpt>
      <trkpt lat="44.19828" lon="5.04554">
        <ele>428</ele>
        <time>2019-10-26T08:36:49Z</time>
      </trkpt>
      <trkpt lat="44.19828" lon="5.04551">
        <ele>427</ele>
        <time>2019-10-26T08:36:50Z</time>
      </trkpt>
      <trkpt lat="44.19828" lon="5.04548">
        <ele>427</ele>
        <time>2019-10-26T08:36:51Z</time>
      </trkpt>
      <trkpt lat="44.19828" lon="5.04546">
        <ele>426</ele>
        <time>2019-10-26T08:36:52Z</time>
      </trkpt>
      <trkpt lat="44.19828" lon="5.04543">
        <ele>426</ele>
        <time>2019-10-26T08:36:53Z</time>
      </trkpt>
      <trkpt lat="44.19828" lon="5.04541">
        <ele>426</ele>
        <time>2019-10-26T08:36:54Z</time>
      </trkpt>
      <trkpt lat="44.19829" lon="5.04538">
        <ele>425</ele>
        <time>2019-10-26T08:36:55Z</time>
      </trkpt>
      <trkpt lat="44.19829" lon="5.04535">
        <ele>425</ele>
        <time>2019-10-26T08:36:56Z</time>
      </trkpt>
      <trkpt lat="44.1983" lon="5.04532">
        <ele>424</ele>
        <time>2019-10-26T08:36:57Z</time>
      </trkpt>
      <trkpt lat="44.1983" lon="5.04528">
        <ele>424</ele>
        <time>2019-10-26T08:36:58Z</time>
      </trkpt>
      <trkpt lat="44.19832" lon="5.04501">
        <ele>420</ele>
        <time>2019-10-26T08:37:06Z</time>
      </trkpt>
      <trkpt lat="44.19833" lon="5.0448">
        <ele>417</ele>
        <time>2019-10-26T08:37:13Z</time>
      </trkpt>
      <trkpt lat="44.19833" lon="5.04476">
        <ele>417</ele>
        <time>2019-10-26T08:37:14Z</time>
      </trkpt>
      <trkpt lat="44.19834" lon="5.04474">
        <ele>416</ele>
        <time>2019-10-26T08:37:15Z</time>
      </trkpt>
      <trkpt lat="44.19833" lon="5.0447">
        <ele>416</ele>
        <time>2019-10-26T08:37:17Z</time>
      </trkpt>
      <trkpt lat="44.19833" lon="5.04466">
        <ele>415</ele>
        <time>2019-10-26T08:37:19Z</time>
      </trkpt>
      <trkpt lat="44.19833" lon="5.04463">
        <ele>415</ele>
        <time>2019-10-26T08:37:20Z</time>
      </trkpt>
      <trkpt lat="44.19834" lon="5.0446">
        <ele>415</ele>
        <time>2019-10-26T08:37:21Z</time>
      </trkpt>
      <trkpt lat="44.19834" lon="5.04458">
        <ele>414</ele>
        <time>2019-10-26T08:37:22Z</time>
      </trkpt>
      <trkpt lat="44.19835" lon="5.04455">
        <ele>414</ele>
        <time>2019-10-26T08:37:23Z</time>
      </trkpt>
      <trkpt lat="44.19836" lon="5.04452">
        <ele>414</ele>
        <time>2019-10-26T08:37:24Z</time>
      </trkpt>
      <trkpt lat="44.19836" lon="5.04449">
        <ele>414</ele>
        <time>2019-10-26T08:37:25Z</time>
      </trkpt>
      <trkpt lat="44.19837" lon="5.04446">
        <ele>413</ele>
        <time>2019-10-26T08:37:26Z</time>
      </trkpt>
      <trkpt lat="44.19837" lon="5.04443">
        <ele>413</ele>
        <time>2019-10-26T08:37:27Z</time>
      </trkpt>
      <trkpt lat="44.19838" lon="5.0444">
        <ele>413</ele>
        <time>2019-10-26T08:37:28Z</time>
      </trkpt>
      <trkpt lat="44.19839" lon="5.04438">
        <ele>413</ele>
        <time>2019-10-26T08:37:29Z</time>
      </trkpt>
      <trkpt lat="44.1984" lon="5.04435">
        <ele>412</ele>
        <time>2019-10-26T08:37:30Z</time>
      </trkpt>
      <trkpt lat="44.19841" lon="5.04432">
        <ele>412</ele>
        <time>2019-10-26T08:37:31Z</time>
      </trkpt>
      <trkpt lat="44.19842" lon="5.04429">
        <ele>412</ele>
        <time>2019-10-26T08:37:32Z</time>
      </trkpt>
      <trkpt lat="44.19843" lon="5.04426">
        <ele>412</ele>
        <time>2019-10-26T08:37:33Z</time>
      </trkpt>
      <trkpt lat="44.19843" lon="5.04423">
        <ele>411</ele>
        <time>2019-10-26T08:37:34Z</time>
      </trkpt>
      <trkpt lat="44.19844" lon="5.04421">
        <ele>411</ele>
        <time>2019-10-26T08:37:35Z</time>
      </trkpt>
      <trkpt lat="44.19845" lon="5.04418">
        <ele>411</ele>
        <time>2019-10-26T08:37:36Z</time>
      </trkpt>
      <trkpt lat="44.19846" lon="5.04415">
        <ele>411</ele>
        <time>2019-10-26T08:37:37Z</time>
      </trkpt>
      <trkpt lat="44.19847" lon="5.04412">
        <ele>410</ele>
        <time>2019-10-26T08:37:38Z</time>
      </trkpt>
      <trkpt lat="44.19847" lon="5.04409">
        <ele>410</ele>
        <time>2019-10-26T08:37:39Z</time>
      </trkpt>
      <trkpt lat="44.19848" lon="5.04406">
        <ele>410</ele>
        <time>2019-10-26T08:37:40Z</time>
      </trkpt>
      <trkpt lat="44.19849" lon="5.04403">
        <ele>409</ele>
        <time>2019-10-26T08:37:41Z</time>
      </trkpt>
      <trkpt lat="44.1985" lon="5.04397">
        <ele>408</ele>
        <time>2019-10-26T08:37:42Z</time>
      </trkpt>
      <trkpt lat="44.19852" lon="5.04394">
        <ele>408</ele>
        <time>2019-10-26T08:37:43Z</time>
      </trkpt>
      <trkpt lat="44.19854" lon="5.0439">
        <ele>407</ele>
        <time>2019-10-26T08:37:44Z</time>
      </trkpt>
      <trkpt lat="44.19855" lon="5.04384">
        <ele>406</ele>
        <time>2019-10-26T08:37:45Z</time>
      </trkpt>
      <trkpt lat="44.19855" lon="5.04379">
        <ele>405</ele>
        <time>2019-10-26T08:37:46Z</time>
      </trkpt>
      <trkpt lat="44.19856" lon="5.04374">
        <ele>404</ele>
        <time>2019-10-26T08:37:47Z</time>
      </trkpt>
      <trkpt lat="44.19857" lon="5.04372">
        <ele>403</ele>
        <time>2019-10-26T08:37:48Z</time>
      </trkpt>
      <trkpt lat="44.19858" lon="5.04369">
        <ele>402</ele>
        <time>2019-10-26T08:37:49Z</time>
      </trkpt>
      <trkpt lat="44.19862" lon="5.04339">
        <ele>397</ele>
        <time>2019-10-26T08:37:58Z</time>
      </trkpt>
      <trkpt lat="44.19862" lon="5.04335">
        <ele>396</ele>
        <time>2019-10-26T08:38:00Z</time>
      </trkpt>
      <trkpt lat="44.19863" lon="5.04324">
        <ele>395</ele>
        <time>2019-10-26T08:38:04Z</time>
      </trkpt>
      <trkpt lat="44.19863" lon="5.04322">
        <ele>394</ele>
        <time>2019-10-26T08:38:05Z</time>
      </trkpt>
      <trkpt lat="44.19863" lon="5.0432">
        <ele>394</ele>
        <time>2019-10-26T08:38:06Z</time>
      </trkpt>
      <trkpt lat="44.19865" lon="5.04311">
        <ele>393</ele>
        <time>2019-10-26T08:38:10Z</time>
      </trkpt>
      <trkpt lat="44.19865" lon="5.04309">
        <ele>392</ele>
        <time>2019-10-26T08:38:11Z</time>
      </trkpt>
      <trkpt lat="44.19865" lon="5.04306">
        <ele>392</ele>
        <time>2019-10-26T08:38:12Z</time>
      </trkpt>
      <trkpt lat="44.19866" lon="5.04295">
        <ele>390</ele>
        <time>2019-10-26T08:38:16Z</time>
      </trkpt>
      <trkpt lat="44.1987" lon="5.04276">
        <ele>386</ele>
        <time>2019-10-26T08:38:23Z</time>
      </trkpt>
      <trkpt lat="44.19871" lon="5.04247">
        <ele>382</ele>
        <time>2019-10-26T08:38:31Z</time>
      </trkpt>
      <trkpt lat="44.19872" lon="5.04241">
        <ele>381</ele>
        <time>2019-10-26T08:38:33Z</time>
      </trkpt>
      <trkpt lat="44.19875" lon="5.04221">
        <ele>378</ele>
        <time>2019-10-26T08:38:39Z</time>
      </trkpt>
      <trkpt lat="44.19879" lon="5.04184">
        <ele>374</ele>
        <time>2019-10-26T08:38:48Z</time>
      </trkpt>
      <trkpt lat="44.19879" lon="5.04171">
        <ele>373</ele>
        <time>2019-10-26T08:38:51Z</time>
      </trkpt>
      <trkpt lat="44.19882" lon="5.04144">
        <ele>369</ele>
        <time>2019-10-26T08:38:59Z</time>
      </trkpt>
      <trkpt lat="44.19882" lon="5.04142">
        <ele>369</ele>
        <time>2019-10-26T08:39:00Z</time>
      </trkpt>
      <trkpt lat="44.19888" lon="5.04117">
        <ele>365</ele>
        <time>2019-10-26T08:39:10Z</time>
      </trkpt>
      <trkpt lat="44.19893" lon="5.04099">
        <ele>363</ele>
        <time>2019-10-26T08:39:15Z</time>
      </trkpt>
      <trkpt lat="44.19893" lon="5.04096">
        <ele>362</ele>
        <time>2019-10-26T08:39:16Z</time>
      </trkpt>
      <trkpt lat="44.19892" lon="5.04087">
        <ele>362</ele>
        <time>2019-10-26T08:39:19Z</time>
      </trkpt>
      <trkpt lat="44.19892" lon="5.04086">
        <ele>361</ele>
        <time>2019-10-26T08:39:20Z</time>
      </trkpt>
      <trkpt lat="44.19892" lon="5.04084">
        <ele>361</ele>
        <time>2019-10-26T08:39:21Z</time>
      </trkpt>
      <trkpt lat="44.19891" lon="5.04075">
        <ele>360</ele>
        <time>2019-10-26T08:39:25Z</time>
      </trkpt>
      <trkpt lat="44.19889" lon="5.04061">
        <ele>359</ele>
        <time>2019-10-26T08:39:30Z</time>
      </trkpt>
      <trkpt lat="44.19888" lon="5.04039">
        <ele>357</ele>
        <time>2019-10-26T08:39:38Z</time>
      </trkpt>
      <trkpt lat="44.19887" lon="5.04022">
        <ele>356</ele>
        <time>2019-10-26T08:39:44Z</time>
      </trkpt>
      <trkpt lat="44.19882" lon="5.03992">
        <ele>353</ele>
        <time>2019-10-26T08:39:54Z</time>
      </trkpt>
      <trkpt lat="44.19882" lon="5.03989">
        <ele>352</ele>
        <time>2019-10-26T08:39:55Z</time>
      </trkpt>
      <trkpt lat="44.19882" lon="5.03985">
        <ele>352</ele>
        <time>2019-10-26T08:39:56Z</time>
      </trkpt>
      <trkpt lat="44.19882" lon="5.03982">
        <ele>352</ele>
        <time>2019-10-26T08:39:57Z</time>
      </trkpt>
      <trkpt lat="44.19882" lon="5.03974">
        <ele>351</ele>
        <time>2019-10-26T08:39:59Z</time>
      </trkpt>
      <trkpt lat="44.19883" lon="5.03968">
        <ele>350</ele>
        <time>2019-10-26T08:40:01Z</time>
      </trkpt>
      <trkpt lat="44.19888" lon="5.03953">
        <ele>349</ele>
        <time>2019-10-26T08:40:10Z</time>
      </trkpt>
      <trkpt lat="44.19889" lon="5.03949">
        <ele>349</ele>
        <time>2019-10-26T08:40:30Z</time>
      </trkpt>
      <trkpt lat="44.19889" lon="5.03949">
        <ele>349</ele>
        <time>2019-10-26T08:40:33Z</time>
      </trkpt>
      <trkpt lat="44.1989" lon="5.03948">
        <ele>349</ele>
        <time>2019-10-26T08:40:34Z</time>
      </trkpt>
      <trkpt lat="44.19891" lon="5.03946">
        <ele>349</ele>
        <time>2019-10-26T08:40:35Z</time>
      </trkpt>
      <trkpt lat="44.19893" lon="5.03945">
        <ele>349</ele>
        <time>2019-10-26T08:40:36Z</time>
      </trkpt>
      <trkpt lat="44.19894" lon="5.03944">
        <ele>349</ele>
        <time>2019-10-26T08:40:37Z</time>
      </trkpt>
      <trkpt lat="44.19895" lon="5.03942">
        <ele>349</ele>
        <time>2019-10-26T08:40:38Z</time>
      </trkpt>
      <trkpt lat="44.19897" lon="5.03941">
        <ele>350</ele>
        <time>2019-10-26T08:40:39Z</time>
      </trkpt>
      <trkpt lat="44.19899" lon="5.03941">
        <ele>350</ele>
        <time>2019-10-26T08:40:40Z</time>
      </trkpt>
      <trkpt lat="44.19901" lon="5.0394">
        <ele>350</ele>
        <time>2019-10-26T08:40:41Z</time>
      </trkpt>
      <trkpt lat="44.19903" lon="5.03939">
        <ele>350</ele>
        <time>2019-10-26T08:40:42Z</time>
      </trkpt>
      <trkpt lat="44.19917" lon="5.03936">
        <ele>351</ele>
        <time>2019-10-26T08:40:52Z</time>
      </trkpt>
      <trkpt lat="44.19921" lon="5.03936">
        <ele>352</ele>
        <time>2019-10-26T08:40:54Z</time>
      </trkpt>
      <trkpt lat="44.19922" lon="5.03935">
        <ele>353</ele>
        <time>2019-10-26T08:40:55Z</time>
      </trkpt>
      <trkpt lat="44.19928" lon="5.03928">
        <ele>354</ele>
        <time>2019-10-26T08:41:03Z</time>
      </trkpt>
      <trkpt lat="44.19929" lon="5.03921">
        <ele>354</ele>
        <time>2019-10-26T08:41:17Z</time>
      </trkpt>
      <trkpt lat="44.19925" lon="5.0392">
        <ele>353</ele>
        <time>2019-10-26T08:41:29Z</time>
      </trkpt>
      <trkpt lat="44.19921" lon="5.03917">
        <ele>352</ele>
        <time>2019-10-26T08:41:33Z</time>
      </trkpt>
      <trkpt lat="44.19919" lon="5.03916">
        <ele>352</ele>
        <time>2019-10-26T08:41:34Z</time>
      </trkpt>
      <trkpt lat="44.19918" lon="5.03914">
        <ele>352</ele>
        <time>2019-10-26T08:41:35Z</time>
      </trkpt>
      <trkpt lat="44.19917" lon="5.03913">
        <ele>352</ele>
        <time>2019-10-26T08:41:36Z</time>
      </trkpt>
      <trkpt lat="44.19906" lon="5.03891">
        <ele>355</ele>
        <time>2019-10-26T08:41:48Z</time>
      </trkpt>
      <trkpt lat="44.19906" lon="5.03889">
        <ele>355</ele>
        <time>2019-10-26T08:41:49Z</time>
      </trkpt>
      <trkpt lat="44.19905" lon="5.03886">
        <ele>355</ele>
        <time>2019-10-26T08:41:50Z</time>
      </trkpt>
      <trkpt lat="44.19905" lon="5.03884">
        <ele>355</ele>
        <time>2019-10-26T08:41:51Z</time>
      </trkpt>
      <trkpt lat="44.19905" lon="5.03882">
        <ele>356</ele>
        <time>2019-10-26T08:41:52Z</time>
      </trkpt>
      <trkpt lat="44.19906" lon="5.03879">
        <ele>356</ele>
        <time>2019-10-26T08:41:53Z</time>
      </trkpt>
      <trkpt lat="44.19905" lon="5.03877">
        <ele>356</ele>
        <time>2019-10-26T08:41:54Z</time>
      </trkpt>
      <trkpt lat="44.19905" lon="5.03874">
        <ele>356</ele>
        <time>2019-10-26T08:41:55Z</time>
      </trkpt>
      <trkpt lat="44.19905" lon="5.03871">
        <ele>357</ele>
        <time>2019-10-26T08:41:56Z</time>
      </trkpt>
      <trkpt lat="44.19905" lon="5.03869">
        <ele>357</ele>
        <time>2019-10-26T08:41:57Z</time>
      </trkpt>
      <trkpt lat="44.19907" lon="5.03845">
        <ele>360</ele>
        <time>2019-10-26T08:42:07Z</time>
      </trkpt>
      <trkpt lat="44.19907" lon="5.0382">
        <ele>363</ele>
        <time>2019-10-26T08:42:19Z</time>
      </trkpt>
      <trkpt lat="44.19907" lon="5.0381">
        <ele>364</ele>
        <time>2019-10-26T08:42:24Z</time>
      </trkpt>
      <trkpt lat="44.19906" lon="5.03809">
        <ele>364</ele>
        <time>2019-10-26T08:42:25Z</time>
      </trkpt>
      <trkpt lat="44.19905" lon="5.03807">
        <ele>364</ele>
        <time>2019-10-26T08:42:26Z</time>
      </trkpt>
      <trkpt lat="44.19904" lon="5.03805">
        <ele>364</ele>
        <time>2019-10-26T08:42:27Z</time>
      </trkpt>
      <trkpt lat="44.19904" lon="5.03803">
        <ele>364</ele>
        <time>2019-10-26T08:42:28Z</time>
      </trkpt>
      <trkpt lat="44.19902" lon="5.03802">
        <ele>364</ele>
        <time>2019-10-26T08:42:29Z</time>
      </trkpt>
      <trkpt lat="44.19895" lon="5.03791">
        <ele>364</ele>
        <time>2019-10-26T08:42:36Z</time>
      </trkpt>
      <trkpt lat="44.19888" lon="5.03777">
        <ele>366</ele>
        <time>2019-10-26T08:42:46Z</time>
      </trkpt>
      <trkpt lat="44.19884" lon="5.03767">
        <ele>368</ele>
        <time>2019-10-26T08:42:53Z</time>
      </trkpt>
      <trkpt lat="44.19884" lon="5.03765">
        <ele>368</ele>
        <time>2019-10-26T08:42:54Z</time>
      </trkpt>
      <trkpt lat="44.19875" lon="5.03745">
        <ele>371</ele>
        <time>2019-10-26T08:43:07Z</time>
      </trkpt>
      <trkpt lat="44.19873" lon="5.03744">
        <ele>371</ele>
        <time>2019-10-26T08:43:08Z</time>
      </trkpt>
      <trkpt lat="44.19872" lon="5.03743">
        <ele>371</ele>
        <time>2019-10-26T08:43:09Z</time>
      </trkpt>
      <trkpt lat="44.19858" lon="5.03726">
        <ele>373</ele>
        <time>2019-10-26T08:43:21Z</time>
      </trkpt>
      <trkpt lat="44.19844" lon="5.03708">
        <ele>374</ele>
        <time>2019-10-26T08:43:32Z</time>
      </trkpt>
      <trkpt lat="44.19836" lon="5.03687">
        <ele>374</ele>
        <time>2019-10-26T08:43:40Z</time>
      </trkpt>
      <trkpt lat="44.19835" lon="5.03684">
        <ele>374</ele>
        <time>2019-10-26T08:43:41Z</time>
      </trkpt>
      <trkpt lat="44.19835" lon="5.03681">
        <ele>374</ele>
        <time>2019-10-26T08:43:42Z</time>
      </trkpt>
      <trkpt lat="44.19835" lon="5.03678">
        <ele>374</ele>
        <time>2019-10-26T08:43:43Z</time>
      </trkpt>
      <trkpt lat="44.19834" lon="5.03674">
        <ele>374</ele>
        <time>2019-10-26T08:43:44Z</time>
      </trkpt>
      <trkpt lat="44.19834" lon="5.03671">
        <ele>374</ele>
        <time>2019-10-26T08:43:45Z</time>
      </trkpt>
      <trkpt lat="44.19834" lon="5.03667">
        <ele>374</ele>
        <time>2019-10-26T08:43:46Z</time>
      </trkpt>
      <trkpt lat="44.19833" lon="5.03664">
        <ele>374</ele>
        <time>2019-10-26T08:43:47Z</time>
      </trkpt>
      <trkpt lat="44.19833" lon="5.0366">
        <ele>374</ele>
        <time>2019-10-26T08:43:48Z</time>
      </trkpt>
      <trkpt lat="44.19832" lon="5.03657">
        <ele>374</ele>
        <time>2019-10-26T08:43:49Z</time>
      </trkpt>
      <trkpt lat="44.19831" lon="5.03654">
        <ele>375</ele>
        <time>2019-10-26T08:43:50Z</time>
      </trkpt>
      <trkpt lat="44.19831" lon="5.03651">
        <ele>375</ele>
        <time>2019-10-26T08:43:51Z</time>
      </trkpt>
      <trkpt lat="44.1983" lon="5.03648">
        <ele>375</ele>
        <time>2019-10-26T08:43:52Z</time>
      </trkpt>
      <trkpt lat="44.19827" lon="5.03638">
        <ele>375</ele>
        <time>2019-10-26T08:43:59Z</time>
      </trkpt>
      <trkpt lat="44.19826" lon="5.03623">
        <ele>375</ele>
        <time>2019-10-26T08:44:21Z</time>
      </trkpt>
      <trkpt lat="44.19824" lon="5.03611">
        <ele>375</ele>
        <time>2019-10-26T08:44:25Z</time>
      </trkpt>
      <trkpt lat="44.19824" lon="5.03607">
        <ele>375</ele>
        <time>2019-10-26T08:44:26Z</time>
      </trkpt>
      <trkpt lat="44.19823" lon="5.03604">
        <ele>375</ele>
        <time>2019-10-26T08:44:27Z</time>
      </trkpt>
      <trkpt lat="44.19823" lon="5.03601">
        <ele>375</ele>
        <time>2019-10-26T08:44:28Z</time>
      </trkpt>
      <trkpt lat="44.19822" lon="5.03597">
        <ele>375</ele>
        <time>2019-10-26T08:44:29Z</time>
      </trkpt>
      <trkpt lat="44.19821" lon="5.03594">
        <ele>375</ele>
        <time>2019-10-26T08:44:30Z</time>
      </trkpt>
      <trkpt lat="44.19814" lon="5.03565">
        <ele>373</ele>
        <time>2019-10-26T08:44:39Z</time>
      </trkpt>
      <trkpt lat="44.19811" lon="5.03541">
        <ele>371</ele>
        <time>2019-10-26T08:44:46Z</time>
      </trkpt>
      <trkpt lat="44.19812" lon="5.03523">
        <ele>370</ele>
        <time>2019-10-26T08:44:52Z</time>
      </trkpt>
      <trkpt lat="44.19814" lon="5.03519">
        <ele>370</ele>
        <time>2019-10-26T08:44:53Z</time>
      </trkpt>
      <trkpt lat="44.19815" lon="5.03515">
        <ele>370</ele>
        <time>2019-10-26T08:44:54Z</time>
      </trkpt>
      <trkpt lat="44.19817" lon="5.03512">
        <ele>370</ele>
        <time>2019-10-26T08:44:55Z</time>
      </trkpt>
      <trkpt lat="44.19818" lon="5.03509">
        <ele>370</ele>
        <time>2019-10-26T08:44:56Z</time>
      </trkpt>
      <trkpt lat="44.1982" lon="5.03506">
        <ele>369</ele>
        <time>2019-10-26T08:44:57Z</time>
      </trkpt>
      <trkpt lat="44.19822" lon="5.03503">
        <ele>369</ele>
        <time>2019-10-26T08:44:58Z</time>
      </trkpt>
      <trkpt lat="44.19823" lon="5.035">
        <ele>369</ele>
        <time>2019-10-26T08:44:59Z</time>
      </trkpt>
      <trkpt lat="44.19827" lon="5.03496">
        <ele>368</ele>
        <time>2019-10-26T08:45:01Z</time>
      </trkpt>
      <trkpt lat="44.19829" lon="5.03494">
        <ele>368</ele>
        <time>2019-10-26T08:45:02Z</time>
      </trkpt>
      <trkpt lat="44.1983" lon="5.03491">
        <ele>367</ele>
        <time>2019-10-26T08:45:03Z</time>
      </trkpt>
      <trkpt lat="44.19831" lon="5.03488">
        <ele>367</ele>
        <time>2019-10-26T08:45:04Z</time>
      </trkpt>
      <trkpt lat="44.19831" lon="5.03485">
        <ele>366</ele>
        <time>2019-10-26T08:45:05Z</time>
      </trkpt>
      <trkpt lat="44.1983" lon="5.03482">
        <ele>365</ele>
        <time>2019-10-26T08:45:06Z</time>
      </trkpt>
      <trkpt lat="44.19827" lon="5.03477">
        <ele>363</ele>
        <time>2019-10-26T08:45:08Z</time>
      </trkpt>
      <trkpt lat="44.19825" lon="5.03476">
        <ele>363</ele>
        <time>2019-10-26T08:45:09Z</time>
      </trkpt>
      <trkpt lat="44.19823" lon="5.03476">
        <ele>363</ele>
        <time>2019-10-26T08:45:10Z</time>
      </trkpt>
      <trkpt lat="44.19821" lon="5.03475">
        <ele>362</ele>
        <time>2019-10-26T08:45:11Z</time>
      </trkpt>
      <trkpt lat="44.19819" lon="5.03474">
        <ele>361</ele>
        <time>2019-10-26T08:45:12Z</time>
      </trkpt>
      <trkpt lat="44.19804" lon="5.03454">
        <ele>355</ele>
        <time>2019-10-26T08:45:20Z</time>
      </trkpt>
      <trkpt lat="44.19793" lon="5.03435">
        <ele>353</ele>
        <time>2019-10-26T08:45:27Z</time>
      </trkpt>
      <trkpt lat="44.19784" lon="5.03412">
        <ele>350</ele>
        <time>2019-10-26T08:45:35Z</time>
      </trkpt>
      <trkpt lat="44.19776" lon="5.0339">
        <ele>348</ele>
        <time>2019-10-26T08:45:43Z</time>
      </trkpt>
      <trkpt lat="44.19774" lon="5.03379">
        <ele>346</ele>
        <time>2019-10-26T08:45:46Z</time>
      </trkpt>
      <trkpt lat="44.19776" lon="5.03377">
        <ele>345</ele>
        <time>2019-10-26T08:45:47Z</time>
      </trkpt>
      <trkpt lat="44.19779" lon="5.03374">
        <ele>344</ele>
        <time>2019-10-26T08:45:49Z</time>
      </trkpt>
      <trkpt lat="44.19781" lon="5.03374">
        <ele>343</ele>
        <time>2019-10-26T08:45:50Z</time>
      </trkpt>
      <trkpt lat="44.19782" lon="5.03375">
        <ele>343</ele>
        <time>2019-10-26T08:45:51Z</time>
      </trkpt>
      <trkpt lat="44.19783" lon="5.03376">
        <ele>343</ele>
        <time>2019-10-26T08:45:52Z</time>
      </trkpt>
      <trkpt lat="44.19785" lon="5.03377">
        <ele>343</ele>
        <time>2019-10-26T08:45:53Z</time>
      </trkpt>
      <trkpt lat="44.19791" lon="5.03379">
        <ele>341</ele>
        <time>2019-10-26T08:45:57Z</time>
      </trkpt>
      <trkpt lat="44.19802" lon="5.03387">
        <ele>339</ele>
        <time>2019-10-26T08:46:02Z</time>
      </trkpt>
      <trkpt lat="44.1982" lon="5.03393">
        <ele>340</ele>
        <time>2019-10-26T08:46:08Z</time>
      </trkpt>
      <trkpt lat="44.19838" lon="5.03386">
        <ele>341</ele>
        <time>2019-10-26T08:46:15Z</time>
      </trkpt>
      <trkpt lat="44.1984" lon="5.03383">
        <ele>341</ele>
        <time>2019-10-26T08:46:16Z</time>
      </trkpt>
      <trkpt lat="44.1984" lon="5.03379">
        <ele>340</ele>
        <time>2019-10-26T08:46:17Z</time>
      </trkpt>
      <trkpt lat="44.19839" lon="5.03376">
        <ele>338</ele>
        <time>2019-10-26T08:46:18Z</time>
      </trkpt>
      <trkpt lat="44.19838" lon="5.03373">
        <ele>337</ele>
        <time>2019-10-26T08:46:19Z</time>
      </trkpt>
      <trkpt lat="44.19835" lon="5.03371">
        <ele>336</ele>
        <time>2019-10-26T08:46:20Z</time>
      </trkpt>
      <trkpt lat="44.19833" lon="5.03371">
        <ele>335</ele>
        <time>2019-10-26T08:46:21Z</time>
      </trkpt>
      <trkpt lat="44.19831" lon="5.03369">
        <ele>334</ele>
        <time>2019-10-26T08:46:22Z</time>
      </trkpt>
      <trkpt lat="44.19829" lon="5.03368">
        <ele>334</ele>
        <time>2019-10-26T08:46:23Z</time>
      </trkpt>
      <trkpt lat="44.19827" lon="5.03366">
        <ele>334</ele>
        <time>2019-10-26T08:46:24Z</time>
      </trkpt>
      <trkpt lat="44.19826" lon="5.03364">
        <ele>333</ele>
        <time>2019-10-26T08:46:25Z</time>
      </trkpt>
      <trkpt lat="44.19824" lon="5.03363">
        <ele>333</ele>
        <time>2019-10-26T08:46:26Z</time>
      </trkpt>
      <trkpt lat="44.19826" lon="5.0336">
        <ele>332</ele>
        <time>2019-10-26T08:46:29Z</time>
      </trkpt>
      <trkpt lat="44.19828" lon="5.03358">
        <ele>332</ele>
        <time>2019-10-26T08:46:30Z</time>
      </trkpt>
      <trkpt lat="44.19829" lon="5.03356">
        <ele>331</ele>
        <time>2019-10-26T08:46:31Z</time>
      </trkpt>
      <trkpt lat="44.19831" lon="5.03354">
        <ele>330</ele>
        <time>2019-10-26T08:46:32Z</time>
      </trkpt>
      <trkpt lat="44.19832" lon="5.03352">
        <ele>330</ele>
        <time>2019-10-26T08:46:33Z</time>
      </trkpt>
      <trkpt lat="44.19835" lon="5.03347">
        <ele>329</ele>
        <time>2019-10-26T08:46:38Z</time>
      </trkpt>
      <trkpt lat="44.19835" lon="5.03344">
        <ele>329</ele>
        <time>2019-10-26T08:46:40Z</time>
      </trkpt>
      <trkpt lat="44.19836" lon="5.03343">
        <ele>329</ele>
        <time>2019-10-26T08:46:41Z</time>
      </trkpt>
      <trkpt lat="44.19837" lon="5.03341">
        <ele>329</ele>
        <time>2019-10-26T08:46:42Z</time>
      </trkpt>
      <trkpt lat="44.19844" lon="5.03335">
        <ele>329</ele>
        <time>2019-10-26T08:46:50Z</time>
      </trkpt>
      <trkpt lat="44.19847" lon="5.03331">
        <ele>329</ele>
        <time>2019-10-26T08:46:53Z</time>
      </trkpt>
      <trkpt lat="44.19848" lon="5.0333">
        <ele>329</ele>
        <time>2019-10-26T08:46:54Z</time>
      </trkpt>
      <trkpt lat="44.19849" lon="5.03328">
        <ele>329</ele>
        <time>2019-10-26T08:46:55Z</time>
      </trkpt>
      <trkpt lat="44.1985" lon="5.03326">
        <ele>329</ele>
        <time>2019-10-26T08:46:56Z</time>
      </trkpt>
      <trkpt lat="44.19853" lon="5.03322">
        <ele>329</ele>
        <time>2019-10-26T08:46:59Z</time>
      </trkpt>
      <trkpt lat="44.19864" lon="5.03312">
        <ele>329</ele>
        <time>2019-10-26T08:47:05Z</time>
      </trkpt>
      <trkpt lat="44.19871" lon="5.03308">
        <ele>331</ele>
        <time>2019-10-26T08:47:12Z</time>
      </trkpt>
      <trkpt lat="44.19877" lon="5.033">
        <ele>331</ele>
        <time>2019-10-26T08:47:19Z</time>
      </trkpt>
      <trkpt lat="44.1988" lon="5.03293">
        <ele>329</ele>
        <time>2019-10-26T08:47:25Z</time>
      </trkpt>
      <trkpt lat="44.19881" lon="5.03291">
        <ele>329</ele>
        <time>2019-10-26T08:47:26Z</time>
      </trkpt>
      <trkpt lat="44.19893" lon="5.03273">
        <ele>326</ele>
        <time>2019-10-26T08:47:34Z</time>
      </trkpt>
      <trkpt lat="44.199" lon="5.03266">
        <ele>323</ele>
        <time>2019-10-26T08:47:39Z</time>
      </trkpt>
      <trkpt lat="44.19902" lon="5.03262">
        <ele>321</ele>
        <time>2019-10-26T08:47:41Z</time>
      </trkpt>
      <trkpt lat="44.19914" lon="5.0325">
        <ele>316</ele>
        <time>2019-10-26T08:47:50Z</time>
      </trkpt>
      <trkpt lat="44.19922" lon="5.03244">
        <ele>313</ele>
        <time>2019-10-26T08:47:58Z</time>
      </trkpt>
      <trkpt lat="44.19933" lon="5.03236">
        <ele>310</ele>
        <time>2019-10-26T08:48:07Z</time>
      </trkpt>
      <trkpt lat="44.19946" lon="5.03217">
        <ele>301</ele>
        <time>2019-10-26T08:48:16Z</time>
      </trkpt>
      <trkpt lat="44.1995" lon="5.03212">
        <ele>300</ele>
        <time>2019-10-26T08:48:19Z</time>
      </trkpt>
      <trkpt lat="44.19959" lon="5.03195">
        <ele>295</ele>
        <time>2019-10-26T08:48:28Z</time>
      </trkpt>
      <trkpt lat="44.19962" lon="5.03191">
        <ele>295</ele>
        <time>2019-10-26T08:48:33Z</time>
      </trkpt>
      <trkpt lat="44.19965" lon="5.03191">
        <ele>295</ele>
        <time>2019-10-26T08:48:36Z</time>
      </trkpt>
      <trkpt lat="44.1997" lon="5.03194">
        <ele>296</ele>
        <time>2019-10-26T08:48:49Z</time>
      </trkpt>
      <trkpt lat="44.19973" lon="5.03182">
        <ele>293</ele>
        <time>2019-10-26T08:49:07Z</time>
      </trkpt>
      <trkpt lat="44.19975" lon="5.03181">
        <ele>293</ele>
        <time>2019-10-26T08:49:25Z</time>
      </trkpt>
      <trkpt lat="44.19981" lon="5.03177">
        <ele>292</ele>
        <time>2019-10-26T08:49:38Z</time>
      </trkpt>
      <trkpt lat="44.19985" lon="5.03166">
        <ele>288</ele>
        <time>2019-10-26T08:49:48Z</time>
      </trkpt>
      <trkpt lat="44.19993" lon="5.03163">
        <ele>287</ele>
        <time>2019-10-26T08:49:59Z</time>
      </trkpt>
      <trkpt lat="44.20003" lon="5.03151">
        <ele>284</ele>
        <time>2019-10-26T08:50:07Z</time>
      </trkpt>
      <trkpt lat="44.20006" lon="5.03148">
        <ele>283</ele>
        <time>2019-10-26T08:50:09Z</time>
      </trkpt>
      <trkpt lat="44.2002" lon="5.0314">
        <ele>281</ele>
        <time>2019-10-26T08:50:19Z</time>
      </trkpt>
      <trkpt lat="44.20025" lon="5.03138">
        <ele>281</ele>
        <time>2019-10-26T08:50:22Z</time>
      </trkpt>
      <trkpt lat="44.2004" lon="5.03126">
        <ele>279</ele>
        <time>2019-10-26T08:50:30Z</time>
      </trkpt>
      <trkpt lat="44.20042" lon="5.03124">
        <ele>278</ele>
        <time>2019-10-26T08:50:31Z</time>
      </trkpt>
      <trkpt lat="44.20044" lon="5.03122">
        <ele>278</ele>
        <time>2019-10-26T08:50:32Z</time>
      </trkpt>
      <trkpt lat="44.2005" lon="5.03117">
        <ele>277</ele>
        <time>2019-10-26T08:50:36Z</time>
      </trkpt>
      <trkpt lat="44.20052" lon="5.03115">
        <ele>277</ele>
        <time>2019-10-26T08:50:37Z</time>
      </trkpt>
      <trkpt lat="44.20058" lon="5.03108">
        <ele>276</ele>
        <time>2019-10-26T08:50:41Z</time>
      </trkpt>
      <trkpt lat="44.2006" lon="5.03107">
        <ele>275</ele>
        <time>2019-10-26T08:50:42Z</time>
      </trkpt>
      <trkpt lat="44.20062" lon="5.03105">
        <ele>275</ele>
        <time>2019-10-26T08:50:43Z</time>
      </trkpt>
      <trkpt lat="44.20065" lon="5.03102">
        <ele>275</ele>
        <time>2019-10-26T08:50:44Z</time>
      </trkpt>
      <trkpt lat="44.20067" lon="5.03101">
        <ele>275</ele>
        <time>2019-10-26T08:50:45Z</time>
      </trkpt>
      <trkpt lat="44.2007" lon="5.031">
        <ele>274</ele>
        <time>2019-10-26T08:50:46Z</time>
      </trkpt>
      <trkpt lat="44.20073" lon="5.03098">
        <ele>274</ele>
        <time>2019-10-26T08:50:47Z</time>
      </trkpt>
      <trkpt lat="44.20075" lon="5.03096">
        <ele>274</ele>
        <time>2019-10-26T08:50:48Z</time>
      </trkpt>
      <trkpt lat="44.20077" lon="5.03095">
        <ele>274</ele>
        <time>2019-10-26T08:50:49Z</time>
      </trkpt>
      <trkpt lat="44.20079" lon="5.03093">
        <ele>274</ele>
        <time>2019-10-26T08:50:50Z</time>
      </trkpt>
      <trkpt lat="44.20082" lon="5.0309">
        <ele>273</ele>
        <time>2019-10-26T08:50:51Z</time>
      </trkpt>
      <trkpt lat="44.20084" lon="5.03086">
        <ele>273</ele>
        <time>2019-10-26T08:50:52Z</time>
      </trkpt>
      <trkpt lat="44.20087" lon="5.03083">
        <ele>272</ele>
        <time>2019-10-26T08:50:53Z</time>
      </trkpt>
      <trkpt lat="44.20089" lon="5.0308">
        <ele>271</ele>
        <time>2019-10-26T08:50:54Z</time>
      </trkpt>
      <trkpt lat="44.20092" lon="5.03077">
        <ele>271</ele>
        <time>2019-10-26T08:50:55Z</time>
      </trkpt>
      <trkpt lat="44.20094" lon="5.03075">
        <ele>271</ele>
        <time>2019-10-26T08:50:56Z</time>
      </trkpt>
      <trkpt lat="44.20096" lon="5.03074">
        <ele>270</ele>
        <time>2019-10-26T08:50:57Z</time>
      </trkpt>
      <trkpt lat="44.20113" lon="5.03065">
        <ele>269</ele>
        <time>2019-10-26T08:51:05Z</time>
      </trkpt>
      <trkpt lat="44.20116" lon="5.03063">
        <ele>269</ele>
        <time>2019-10-26T08:51:06Z</time>
      </trkpt>
      <trkpt lat="44.20118" lon="5.03061">
        <ele>269</ele>
        <time>2019-10-26T08:51:07Z</time>
      </trkpt>
      <trkpt lat="44.2012" lon="5.0306">
        <ele>268</ele>
        <time>2019-10-26T08:51:08Z</time>
      </trkpt>
      <trkpt lat="44.20122" lon="5.03058">
        <ele>268</ele>
        <time>2019-10-26T08:51:09Z</time>
      </trkpt>
      <trkpt lat="44.20125" lon="5.03056">
        <ele>268</ele>
        <time>2019-10-26T08:51:10Z</time>
      </trkpt>
      <trkpt lat="44.20133" lon="5.03049">
        <ele>267</ele>
        <time>2019-10-26T08:51:14Z</time>
      </trkpt>
      <trkpt lat="44.20135" lon="5.03048">
        <ele>266</ele>
        <time>2019-10-26T08:51:15Z</time>
      </trkpt>
      <trkpt lat="44.20158" lon="5.03033">
        <ele>265</ele>
        <time>2019-10-26T08:51:24Z</time>
      </trkpt>
      <trkpt lat="44.20161" lon="5.03027">
        <ele>264</ele>
        <time>2019-10-26T08:51:26Z</time>
      </trkpt>
      <trkpt lat="44.20163" lon="5.03023">
        <ele>263</ele>
        <time>2019-10-26T08:51:27Z</time>
      </trkpt>
      <trkpt lat="44.20165" lon="5.0302">
        <ele>262</ele>
        <time>2019-10-26T08:51:28Z</time>
      </trkpt>
      <trkpt lat="44.20167" lon="5.03017">
        <ele>262</ele>
        <time>2019-10-26T08:51:29Z</time>
      </trkpt>
      <trkpt lat="44.20169" lon="5.03014">
        <ele>261</ele>
        <time>2019-10-26T08:51:30Z</time>
      </trkpt>
      <trkpt lat="44.20171" lon="5.03011">
        <ele>261</ele>
        <time>2019-10-26T08:51:31Z</time>
      </trkpt>
      <trkpt lat="44.20172" lon="5.03007">
        <ele>260</ele>
        <time>2019-10-26T08:51:32Z</time>
      </trkpt>
      <trkpt lat="44.20173" lon="5.03003">
        <ele>259</ele>
        <time>2019-10-26T08:51:33Z</time>
      </trkpt>
      <trkpt lat="44.20175" lon="5.02999">
        <ele>258</ele>
        <time>2019-10-26T08:51:34Z</time>
      </trkpt>
      <trkpt lat="44.20183" lon="5.02981">
        <ele>254</ele>
        <time>2019-10-26T08:51:39Z</time>
      </trkpt>
      <trkpt lat="44.20185" lon="5.02977">
        <ele>253</ele>
        <time>2019-10-26T08:51:40Z</time>
      </trkpt>
      <trkpt lat="44.20186" lon="5.02974">
        <ele>252</ele>
        <time>2019-10-26T08:51:41Z</time>
      </trkpt>
      <trkpt lat="44.20188" lon="5.0297">
        <ele>252</ele>
        <time>2019-10-26T08:51:42Z</time>
      </trkpt>
      <trkpt lat="44.2019" lon="5.02967">
        <ele>251</ele>
        <time>2019-10-26T08:51:43Z</time>
      </trkpt>
      <trkpt lat="44.20191" lon="5.02964">
        <ele>251</ele>
        <time>2019-10-26T08:51:44Z</time>
      </trkpt>
      <trkpt lat="44.20203" lon="5.02942">
        <ele>247</ele>
        <time>2019-10-26T08:51:50Z</time>
      </trkpt>
      <trkpt lat="44.20205" lon="5.0294">
        <ele>247</ele>
        <time>2019-10-26T08:51:51Z</time>
      </trkpt>
      <trkpt lat="44.20208" lon="5.02936">
        <ele>246</ele>
        <time>2019-10-26T08:51:52Z</time>
      </trkpt>
      <trkpt lat="44.2021" lon="5.02933">
        <ele>246</ele>
        <time>2019-10-26T08:51:53Z</time>
      </trkpt>
      <trkpt lat="44.20212" lon="5.02929">
        <ele>245</ele>
        <time>2019-10-26T08:51:54Z</time>
      </trkpt>
      <trkpt lat="44.20215" lon="5.02927">
        <ele>245</ele>
        <time>2019-10-26T08:51:55Z</time>
      </trkpt>
      <trkpt lat="44.20217" lon="5.02924">
        <ele>245</ele>
        <time>2019-10-26T08:51:56Z</time>
      </trkpt>
      <trkpt lat="44.20221" lon="5.02922">
        <ele>245</ele>
        <time>2019-10-26T08:51:57Z</time>
      </trkpt>
      <trkpt lat="44.20223" lon="5.0292">
        <ele>245</ele>
        <time>2019-10-26T08:51:58Z</time>
      </trkpt>
      <trkpt lat="44.20226" lon="5.02918">
        <ele>244</ele>
        <time>2019-10-26T08:51:59Z</time>
      </trkpt>
      <trkpt lat="44.20229" lon="5.02916">
        <ele>244</ele>
        <time>2019-10-26T08:52:00Z</time>
      </trkpt>
      <trkpt lat="44.20246" lon="5.029">
        <ele>243</ele>
        <time>2019-10-26T08:52:07Z</time>
      </trkpt>
      <trkpt lat="44.20262" lon="5.02884">
        <ele>241</ele>
        <time>2019-10-26T08:52:14Z</time>
      </trkpt>
      <trkpt lat="44.20263" lon="5.02882">
        <ele>241</ele>
        <time>2019-10-26T08:52:15Z</time>
      </trkpt>
      <trkpt lat="44.20279" lon="5.0286">
        <ele>239</ele>
        <time>2019-10-26T08:52:24Z</time>
      </trkpt>
      <trkpt lat="44.20294" lon="5.02839">
        <ele>235</ele>
        <time>2019-10-26T08:52:32Z</time>
      </trkpt>
      <trkpt lat="44.20311" lon="5.02817">
        <ele>233</ele>
        <time>2019-10-26T08:52:41Z</time>
      </trkpt>
      <trkpt lat="44.20329" lon="5.02801">
        <ele>231</ele>
        <time>2019-10-26T08:52:49Z</time>
      </trkpt>
      <trkpt lat="44.20346" lon="5.02767">
        <ele>230</ele>
        <time>2019-10-26T08:52:59Z</time>
      </trkpt>
      <trkpt lat="44.20353" lon="5.02737">
        <ele>229</ele>
        <time>2019-10-26T08:53:06Z</time>
      </trkpt>
      <trkpt lat="44.20364" lon="5.02709">
        <ele>228</ele>
        <time>2019-10-26T08:53:14Z</time>
      </trkpt>
      <trkpt lat="44.20379" lon="5.02672">
        <ele>230</ele>
        <time>2019-10-26T08:53:24Z</time>
      </trkpt>
      <trkpt lat="44.2039" lon="5.02643">
        <ele>234</ele>
        <time>2019-10-26T08:53:33Z</time>
      </trkpt>
      <trkpt lat="44.20394" lon="5.02613">
        <ele>235</ele>
        <time>2019-10-26T08:53:42Z</time>
      </trkpt>
      <trkpt lat="44.20395" lon="5.02592">
        <ele>235</ele>
        <time>2019-10-26T08:53:48Z</time>
      </trkpt>
      <trkpt lat="44.2039" lon="5.02561">
        <ele>232</ele>
        <time>2019-10-26T08:53:57Z</time>
      </trkpt>
      <trkpt lat="44.20384" lon="5.02528">
        <ele>232</ele>
        <time>2019-10-26T08:54:07Z</time>
      </trkpt>
      <trkpt lat="44.20378" lon="5.02492">
        <ele>235</ele>
        <time>2019-10-26T08:54:17Z</time>
      </trkpt>
      <trkpt lat="44.20388" lon="5.02459">
        <ele>241</ele>
        <time>2019-10-26T08:54:28Z</time>
      </trkpt>
      <trkpt lat="44.20391" lon="5.02425">
        <ele>239</ele>
        <time>2019-10-26T08:54:38Z</time>
      </trkpt>
      <trkpt lat="44.20392" lon="5.02396">
        <ele>237</ele>
        <time>2019-10-26T08:54:46Z</time>
      </trkpt>
      <trkpt lat="44.20403" lon="5.02359">
        <ele>237</ele>
        <time>2019-10-26T08:54:57Z</time>
      </trkpt>
      <trkpt lat="44.20414" lon="5.02326">
        <ele>237</ele>
        <time>2019-10-26T08:55:08Z</time>
      </trkpt>
      <trkpt lat="44.20428" lon="5.02314">
        <ele>239</ele>
        <time>2019-10-26T08:55:17Z</time>
      </trkpt>
      <trkpt lat="44.20444" lon="5.02306">
        <ele>241</ele>
        <time>2019-10-26T08:55:28Z</time>
      </trkpt>
      <trkpt lat="44.20456" lon="5.02304">
        <ele>242</ele>
        <time>2019-10-26T08:55:36Z</time>
      </trkpt>
      <trkpt lat="44.20457" lon="5.02305">
        <ele>242</ele>
        <time>2019-10-26T08:55:37Z</time>
      </trkpt>
      <trkpt lat="44.20461" lon="5.02306">
        <ele>243</ele>
        <time>2019-10-26T08:55:39Z</time>
      </trkpt>
      <trkpt lat="44.20463" lon="5.02307">
        <ele>243</ele>
        <time>2019-10-26T08:55:41Z</time>
      </trkpt>
      <trkpt lat="44.20468" lon="5.02308">
        <ele>244</ele>
        <time>2019-10-26T08:55:45Z</time>
      </trkpt>
      <trkpt lat="44.2047" lon="5.02308">
        <ele>244</ele>
        <time>2019-10-26T08:55:46Z</time>
      </trkpt>
      <trkpt lat="44.20483" lon="5.02308">
        <ele>246</ele>
        <time>2019-10-26T08:55:54Z</time>
      </trkpt>
      <trkpt lat="44.20485" lon="5.02307">
        <ele>246</ele>
        <time>2019-10-26T08:55:55Z</time>
      </trkpt>
      <trkpt lat="44.20507" lon="5.02297">
        <ele>243</ele>
        <time>2019-10-26T08:56:07Z</time>
      </trkpt>
      <trkpt lat="44.20527" lon="5.02294">
        <ele>243</ele>
        <time>2019-10-26T08:56:16Z</time>
      </trkpt>
      <trkpt lat="44.20549" lon="5.02293">
        <ele>244</ele>
        <time>2019-10-26T08:56:26Z</time>
      </trkpt>
      <trkpt lat="44.20572" lon="5.02291">
        <ele>246</ele>
        <time>2019-10-26T08:56:36Z</time>
      </trkpt>
      <trkpt lat="44.20596" lon="5.02286">
        <ele>248</ele>
        <time>2019-10-26T08:56:45Z</time>
      </trkpt>
      <trkpt lat="44.20606" lon="5.02283">
        <ele>248</ele>
        <time>2019-10-26T08:56:49Z</time>
      </trkpt>
      <trkpt lat="44.20631" lon="5.02275">
        <ele>246</ele>
        <time>2019-10-26T08:56:58Z</time>
      </trkpt>
      <trkpt lat="44.20653" lon="5.02274">
        <ele>242</ele>
        <time>2019-10-26T08:57:06Z</time>
      </trkpt>
      <trkpt lat="44.20668" lon="5.02283">
        <ele>243</ele>
        <time>2019-10-26T08:57:14Z</time>
      </trkpt>
      <trkpt lat="44.20699" lon="5.02314">
        <ele>240</ele>
        <time>2019-10-26T08:57:28Z</time>
      </trkpt>
      <trkpt lat="44.20719" lon="5.02333">
        <ele>237</ele>
        <time>2019-10-26T08:57:37Z</time>
      </trkpt>
      <trkpt lat="44.2074" lon="5.02352">
        <ele>234</ele>
        <time>2019-10-26T08:57:46Z</time>
      </trkpt>
      <trkpt lat="44.20756" lon="5.02375">
        <ele>233</ele>
        <time>2019-10-26T08:57:55Z</time>
      </trkpt>
      <trkpt lat="44.20771" lon="5.02403">
        <ele>234</ele>
        <time>2019-10-26T08:58:04Z</time>
      </trkpt>
      <trkpt lat="44.20782" lon="5.02423">
        <ele>235</ele>
        <time>2019-10-26T08:58:11Z</time>
      </trkpt>
      <trkpt lat="44.20788" lon="5.02427">
        <ele>238</ele>
        <time>2019-10-26T08:58:14Z</time>
      </trkpt>
      <trkpt lat="44.20799" lon="5.0243">
        <ele>240</ele>
        <time>2019-10-26T08:58:23Z</time>
      </trkpt>
      <trkpt lat="44.208" lon="5.0243">
        <ele>240</ele>
        <time>2019-10-26T08:58:36Z</time>
      </trkpt>
      <trkpt lat="44.20805" lon="5.0243">
        <ele>241</ele>
        <time>2019-10-26T08:58:52Z</time>
      </trkpt>
    </trkseg>
  </trk>
</gpx>